<?xml version='1.0' encoding='UTF-8'?><gpx version="1.1" creator="JPX - https://github.com/jenetics/jpx" xmlns="http://www.topografix.com/GPX/1/1"><trk><trkseg><trkpt lat="43.5594281" lon="11.8789192"><ele>495.0</ele><time>2026-04-18T07:15:12.076Z</time></trkpt><trkpt lat="43.559361" lon="11.879156"><ele>495.0</ele><time>2026-04-18T07:15:16.076Z</time></trkpt><trkpt lat="43.5593038" lon="11.8792136"><ele>495.0</ele><time>2026-04-18T07:15:18.077Z</time></trkpt><trkpt lat="43.559234" lon="11.8792293"><ele>495.0</ele><time>2026-04-18T07:15:22.077Z</time></trkpt><trkpt lat="43.5591709" lon="11.879251"><ele>495.0</ele><time>2026-04-18T07:15:36.076Z</time></trkpt><trkpt lat="43.5591467" lon="11.8793383"><ele>494.8333333333333</ele><time>2026-04-18T07:16:13.077Z</time></trkpt><trkpt lat="43.5592471" lon="11.8794435"><ele>494.66666666666663</ele><time>2026-04-18T07:16:15.076Z</time></trkpt><trkpt lat="43.5592985" lon="11.8795073"><ele>494.5</ele><time>2026-04-18T07:16:16.076Z</time></trkpt><trkpt lat="43.5593674" lon="11.8795464"><ele>494.3333333333333</ele><time>2026-04-18T07:16:17.076Z</time></trkpt><trkpt lat="43.5594219" lon="11.8796052"><ele>494.16666666666663</ele><time>2026-04-18T07:16:18.076Z</time></trkpt><trkpt lat="43.5594809" lon="11.879668"><ele>494.0</ele><time>2026-04-18T07:16:19.077Z</time></trkpt><trkpt lat="43.559555" lon="11.8797247"><ele>493.99999999999994</ele><time>2026-04-18T07:16:20.077Z</time></trkpt><trkpt lat="43.5596281" lon="11.8797877"><ele>494.0</ele><time>2026-04-18T07:16:21.077Z</time></trkpt><trkpt lat="43.5597013" lon="11.8798412"><ele>494.0</ele><time>2026-04-18T07:16:22.076Z</time></trkpt><trkpt lat="43.5597747" lon="11.8798915"><ele>494.0</ele><time>2026-04-18T07:16:23.077Z</time></trkpt><trkpt lat="43.5598492" lon="11.8799376"><ele>493.99999999999994</ele><time>2026-04-18T07:16:24.077Z</time></trkpt><trkpt lat="43.5599208" lon="11.8799836"><ele>494.0</ele><time>2026-04-18T07:16:25.076Z</time></trkpt><trkpt lat="43.5599967" lon="11.8800354"><ele>493.66666666666663</ele><time>2026-04-18T07:16:26.077Z</time></trkpt><trkpt lat="43.5600801" lon="11.8801222"><ele>493.3333333333333</ele><time>2026-04-18T07:16:27.077Z</time></trkpt><trkpt lat="43.560155" lon="11.880168"><ele>493.0</ele><time>2026-04-18T07:16:28.076Z</time></trkpt><trkpt lat="43.5602242" lon="11.8802206"><ele>492.66666666666663</ele><time>2026-04-18T07:16:29.076Z</time></trkpt><trkpt lat="43.5602833" lon="11.8803091"><ele>492.3333333333333</ele><time>2026-04-18T07:16:30.076Z</time></trkpt><trkpt lat="43.5603331" lon="11.8803644"><ele>492.0</ele><time>2026-04-18T07:16:31.076Z</time></trkpt><trkpt lat="43.5603801" lon="11.8804577"><ele>491.75</ele><time>2026-04-18T07:16:32.077Z</time></trkpt><trkpt lat="43.5604226" lon="11.8806222"><ele>491.5</ele><time>2026-04-18T07:16:33.077Z</time></trkpt><trkpt lat="43.5604627" lon="11.8807669"><ele>491.25</ele><time>2026-04-18T07:16:34.076Z</time></trkpt><trkpt lat="43.5604972" lon="11.8809531"><ele>491.0</ele><time>2026-04-18T07:16:35.077Z</time></trkpt><trkpt lat="43.5605237" lon="11.8811288"><ele>490.4</ele><time>2026-04-18T07:16:36.076Z</time></trkpt><trkpt lat="43.5605626" lon="11.881238"><ele>489.8</ele><time>2026-04-18T07:16:37.076Z</time></trkpt><trkpt lat="43.5605987" lon="11.881365"><ele>489.19999999999993</ele><time>2026-04-18T07:16:38.077Z</time></trkpt><trkpt lat="43.5606338" lon="11.8814705"><ele>488.59999999999997</ele><time>2026-04-18T07:16:39.076Z</time></trkpt><trkpt lat="43.560683" lon="11.8815798"><ele>488.0</ele><time>2026-04-18T07:16:40.077Z</time></trkpt><trkpt lat="43.5608045" lon="11.8816826"><ele>483.66666666666663</ele><time>2026-04-18T07:16:41.076Z</time></trkpt><trkpt lat="43.5608961" lon="11.8817911"><ele>479.33333333333337</ele><time>2026-04-18T07:16:42.077Z</time></trkpt><trkpt lat="43.561055" lon="11.8819717"><ele>475.0</ele><time>2026-04-18T07:16:43.077Z</time></trkpt><trkpt lat="43.561182" lon="11.8820676"><ele>477.33333333333337</ele><time>2026-04-18T07:16:44.076Z</time></trkpt><trkpt lat="43.5613257" lon="11.8821795"><ele>479.66666666666663</ele><time>2026-04-18T07:16:45.076Z</time></trkpt><trkpt lat="43.561457" lon="11.8822849"><ele>482.0</ele><time>2026-04-18T07:16:46.076Z</time></trkpt><trkpt lat="43.5615798" lon="11.8823743"><ele>482.0</ele><time>2026-04-18T07:16:47.076Z</time></trkpt><trkpt lat="43.561721" lon="11.8824316"><ele>482.0</ele><time>2026-04-18T07:16:48.076Z</time></trkpt><trkpt lat="43.5618882" lon="11.8824793"><ele>482.0</ele><time>2026-04-18T07:16:49.077Z</time></trkpt><trkpt lat="43.5620381" lon="11.8825468"><ele>483.0</ele><time>2026-04-18T07:16:50.076Z</time></trkpt><trkpt lat="43.5621846" lon="11.8826212"><ele>484.0</ele><time>2026-04-18T07:16:51.076Z</time></trkpt><trkpt lat="43.5623364" lon="11.8827322"><ele>485.0</ele><time>2026-04-18T07:16:52.077Z</time></trkpt><trkpt lat="43.5625152" lon="11.8828368"><ele>485.0</ele><time>2026-04-18T07:16:53.076Z</time></trkpt><trkpt lat="43.5626825" lon="11.8829537"><ele>485.0</ele><time>2026-04-18T07:16:54.077Z</time></trkpt><trkpt lat="43.5628294" lon="11.8830419"><ele>485.0</ele><time>2026-04-18T07:16:55.076Z</time></trkpt><trkpt lat="43.5629779" lon="11.8831202"><ele>485.5</ele><time>2026-04-18T07:16:56.077Z</time></trkpt><trkpt lat="43.5630584" lon="11.8832065"><ele>486.0</ele><time>2026-04-18T07:16:57.076Z</time></trkpt><trkpt lat="43.5631705" lon="11.8832949"><ele>486.5</ele><time>2026-04-18T07:16:58.076Z</time></trkpt><trkpt lat="43.5632913" lon="11.8833163"><ele>487.0</ele><time>2026-04-18T07:16:59.077Z</time></trkpt><trkpt lat="43.5634018" lon="11.8833536"><ele>487.0</ele><time>2026-04-18T07:17:00.077Z</time></trkpt><trkpt lat="43.5635462" lon="11.88334"><ele>487.0</ele><time>2026-04-18T07:17:01.076Z</time></trkpt><trkpt lat="43.5636717" lon="11.8833639"><ele>487.0</ele><time>2026-04-18T07:17:02.077Z</time></trkpt><trkpt lat="43.5637773" lon="11.8833945"><ele>487.0</ele><time>2026-04-18T07:17:03.077Z</time></trkpt><trkpt lat="43.5638811" lon="11.8834275"><ele>486.83333333333337</ele><time>2026-04-18T07:17:04.077Z</time></trkpt><trkpt lat="43.5639677" lon="11.8834712"><ele>486.6666666666667</ele><time>2026-04-18T07:17:05.076Z</time></trkpt><trkpt lat="43.5640539" lon="11.8835245"><ele>486.5</ele><time>2026-04-18T07:17:06.077Z</time></trkpt><trkpt lat="43.5641128" lon="11.8835842"><ele>486.33333333333337</ele><time>2026-04-18T07:17:07.077Z</time></trkpt><trkpt lat="43.5641937" lon="11.8836451"><ele>486.1666666666667</ele><time>2026-04-18T07:17:08.077Z</time></trkpt><trkpt lat="43.5642558" lon="11.8837219"><ele>486.0</ele><time>2026-04-18T07:17:09.076Z</time></trkpt><trkpt lat="43.5643288" lon="11.8838124"><ele>486.0</ele><time>2026-04-18T07:17:10.076Z</time></trkpt><trkpt lat="43.5643948" lon="11.8838878"><ele>486.0</ele><time>2026-04-18T07:17:11.076Z</time></trkpt><trkpt lat="43.5644669" lon="11.8839731"><ele>486.0</ele><time>2026-04-18T07:17:12.077Z</time></trkpt><trkpt lat="43.5645338" lon="11.8840401"><ele>486.0</ele><time>2026-04-18T07:17:13.077Z</time></trkpt><trkpt lat="43.5646145" lon="11.8841038"><ele>486.0</ele><time>2026-04-18T07:17:14.076Z</time></trkpt><trkpt lat="43.5646887" lon="11.8841678"><ele>486.0</ele><time>2026-04-18T07:17:15.077Z</time></trkpt><trkpt lat="43.5647493" lon="11.8842158"><ele>487.8333333333333</ele><time>2026-04-18T07:17:16.076Z</time></trkpt><trkpt lat="43.564801" lon="11.8842672"><ele>489.66666666666663</ele><time>2026-04-18T07:17:17.076Z</time></trkpt><trkpt lat="43.5648491" lon="11.884337"><ele>491.5</ele><time>2026-04-18T07:17:18.077Z</time></trkpt><trkpt lat="43.5648932" lon="11.8844285"><ele>493.3333333333333</ele><time>2026-04-18T07:17:19.077Z</time></trkpt><trkpt lat="43.564935" lon="11.884528"><ele>495.16666666666663</ele><time>2026-04-18T07:17:20.076Z</time></trkpt><trkpt lat="43.5649708" lon="11.8846333"><ele>497.0</ele><time>2026-04-18T07:17:21.076Z</time></trkpt><trkpt lat="43.5650044" lon="11.884728"><ele>497.0</ele><time>2026-04-18T07:17:22.076Z</time></trkpt><trkpt lat="43.5650309" lon="11.8849003"><ele>497.00000000000006</ele><time>2026-04-18T07:17:24.076Z</time></trkpt><trkpt lat="43.5650707" lon="11.88499"><ele>497.00000000000006</ele><time>2026-04-18T07:17:25.077Z</time></trkpt><trkpt lat="43.5651251" lon="11.8851115"><ele>497.0</ele><time>2026-04-18T07:17:26.077Z</time></trkpt><trkpt lat="43.5651649" lon="11.8852352"><ele>497.0</ele><time>2026-04-18T07:17:27.077Z</time></trkpt><trkpt lat="43.565204" lon="11.8853495"><ele>499.20000000000005</ele><time>2026-04-18T07:17:28.076Z</time></trkpt><trkpt lat="43.565238" lon="11.8854417"><ele>501.40000000000003</ele><time>2026-04-18T07:17:29.076Z</time></trkpt><trkpt lat="43.5652779" lon="11.8855386"><ele>503.59999999999997</ele><time>2026-04-18T07:17:30.076Z</time></trkpt><trkpt lat="43.5652888" lon="11.8856534"><ele>505.79999999999995</ele><time>2026-04-18T07:17:31.077Z</time></trkpt><trkpt lat="43.5654077" lon="11.88572"><ele>508.0</ele><time>2026-04-18T07:17:33.077Z</time></trkpt><trkpt lat="43.565524" lon="11.8857516"><ele>509.1666666666667</ele><time>2026-04-18T07:17:35.076Z</time></trkpt><trkpt lat="43.5656642" lon="11.8858077"><ele>510.33333333333337</ele><time>2026-04-18T07:17:37.076Z</time></trkpt><trkpt lat="43.5657295" lon="11.8858356"><ele>511.5</ele><time>2026-04-18T07:17:38.077Z</time></trkpt><trkpt lat="43.5657882" lon="11.8858751"><ele>512.6666666666666</ele><time>2026-04-18T07:17:39.076Z</time></trkpt><trkpt lat="43.5658451" lon="11.885943"><ele>513.8333333333333</ele><time>2026-04-18T07:17:40.077Z</time></trkpt><trkpt lat="43.5658902" lon="11.8860116"><ele>515.0</ele><time>2026-04-18T07:17:41.076Z</time></trkpt><trkpt lat="43.5659555" lon="11.8861445"><ele>515.2857142857143</ele><time>2026-04-18T07:17:43.076Z</time></trkpt><trkpt lat="43.5660061" lon="11.886254"><ele>515.5714285714286</ele><time>2026-04-18T07:17:45.077Z</time></trkpt><trkpt lat="43.5660121" lon="11.8863473"><ele>515.8571428571429</ele><time>2026-04-18T07:17:46.076Z</time></trkpt><trkpt lat="43.5660079" lon="11.8864369"><ele>516.1428571428571</ele><time>2026-04-18T07:17:47.076Z</time></trkpt><trkpt lat="43.5659974" lon="11.8865282"><ele>516.4285714285714</ele><time>2026-04-18T07:17:48.076Z</time></trkpt><trkpt lat="43.5659956" lon="11.8866235"><ele>516.7142857142858</ele><time>2026-04-18T07:17:49.076Z</time></trkpt><trkpt lat="43.5659878" lon="11.8867377"><ele>517.0</ele><time>2026-04-18T07:17:50.077Z</time></trkpt><trkpt lat="43.5659801" lon="11.8868429"><ele>517.0</ele><time>2026-04-18T07:17:51.077Z</time></trkpt><trkpt lat="43.5659874" lon="11.8869707"><ele>517.0</ele><time>2026-04-18T07:17:52.077Z</time></trkpt><trkpt lat="43.5659924" lon="11.8870758"><ele>517.0</ele><time>2026-04-18T07:17:53.076Z</time></trkpt><trkpt lat="43.5660054" lon="11.8871932"><ele>517.0</ele><time>2026-04-18T07:17:54.076Z</time></trkpt><trkpt lat="43.5660239" lon="11.8873034"><ele>517.0</ele><time>2026-04-18T07:17:55.077Z</time></trkpt><trkpt lat="43.5660479" lon="11.8874108"><ele>517.0</ele><time>2026-04-18T07:17:56.076Z</time></trkpt><trkpt lat="43.5660838" lon="11.8875118"><ele>516.3333333333334</ele><time>2026-04-18T07:17:57.076Z</time></trkpt><trkpt lat="43.5661183" lon="11.8876094"><ele>515.6666666666667</ele><time>2026-04-18T07:17:58.076Z</time></trkpt><trkpt lat="43.5661423" lon="11.8877145"><ele>515.0</ele><time>2026-04-18T07:17:59.077Z</time></trkpt><trkpt lat="43.5661613" lon="11.8878169"><ele>514.3333333333334</ele><time>2026-04-18T07:18:00.077Z</time></trkpt><trkpt lat="43.5661741" lon="11.8879143"><ele>513.6666666666666</ele><time>2026-04-18T07:18:01.076Z</time></trkpt><trkpt lat="43.5662058" lon="11.8880245"><ele>513.0</ele><time>2026-04-18T07:18:02.076Z</time></trkpt><trkpt lat="43.5662378" lon="11.8881153"><ele>512.8</ele><time>2026-04-18T07:18:03.076Z</time></trkpt><trkpt lat="43.5662712" lon="11.8881913"><ele>512.5999999999999</ele><time>2026-04-18T07:18:04.076Z</time></trkpt><trkpt lat="43.5663002" lon="11.8883601"><ele>512.4000000000001</ele><time>2026-04-18T07:18:06.076Z</time></trkpt><trkpt lat="43.5663355" lon="11.8884461"><ele>512.2</ele><time>2026-04-18T07:18:07.076Z</time></trkpt><trkpt lat="43.5664223" lon="11.8885648"><ele>512.0</ele><time>2026-04-18T07:18:09.076Z</time></trkpt><trkpt lat="43.5665266" lon="11.8886291"><ele>512.8000000000001</ele><time>2026-04-18T07:18:11.076Z</time></trkpt><trkpt lat="43.5666368" lon="11.8887225"><ele>513.6</ele><time>2026-04-18T07:18:13.076Z</time></trkpt><trkpt lat="43.566734" lon="11.888819"><ele>514.4000000000001</ele><time>2026-04-18T07:18:15.076Z</time></trkpt><trkpt lat="43.5667852" lon="11.8888908"><ele>515.2</ele><time>2026-04-18T07:18:16.076Z</time></trkpt><trkpt lat="43.5668327" lon="11.8889807"><ele>516.0</ele><time>2026-04-18T07:18:17.077Z</time></trkpt><trkpt lat="43.5668913" lon="11.889054"><ele>516.0</ele><time>2026-04-18T07:18:18.076Z</time></trkpt><trkpt lat="43.5669349" lon="11.8891328"><ele>516.0</ele><time>2026-04-18T07:18:19.076Z</time></trkpt><trkpt lat="43.5670158" lon="11.8892773"><ele>516.0</ele><time>2026-04-18T07:18:21.077Z</time></trkpt><trkpt lat="43.5670655" lon="11.8893521"><ele>516.0</ele><time>2026-04-18T07:18:22.077Z</time></trkpt><trkpt lat="43.5671145" lon="11.8894285"><ele>516.0</ele><time>2026-04-18T07:18:23.076Z</time></trkpt><trkpt lat="43.5671663" lon="11.8895089"><ele>516.0</ele><time>2026-04-18T07:18:24.077Z</time></trkpt><trkpt lat="43.5672256" lon="11.8895789"><ele>517.8333333333334</ele><time>2026-04-18T07:18:25.077Z</time></trkpt><trkpt lat="43.5672773" lon="11.8896613"><ele>519.6666666666666</ele><time>2026-04-18T07:18:26.076Z</time></trkpt><trkpt lat="43.5673276" lon="11.8897359"><ele>521.5</ele><time>2026-04-18T07:18:27.076Z</time></trkpt><trkpt lat="43.567379" lon="11.8898289"><ele>523.3333333333333</ele><time>2026-04-18T07:18:28.076Z</time></trkpt><trkpt lat="43.5674238" lon="11.8899146"><ele>525.1666666666666</ele><time>2026-04-18T07:18:29.076Z</time></trkpt><trkpt lat="43.5674854" lon="11.8900623"><ele>527.0</ele><time>2026-04-18T07:18:31.077Z</time></trkpt><trkpt lat="43.5675784" lon="11.8902079"><ele>528.1666666666666</ele><time>2026-04-18T07:18:33.077Z</time></trkpt><trkpt lat="43.5676425" lon="11.8902998"><ele>529.3333333333333</ele><time>2026-04-18T07:18:34.077Z</time></trkpt><trkpt lat="43.5676972" lon="11.8903711"><ele>530.5</ele><time>2026-04-18T07:18:35.076Z</time></trkpt><trkpt lat="43.5677384" lon="11.8904606"><ele>531.6666666666666</ele><time>2026-04-18T07:18:36.077Z</time></trkpt><trkpt lat="43.5677838" lon="11.8905545"><ele>532.8333333333334</ele><time>2026-04-18T07:18:37.076Z</time></trkpt><trkpt lat="43.5678359" lon="11.890631"><ele>534.0</ele><time>2026-04-18T07:18:38.076Z</time></trkpt><trkpt lat="43.5678839" lon="11.8907173"><ele>534.5</ele><time>2026-04-18T07:18:39.076Z</time></trkpt><trkpt lat="43.5679503" lon="11.890797"><ele>535.0</ele><time>2026-04-18T07:18:40.076Z</time></trkpt><trkpt lat="43.5680073" lon="11.8908756"><ele>535.5</ele><time>2026-04-18T07:18:41.076Z</time></trkpt><trkpt lat="43.568064" lon="11.8909469"><ele>536.0</ele><time>2026-04-18T07:18:42.076Z</time></trkpt><trkpt lat="43.5681113" lon="11.8910415"><ele>536.5</ele><time>2026-04-18T07:18:43.076Z</time></trkpt><trkpt lat="43.5681504" lon="11.8911285"><ele>537.0</ele><time>2026-04-18T07:18:44.076Z</time></trkpt><trkpt lat="43.5681616" lon="11.8912997"><ele>539.0</ele><time>2026-04-18T07:18:46.076Z</time></trkpt><trkpt lat="43.568153" lon="11.8914554"><ele>541.0</ele><time>2026-04-18T07:18:48.076Z</time></trkpt><trkpt lat="43.5681473" lon="11.8916073"><ele>543.0</ele><time>2026-04-18T07:18:50.076Z</time></trkpt><trkpt lat="43.56812" lon="11.8917184"><ele>545.0</ele><time>2026-04-18T07:18:52.077Z</time></trkpt><trkpt lat="43.5681267" lon="11.8918712"><ele>547.0</ele><time>2026-04-18T07:18:54.077Z</time></trkpt><trkpt lat="43.5680937" lon="11.8920163"><ele>549.0</ele><time>2026-04-18T07:18:56.077Z</time></trkpt><trkpt lat="43.5680943" lon="11.8921193"><ele>551.0</ele><time>2026-04-18T07:18:57.077Z</time></trkpt><trkpt lat="43.5680937" lon="11.8922312"><ele>553.0</ele><time>2026-04-18T07:18:58.076Z</time></trkpt><trkpt lat="43.568102" lon="11.8923465"><ele>555.0</ele><time>2026-04-18T07:18:59.076Z</time></trkpt><trkpt lat="43.5681038" lon="11.8924726"><ele>557.0</ele><time>2026-04-18T07:19:00.076Z</time></trkpt><trkpt lat="43.5681038" lon="11.892593"><ele>559.0</ele><time>2026-04-18T07:19:01.076Z</time></trkpt><trkpt lat="43.5681081" lon="11.8927244"><ele>560.6666666666667</ele><time>2026-04-18T07:19:02.077Z</time></trkpt><trkpt lat="43.5681165" lon="11.8928364"><ele>562.3333333333334</ele><time>2026-04-18T07:19:03.076Z</time></trkpt><trkpt lat="43.5681309" lon="11.8929212"><ele>564.0</ele><time>2026-04-18T07:19:04.077Z</time></trkpt><trkpt lat="43.5681571" lon="11.8930256"><ele>565.6666666666666</ele><time>2026-04-18T07:19:05.076Z</time></trkpt><trkpt lat="43.5681907" lon="11.8931461"><ele>567.3333333333333</ele><time>2026-04-18T07:19:06.076Z</time></trkpt><trkpt lat="43.5682039" lon="11.8932499"><ele>569.0</ele><time>2026-04-18T07:19:07.076Z</time></trkpt><trkpt lat="43.5682027" lon="11.8933517"><ele>571.0</ele><time>2026-04-18T07:19:08.077Z</time></trkpt><trkpt lat="43.5681737" lon="11.8934295"><ele>573.0</ele><time>2026-04-18T07:19:09.077Z</time></trkpt><trkpt lat="43.5681663" lon="11.8935203"><ele>575.0</ele><time>2026-04-18T07:19:10.076Z</time></trkpt><trkpt lat="43.568229" lon="11.8935878"><ele>577.0</ele><time>2026-04-18T07:19:12.077Z</time></trkpt><trkpt lat="43.5682768" lon="11.8936796"><ele>579.0</ele><time>2026-04-18T07:19:13.076Z</time></trkpt><trkpt lat="43.5683654" lon="11.8937423"><ele>581.0</ele><time>2026-04-18T07:19:14.076Z</time></trkpt><trkpt lat="43.5684177" lon="11.8938092"><ele>581.0</ele><time>2026-04-18T07:19:15.076Z</time></trkpt><trkpt lat="43.568454" lon="11.893882"><ele>581.0</ele><time>2026-04-18T07:19:16.076Z</time></trkpt><trkpt lat="43.5684847" lon="11.89396"><ele>581.0</ele><time>2026-04-18T07:19:17.076Z</time></trkpt><trkpt lat="43.5685141" lon="11.8940395"><ele>581.0</ele><time>2026-04-18T07:19:18.076Z</time></trkpt><trkpt lat="43.5685591" lon="11.8941085"><ele>581.0</ele><time>2026-04-18T07:19:19.077Z</time></trkpt><trkpt lat="43.5686128" lon="11.8941847"><ele>581.0</ele><time>2026-04-18T07:19:20.076Z</time></trkpt><trkpt lat="43.5686686" lon="11.8942378"><ele>581.0</ele><time>2026-04-18T07:19:21.076Z</time></trkpt><trkpt lat="43.5687239" lon="11.8942868"><ele>583.1666666666666</ele><time>2026-04-18T07:19:22.076Z</time></trkpt><trkpt lat="43.5687931" lon="11.8943412"><ele>585.3333333333333</ele><time>2026-04-18T07:19:23.076Z</time></trkpt><trkpt lat="43.5688458" lon="11.894413"><ele>587.5</ele><time>2026-04-18T07:19:24.076Z</time></trkpt><trkpt lat="43.5688961" lon="11.8944882"><ele>589.6666666666666</ele><time>2026-04-18T07:19:25.077Z</time></trkpt><trkpt lat="43.5689722" lon="11.894605"><ele>591.8333333333334</ele><time>2026-04-18T07:19:27.077Z</time></trkpt><trkpt lat="43.5690248" lon="11.8946955"><ele>594.0</ele><time>2026-04-18T07:19:33.076Z</time></trkpt><trkpt lat="43.5690851" lon="11.8947692"><ele>594.0</ele><time>2026-04-18T07:19:36.076Z</time></trkpt><trkpt lat="43.5691421" lon="11.8948268"><ele>594.0</ele><time>2026-04-18T07:19:38.077Z</time></trkpt><trkpt lat="43.569208" lon="11.8948654"><ele>594.0</ele><time>2026-04-18T07:19:40.076Z</time></trkpt><trkpt lat="43.5692989" lon="11.8948945"><ele>594.0</ele><time>2026-04-18T07:19:43.076Z</time></trkpt><trkpt lat="43.5693446" lon="11.8950114"><ele>594.0</ele><time>2026-04-18T07:19:46.077Z</time></trkpt><trkpt lat="43.5693732" lon="11.8951075"><ele>594.0</ele><time>2026-04-18T07:19:48.077Z</time></trkpt><trkpt lat="43.5694118" lon="11.8951776"><ele>594.8333333333334</ele><time>2026-04-18T07:19:49.076Z</time></trkpt><trkpt lat="43.5694362" lon="11.8952938"><ele>595.6666666666666</ele><time>2026-04-18T07:19:51.077Z</time></trkpt><trkpt lat="43.5694628" lon="11.8953955"><ele>596.5</ele><time>2026-04-18T07:19:53.077Z</time></trkpt><trkpt lat="43.5695027" lon="11.8954985"><ele>597.3333333333333</ele><time>2026-04-18T07:19:55.076Z</time></trkpt><trkpt lat="43.5695285" lon="11.8955944"><ele>598.1666666666666</ele><time>2026-04-18T07:19:57.077Z</time></trkpt><trkpt lat="43.5695344" lon="11.8956891"><ele>599.0</ele><time>2026-04-18T07:19:59.077Z</time></trkpt><trkpt lat="43.5695306" lon="11.8957867"><ele>600.8333333333333</ele><time>2026-04-18T07:20:01.077Z</time></trkpt><trkpt lat="43.5695335" lon="11.8959259"><ele>602.6666666666666</ele><time>2026-04-18T07:20:04.077Z</time></trkpt><trkpt lat="43.5695188" lon="11.8960286"><ele>604.5</ele><time>2026-04-18T07:20:06.077Z</time></trkpt><trkpt lat="43.5695029" lon="11.8961445"><ele>606.3333333333334</ele><time>2026-04-18T07:20:08.076Z</time></trkpt><trkpt lat="43.5695325" lon="11.896232"><ele>608.1666666666667</ele><time>2026-04-18T07:20:10.077Z</time></trkpt><trkpt lat="43.5695523" lon="11.896316"><ele>610.0</ele><time>2026-04-18T07:20:12.077Z</time></trkpt><trkpt lat="43.56956" lon="11.8964169"><ele>610.0</ele><time>2026-04-18T07:20:14.077Z</time></trkpt><trkpt lat="43.5695638" lon="11.8965118"><ele>610.0</ele><time>2026-04-18T07:20:16.076Z</time></trkpt><trkpt lat="43.5695584" lon="11.8966379"><ele>610.0</ele><time>2026-04-18T07:20:19.077Z</time></trkpt><trkpt lat="43.569569" lon="11.8967397"><ele>610.0</ele><time>2026-04-18T07:20:22.076Z</time></trkpt><trkpt lat="43.5694953" lon="11.8968126"><ele>610.0</ele><time>2026-04-18T07:21:52.076Z</time></trkpt><trkpt lat="43.5693854" lon="11.8968343"><ele>610.0</ele><time>2026-04-18T07:21:54.076Z</time></trkpt><trkpt lat="43.5691248" lon="11.8969669"><ele>609.6</ele><time>2026-04-18T07:21:55.076Z</time></trkpt><trkpt lat="43.5691209" lon="11.8967994"><ele>609.2</ele><time>2026-04-18T07:21:58.076Z</time></trkpt><trkpt lat="43.5690176" lon="11.8967158"><ele>608.8</ele><time>2026-04-18T07:22:00.077Z</time></trkpt><trkpt lat="43.5689119" lon="11.896621"><ele>608.4</ele><time>2026-04-18T07:22:02.076Z</time></trkpt><trkpt lat="43.5688475" lon="11.8965542"><ele>608.0</ele><time>2026-04-18T07:22:03.076Z</time></trkpt><trkpt lat="43.5687858" lon="11.8965259"><ele>611.0</ele><time>2026-04-18T07:22:05.077Z</time></trkpt><trkpt lat="43.5687221" lon="11.8965081"><ele>614.0</ele><time>2026-04-18T07:22:08.076Z</time></trkpt><trkpt lat="43.568644" lon="11.8964571"><ele>617.0</ele><time>2026-04-18T07:22:10.076Z</time></trkpt><trkpt lat="43.5684731" lon="11.8964607"><ele>620.0</ele><time>2026-04-18T07:22:12.076Z</time></trkpt><trkpt lat="43.568397" lon="11.8964597"><ele>623.0</ele><time>2026-04-18T07:22:13.077Z</time></trkpt><trkpt lat="43.5683138" lon="11.8964718"><ele>623.6</ele><time>2026-04-18T07:22:14.076Z</time></trkpt><trkpt lat="43.5682332" lon="11.8964756"><ele>624.1999999999999</ele><time>2026-04-18T07:22:15.077Z</time></trkpt><trkpt lat="43.5681377" lon="11.8964931"><ele>624.8</ele><time>2026-04-18T07:22:17.077Z</time></trkpt><trkpt lat="43.5680264" lon="11.8964462"><ele>625.4</ele><time>2026-04-18T07:22:19.076Z</time></trkpt><trkpt lat="43.5679344" lon="11.8963861"><ele>626.0</ele><time>2026-04-18T07:22:21.076Z</time></trkpt><trkpt lat="43.5678558" lon="11.8962982"><ele>626.3333333333333</ele><time>2026-04-18T07:22:23.077Z</time></trkpt><trkpt lat="43.5677882" lon="11.8962486"><ele>626.6666666666666</ele><time>2026-04-18T07:22:26.077Z</time></trkpt><trkpt lat="43.5677201" lon="11.8961975"><ele>627.0</ele><time>2026-04-18T07:22:28.077Z</time></trkpt><trkpt lat="43.5676438" lon="11.8961516"><ele>627.3333333333334</ele><time>2026-04-18T07:22:30.077Z</time></trkpt><trkpt lat="43.5675487" lon="11.8961039"><ele>627.6666666666667</ele><time>2026-04-18T07:22:32.076Z</time></trkpt><trkpt lat="43.5674819" lon="11.8961026"><ele>628.0</ele><time>2026-04-18T07:22:33.077Z</time></trkpt><trkpt lat="43.5673658" lon="11.8960541"><ele>628.0</ele><time>2026-04-18T07:22:35.077Z</time></trkpt><trkpt lat="43.5673003" lon="11.8960204"><ele>628.0</ele><time>2026-04-18T07:22:36.076Z</time></trkpt><trkpt lat="43.5672348" lon="11.8959945"><ele>628.0</ele><time>2026-04-18T07:22:37.077Z</time></trkpt><trkpt lat="43.5671744" lon="11.8959523"><ele>628.0</ele><time>2026-04-18T07:22:38.077Z</time></trkpt><trkpt lat="43.5670955" lon="11.8959037"><ele>628.0</ele><time>2026-04-18T07:22:39.076Z</time></trkpt><trkpt lat="43.5670217" lon="11.8958352"><ele>628.0</ele><time>2026-04-18T07:22:40.076Z</time></trkpt><trkpt lat="43.5669538" lon="11.8957778"><ele>625.6666666666667</ele><time>2026-04-18T07:22:41.076Z</time></trkpt><trkpt lat="43.566886" lon="11.8957222"><ele>623.3333333333334</ele><time>2026-04-18T07:22:42.076Z</time></trkpt><trkpt lat="43.5668253" lon="11.8956942"><ele>621.0</ele><time>2026-04-18T07:22:43.076Z</time></trkpt><trkpt lat="43.5667276" lon="11.8956274"><ele>618.6666666666666</ele><time>2026-04-18T07:22:45.076Z</time></trkpt><trkpt lat="43.5666637" lon="11.8956426"><ele>616.3333333333333</ele><time>2026-04-18T07:22:46.076Z</time></trkpt><trkpt lat="43.566562" lon="11.895665"><ele>614.0</ele><time>2026-04-18T07:22:48.077Z</time></trkpt><trkpt lat="43.5665254" lon="11.8958276"><ele>613.5</ele><time>2026-04-18T07:22:51.076Z</time></trkpt><trkpt lat="43.5665101" lon="11.8959629"><ele>613.0</ele><time>2026-04-18T07:22:53.077Z</time></trkpt><trkpt lat="43.5664141" lon="11.896016"><ele>612.5</ele><time>2026-04-18T07:22:55.077Z</time></trkpt><trkpt lat="43.5662872" lon="11.8961375"><ele>612.0</ele><time>2026-04-18T07:22:57.077Z</time></trkpt><trkpt lat="43.5662143" lon="11.8962174"><ele>610.3333333333334</ele><time>2026-04-18T07:22:58.076Z</time></trkpt><trkpt lat="43.5661746" lon="11.8962868"><ele>608.6666666666666</ele><time>2026-04-18T07:22:59.076Z</time></trkpt><trkpt lat="43.566131" lon="11.8963631"><ele>607.0</ele><time>2026-04-18T07:23:00.077Z</time></trkpt><trkpt lat="43.5660423" lon="11.8964774"><ele>605.3333333333333</ele><time>2026-04-18T07:23:02.077Z</time></trkpt><trkpt lat="43.5659835" lon="11.8965169"><ele>603.6666666666666</ele><time>2026-04-18T07:23:03.076Z</time></trkpt><trkpt lat="43.565874" lon="11.8966015"><ele>602.0</ele><time>2026-04-18T07:23:05.076Z</time></trkpt><trkpt lat="43.5658318" lon="11.8967235"><ele>602.6</ele><time>2026-04-18T07:23:07.076Z</time></trkpt><trkpt lat="43.565761" lon="11.8967735"><ele>603.2</ele><time>2026-04-18T07:23:09.076Z</time></trkpt><trkpt lat="43.5656968" lon="11.8968158"><ele>603.8</ele><time>2026-04-18T07:23:11.076Z</time></trkpt><trkpt lat="43.5655881" lon="11.8968768"><ele>604.4</ele><time>2026-04-18T07:23:14.077Z</time></trkpt><trkpt lat="43.5654425" lon="11.8969641"><ele>605.0</ele><time>2026-04-18T07:23:16.077Z</time></trkpt><trkpt lat="43.5653749" lon="11.8969675"><ele>602.5</ele><time>2026-04-18T07:23:17.076Z</time></trkpt><trkpt lat="43.5653129" lon="11.8970094"><ele>600.0</ele><time>2026-04-18T07:23:18.076Z</time></trkpt><trkpt lat="43.5652563" lon="11.8971371"><ele>597.5</ele><time>2026-04-18T07:23:20.077Z</time></trkpt><trkpt lat="43.5652402" lon="11.8972272"><ele>595.0</ele><time>2026-04-18T07:23:21.076Z</time></trkpt><trkpt lat="43.5651935" lon="11.8973107"><ele>592.5</ele><time>2026-04-18T07:23:22.076Z</time></trkpt><trkpt lat="43.5651491" lon="11.8973794"><ele>590.0</ele><time>2026-04-18T07:23:23.076Z</time></trkpt><trkpt lat="43.5650928" lon="11.8974545"><ele>590.0</ele><time>2026-04-18T07:23:24.076Z</time></trkpt><trkpt lat="43.5650402" lon="11.8975512"><ele>590.0</ele><time>2026-04-18T07:23:25.076Z</time></trkpt><trkpt lat="43.5649522" lon="11.897679"><ele>590.0</ele><time>2026-04-18T07:23:27.076Z</time></trkpt><trkpt lat="43.5648997" lon="11.8977371"><ele>590.0</ele><time>2026-04-18T07:23:28.076Z</time></trkpt><trkpt lat="43.5648015" lon="11.8978208"><ele>590.0</ele><time>2026-04-18T07:23:30.077Z</time></trkpt><trkpt lat="43.5647002" lon="11.8978774"><ele>590.1666666666666</ele><time>2026-04-18T07:23:32.077Z</time></trkpt><trkpt lat="43.5646338" lon="11.8979354"><ele>590.3333333333333</ele><time>2026-04-18T07:23:34.076Z</time></trkpt><trkpt lat="43.5646952" lon="11.8979798"><ele>590.5</ele><time>2026-04-18T07:23:36.077Z</time></trkpt><trkpt lat="43.5647922" lon="11.89802"><ele>590.6666666666666</ele><time>2026-04-18T07:23:38.077Z</time></trkpt><trkpt lat="43.5648621" lon="11.8980654"><ele>590.8333333333334</ele><time>2026-04-18T07:23:39.076Z</time></trkpt><trkpt lat="43.5648877" lon="11.8981764"><ele>591.0</ele><time>2026-04-18T07:23:40.076Z</time></trkpt><trkpt lat="43.5650064" lon="11.8982074"><ele>591.0</ele><time>2026-04-18T07:23:41.076Z</time></trkpt><trkpt lat="43.5651085" lon="11.8982563"><ele>591.0</ele><time>2026-04-18T07:23:42.076Z</time></trkpt><trkpt lat="43.5652161" lon="11.8982861"><ele>591.0</ele><time>2026-04-18T07:23:43.076Z</time></trkpt><trkpt lat="43.5653452" lon="11.8982617"><ele>591.0</ele><time>2026-04-18T07:23:44.076Z</time></trkpt><trkpt lat="43.5654703" lon="11.8982513"><ele>592.25</ele><time>2026-04-18T07:23:45.077Z</time></trkpt><trkpt lat="43.5655923" lon="11.8982218"><ele>593.5</ele><time>2026-04-18T07:23:46.077Z</time></trkpt><trkpt lat="43.5656979" lon="11.8982322"><ele>594.75</ele><time>2026-04-18T07:23:47.076Z</time></trkpt><trkpt lat="43.5658119" lon="11.8982512"><ele>596.0</ele><time>2026-04-18T07:23:48.076Z</time></trkpt><trkpt lat="43.5659193" lon="11.8983107"><ele>596.0</ele><time>2026-04-18T07:23:49.076Z</time></trkpt><trkpt lat="43.5660346" lon="11.8983294"><ele>596.0</ele><time>2026-04-18T07:23:50.077Z</time></trkpt><trkpt lat="43.5661328" lon="11.8983907"><ele>596.0</ele><time>2026-04-18T07:23:51.076Z</time></trkpt><trkpt lat="43.566228" lon="11.8985503"><ele>596.0</ele><time>2026-04-18T07:23:52.077Z</time></trkpt><trkpt lat="43.5663257" lon="11.8986212"><ele>594.0</ele><time>2026-04-18T07:23:53.077Z</time></trkpt><trkpt lat="43.5664179" lon="11.8987062"><ele>592.0</ele><time>2026-04-18T07:23:54.077Z</time></trkpt><trkpt lat="43.5665074" lon="11.8987852"><ele>590.0</ele><time>2026-04-18T07:23:55.077Z</time></trkpt><trkpt lat="43.5665918" lon="11.8988586"><ele>588.0</ele><time>2026-04-18T07:23:56.077Z</time></trkpt><trkpt lat="43.5666691" lon="11.8989377"><ele>586.0</ele><time>2026-04-18T07:23:57.076Z</time></trkpt><trkpt lat="43.5667462" lon="11.899026"><ele>586.0</ele><time>2026-04-18T07:23:58.076Z</time></trkpt><trkpt lat="43.566816" lon="11.8991234"><ele>586.0</ele><time>2026-04-18T07:23:59.076Z</time></trkpt><trkpt lat="43.5668803" lon="11.8992123"><ele>586.0</ele><time>2026-04-18T07:24:00.077Z</time></trkpt><trkpt lat="43.5669525" lon="11.8992794"><ele>586.0</ele><time>2026-04-18T07:24:01.076Z</time></trkpt><trkpt lat="43.5670312" lon="11.8993532"><ele>586.0</ele><time>2026-04-18T07:24:02.076Z</time></trkpt><trkpt lat="43.5671057" lon="11.8994112"><ele>583.4</ele><time>2026-04-18T07:24:03.076Z</time></trkpt><trkpt lat="43.5671755" lon="11.8994965"><ele>580.8</ele><time>2026-04-18T07:24:04.076Z</time></trkpt><trkpt lat="43.567259" lon="11.8995507"><ele>578.1999999999999</ele><time>2026-04-18T07:24:05.076Z</time></trkpt><trkpt lat="43.5673321" lon="11.8995966"><ele>575.6</ele><time>2026-04-18T07:24:06.077Z</time></trkpt><trkpt lat="43.5674554" lon="11.8995628"><ele>573.0</ele><time>2026-04-18T07:24:07.077Z</time></trkpt><trkpt lat="43.5675462" lon="11.8995635"><ele>573.0</ele><time>2026-04-18T07:24:08.077Z</time></trkpt><trkpt lat="43.5676587" lon="11.8995013"><ele>573.0</ele><time>2026-04-18T07:24:09.076Z</time></trkpt><trkpt lat="43.5677782" lon="11.8994541"><ele>573.0</ele><time>2026-04-18T07:24:10.077Z</time></trkpt><trkpt lat="43.5678509" lon="11.8993591"><ele>573.0</ele><time>2026-04-18T07:24:11.077Z</time></trkpt><trkpt lat="43.5679509" lon="11.8992965"><ele>572.5</ele><time>2026-04-18T07:24:12.076Z</time></trkpt><trkpt lat="43.5680484" lon="11.8992109"><ele>572.0</ele><time>2026-04-18T07:24:13.077Z</time></trkpt><trkpt lat="43.5681109" lon="11.8991986"><ele>571.5</ele><time>2026-04-18T07:24:14.076Z</time></trkpt><trkpt lat="43.5681979" lon="11.8991587"><ele>571.0</ele><time>2026-04-18T07:24:15.076Z</time></trkpt><trkpt lat="43.5682696" lon="11.8991029"><ele>570.5</ele><time>2026-04-18T07:24:16.076Z</time></trkpt><trkpt lat="43.568319" lon="11.8990392"><ele>570.0</ele><time>2026-04-18T07:24:17.076Z</time></trkpt><trkpt lat="43.5683714" lon="11.8989707"><ele>570.0</ele><time>2026-04-18T07:24:18.077Z</time></trkpt><trkpt lat="43.5684156" lon="11.8988158"><ele>570.0</ele><time>2026-04-18T07:24:20.076Z</time></trkpt><trkpt lat="43.568407" lon="11.8989466"><ele>570.0</ele><time>2026-04-18T07:24:26.077Z</time></trkpt><trkpt lat="43.56838" lon="11.8990726"><ele>570.0</ele><time>2026-04-18T07:24:28.076Z</time></trkpt><trkpt lat="43.5683732" lon="11.8991682"><ele>570.0</ele><time>2026-04-18T07:24:29.076Z</time></trkpt><trkpt lat="43.5683389" lon="11.8992438"><ele>570.0</ele><time>2026-04-18T07:24:30.076Z</time></trkpt><trkpt lat="43.5683061" lon="11.8993345"><ele>568.1666666666666</ele><time>2026-04-18T07:24:32.076Z</time></trkpt><trkpt lat="43.5682831" lon="11.8994559"><ele>566.3333333333334</ele><time>2026-04-18T07:24:34.076Z</time></trkpt><trkpt lat="43.568249" lon="11.8995336"><ele>564.5</ele><time>2026-04-18T07:24:35.077Z</time></trkpt><trkpt lat="43.5682359" lon="11.8996226"><ele>562.6666666666667</ele><time>2026-04-18T07:24:36.077Z</time></trkpt><trkpt lat="43.5682332" lon="11.8997247"><ele>560.8333333333334</ele><time>2026-04-18T07:24:37.076Z</time></trkpt><trkpt lat="43.5682175" lon="11.8998732"><ele>559.0</ele><time>2026-04-18T07:24:39.076Z</time></trkpt><trkpt lat="43.5681637" lon="11.8999672"><ele>559.0</ele><time>2026-04-18T07:24:41.077Z</time></trkpt><trkpt lat="43.5681368" lon="11.9000637"><ele>559.0</ele><time>2026-04-18T07:24:42.077Z</time></trkpt><trkpt lat="43.5681051" lon="11.9001399"><ele>559.0</ele><time>2026-04-18T07:24:43.076Z</time></trkpt><trkpt lat="43.5680507" lon="11.9002157"><ele>559.0</ele><time>2026-04-18T07:24:44.076Z</time></trkpt><trkpt lat="43.5679355" lon="11.900296"><ele>559.0</ele><time>2026-04-18T07:24:46.076Z</time></trkpt><trkpt lat="43.5678556" lon="11.9002843"><ele>559.0</ele><time>2026-04-18T07:24:48.076Z</time></trkpt><trkpt lat="43.5677661" lon="11.9003357"><ele>557.3333333333334</ele><time>2026-04-18T07:24:51.076Z</time></trkpt><trkpt lat="43.5676874" lon="11.9003985"><ele>555.6666666666667</ele><time>2026-04-18T07:24:53.076Z</time></trkpt><trkpt lat="43.5675959" lon="11.9004645"><ele>554.0</ele><time>2026-04-18T07:24:55.077Z</time></trkpt><trkpt lat="43.5675348" lon="11.9005564"><ele>552.3333333333334</ele><time>2026-04-18T07:24:56.077Z</time></trkpt><trkpt lat="43.567474" lon="11.9006315"><ele>550.6666666666666</ele><time>2026-04-18T07:24:57.076Z</time></trkpt><trkpt lat="43.5674241" lon="11.9007042"><ele>549.0</ele><time>2026-04-18T07:24:58.076Z</time></trkpt><trkpt lat="43.567371" lon="11.9007657"><ele>549.0</ele><time>2026-04-18T07:24:59.076Z</time></trkpt><trkpt lat="43.5672967" lon="11.900792"><ele>549.0</ele><time>2026-04-18T07:25:00.077Z</time></trkpt><trkpt lat="43.5671657" lon="11.9008052"><ele>549.0</ele><time>2026-04-18T07:25:02.076Z</time></trkpt><trkpt lat="43.5671009" lon="11.9008003"><ele>549.0</ele><time>2026-04-18T07:25:03.076Z</time></trkpt><trkpt lat="43.5670143" lon="11.9008067"><ele>549.0</ele><time>2026-04-18T07:25:04.077Z</time></trkpt><trkpt lat="43.5669514" lon="11.9008014"><ele>549.0</ele><time>2026-04-18T07:25:05.077Z</time></trkpt><trkpt lat="43.5668716" lon="11.9008282"><ele>549.0</ele><time>2026-04-18T07:25:06.077Z</time></trkpt><trkpt lat="43.5667622" lon="11.9008259"><ele>549.0</ele><time>2026-04-18T07:25:07.076Z</time></trkpt><trkpt lat="43.5666753" lon="11.9008374"><ele>549.0</ele><time>2026-04-18T07:25:08.076Z</time></trkpt><trkpt lat="43.5665885" lon="11.9007789"><ele>549.0</ele><time>2026-04-18T07:25:10.076Z</time></trkpt><trkpt lat="43.5665138" lon="11.9007478"><ele>549.0</ele><time>2026-04-18T07:25:11.077Z</time></trkpt><trkpt lat="43.5664375" lon="11.9006987"><ele>549.0</ele><time>2026-04-18T07:25:12.077Z</time></trkpt><trkpt lat="43.5663843" lon="11.9006409"><ele>549.0</ele><time>2026-04-18T07:25:13.076Z</time></trkpt><trkpt lat="43.5663275" lon="11.900553"><ele>549.0</ele><time>2026-04-18T07:25:16.076Z</time></trkpt><trkpt lat="43.5662856" lon="11.9004711"><ele>549.0</ele><time>2026-04-18T07:25:18.076Z</time></trkpt><trkpt lat="43.5662548" lon="11.9003866"><ele>549.0</ele><time>2026-04-18T07:25:20.076Z</time></trkpt><trkpt lat="43.566217" lon="11.9002991"><ele>549.0</ele><time>2026-04-18T07:25:22.076Z</time></trkpt><trkpt lat="43.5661445" lon="11.9001683"><ele>549.5</ele><time>2026-04-18T07:25:24.076Z</time></trkpt><trkpt lat="43.566084" lon="11.9000975"><ele>550.0</ele><time>2026-04-18T07:25:25.077Z</time></trkpt><trkpt lat="43.5660296" lon="11.9000487"><ele>550.5</ele><time>2026-04-18T07:25:26.076Z</time></trkpt><trkpt lat="43.5659384" lon="11.8999736"><ele>551.0</ele><time>2026-04-18T07:25:28.076Z</time></trkpt><trkpt lat="43.5658729" lon="11.8999313"><ele>551.5</ele><time>2026-04-18T07:25:29.076Z</time></trkpt><trkpt lat="43.5658264" lon="11.8998093"><ele>552.0</ele><time>2026-04-18T07:25:31.077Z</time></trkpt><trkpt lat="43.5657648" lon="11.8997607"><ele>552.0</ele><time>2026-04-18T07:25:35.076Z</time></trkpt><trkpt lat="43.5656988" lon="11.8997591"><ele>552.0</ele><time>2026-04-18T07:25:39.076Z</time></trkpt><trkpt lat="43.5656343" lon="11.8998442"><ele>552.0</ele><time>2026-04-18T07:25:42.076Z</time></trkpt><trkpt lat="43.5655789" lon="11.899902"><ele>552.0</ele><time>2026-04-18T07:25:44.076Z</time></trkpt><trkpt lat="43.5655252" lon="11.8999777"><ele>552.0</ele><time>2026-04-18T07:25:45.076Z</time></trkpt><trkpt lat="43.5654394" lon="11.9000362"><ele>552.0</ele><time>2026-04-18T07:25:47.076Z</time></trkpt><trkpt lat="43.5653637" lon="11.9000663"><ele>552.3333333333334</ele><time>2026-04-18T07:25:48.076Z</time></trkpt><trkpt lat="43.5652857" lon="11.9001103"><ele>552.6666666666666</ele><time>2026-04-18T07:25:49.077Z</time></trkpt><trkpt lat="43.5652017" lon="11.9001301"><ele>553.0</ele><time>2026-04-18T07:25:50.076Z</time></trkpt><trkpt lat="43.5651243" lon="11.9001702"><ele>553.3333333333333</ele><time>2026-04-18T07:25:51.077Z</time></trkpt><trkpt lat="43.5650643" lon="11.9002281"><ele>553.6666666666666</ele><time>2026-04-18T07:25:52.077Z</time></trkpt><trkpt lat="43.5650094" lon="11.9003033"><ele>554.0</ele><time>2026-04-18T07:25:53.076Z</time></trkpt><trkpt lat="43.5649792" lon="11.9003811"><ele>554.0</ele><time>2026-04-18T07:25:54.076Z</time></trkpt><trkpt lat="43.5649307" lon="11.9004625"><ele>554.0</ele><time>2026-04-18T07:25:55.076Z</time></trkpt><trkpt lat="43.5648866" lon="11.9005377"><ele>554.0</ele><time>2026-04-18T07:25:56.076Z</time></trkpt><trkpt lat="43.5648191" lon="11.9006787"><ele>554.0</ele><time>2026-04-18T07:25:58.076Z</time></trkpt><trkpt lat="43.5647955" lon="11.9007681"><ele>554.0</ele><time>2026-04-18T07:25:59.076Z</time></trkpt><trkpt lat="43.5647845" lon="11.9008707"><ele>554.0</ele><time>2026-04-18T07:26:00.077Z</time></trkpt><trkpt lat="43.564777" lon="11.9009654"><ele>554.1666666666666</ele><time>2026-04-18T07:26:01.076Z</time></trkpt><trkpt lat="43.5648309" lon="11.9010295"><ele>554.3333333333333</ele><time>2026-04-18T07:26:02.076Z</time></trkpt><trkpt lat="43.564853" lon="11.9011164"><ele>554.5</ele><time>2026-04-18T07:26:03.077Z</time></trkpt><trkpt lat="43.5648906" lon="11.9012519"><ele>554.6666666666666</ele><time>2026-04-18T07:26:05.076Z</time></trkpt><trkpt lat="43.5648977" lon="11.9013929"><ele>554.8333333333334</ele><time>2026-04-18T07:26:07.076Z</time></trkpt><trkpt lat="43.5648637" lon="11.9014748"><ele>555.0</ele><time>2026-04-18T07:26:08.076Z</time></trkpt><trkpt lat="43.5648125" lon="11.9016202"><ele>555.0</ele><time>2026-04-18T07:26:10.077Z</time></trkpt><trkpt lat="43.5647545" lon="11.9016854"><ele>555.0</ele><time>2026-04-18T07:26:11.076Z</time></trkpt><trkpt lat="43.5646803" lon="11.9017198"><ele>555.0</ele><time>2026-04-18T07:26:12.077Z</time></trkpt><trkpt lat="43.5645973" lon="11.9017609"><ele>555.0</ele><time>2026-04-18T07:26:13.077Z</time></trkpt><trkpt lat="43.564514" lon="11.9017532"><ele>555.0</ele><time>2026-04-18T07:26:14.076Z</time></trkpt><trkpt lat="43.5644087" lon="11.9017635"><ele>555.0</ele><time>2026-04-18T07:26:15.077Z</time></trkpt><trkpt lat="43.5643124" lon="11.9017746"><ele>556.6</ele><time>2026-04-18T07:26:16.076Z</time></trkpt><trkpt lat="43.5642182" lon="11.9017715"><ele>558.2</ele><time>2026-04-18T07:26:17.076Z</time></trkpt><trkpt lat="43.5641317" lon="11.9018226"><ele>559.8</ele><time>2026-04-18T07:26:18.077Z</time></trkpt><trkpt lat="43.5640607" lon="11.9018475"><ele>561.4</ele><time>2026-04-18T07:26:19.076Z</time></trkpt><trkpt lat="43.5640006" lon="11.9019739"><ele>563.0</ele><time>2026-04-18T07:26:21.077Z</time></trkpt><trkpt lat="43.5639144" lon="11.9020292"><ele>563.0</ele><time>2026-04-18T07:26:23.076Z</time></trkpt><trkpt lat="43.5638454" lon="11.9020707"><ele>563.0</ele><time>2026-04-18T07:26:25.077Z</time></trkpt><trkpt lat="43.5637722" lon="11.9020972"><ele>563.0</ele><time>2026-04-18T07:26:28.076Z</time></trkpt><trkpt lat="43.5637083" lon="11.9021403"><ele>563.0</ele><time>2026-04-18T07:26:29.077Z</time></trkpt><trkpt lat="43.5636043" lon="11.9022318"><ele>563.0</ele><time>2026-04-18T07:26:30.076Z</time></trkpt><trkpt lat="43.5635021" lon="11.9023164"><ele>563.3333333333333</ele><time>2026-04-18T07:26:31.077Z</time></trkpt><trkpt lat="43.5634399" lon="11.9023963"><ele>563.6666666666666</ele><time>2026-04-18T07:26:32.076Z</time></trkpt><trkpt lat="43.5633803" lon="11.9024496"><ele>564.0</ele><time>2026-04-18T07:26:33.077Z</time></trkpt><trkpt lat="43.5633187" lon="11.9025118"><ele>564.3333333333334</ele><time>2026-04-18T07:26:34.076Z</time></trkpt><trkpt lat="43.5632532" lon="11.902553"><ele>564.6666666666667</ele><time>2026-04-18T07:26:35.076Z</time></trkpt><trkpt lat="43.563184" lon="11.9025937"><ele>565.0</ele><time>2026-04-18T07:26:36.076Z</time></trkpt><trkpt lat="43.5631197" lon="11.9026841"><ele>564.3333333333334</ele><time>2026-04-18T07:26:38.076Z</time></trkpt><trkpt lat="43.5630757" lon="11.9027651"><ele>563.6666666666667</ele><time>2026-04-18T07:26:40.077Z</time></trkpt><trkpt lat="43.5630553" lon="11.9028757"><ele>563.0</ele><time>2026-04-18T07:26:42.076Z</time></trkpt><trkpt lat="43.5630969" lon="11.9029634"><ele>562.3333333333334</ele><time>2026-04-18T07:26:44.076Z</time></trkpt><trkpt lat="43.5630999" lon="11.9030878"><ele>561.6666666666666</ele><time>2026-04-18T07:27:18.076Z</time></trkpt><trkpt lat="43.5630746" lon="11.9032495"><ele>561.0</ele><time>2026-04-18T07:27:20.076Z</time></trkpt><trkpt lat="43.5630598" lon="11.9033427"><ele>561.2</ele><time>2026-04-18T07:27:21.077Z</time></trkpt><trkpt lat="43.5630701" lon="11.9034329"><ele>561.4000000000001</ele><time>2026-04-18T07:27:22.077Z</time></trkpt><trkpt lat="43.5630392" lon="11.9035913"><ele>561.6</ele><time>2026-04-18T07:27:24.076Z</time></trkpt><trkpt lat="43.5629359" lon="11.9036093"><ele>561.8000000000001</ele><time>2026-04-18T07:27:27.076Z</time></trkpt><trkpt lat="43.562851" lon="11.9036269"><ele>562.0</ele><time>2026-04-18T07:27:28.077Z</time></trkpt><trkpt lat="43.5627632" lon="11.9036111"><ele>562.0</ele><time>2026-04-18T07:27:29.077Z</time></trkpt><trkpt lat="43.5626514" lon="11.9035645"><ele>562.0</ele><time>2026-04-18T07:27:30.077Z</time></trkpt><trkpt lat="43.5625532" lon="11.9035342"><ele>562.0</ele><time>2026-04-18T07:27:31.076Z</time></trkpt><trkpt lat="43.5624538" lon="11.9035171"><ele>562.0</ele><time>2026-04-18T07:27:32.076Z</time></trkpt><trkpt lat="43.5623405" lon="11.9035021"><ele>562.0</ele><time>2026-04-18T07:27:33.076Z</time></trkpt><trkpt lat="43.562242" lon="11.9035046"><ele>562.0</ele><time>2026-04-18T07:27:34.077Z</time></trkpt><trkpt lat="43.5621728" lon="11.9035239"><ele>562.0</ele><time>2026-04-18T07:27:35.076Z</time></trkpt><trkpt lat="43.5620907" lon="11.9035338"><ele>562.0</ele><time>2026-04-18T07:27:36.077Z</time></trkpt><trkpt lat="43.5620001" lon="11.9035297"><ele>562.0</ele><time>2026-04-18T07:27:37.076Z</time></trkpt><trkpt lat="43.5619257" lon="11.9035326"><ele>562.0</ele><time>2026-04-18T07:27:38.077Z</time></trkpt><trkpt lat="43.5618382" lon="11.9035551"><ele>562.0</ele><time>2026-04-18T07:27:39.076Z</time></trkpt><trkpt lat="43.5617029" lon="11.9035875"><ele>559.0</ele><time>2026-04-18T07:27:41.077Z</time></trkpt><trkpt lat="43.5616397" lon="11.9036162"><ele>556.0</ele><time>2026-04-18T07:27:42.077Z</time></trkpt><trkpt lat="43.5615864" lon="11.9036963"><ele>553.0</ele><time>2026-04-18T07:27:43.076Z</time></trkpt><trkpt lat="43.5615512" lon="11.9037928"><ele>550.0</ele><time>2026-04-18T07:27:44.077Z</time></trkpt><trkpt lat="43.5614956" lon="11.9038771"><ele>547.0</ele><time>2026-04-18T07:27:45.076Z</time></trkpt><trkpt lat="43.5614605" lon="11.9039812"><ele>544.0</ele><time>2026-04-18T07:27:46.076Z</time></trkpt><trkpt lat="43.5614291" lon="11.9040985"><ele>544.0</ele><time>2026-04-18T07:27:47.077Z</time></trkpt><trkpt lat="43.5613943" lon="11.9042176"><ele>544.0</ele><time>2026-04-18T07:27:48.076Z</time></trkpt><trkpt lat="43.5613635" lon="11.9042977"><ele>544.0</ele><time>2026-04-18T07:27:49.077Z</time></trkpt><trkpt lat="43.5612936" lon="11.9043923"><ele>544.0</ele><time>2026-04-18T07:27:50.076Z</time></trkpt><trkpt lat="43.5612245" lon="11.9044883"><ele>544.0</ele><time>2026-04-18T07:27:51.077Z</time></trkpt><trkpt lat="43.5611313" lon="11.9045769"><ele>544.2</ele><time>2026-04-18T07:27:53.076Z</time></trkpt><trkpt lat="43.5610236" lon="11.9045606"><ele>544.4</ele><time>2026-04-18T07:27:55.077Z</time></trkpt><trkpt lat="43.5609179" lon="11.9045402"><ele>544.6</ele><time>2026-04-18T07:27:57.076Z</time></trkpt><trkpt lat="43.560858" lon="11.9046028"><ele>544.8</ele><time>2026-04-18T07:27:59.076Z</time></trkpt><trkpt lat="43.5609272" lon="11.9046348"><ele>545.0</ele><time>2026-04-18T07:28:02.076Z</time></trkpt><trkpt lat="43.5610128" lon="11.9046703"><ele>545.0</ele><time>2026-04-18T07:28:04.077Z</time></trkpt><trkpt lat="43.5610754" lon="11.9047446"><ele>545.0</ele><time>2026-04-18T07:28:06.077Z</time></trkpt><trkpt lat="43.5610269" lon="11.9048297"><ele>545.0</ele><time>2026-04-18T07:28:09.076Z</time></trkpt><trkpt lat="43.5609469" lon="11.9049841"><ele>545.0</ele><time>2026-04-18T07:28:11.076Z</time></trkpt><trkpt lat="43.5609041" lon="11.9050786"><ele>545.0</ele><time>2026-04-18T07:28:12.076Z</time></trkpt><trkpt lat="43.5608407" lon="11.9051783"><ele>548.1666666666666</ele><time>2026-04-18T07:28:13.077Z</time></trkpt><trkpt lat="43.5607645" lon="11.9052725"><ele>551.3333333333333</ele><time>2026-04-18T07:28:14.076Z</time></trkpt><trkpt lat="43.5606916" lon="11.905349"><ele>554.5</ele><time>2026-04-18T07:28:15.077Z</time></trkpt><trkpt lat="43.5606202" lon="11.9054339"><ele>557.6666666666666</ele><time>2026-04-18T07:28:16.076Z</time></trkpt><trkpt lat="43.5605652" lon="11.9054959"><ele>560.8333333333334</ele><time>2026-04-18T07:28:17.076Z</time></trkpt><trkpt lat="43.5605213" lon="11.905578"><ele>564.0</ele><time>2026-04-18T07:28:18.076Z</time></trkpt><trkpt lat="43.5604939" lon="11.9056697"><ele>564.0</ele><time>2026-04-18T07:28:19.076Z</time></trkpt><trkpt lat="43.560502" lon="11.9058373"><ele>564.0</ele><time>2026-04-18T07:28:21.076Z</time></trkpt><trkpt lat="43.5605403" lon="11.9059257"><ele>564.0</ele><time>2026-04-18T07:28:22.077Z</time></trkpt><trkpt lat="43.5606191" lon="11.9059857"><ele>564.0</ele><time>2026-04-18T07:28:23.077Z</time></trkpt><trkpt lat="43.5607265" lon="11.9060967"><ele>564.0</ele><time>2026-04-18T07:28:25.076Z</time></trkpt><trkpt lat="43.5608071" lon="11.9062315"><ele>564.6</ele><time>2026-04-18T07:28:26.076Z</time></trkpt><trkpt lat="43.5608678" lon="11.9063645"><ele>565.2</ele><time>2026-04-18T07:28:27.077Z</time></trkpt><trkpt lat="43.5608818" lon="11.9064761"><ele>565.8000000000001</ele><time>2026-04-18T07:28:28.077Z</time></trkpt><trkpt lat="43.5609279" lon="11.9065819"><ele>566.4</ele><time>2026-04-18T07:28:29.076Z</time></trkpt><trkpt lat="43.5609641" lon="11.9067117"><ele>567.0</ele><time>2026-04-18T07:28:30.076Z</time></trkpt><trkpt lat="43.5610074" lon="11.9068422"><ele>567.0</ele><time>2026-04-18T07:28:31.076Z</time></trkpt><trkpt lat="43.5610162" lon="11.9069614"><ele>567.0</ele><time>2026-04-18T07:28:32.077Z</time></trkpt><trkpt lat="43.5610514" lon="11.9070761"><ele>567.0</ele><time>2026-04-18T07:28:34.077Z</time></trkpt><trkpt lat="43.5610558" lon="11.9072104"><ele>567.0</ele><time>2026-04-18T07:28:36.076Z</time></trkpt><trkpt lat="43.5610727" lon="11.907296"><ele>567.0</ele><time>2026-04-18T07:28:37.076Z</time></trkpt><trkpt lat="43.5611071" lon="11.9073898"><ele>567.0</ele><time>2026-04-18T07:28:38.077Z</time></trkpt><trkpt lat="43.5611607" lon="11.9074821"><ele>566.5</ele><time>2026-04-18T07:28:39.077Z</time></trkpt><trkpt lat="43.5612156" lon="11.9075698"><ele>566.0</ele><time>2026-04-18T07:28:40.076Z</time></trkpt><trkpt lat="43.5612685" lon="11.9076548"><ele>565.5</ele><time>2026-04-18T07:28:41.077Z</time></trkpt><trkpt lat="43.5613127" lon="11.9077773"><ele>565.0</ele><time>2026-04-18T07:28:42.077Z</time></trkpt><trkpt lat="43.5613491" lon="11.9078883"><ele>564.5</ele><time>2026-04-18T07:28:43.077Z</time></trkpt><trkpt lat="43.5613804" lon="11.9079936"><ele>564.0</ele><time>2026-04-18T07:28:44.077Z</time></trkpt><trkpt lat="43.5614223" lon="11.9081025"><ele>564.0</ele><time>2026-04-18T07:28:45.076Z</time></trkpt><trkpt lat="43.5614394" lon="11.9082184"><ele>564.0</ele><time>2026-04-18T07:28:46.076Z</time></trkpt><trkpt lat="43.5614668" lon="11.908311"><ele>564.0</ele><time>2026-04-18T07:28:47.076Z</time></trkpt><trkpt lat="43.5615155" lon="11.9083842"><ele>564.0</ele><time>2026-04-18T07:28:48.076Z</time></trkpt><trkpt lat="43.5615661" lon="11.9084428"><ele>564.0</ele><time>2026-04-18T07:28:49.077Z</time></trkpt><trkpt lat="43.5616339" lon="11.9084966"><ele>564.0</ele><time>2026-04-18T07:28:50.076Z</time></trkpt><trkpt lat="43.561691" lon="11.9085687"><ele>563.6666666666666</ele><time>2026-04-18T07:28:51.077Z</time></trkpt><trkpt lat="43.561742" lon="11.9086536"><ele>563.3333333333334</ele><time>2026-04-18T07:28:52.076Z</time></trkpt><trkpt lat="43.561762" lon="11.9087538"><ele>563.0</ele><time>2026-04-18T07:28:53.076Z</time></trkpt><trkpt lat="43.5618109" lon="11.9089365"><ele>562.6666666666667</ele><time>2026-04-18T07:28:55.076Z</time></trkpt><trkpt lat="43.5618451" lon="11.9090297"><ele>562.3333333333334</ele><time>2026-04-18T07:28:56.076Z</time></trkpt><trkpt lat="43.5619018" lon="11.9090816"><ele>562.0</ele><time>2026-04-18T07:28:57.076Z</time></trkpt><trkpt lat="43.5620026" lon="11.9092016"><ele>560.1666666666667</ele><time>2026-04-18T07:28:59.076Z</time></trkpt><trkpt lat="43.5620638" lon="11.9092618"><ele>558.3333333333334</ele><time>2026-04-18T07:29:00.077Z</time></trkpt><trkpt lat="43.5620998" lon="11.9093975"><ele>556.5</ele><time>2026-04-18T07:29:02.077Z</time></trkpt><trkpt lat="43.5620996" lon="11.90949"><ele>554.6666666666666</ele><time>2026-04-18T07:29:03.076Z</time></trkpt><trkpt lat="43.5621144" lon="11.9096301"><ele>552.8333333333333</ele><time>2026-04-18T07:29:05.077Z</time></trkpt><trkpt lat="43.5621675" lon="11.909735"><ele>551.0</ele><time>2026-04-18T07:29:06.077Z</time></trkpt><trkpt lat="43.5622232" lon="11.9098305"><ele>551.0</ele><time>2026-04-18T07:29:07.077Z</time></trkpt><trkpt lat="43.562279" lon="11.9099096"><ele>551.0</ele><time>2026-04-18T07:29:08.076Z</time></trkpt><trkpt lat="43.5623537" lon="11.9100477"><ele>551.0</ele><time>2026-04-18T07:29:10.076Z</time></trkpt><trkpt lat="43.562368" lon="11.9101446"><ele>551.0</ele><time>2026-04-18T07:29:12.077Z</time></trkpt><trkpt lat="43.5623592" lon="11.9103345"><ele>551.0</ele><time>2026-04-18T07:29:14.077Z</time></trkpt><trkpt lat="43.5624006" lon="11.9105049"><ele>552.0</ele><time>2026-04-18T07:29:16.076Z</time></trkpt><trkpt lat="43.562442" lon="11.9106016"><ele>553.0</ele><time>2026-04-18T07:29:17.076Z</time></trkpt><trkpt lat="43.5624795" lon="11.9106811"><ele>554.0</ele><time>2026-04-18T07:29:18.076Z</time></trkpt><trkpt lat="43.5625733" lon="11.9107065"><ele>555.0</ele><time>2026-04-18T07:29:20.076Z</time></trkpt><trkpt lat="43.5626125" lon="11.910818"><ele>556.0</ele><time>2026-04-18T07:29:22.076Z</time></trkpt><trkpt lat="43.562672" lon="11.9108962"><ele>557.0</ele><time>2026-04-18T07:29:23.076Z</time></trkpt><trkpt lat="43.5627237" lon="11.9110089"><ele>559.3333333333333</ele><time>2026-04-18T07:29:24.076Z</time></trkpt><trkpt lat="43.562775" lon="11.9110887"><ele>561.6666666666666</ele><time>2026-04-18T07:29:25.076Z</time></trkpt><trkpt lat="43.5628523" lon="11.9112373"><ele>564.0</ele><time>2026-04-18T07:29:27.077Z</time></trkpt><trkpt lat="43.5628792" lon="11.9113173"><ele>566.3333333333334</ele><time>2026-04-18T07:29:28.077Z</time></trkpt><trkpt lat="43.5629355" lon="11.911417"><ele>568.6666666666667</ele><time>2026-04-18T07:29:29.077Z</time></trkpt><trkpt lat="43.5629471" lon="11.9115283"><ele>571.0</ele><time>2026-04-18T07:29:30.077Z</time></trkpt><trkpt lat="43.5630041" lon="11.9116418"><ele>566.3333333333334</ele><time>2026-04-18T07:29:31.077Z</time></trkpt><trkpt lat="43.5630288" lon="11.9117509"><ele>561.6666666666667</ele><time>2026-04-18T07:29:32.077Z</time></trkpt><trkpt lat="43.563069" lon="11.9118606"><ele>557.0</ele><time>2026-04-18T07:29:33.076Z</time></trkpt><trkpt lat="43.5630966" lon="11.9119506"><ele>552.3333333333334</ele><time>2026-04-18T07:29:34.076Z</time></trkpt><trkpt lat="43.5631486" lon="11.9120642"><ele>547.6666666666666</ele><time>2026-04-18T07:29:36.076Z</time></trkpt><trkpt lat="43.5631757" lon="11.9121961"><ele>543.0</ele><time>2026-04-18T07:29:38.076Z</time></trkpt><trkpt lat="43.563197" lon="11.9123948"><ele>543.0</ele><time>2026-04-18T07:29:40.077Z</time></trkpt><trkpt lat="43.5632239" lon="11.9125085"><ele>543.0</ele><time>2026-04-18T07:29:41.076Z</time></trkpt><trkpt lat="43.5632373" lon="11.9126062"><ele>543.0</ele><time>2026-04-18T07:29:42.077Z</time></trkpt><trkpt lat="43.5632619" lon="11.9127132"><ele>543.0</ele><time>2026-04-18T07:29:43.076Z</time></trkpt><trkpt lat="43.5633042" lon="11.9127793"><ele>543.0</ele><time>2026-04-18T07:29:44.077Z</time></trkpt><trkpt lat="43.5632878" lon="11.912926"><ele>543.0</ele><time>2026-04-18T07:29:46.076Z</time></trkpt><trkpt lat="43.5633253" lon="11.9130245"><ele>543.3333333333334</ele><time>2026-04-18T07:29:47.077Z</time></trkpt><trkpt lat="43.5633661" lon="11.9131334"><ele>543.6666666666666</ele><time>2026-04-18T07:29:48.076Z</time></trkpt><trkpt lat="43.5634012" lon="11.9132361"><ele>544.0</ele><time>2026-04-18T07:29:49.077Z</time></trkpt><trkpt lat="43.5634424" lon="11.9133255"><ele>544.3333333333333</ele><time>2026-04-18T07:29:50.076Z</time></trkpt><trkpt lat="43.5634672" lon="11.9134098"><ele>544.6666666666666</ele><time>2026-04-18T07:29:51.077Z</time></trkpt><trkpt lat="43.5634902" lon="11.9135442"><ele>545.0</ele><time>2026-04-18T07:29:53.077Z</time></trkpt><trkpt lat="43.5634788" lon="11.9136356"><ele>545.0</ele><time>2026-04-18T07:29:55.077Z</time></trkpt><trkpt lat="43.5634802" lon="11.9137707"><ele>545.0</ele><time>2026-04-18T07:29:57.076Z</time></trkpt><trkpt lat="43.5634504" lon="11.9138908"><ele>545.0</ele><time>2026-04-18T07:29:59.076Z</time></trkpt><trkpt lat="43.5633816" lon="11.9139466"><ele>545.0</ele><time>2026-04-18T07:30:01.076Z</time></trkpt><trkpt lat="43.5633267" lon="11.9140175"><ele>545.0</ele><time>2026-04-18T07:30:03.077Z</time></trkpt><trkpt lat="43.5632511" lon="11.914121"><ele>545.0</ele><time>2026-04-18T07:30:05.076Z</time></trkpt><trkpt lat="43.5631462" lon="11.9141731"><ele>545.0</ele><time>2026-04-18T07:30:07.076Z</time></trkpt><trkpt lat="43.5630799" lon="11.914305"><ele>545.0</ele><time>2026-04-18T07:30:09.076Z</time></trkpt><trkpt lat="43.5630444" lon="11.9143826"><ele>545.0</ele><time>2026-04-18T07:30:10.077Z</time></trkpt><trkpt lat="43.5629778" lon="11.9145081"><ele>545.0</ele><time>2026-04-18T07:30:12.077Z</time></trkpt><trkpt lat="43.5629237" lon="11.9145838"><ele>545.0</ele><time>2026-04-18T07:30:13.076Z</time></trkpt><trkpt lat="43.5628416" lon="11.9145965"><ele>545.0</ele><time>2026-04-18T07:30:14.077Z</time></trkpt><trkpt lat="43.5627672" lon="11.9146042"><ele>545.0</ele><time>2026-04-18T07:30:16.077Z</time></trkpt><trkpt lat="43.5626787" lon="11.914611"><ele>545.0</ele><time>2026-04-18T07:30:18.077Z</time></trkpt><trkpt lat="43.5625907" lon="11.9145876"><ele>545.0</ele><time>2026-04-18T07:30:20.076Z</time></trkpt><trkpt lat="43.5625024" lon="11.9146137"><ele>545.0</ele><time>2026-04-18T07:30:22.076Z</time></trkpt><trkpt lat="43.5625266" lon="11.9147196"><ele>545.0</ele><time>2026-04-18T07:30:24.076Z</time></trkpt><trkpt lat="43.5625553" lon="11.914838"><ele>545.0</ele><time>2026-04-18T07:30:27.076Z</time></trkpt><trkpt lat="43.5626009" lon="11.9149126"><ele>545.0</ele><time>2026-04-18T07:30:29.077Z</time></trkpt><trkpt lat="43.5626765" lon="11.9149502"><ele>545.0</ele><time>2026-04-18T07:30:32.076Z</time></trkpt><trkpt lat="43.5627411" lon="11.9149767"><ele>545.0</ele><time>2026-04-18T07:30:35.077Z</time></trkpt><trkpt lat="43.5628122" lon="11.9150088"><ele>545.0</ele><time>2026-04-18T07:30:39.076Z</time></trkpt><trkpt lat="43.5628655" lon="11.9150812"><ele>545.0</ele><time>2026-04-18T07:30:41.077Z</time></trkpt><trkpt lat="43.5629264" lon="11.9151681"><ele>545.0</ele><time>2026-04-18T07:30:43.077Z</time></trkpt><trkpt lat="43.5629839" lon="11.9152226"><ele>545.0</ele><time>2026-04-18T07:30:45.077Z</time></trkpt><trkpt lat="43.5630371" lon="11.9152794"><ele>545.0</ele><time>2026-04-18T07:30:47.076Z</time></trkpt><trkpt lat="43.5630707" lon="11.9153816"><ele>545.0</ele><time>2026-04-18T07:30:50.077Z</time></trkpt><trkpt lat="43.5631113" lon="11.915448"><ele>545.0</ele><time>2026-04-18T07:30:52.076Z</time></trkpt><trkpt lat="43.5632211" lon="11.9155111"><ele>545.0</ele><time>2026-04-18T07:30:53.077Z</time></trkpt><trkpt lat="43.5633057" lon="11.9155741"><ele>545.0</ele><time>2026-04-18T07:30:54.076Z</time></trkpt><trkpt lat="43.5633888" lon="11.9156595"><ele>545.0</ele><time>2026-04-18T07:30:55.077Z</time></trkpt><trkpt lat="43.5634582" lon="11.9157232"><ele>545.0</ele><time>2026-04-18T07:30:56.076Z</time></trkpt><trkpt lat="43.5635565" lon="11.9158154"><ele>545.0</ele><time>2026-04-18T07:30:57.077Z</time></trkpt><trkpt lat="43.5636324" lon="11.9159033"><ele>544.6666666666666</ele><time>2026-04-18T07:30:58.076Z</time></trkpt><trkpt lat="43.5637011" lon="11.9159508"><ele>544.3333333333333</ele><time>2026-04-18T07:30:59.076Z</time></trkpt><trkpt lat="43.563789" lon="11.9160159"><ele>544.0</ele><time>2026-04-18T07:31:00.076Z</time></trkpt><trkpt lat="43.5638635" lon="11.9160787"><ele>543.6666666666666</ele><time>2026-04-18T07:31:01.076Z</time></trkpt><trkpt lat="43.5639315" lon="11.9161581"><ele>543.3333333333334</ele><time>2026-04-18T07:31:02.076Z</time></trkpt><trkpt lat="43.5639731" lon="11.9162511"><ele>543.0</ele><time>2026-04-18T07:31:03.076Z</time></trkpt><trkpt lat="43.5640526" lon="11.9163325"><ele>543.0</ele><time>2026-04-18T07:31:04.076Z</time></trkpt><trkpt lat="43.5641059" lon="11.9164166"><ele>543.0</ele><time>2026-04-18T07:31:05.077Z</time></trkpt><trkpt lat="43.5642214" lon="11.9165281"><ele>543.0</ele><time>2026-04-18T07:31:07.076Z</time></trkpt><trkpt lat="43.5643599" lon="11.9166443"><ele>543.0</ele><time>2026-04-18T07:31:09.076Z</time></trkpt><trkpt lat="43.5644133" lon="11.9166927"><ele>543.0</ele><time>2026-04-18T07:31:10.076Z</time></trkpt><trkpt lat="43.5644905" lon="11.9167945"><ele>541.6</ele><time>2026-04-18T07:31:12.076Z</time></trkpt><trkpt lat="43.5644998" lon="11.9169151"><ele>540.1999999999999</ele><time>2026-04-18T07:31:14.076Z</time></trkpt><trkpt lat="43.5644697" lon="11.9170014"><ele>538.8</ele><time>2026-04-18T07:31:16.076Z</time></trkpt><trkpt lat="43.5644254" lon="11.917104"><ele>537.4</ele><time>2026-04-18T07:31:18.076Z</time></trkpt><trkpt lat="43.5643578" lon="11.9171823"><ele>536.0</ele><time>2026-04-18T07:31:20.076Z</time></trkpt><trkpt lat="43.5642435" lon="11.9172827"><ele>536.0</ele><time>2026-04-18T07:31:21.076Z</time></trkpt><trkpt lat="43.5641712" lon="11.9173533"><ele>536.0</ele><time>2026-04-18T07:31:22.076Z</time></trkpt><trkpt lat="43.5641008" lon="11.9174528"><ele>536.0</ele><time>2026-04-18T07:31:23.076Z</time></trkpt><trkpt lat="43.5640482" lon="11.9175208"><ele>536.0</ele><time>2026-04-18T07:31:24.077Z</time></trkpt><trkpt lat="43.5639665" lon="11.9176614"><ele>536.0</ele><time>2026-04-18T07:31:26.077Z</time></trkpt><trkpt lat="43.5639126" lon="11.9177871"><ele>539.0</ele><time>2026-04-18T07:31:27.077Z</time></trkpt><trkpt lat="43.5638432" lon="11.9179392"><ele>542.0</ele><time>2026-04-18T07:31:28.076Z</time></trkpt><trkpt lat="43.5637759" lon="11.9180513"><ele>545.0</ele><time>2026-04-18T07:31:29.076Z</time></trkpt><trkpt lat="43.5637154" lon="11.9181736"><ele>548.0</ele><time>2026-04-18T07:31:30.077Z</time></trkpt><trkpt lat="43.5636649" lon="11.9183031"><ele>543.8</ele><time>2026-04-18T07:31:31.076Z</time></trkpt><trkpt lat="43.563586" lon="11.9184512"><ele>539.5999999999999</ele><time>2026-04-18T07:31:32.076Z</time></trkpt><trkpt lat="43.5635302" lon="11.9185685"><ele>535.4000000000001</ele><time>2026-04-18T07:31:33.076Z</time></trkpt><trkpt lat="43.5635213" lon="11.9186928"><ele>531.2</ele><time>2026-04-18T07:31:34.076Z</time></trkpt><trkpt lat="43.5634777" lon="11.9187982"><ele>527.0</ele><time>2026-04-18T07:31:35.076Z</time></trkpt><trkpt lat="43.5634292" lon="11.9188969"><ele>527.0</ele><time>2026-04-18T07:31:36.076Z</time></trkpt><trkpt lat="43.563378" lon="11.9190127"><ele>527.0</ele><time>2026-04-18T07:31:37.076Z</time></trkpt><trkpt lat="43.5633527" lon="11.9191175"><ele>527.0</ele><time>2026-04-18T07:31:38.076Z</time></trkpt><trkpt lat="43.5632751" lon="11.9193025"><ele>527.0</ele><time>2026-04-18T07:31:40.076Z</time></trkpt><trkpt lat="43.5632014" lon="11.9194094"><ele>527.0</ele><time>2026-04-18T07:31:41.077Z</time></trkpt><trkpt lat="43.5631466" lon="11.9195281"><ele>525.0</ele><time>2026-04-18T07:31:42.077Z</time></trkpt><trkpt lat="43.5630955" lon="11.9196147"><ele>523.0</ele><time>2026-04-18T07:31:43.076Z</time></trkpt><trkpt lat="43.5630431" lon="11.9197028"><ele>521.0</ele><time>2026-04-18T07:31:44.077Z</time></trkpt><trkpt lat="43.5629935" lon="11.9197838"><ele>519.0</ele><time>2026-04-18T07:31:45.077Z</time></trkpt><trkpt lat="43.5629331" lon="11.9198383"><ele>517.0</ele><time>2026-04-18T07:31:46.077Z</time></trkpt><trkpt lat="43.5628185" lon="11.9198947"><ele>515.0</ele><time>2026-04-18T07:31:48.076Z</time></trkpt><trkpt lat="43.5627452" lon="11.9198633"><ele>515.0</ele><time>2026-04-18T07:31:49.077Z</time></trkpt><trkpt lat="43.5626487" lon="11.9198144"><ele>515.0</ele><time>2026-04-18T07:31:51.077Z</time></trkpt><trkpt lat="43.562549" lon="11.9198101"><ele>515.0</ele><time>2026-04-18T07:31:53.076Z</time></trkpt><trkpt lat="43.5624596" lon="11.9198648"><ele>515.0</ele><time>2026-04-18T07:31:55.076Z</time></trkpt><trkpt lat="43.5623938" lon="11.9198534"><ele>515.0</ele><time>2026-04-18T07:31:57.076Z</time></trkpt><trkpt lat="43.562304" lon="11.919857"><ele>515.0</ele><time>2026-04-18T07:31:59.076Z</time></trkpt><trkpt lat="43.5622095" lon="11.9198712"><ele>515.0</ele><time>2026-04-18T07:32:01.076Z</time></trkpt><trkpt lat="43.5620487" lon="11.9198541"><ele>515.0</ele><time>2026-04-18T07:32:03.076Z</time></trkpt><trkpt lat="43.5619576" lon="11.9198514"><ele>515.0</ele><time>2026-04-18T07:32:04.076Z</time></trkpt><trkpt lat="43.5619054" lon="11.9199285"><ele>515.0</ele><time>2026-04-18T07:32:06.077Z</time></trkpt><trkpt lat="43.5618288" lon="11.9199973"><ele>516.0</ele><time>2026-04-18T07:32:08.077Z</time></trkpt><trkpt lat="43.5617331" lon="11.9200477"><ele>517.0</ele><time>2026-04-18T07:32:10.077Z</time></trkpt><trkpt lat="43.5616336" lon="11.9201124"><ele>518.0</ele><time>2026-04-18T07:32:12.077Z</time></trkpt><trkpt lat="43.5615708" lon="11.9201369"><ele>519.0</ele><time>2026-04-18T07:32:13.077Z</time></trkpt><trkpt lat="43.5614695" lon="11.9201836"><ele>520.0</ele><time>2026-04-18T07:32:15.077Z</time></trkpt><trkpt lat="43.5613533" lon="11.9202016"><ele>518.6666666666667</ele><time>2026-04-18T07:32:17.077Z</time></trkpt><trkpt lat="43.5612874" lon="11.9202289"><ele>517.3333333333334</ele><time>2026-04-18T07:32:18.077Z</time></trkpt><trkpt lat="43.5612066" lon="11.9202101"><ele>516.0</ele><time>2026-04-18T07:32:19.076Z</time></trkpt><trkpt lat="43.5611092" lon="11.9201811"><ele>514.6666666666666</ele><time>2026-04-18T07:32:21.076Z</time></trkpt><trkpt lat="43.5610469" lon="11.9201007"><ele>513.3333333333333</ele><time>2026-04-18T07:32:23.076Z</time></trkpt><trkpt lat="43.5609772" lon="11.9200201"><ele>512.0</ele><time>2026-04-18T07:32:26.077Z</time></trkpt><trkpt lat="43.5609129" lon="11.9199586"><ele>511.99999999999994</ele><time>2026-04-18T07:32:28.076Z</time></trkpt><trkpt lat="43.5608452" lon="11.9200089"><ele>512.0</ele><time>2026-04-18T07:32:30.076Z</time></trkpt><trkpt lat="43.5607397" lon="11.9199979"><ele>512.0</ele><time>2026-04-18T07:32:33.076Z</time></trkpt><trkpt lat="43.560665" lon="11.9200008"><ele>512.0</ele><time>2026-04-18T07:32:35.077Z</time></trkpt><trkpt lat="43.5606723" lon="11.9200886"><ele>511.99999999999994</ele><time>2026-04-18T07:32:38.077Z</time></trkpt><trkpt lat="43.5607501" lon="11.9201572"><ele>512.0</ele><time>2026-04-18T07:32:40.076Z</time></trkpt><trkpt lat="43.5609028" lon="11.9202241"><ele>508.2857142857143</ele><time>2026-04-18T07:32:42.076Z</time></trkpt><trkpt lat="43.5609621" lon="11.9202629"><ele>504.57142857142856</ele><time>2026-04-18T07:32:43.077Z</time></trkpt><trkpt lat="43.5610229" lon="11.9203042"><ele>500.85714285714283</ele><time>2026-04-18T07:32:44.077Z</time></trkpt><trkpt lat="43.5610982" lon="11.9203628"><ele>497.1428571428571</ele><time>2026-04-18T07:32:46.076Z</time></trkpt><trkpt lat="43.5611611" lon="11.9204125"><ele>493.42857142857144</ele><time>2026-04-18T07:32:57.076Z</time></trkpt><trkpt lat="43.5612309" lon="11.9204536"><ele>489.71428571428567</ele><time>2026-04-18T07:33:03.077Z</time></trkpt><trkpt lat="43.5612983" lon="11.9204618"><ele>486.0</ele><time>2026-04-18T07:33:04.076Z</time></trkpt><trkpt lat="43.5613753" lon="11.9204549"><ele>486.0</ele><time>2026-04-18T07:33:06.077Z</time></trkpt><trkpt lat="43.5613977" lon="11.9205556"><ele>486.0</ele><time>2026-04-18T07:33:10.076Z</time></trkpt><trkpt lat="43.5613217" lon="11.9206611"><ele>486.0</ele><time>2026-04-18T07:33:13.077Z</time></trkpt><trkpt lat="43.5612705" lon="11.9207549"><ele>486.0</ele><time>2026-04-18T07:33:15.077Z</time></trkpt><trkpt lat="43.5612374" lon="11.9208603"><ele>486.0</ele><time>2026-04-18T07:33:18.076Z</time></trkpt><trkpt lat="43.5612713" lon="11.9209724"><ele>486.0</ele><time>2026-04-18T07:33:21.077Z</time></trkpt><trkpt lat="43.5613173" lon="11.9210477"><ele>482.3333333333333</ele><time>2026-04-18T07:33:24.077Z</time></trkpt><trkpt lat="43.5613548" lon="11.9211591"><ele>478.66666666666663</ele><time>2026-04-18T07:33:26.077Z</time></trkpt><trkpt lat="43.5613504" lon="11.9212868"><ele>475.0</ele><time>2026-04-18T07:33:29.076Z</time></trkpt><trkpt lat="43.561304" lon="11.9213588"><ele>471.3333333333333</ele><time>2026-04-18T07:33:31.077Z</time></trkpt><trkpt lat="43.5612427" lon="11.92144"><ele>467.66666666666663</ele><time>2026-04-18T07:33:33.077Z</time></trkpt><trkpt lat="43.5612144" lon="11.9215404"><ele>464.0</ele><time>2026-04-18T07:33:35.076Z</time></trkpt><trkpt lat="43.561225" lon="11.9216355"><ele>460.6</ele><time>2026-04-18T07:33:37.077Z</time></trkpt><trkpt lat="43.56123" lon="11.9217443"><ele>457.2</ele><time>2026-04-18T07:33:39.076Z</time></trkpt><trkpt lat="43.5611219" lon="11.9218814"><ele>453.80000000000007</ele><time>2026-04-18T07:33:42.076Z</time></trkpt><trkpt lat="43.5610688" lon="11.9219371"><ele>450.40000000000003</ele><time>2026-04-18T07:33:43.076Z</time></trkpt><trkpt lat="43.560998" lon="11.9219979"><ele>447.0</ele><time>2026-04-18T07:33:44.076Z</time></trkpt><trkpt lat="43.5609027" lon="11.9220758"><ele>447.0</ele><time>2026-04-18T07:33:46.077Z</time></trkpt><trkpt lat="43.5608157" lon="11.922127"><ele>447.00000000000006</ele><time>2026-04-18T07:33:48.077Z</time></trkpt><trkpt lat="43.5608456" lon="11.9222196"><ele>447.00000000000006</ele><time>2026-04-18T07:33:50.076Z</time></trkpt><trkpt lat="43.5609684" lon="11.9222535"><ele>447.0</ele><time>2026-04-18T07:33:52.076Z</time></trkpt><trkpt lat="43.5610683" lon="11.9222737"><ele>447.0</ele><time>2026-04-18T07:33:54.077Z</time></trkpt><trkpt lat="43.5611498" lon="11.9223318"><ele>446.99999999999994</ele><time>2026-04-18T07:33:56.076Z</time></trkpt><trkpt lat="43.5610927" lon="11.9224024"><ele>447.0</ele><time>2026-04-18T07:33:58.076Z</time></trkpt><trkpt lat="43.5610375" lon="11.9224472"><ele>447.0</ele><time>2026-04-18T07:34:00.076Z</time></trkpt><trkpt lat="43.5609787" lon="11.9225087"><ele>447.0</ele><time>2026-04-18T07:34:02.077Z</time></trkpt><trkpt lat="43.5609329" lon="11.9225766"><ele>447.0</ele><time>2026-04-18T07:34:04.076Z</time></trkpt><trkpt lat="43.5608872" lon="11.9226692"><ele>446.99999999999994</ele><time>2026-04-18T07:34:06.076Z</time></trkpt><trkpt lat="43.56086" lon="11.9227713"><ele>447.0</ele><time>2026-04-18T07:34:07.077Z</time></trkpt><trkpt lat="43.5608086" lon="11.9228774"><ele>444.0</ele><time>2026-04-18T07:34:09.076Z</time></trkpt><trkpt lat="43.5607465" lon="11.9230106"><ele>441.0</ele><time>2026-04-18T07:34:11.077Z</time></trkpt><trkpt lat="43.5607159" lon="11.9231052"><ele>438.0</ele><time>2026-04-18T07:34:12.076Z</time></trkpt><trkpt lat="43.5606666" lon="11.9231894"><ele>435.0</ele><time>2026-04-18T07:34:13.076Z</time></trkpt><trkpt lat="43.5606221" lon="11.9233263"><ele>432.0</ele><time>2026-04-18T07:34:15.076Z</time></trkpt><trkpt lat="43.5605982" lon="11.9234146"><ele>429.0</ele><time>2026-04-18T07:34:18.076Z</time></trkpt><trkpt lat="43.5605766" lon="11.9235436"><ele>426.6666666666667</ele><time>2026-04-18T07:34:20.077Z</time></trkpt><trkpt lat="43.5606119" lon="11.9236359"><ele>424.33333333333337</ele><time>2026-04-18T07:34:22.076Z</time></trkpt><trkpt lat="43.5606833" lon="11.9236633"><ele>422.0</ele><time>2026-04-18T07:34:24.077Z</time></trkpt><trkpt lat="43.5607286" lon="11.9237529"><ele>419.6666666666667</ele><time>2026-04-18T07:34:26.077Z</time></trkpt><trkpt lat="43.5607191" lon="11.9238794"><ele>417.33333333333337</ele><time>2026-04-18T07:34:29.077Z</time></trkpt><trkpt lat="43.5606511" lon="11.9239335"><ele>415.0</ele><time>2026-04-18T07:34:31.076Z</time></trkpt><trkpt lat="43.560553" lon="11.9239793"><ele>415.0</ele><time>2026-04-18T07:34:33.076Z</time></trkpt><trkpt lat="43.5604688" lon="11.9239959"><ele>415.0</ele><time>2026-04-18T07:34:35.076Z</time></trkpt><trkpt lat="43.560356" lon="11.9238894"><ele>415.0</ele><time>2026-04-18T07:34:36.077Z</time></trkpt><trkpt lat="43.5602683" lon="11.9237868"><ele>415.0</ele><time>2026-04-18T07:34:38.076Z</time></trkpt><trkpt lat="43.5601509" lon="11.9237314"><ele>413.8</ele><time>2026-04-18T07:34:40.076Z</time></trkpt><trkpt lat="43.5600449" lon="11.9237018"><ele>412.6</ele><time>2026-04-18T07:34:42.076Z</time></trkpt><trkpt lat="43.5599819" lon="11.923681"><ele>411.4</ele><time>2026-04-18T07:34:44.076Z</time></trkpt><trkpt lat="43.5598802" lon="11.9237151"><ele>410.2</ele><time>2026-04-18T07:34:46.076Z</time></trkpt><trkpt lat="43.5597995" lon="11.9237546"><ele>409.0</ele><time>2026-04-18T07:34:47.076Z</time></trkpt><trkpt lat="43.5597329" lon="11.9238722"><ele>409.00000000000006</ele><time>2026-04-18T07:34:49.076Z</time></trkpt><trkpt lat="43.5597061" lon="11.9239524"><ele>409.0</ele><time>2026-04-18T07:34:50.076Z</time></trkpt><trkpt lat="43.5596459" lon="11.9240422"><ele>409.0</ele><time>2026-04-18T07:34:52.076Z</time></trkpt><trkpt lat="43.5595895" lon="11.9241326"><ele>409.0</ele><time>2026-04-18T07:34:54.076Z</time></trkpt><trkpt lat="43.5595407" lon="11.9242146"><ele>409.00000000000006</ele><time>2026-04-18T07:34:56.076Z</time></trkpt><trkpt lat="43.5595284" lon="11.9243185"><ele>409.0</ele><time>2026-04-18T07:34:58.077Z</time></trkpt><trkpt lat="43.5595227" lon="11.9244493"><ele>405.0</ele><time>2026-04-18T07:35:00.077Z</time></trkpt><trkpt lat="43.5595367" lon="11.9245887"><ele>401.0</ele><time>2026-04-18T07:35:02.076Z</time></trkpt><trkpt lat="43.5595533" lon="11.9247229"><ele>397.0</ele><time>2026-04-18T07:35:04.076Z</time></trkpt><trkpt lat="43.5595487" lon="11.9249052"><ele>393.0</ele><time>2026-04-18T07:35:06.076Z</time></trkpt><trkpt lat="43.5595566" lon="11.9250619"><ele>389.0</ele><time>2026-04-18T07:35:08.076Z</time></trkpt><trkpt lat="43.5596307" lon="11.9251566"><ele>384.8333333333333</ele><time>2026-04-18T07:35:10.077Z</time></trkpt><trkpt lat="43.5596714" lon="11.9252459"><ele>380.66666666666663</ele><time>2026-04-18T07:35:12.077Z</time></trkpt><trkpt lat="43.5596757" lon="11.9253581"><ele>376.5</ele><time>2026-04-18T07:35:14.076Z</time></trkpt><trkpt lat="43.5596344" lon="11.9254618"><ele>372.3333333333333</ele><time>2026-04-18T07:35:17.076Z</time></trkpt><trkpt lat="43.5595729" lon="11.9255065"><ele>368.16666666666663</ele><time>2026-04-18T07:35:19.077Z</time></trkpt><trkpt lat="43.5595041" lon="11.9255132"><ele>364.0</ele><time>2026-04-18T07:35:21.077Z</time></trkpt><trkpt lat="43.5594423" lon="11.9254683"><ele>364.0</ele><time>2026-04-18T07:35:23.076Z</time></trkpt><trkpt lat="43.5593421" lon="11.9253903"><ele>364.0</ele><time>2026-04-18T07:35:25.076Z</time></trkpt><trkpt lat="43.5592579" lon="11.9253281"><ele>364.0</ele><time>2026-04-18T07:35:27.076Z</time></trkpt><trkpt lat="43.55919" lon="11.9252532"><ele>364.0</ele><time>2026-04-18T07:35:29.077Z</time></trkpt><trkpt lat="43.5591297" lon="11.9251322"><ele>364.0</ele><time>2026-04-18T07:35:31.076Z</time></trkpt><trkpt lat="43.5590683" lon="11.9250471"><ele>364.0</ele><time>2026-04-18T07:35:33.077Z</time></trkpt><trkpt lat="43.5590031" lon="11.9249755"><ele>364.0</ele><time>2026-04-18T07:35:35.076Z</time></trkpt><trkpt lat="43.5589285" lon="11.9249979"><ele>364.0</ele><time>2026-04-18T07:35:37.076Z</time></trkpt><trkpt lat="43.558862" lon="11.9250332"><ele>364.0</ele><time>2026-04-18T07:35:39.076Z</time></trkpt><trkpt lat="43.5588189" lon="11.9251082"><ele>364.0</ele><time>2026-04-18T07:35:41.076Z</time></trkpt><trkpt lat="43.5588001" lon="11.9252038"><ele>364.0</ele><time>2026-04-18T07:35:43.076Z</time></trkpt><trkpt lat="43.5587796" lon="11.9253221"><ele>364.0</ele><time>2026-04-18T07:35:45.076Z</time></trkpt><trkpt lat="43.5587732" lon="11.9254436"><ele>364.0</ele><time>2026-04-18T07:35:47.076Z</time></trkpt><trkpt lat="43.558791" lon="11.9255633"><ele>364.0</ele><time>2026-04-18T07:35:49.076Z</time></trkpt><trkpt lat="43.5588882" lon="11.925645"><ele>364.0</ele><time>2026-04-18T07:35:51.076Z</time></trkpt><trkpt lat="43.5589923" lon="11.9257495"><ele>364.0</ele><time>2026-04-18T07:35:53.077Z</time></trkpt><trkpt lat="43.5590956" lon="11.9258504"><ele>361.6</ele><time>2026-04-18T07:35:55.076Z</time></trkpt><trkpt lat="43.5591253" lon="11.9259298"><ele>359.2</ele><time>2026-04-18T07:35:56.077Z</time></trkpt><trkpt lat="43.5591941" lon="11.9260491"><ele>356.8</ele><time>2026-04-18T07:35:58.077Z</time></trkpt><trkpt lat="43.559241" lon="11.9262219"><ele>354.40000000000003</ele><time>2026-04-18T07:36:00.076Z</time></trkpt><trkpt lat="43.5592863" lon="11.9263454"><ele>352.0</ele><time>2026-04-18T07:36:02.076Z</time></trkpt><trkpt lat="43.5593211" lon="11.9264794"><ele>352.0</ele><time>2026-04-18T07:36:05.076Z</time></trkpt><trkpt lat="43.5593372" lon="11.9266215"><ele>352.0</ele><time>2026-04-18T07:36:07.076Z</time></trkpt><trkpt lat="43.5593678" lon="11.9267728"><ele>352.0</ele><time>2026-04-18T07:36:09.076Z</time></trkpt><trkpt lat="43.5593925" lon="11.9269229"><ele>352.0</ele><time>2026-04-18T07:36:11.076Z</time></trkpt><trkpt lat="43.5593536" lon="11.9270341"><ele>352.0</ele><time>2026-04-18T07:36:13.077Z</time></trkpt><trkpt lat="43.5593133" lon="11.9271582"><ele>350.14285714285717</ele><time>2026-04-18T07:36:16.076Z</time></trkpt><trkpt lat="43.5592705" lon="11.9272262"><ele>348.2857142857143</ele><time>2026-04-18T07:36:18.076Z</time></trkpt><trkpt lat="43.5592212" lon="11.9272875"><ele>346.42857142857144</ele><time>2026-04-18T07:36:20.076Z</time></trkpt><trkpt lat="43.5591674" lon="11.9273596"><ele>344.57142857142856</ele><time>2026-04-18T07:36:23.076Z</time></trkpt><trkpt lat="43.559133" lon="11.9274356"><ele>342.7142857142857</ele><time>2026-04-18T07:36:26.076Z</time></trkpt><trkpt lat="43.559079" lon="11.9274937"><ele>340.85714285714283</ele><time>2026-04-18T07:36:29.077Z</time></trkpt><trkpt lat="43.5590123" lon="11.9275316"><ele>339.0</ele><time>2026-04-18T07:36:32.076Z</time></trkpt><trkpt lat="43.5589351" lon="11.9275861"><ele>338.79999999999995</ele><time>2026-04-18T07:36:35.077Z</time></trkpt><trkpt lat="43.558833" lon="11.9276319"><ele>338.59999999999997</ele><time>2026-04-18T07:36:37.076Z</time></trkpt><trkpt lat="43.5587497" lon="11.9276489"><ele>338.4</ele><time>2026-04-18T07:36:39.077Z</time></trkpt><trkpt lat="43.5586664" lon="11.9276733"><ele>338.2</ele><time>2026-04-18T07:36:41.076Z</time></trkpt><trkpt lat="43.5585306" lon="11.927744"><ele>338.0</ele><time>2026-04-18T07:36:43.076Z</time></trkpt><trkpt lat="43.558429" lon="11.9277925"><ele>336.33333333333337</ele><time>2026-04-18T07:36:44.076Z</time></trkpt><trkpt lat="43.5583017" lon="11.9278564"><ele>334.6666666666667</ele><time>2026-04-18T07:36:45.076Z</time></trkpt><trkpt lat="43.5581446" lon="11.9279283"><ele>333.0</ele><time>2026-04-18T07:36:46.076Z</time></trkpt><trkpt lat="43.5579837" lon="11.9279947"><ele>335.3333333333333</ele><time>2026-04-18T07:36:47.077Z</time></trkpt><trkpt lat="43.5578279" lon="11.9280643"><ele>337.66666666666663</ele><time>2026-04-18T07:36:48.076Z</time></trkpt><trkpt lat="43.5576752" lon="11.9281306"><ele>340.0</ele><time>2026-04-18T07:36:49.077Z</time></trkpt><trkpt lat="43.557539" lon="11.9281977"><ele>340.0</ele><time>2026-04-18T07:36:50.077Z</time></trkpt><trkpt lat="43.5573976" lon="11.9282691"><ele>340.0</ele><time>2026-04-18T07:36:51.076Z</time></trkpt><trkpt lat="43.5572814" lon="11.9283749"><ele>340.0</ele><time>2026-04-18T07:36:52.076Z</time></trkpt><trkpt lat="43.5571712" lon="11.9284897"><ele>340.0</ele><time>2026-04-18T07:36:53.077Z</time></trkpt><trkpt lat="43.5570516" lon="11.9286109"><ele>336.75</ele><time>2026-04-18T07:36:54.077Z</time></trkpt><trkpt lat="43.5569336" lon="11.9287148"><ele>333.5</ele><time>2026-04-18T07:36:55.076Z</time></trkpt><trkpt lat="43.556842" lon="11.928799"><ele>330.25</ele><time>2026-04-18T07:36:56.077Z</time></trkpt><trkpt lat="43.5567085" lon="11.9288808"><ele>327.0</ele><time>2026-04-18T07:36:57.076Z</time></trkpt><trkpt lat="43.5565753" lon="11.9289382"><ele>327.0</ele><time>2026-04-18T07:36:58.076Z</time></trkpt><trkpt lat="43.556423" lon="11.9289928"><ele>327.0</ele><time>2026-04-18T07:36:59.076Z</time></trkpt><trkpt lat="43.5562701" lon="11.9290415"><ele>327.0</ele><time>2026-04-18T07:37:00.076Z</time></trkpt><trkpt lat="43.556117" lon="11.9290791"><ele>326.3333333333333</ele><time>2026-04-18T07:37:01.076Z</time></trkpt><trkpt lat="43.5559562" lon="11.9291308"><ele>325.66666666666663</ele><time>2026-04-18T07:37:02.076Z</time></trkpt><trkpt lat="43.5557805" lon="11.9291895"><ele>325.0</ele><time>2026-04-18T07:37:03.077Z</time></trkpt><trkpt lat="43.5556151" lon="11.9292599"><ele>325.0</ele><time>2026-04-18T07:37:04.076Z</time></trkpt><trkpt lat="43.5554549" lon="11.9293255"><ele>325.0</ele><time>2026-04-18T07:37:05.076Z</time></trkpt><trkpt lat="43.5553068" lon="11.9294042"><ele>325.0</ele><time>2026-04-18T07:37:06.076Z</time></trkpt><trkpt lat="43.5551708" lon="11.9294767"><ele>324.75</ele><time>2026-04-18T07:37:07.076Z</time></trkpt><trkpt lat="43.5550417" lon="11.9295299"><ele>324.5</ele><time>2026-04-18T07:37:08.076Z</time></trkpt><trkpt lat="43.5549117" lon="11.9295839"><ele>324.25</ele><time>2026-04-18T07:37:09.077Z</time></trkpt><trkpt lat="43.5547764" lon="11.9296042"><ele>324.0</ele><time>2026-04-18T07:37:10.077Z</time></trkpt><trkpt lat="43.5546456" lon="11.9295786"><ele>323.3333333333333</ele><time>2026-04-18T07:37:11.076Z</time></trkpt><trkpt lat="43.554481" lon="11.9295367"><ele>322.66666666666663</ele><time>2026-04-18T07:37:12.077Z</time></trkpt><trkpt lat="43.5543062" lon="11.9295044"><ele>322.0</ele><time>2026-04-18T07:37:13.076Z</time></trkpt><trkpt lat="43.5541527" lon="11.9294823"><ele>322.0</ele><time>2026-04-18T07:37:14.077Z</time></trkpt><trkpt lat="43.5540009" lon="11.929478"><ele>322.0</ele><time>2026-04-18T07:37:15.076Z</time></trkpt><trkpt lat="43.5538581" lon="11.9294719"><ele>322.0</ele><time>2026-04-18T07:37:16.076Z</time></trkpt><trkpt lat="43.5537082" lon="11.9294724"><ele>322.0</ele><time>2026-04-18T07:37:17.077Z</time></trkpt><trkpt lat="43.5535447" lon="11.9294773"><ele>321.66666666666663</ele><time>2026-04-18T07:37:18.077Z</time></trkpt><trkpt lat="43.5533919" lon="11.9294798"><ele>321.3333333333333</ele><time>2026-04-18T07:37:19.076Z</time></trkpt><trkpt lat="43.5532342" lon="11.9294901"><ele>321.0</ele><time>2026-04-18T07:37:20.076Z</time></trkpt><trkpt lat="43.5530858" lon="11.9294974"><ele>321.0</ele><time>2026-04-18T07:37:21.076Z</time></trkpt><trkpt lat="43.5529501" lon="11.9294861"><ele>321.0</ele><time>2026-04-18T07:37:22.076Z</time></trkpt><trkpt lat="43.5527967" lon="11.9294718"><ele>321.0</ele><time>2026-04-18T07:37:23.076Z</time></trkpt><trkpt lat="43.5526354" lon="11.9294562"><ele>320.0</ele><time>2026-04-18T07:37:24.077Z</time></trkpt><trkpt lat="43.5524785" lon="11.9294431"><ele>319.0</ele><time>2026-04-18T07:37:25.077Z</time></trkpt><trkpt lat="43.5523238" lon="11.9294351"><ele>318.0</ele><time>2026-04-18T07:37:26.077Z</time></trkpt><trkpt lat="43.5521864" lon="11.9294173"><ele>318.0</ele><time>2026-04-18T07:37:27.076Z</time></trkpt><trkpt lat="43.5520581" lon="11.9294053"><ele>318.0</ele><time>2026-04-18T07:37:28.076Z</time></trkpt><trkpt lat="43.5519366" lon="11.9293893"><ele>318.0</ele><time>2026-04-18T07:37:29.076Z</time></trkpt><trkpt lat="43.5518285" lon="11.9293682"><ele>318.0</ele><time>2026-04-18T07:37:30.076Z</time></trkpt><trkpt lat="43.5517238" lon="11.9293317"><ele>317.3333333333333</ele><time>2026-04-18T07:37:31.077Z</time></trkpt><trkpt lat="43.5516561" lon="11.929305"><ele>316.6666666666667</ele><time>2026-04-18T07:37:32.076Z</time></trkpt><trkpt lat="43.5515731" lon="11.9292709"><ele>316.0</ele><time>2026-04-18T07:37:33.076Z</time></trkpt><trkpt lat="43.5515029" lon="11.9292423"><ele>315.33333333333337</ele><time>2026-04-18T07:37:34.076Z</time></trkpt><trkpt lat="43.5514407" lon="11.9292252"><ele>314.6666666666667</ele><time>2026-04-18T07:37:35.076Z</time></trkpt><trkpt lat="43.5513698" lon="11.9292748"><ele>314.0</ele><time>2026-04-18T07:37:37.076Z</time></trkpt><trkpt lat="43.5513457" lon="11.9294203"><ele>314.0</ele><time>2026-04-18T07:37:39.077Z</time></trkpt><trkpt lat="43.5513476" lon="11.9295369"><ele>314.0</ele><time>2026-04-18T07:37:40.076Z</time></trkpt><trkpt lat="43.5513322" lon="11.9296914"><ele>314.0</ele><time>2026-04-18T07:37:41.077Z</time></trkpt><trkpt lat="43.5513008" lon="11.9298713"><ele>314.0</ele><time>2026-04-18T07:37:42.077Z</time></trkpt><trkpt lat="43.5512509" lon="11.930104"><ele>313.33333333333337</ele><time>2026-04-18T07:37:43.076Z</time></trkpt><trkpt lat="43.5512045" lon="11.9303293"><ele>312.6666666666667</ele><time>2026-04-18T07:37:44.077Z</time></trkpt><trkpt lat="43.5511633" lon="11.9305414"><ele>312.0</ele><time>2026-04-18T07:37:45.076Z</time></trkpt><trkpt lat="43.5511057" lon="11.9307822"><ele>315.3333333333333</ele><time>2026-04-18T07:37:46.077Z</time></trkpt><trkpt lat="43.5510229" lon="11.9310042"><ele>318.66666666666663</ele><time>2026-04-18T07:37:47.076Z</time></trkpt><trkpt lat="43.5509316" lon="11.9311887"><ele>322.0</ele><time>2026-04-18T07:37:48.076Z</time></trkpt><trkpt lat="43.55083" lon="11.9313517"><ele>322.0</ele><time>2026-04-18T07:37:49.076Z</time></trkpt><trkpt lat="43.5507308" lon="11.9314975"><ele>322.0</ele><time>2026-04-18T07:37:50.077Z</time></trkpt><trkpt lat="43.5506399" lon="11.9316424"><ele>322.0</ele><time>2026-04-18T07:37:51.077Z</time></trkpt><trkpt lat="43.5505621" lon="11.9317722"><ele>322.0</ele><time>2026-04-18T07:37:52.077Z</time></trkpt><trkpt lat="43.5504974" lon="11.9318727"><ele>321.0</ele><time>2026-04-18T07:37:53.077Z</time></trkpt><trkpt lat="43.5504304" lon="11.9319506"><ele>320.0</ele><time>2026-04-18T07:37:54.077Z</time></trkpt><trkpt lat="43.5503422" lon="11.9319964"><ele>319.0</ele><time>2026-04-18T07:37:55.076Z</time></trkpt><trkpt lat="43.5502472" lon="11.9320245"><ele>318.0</ele><time>2026-04-18T07:37:56.077Z</time></trkpt><trkpt lat="43.5500922" lon="11.9320102"><ele>317.0</ele><time>2026-04-18T07:37:57.077Z</time></trkpt><trkpt lat="43.5499619" lon="11.931965"><ele>317.0</ele><time>2026-04-18T07:37:58.077Z</time></trkpt><trkpt lat="43.5498082" lon="11.9318894"><ele>317.0</ele><time>2026-04-18T07:37:59.076Z</time></trkpt><trkpt lat="43.5496466" lon="11.9317791"><ele>317.0</ele><time>2026-04-18T07:38:00.076Z</time></trkpt><trkpt lat="43.5494781" lon="11.9316577"><ele>317.6666666666667</ele><time>2026-04-18T07:38:01.077Z</time></trkpt><trkpt lat="43.5493178" lon="11.9315339"><ele>318.3333333333333</ele><time>2026-04-18T07:38:02.076Z</time></trkpt><trkpt lat="43.5491644" lon="11.9314132"><ele>319.0</ele><time>2026-04-18T07:38:03.076Z</time></trkpt><trkpt lat="43.5490282" lon="11.931317"><ele>319.0</ele><time>2026-04-18T07:38:04.076Z</time></trkpt><trkpt lat="43.5489055" lon="11.9312299"><ele>319.0</ele><time>2026-04-18T07:38:05.077Z</time></trkpt><trkpt lat="43.5487918" lon="11.931147"><ele>319.0</ele><time>2026-04-18T07:38:06.076Z</time></trkpt><trkpt lat="43.5486544" lon="11.9311369"><ele>319.0</ele><time>2026-04-18T07:38:08.076Z</time></trkpt><trkpt lat="43.5485813" lon="11.9311371"><ele>318.3333333333333</ele><time>2026-04-18T07:38:09.077Z</time></trkpt><trkpt lat="43.5485061" lon="11.9311508"><ele>317.66666666666663</ele><time>2026-04-18T07:38:10.077Z</time></trkpt><trkpt lat="43.5484368" lon="11.9311799"><ele>317.0</ele><time>2026-04-18T07:38:11.076Z</time></trkpt><trkpt lat="43.5483372" lon="11.9312729"><ele>316.3333333333333</ele><time>2026-04-18T07:38:13.076Z</time></trkpt><trkpt lat="43.5482929" lon="11.9313378"><ele>315.6666666666667</ele><time>2026-04-18T07:38:14.076Z</time></trkpt><trkpt lat="43.5482501" lon="11.9314466"><ele>315.0</ele><time>2026-04-18T07:38:15.077Z</time></trkpt><trkpt lat="43.54821" lon="11.9315901"><ele>318.5</ele><time>2026-04-18T07:38:16.077Z</time></trkpt><trkpt lat="43.5481708" lon="11.9317366"><ele>322.0</ele><time>2026-04-18T07:38:17.077Z</time></trkpt><trkpt lat="43.5481323" lon="11.9318929"><ele>325.5</ele><time>2026-04-18T07:38:18.077Z</time></trkpt><trkpt lat="43.5480786" lon="11.932052"><ele>329.0</ele><time>2026-04-18T07:38:19.077Z</time></trkpt><trkpt lat="43.5480124" lon="11.9322146"><ele>329.0</ele><time>2026-04-18T07:38:20.077Z</time></trkpt><trkpt lat="43.5479593" lon="11.9323828"><ele>329.0</ele><time>2026-04-18T07:38:21.076Z</time></trkpt><trkpt lat="43.5478905" lon="11.9325196"><ele>329.0</ele><time>2026-04-18T07:38:22.077Z</time></trkpt><trkpt lat="43.5478294" lon="11.9326602"><ele>329.0</ele><time>2026-04-18T07:38:23.077Z</time></trkpt><trkpt lat="43.5477751" lon="11.9327718"><ele>327.0</ele><time>2026-04-18T07:38:24.076Z</time></trkpt><trkpt lat="43.5477193" lon="11.9328982"><ele>325.0</ele><time>2026-04-18T07:38:25.076Z</time></trkpt><trkpt lat="43.5476743" lon="11.9330022"><ele>323.0</ele><time>2026-04-18T07:38:26.076Z</time></trkpt><trkpt lat="43.5476261" lon="11.9331041"><ele>321.0</ele><time>2026-04-18T07:38:27.076Z</time></trkpt><trkpt lat="43.5475895" lon="11.9331912"><ele>319.0</ele><time>2026-04-18T07:38:28.076Z</time></trkpt><trkpt lat="43.5475332" lon="11.9332502"><ele>317.0</ele><time>2026-04-18T07:38:29.077Z</time></trkpt><trkpt lat="43.5474772" lon="11.9333447"><ele>320.4</ele><time>2026-04-18T07:38:30.076Z</time></trkpt><trkpt lat="43.5474231" lon="11.9334113"><ele>323.79999999999995</ele><time>2026-04-18T07:38:31.077Z</time></trkpt><trkpt lat="43.547369" lon="11.9334967"><ele>327.2</ele><time>2026-04-18T07:38:32.076Z</time></trkpt><trkpt lat="43.5472799" lon="11.9335703"><ele>330.59999999999997</ele><time>2026-04-18T07:38:33.076Z</time></trkpt><trkpt lat="43.5471965" lon="11.9336467"><ele>334.0</ele><time>2026-04-18T07:38:34.076Z</time></trkpt><trkpt lat="43.5470939" lon="11.9337023"><ele>329.25</ele><time>2026-04-18T07:38:35.076Z</time></trkpt><trkpt lat="43.5470007" lon="11.933764"><ele>324.5</ele><time>2026-04-18T07:38:36.077Z</time></trkpt><trkpt lat="43.5468921" lon="11.9338303"><ele>319.75</ele><time>2026-04-18T07:38:37.076Z</time></trkpt><trkpt lat="43.5467743" lon="11.9338796"><ele>315.0</ele><time>2026-04-18T07:38:38.076Z</time></trkpt><trkpt lat="43.546663" lon="11.9339286"><ele>315.0</ele><time>2026-04-18T07:38:39.077Z</time></trkpt><trkpt lat="43.5465491" lon="11.9339809"><ele>315.0</ele><time>2026-04-18T07:38:40.077Z</time></trkpt><trkpt lat="43.5464255" lon="11.9340067"><ele>315.0</ele><time>2026-04-18T07:38:41.076Z</time></trkpt><trkpt lat="43.5463064" lon="11.9339931"><ele>315.0</ele><time>2026-04-18T07:38:42.076Z</time></trkpt><trkpt lat="43.5461908" lon="11.9340218"><ele>314.6</ele><time>2026-04-18T07:38:43.076Z</time></trkpt><trkpt lat="43.5460932" lon="11.934016"><ele>314.2</ele><time>2026-04-18T07:38:44.077Z</time></trkpt><trkpt lat="43.5460147" lon="11.9340334"><ele>313.8</ele><time>2026-04-18T07:38:45.076Z</time></trkpt><trkpt lat="43.5459408" lon="11.9340412"><ele>313.4</ele><time>2026-04-18T07:38:46.076Z</time></trkpt><trkpt lat="43.5458727" lon="11.9341161"><ele>313.0</ele><time>2026-04-18T07:38:47.077Z</time></trkpt><trkpt lat="43.5458118" lon="11.9342732"><ele>314.5</ele><time>2026-04-18T07:38:48.076Z</time></trkpt><trkpt lat="43.5457163" lon="11.9343507"><ele>316.0</ele><time>2026-04-18T07:38:49.076Z</time></trkpt><trkpt lat="43.5456019" lon="11.9344285"><ele>317.5</ele><time>2026-04-18T07:38:50.077Z</time></trkpt><trkpt lat="43.5454763" lon="11.9345522"><ele>319.0</ele><time>2026-04-18T07:38:51.076Z</time></trkpt><trkpt lat="43.5453723" lon="11.9346533"><ele>319.0</ele><time>2026-04-18T07:38:52.076Z</time></trkpt><trkpt lat="43.5452528" lon="11.9347487"><ele>319.0</ele><time>2026-04-18T07:38:53.077Z</time></trkpt><trkpt lat="43.5451407" lon="11.9348495"><ele>319.0</ele><time>2026-04-18T07:38:54.076Z</time></trkpt><trkpt lat="43.5450366" lon="11.9349589"><ele>319.0</ele><time>2026-04-18T07:38:55.076Z</time></trkpt><trkpt lat="43.544922" lon="11.9350211"><ele>320.75</ele><time>2026-04-18T07:38:56.076Z</time></trkpt><trkpt lat="43.5448004" lon="11.9350843"><ele>322.5</ele><time>2026-04-18T07:38:57.077Z</time></trkpt><trkpt lat="43.5446569" lon="11.9351759"><ele>324.25</ele><time>2026-04-18T07:38:58.076Z</time></trkpt><trkpt lat="43.544521" lon="11.9352801"><ele>326.0</ele><time>2026-04-18T07:38:59.076Z</time></trkpt><trkpt lat="43.5443737" lon="11.9353808"><ele>326.0</ele><time>2026-04-18T07:39:00.076Z</time></trkpt><trkpt lat="43.5442258" lon="11.9355043"><ele>326.0</ele><time>2026-04-18T07:39:01.077Z</time></trkpt><trkpt lat="43.5440737" lon="11.935724"><ele>326.0</ele><time>2026-04-18T07:39:02.076Z</time></trkpt><trkpt lat="43.543906" lon="11.9359173"><ele>327.0</ele><time>2026-04-18T07:39:03.077Z</time></trkpt><trkpt lat="43.5437404" lon="11.936083"><ele>328.0</ele><time>2026-04-18T07:39:04.076Z</time></trkpt><trkpt lat="43.5435643" lon="11.9362417"><ele>329.0</ele><time>2026-04-18T07:39:05.077Z</time></trkpt><trkpt lat="43.5433878" lon="11.9364253"><ele>329.0</ele><time>2026-04-18T07:39:06.077Z</time></trkpt><trkpt lat="43.5432545" lon="11.9365833"><ele>329.0</ele><time>2026-04-18T07:39:07.076Z</time></trkpt><trkpt lat="43.5431237" lon="11.9367479"><ele>329.0</ele><time>2026-04-18T07:39:08.076Z</time></trkpt><trkpt lat="43.5430064" lon="11.9369023"><ele>326.75</ele><time>2026-04-18T07:39:09.077Z</time></trkpt><trkpt lat="43.5429127" lon="11.9370307"><ele>324.5</ele><time>2026-04-18T07:39:10.077Z</time></trkpt><trkpt lat="43.542821" lon="11.9371986"><ele>322.25</ele><time>2026-04-18T07:39:11.076Z</time></trkpt><trkpt lat="43.5427343" lon="11.9373448"><ele>320.0</ele><time>2026-04-18T07:39:12.076Z</time></trkpt><trkpt lat="43.542647" lon="11.9374772"><ele>323.4</ele><time>2026-04-18T07:39:13.076Z</time></trkpt><trkpt lat="43.5425883" lon="11.9375952"><ele>326.8</ele><time>2026-04-18T07:39:14.077Z</time></trkpt><trkpt lat="43.5425243" lon="11.9377284"><ele>330.20000000000005</ele><time>2026-04-18T07:39:15.076Z</time></trkpt><trkpt lat="43.5425136" lon="11.937893"><ele>333.6</ele><time>2026-04-18T07:39:16.076Z</time></trkpt><trkpt lat="43.5424777" lon="11.9380323"><ele>337.0</ele><time>2026-04-18T07:39:17.076Z</time></trkpt><trkpt lat="43.5424181" lon="11.938176"><ele>337.0</ele><time>2026-04-18T07:39:18.077Z</time></trkpt><trkpt lat="43.5423538" lon="11.9383241"><ele>337.0</ele><time>2026-04-18T07:39:19.076Z</time></trkpt><trkpt lat="43.5422579" lon="11.9384648"><ele>337.0</ele><time>2026-04-18T07:39:20.076Z</time></trkpt><trkpt lat="43.5421628" lon="11.9386068"><ele>337.0</ele><time>2026-04-18T07:39:21.076Z</time></trkpt><trkpt lat="43.5420361" lon="11.9387077"><ele>335.66666666666663</ele><time>2026-04-18T07:39:22.076Z</time></trkpt><trkpt lat="43.5419436" lon="11.9388665"><ele>334.3333333333333</ele><time>2026-04-18T07:39:23.076Z</time></trkpt><trkpt lat="43.5418563" lon="11.9390385"><ele>333.0</ele><time>2026-04-18T07:39:24.076Z</time></trkpt><trkpt lat="43.5417523" lon="11.9392128"><ele>339.0</ele><time>2026-04-18T07:39:25.076Z</time></trkpt><trkpt lat="43.5416395" lon="11.9393897"><ele>345.0</ele><time>2026-04-18T07:39:26.076Z</time></trkpt><trkpt lat="43.5415434" lon="11.9395595"><ele>351.0</ele><time>2026-04-18T07:39:27.076Z</time></trkpt><trkpt lat="43.5414298" lon="11.9397638"><ele>351.0</ele><time>2026-04-18T07:39:28.076Z</time></trkpt><trkpt lat="43.5413256" lon="11.9399402"><ele>351.0</ele><time>2026-04-18T07:39:29.076Z</time></trkpt><trkpt lat="43.5412168" lon="11.9401091"><ele>351.0</ele><time>2026-04-18T07:39:30.076Z</time></trkpt><trkpt lat="43.5410876" lon="11.9402314"><ele>354.25</ele><time>2026-04-18T07:39:31.077Z</time></trkpt><trkpt lat="43.5409803" lon="11.9403691"><ele>357.5</ele><time>2026-04-18T07:39:32.076Z</time></trkpt><trkpt lat="43.5408775" lon="11.9404989"><ele>360.75</ele><time>2026-04-18T07:39:33.076Z</time></trkpt><trkpt lat="43.5407646" lon="11.9406143"><ele>364.0</ele><time>2026-04-18T07:39:34.076Z</time></trkpt><trkpt lat="43.5406553" lon="11.940725"><ele>364.0</ele><time>2026-04-18T07:39:35.076Z</time></trkpt><trkpt lat="43.5405373" lon="11.9407606"><ele>364.0</ele><time>2026-04-18T07:39:36.076Z</time></trkpt><trkpt lat="43.540413" lon="11.9408287"><ele>364.0</ele><time>2026-04-18T07:39:37.076Z</time></trkpt><trkpt lat="43.5402915" lon="11.9408724"><ele>364.0</ele><time>2026-04-18T07:39:38.076Z</time></trkpt><trkpt lat="43.5401664" lon="11.9409013"><ele>362.3333333333333</ele><time>2026-04-18T07:39:39.076Z</time></trkpt><trkpt lat="43.5399632" lon="11.9408235"><ele>360.6666666666667</ele><time>2026-04-18T07:39:40.077Z</time></trkpt><trkpt lat="43.5397798" lon="11.9407763"><ele>359.0</ele><time>2026-04-18T07:39:41.076Z</time></trkpt><trkpt lat="43.5395948" lon="11.9407306"><ele>359.33333333333337</ele><time>2026-04-18T07:39:42.076Z</time></trkpt><trkpt lat="43.5394076" lon="11.940718"><ele>359.6666666666667</ele><time>2026-04-18T07:39:43.076Z</time></trkpt><trkpt lat="43.5392451" lon="11.9407011"><ele>360.0</ele><time>2026-04-18T07:39:44.076Z</time></trkpt><trkpt lat="43.5390844" lon="11.9406661"><ele>360.0</ele><time>2026-04-18T07:39:45.077Z</time></trkpt><trkpt lat="43.5389389" lon="11.9406714"><ele>360.0</ele><time>2026-04-18T07:39:46.076Z</time></trkpt><trkpt lat="43.5388037" lon="11.9406732"><ele>360.0</ele><time>2026-04-18T07:39:47.077Z</time></trkpt><trkpt lat="43.5386913" lon="11.9406667"><ele>360.0</ele><time>2026-04-18T07:39:48.077Z</time></trkpt><trkpt lat="43.5385874" lon="11.9407044"><ele>359.0</ele><time>2026-04-18T07:39:49.076Z</time></trkpt><trkpt lat="43.5384973" lon="11.9407779"><ele>358.0</ele><time>2026-04-18T07:39:50.076Z</time></trkpt><trkpt lat="43.538398" lon="11.9408819"><ele>357.0</ele><time>2026-04-18T07:39:51.077Z</time></trkpt><trkpt lat="43.5382568" lon="11.9411255"><ele>359.6</ele><time>2026-04-18T07:39:52.077Z</time></trkpt><trkpt lat="43.5381888" lon="11.941233"><ele>362.20000000000005</ele><time>2026-04-18T07:39:53.076Z</time></trkpt><trkpt lat="43.5381003" lon="11.9413415"><ele>364.8</ele><time>2026-04-18T07:39:54.076Z</time></trkpt><trkpt lat="43.538026" lon="11.9413485"><ele>367.4</ele><time>2026-04-18T07:39:55.076Z</time></trkpt><trkpt lat="43.5379459" lon="11.9414005"><ele>370.0</ele><time>2026-04-18T07:39:56.076Z</time></trkpt><trkpt lat="43.5377971" lon="11.9412096"><ele>371.75</ele><time>2026-04-18T07:39:58.076Z</time></trkpt><trkpt lat="43.537714" lon="11.9410727"><ele>373.5</ele><time>2026-04-18T07:39:59.077Z</time></trkpt><trkpt lat="43.5376097" lon="11.9409393"><ele>375.25</ele><time>2026-04-18T07:40:00.077Z</time></trkpt><trkpt lat="43.5375363" lon="11.9408019"><ele>377.0</ele><time>2026-04-18T07:40:01.077Z</time></trkpt><trkpt lat="43.5374616" lon="11.9406497"><ele>373.25</ele><time>2026-04-18T07:40:02.077Z</time></trkpt><trkpt lat="43.5373659" lon="11.9405012"><ele>369.5</ele><time>2026-04-18T07:40:03.076Z</time></trkpt><trkpt lat="43.5372725" lon="11.9403406"><ele>365.75</ele><time>2026-04-18T07:40:04.076Z</time></trkpt><trkpt lat="43.53718" lon="11.9401868"><ele>362.0</ele><time>2026-04-18T07:40:05.077Z</time></trkpt><trkpt lat="43.5370992" lon="11.9400277"><ele>362.75</ele><time>2026-04-18T07:40:06.077Z</time></trkpt><trkpt lat="43.5370227" lon="11.9398746"><ele>363.5</ele><time>2026-04-18T07:40:07.076Z</time></trkpt><trkpt lat="43.5369424" lon="11.9397913"><ele>364.25</ele><time>2026-04-18T07:40:08.077Z</time></trkpt><trkpt lat="43.5368598" lon="11.9396858"><ele>365.0</ele><time>2026-04-18T07:40:09.077Z</time></trkpt><trkpt lat="43.5367282" lon="11.9396721"><ele>365.0</ele><time>2026-04-18T07:40:10.076Z</time></trkpt><trkpt lat="43.5365965" lon="11.9396522"><ele>365.0</ele><time>2026-04-18T07:40:11.077Z</time></trkpt><trkpt lat="43.5364625" lon="11.9396376"><ele>365.0</ele><time>2026-04-18T07:40:12.076Z</time></trkpt><trkpt lat="43.5363019" lon="11.9396848"><ele>365.0</ele><time>2026-04-18T07:40:13.077Z</time></trkpt><trkpt lat="43.5361365" lon="11.939721"><ele>364.33333333333337</ele><time>2026-04-18T07:40:14.077Z</time></trkpt><trkpt lat="43.5359758" lon="11.9397697"><ele>363.6666666666667</ele><time>2026-04-18T07:40:15.076Z</time></trkpt><trkpt lat="43.5358393" lon="11.9398465"><ele>363.0</ele><time>2026-04-18T07:40:16.076Z</time></trkpt><trkpt lat="43.5356876" lon="11.9399166"><ele>363.0</ele><time>2026-04-18T07:40:17.076Z</time></trkpt><trkpt lat="43.5355374" lon="11.9399757"><ele>363.0</ele><time>2026-04-18T07:40:18.077Z</time></trkpt><trkpt lat="43.5354227" lon="11.9400302"><ele>363.0</ele><time>2026-04-18T07:40:19.076Z</time></trkpt><trkpt lat="43.535311" lon="11.9401108"><ele>363.0</ele><time>2026-04-18T07:40:20.077Z</time></trkpt><trkpt lat="43.5351784" lon="11.9402387"><ele>364.0</ele><time>2026-04-18T07:40:21.077Z</time></trkpt><trkpt lat="43.535043" lon="11.9403748"><ele>365.0</ele><time>2026-04-18T07:40:22.076Z</time></trkpt><trkpt lat="43.5348939" lon="11.9405521"><ele>366.0</ele><time>2026-04-18T07:40:23.076Z</time></trkpt><trkpt lat="43.5347616" lon="11.9406804"><ele>366.0</ele><time>2026-04-18T07:40:24.076Z</time></trkpt><trkpt lat="43.5346507" lon="11.9407981"><ele>366.0</ele><time>2026-04-18T07:40:25.076Z</time></trkpt><trkpt lat="43.5345426" lon="11.9409009"><ele>366.0</ele><time>2026-04-18T07:40:26.077Z</time></trkpt><trkpt lat="43.5344401" lon="11.9409379"><ele>366.0</ele><time>2026-04-18T07:40:27.077Z</time></trkpt><trkpt lat="43.5343429" lon="11.9409667"><ele>365.6666666666667</ele><time>2026-04-18T07:40:28.077Z</time></trkpt><trkpt lat="43.5342539" lon="11.9409903"><ele>365.3333333333333</ele><time>2026-04-18T07:40:29.076Z</time></trkpt><trkpt lat="43.5341754" lon="11.9410186"><ele>365.0</ele><time>2026-04-18T07:40:30.077Z</time></trkpt><trkpt lat="43.5341011" lon="11.941043"><ele>364.66666666666663</ele><time>2026-04-18T07:40:31.076Z</time></trkpt><trkpt lat="43.534021" lon="11.9410421"><ele>364.3333333333333</ele><time>2026-04-18T07:40:33.076Z</time></trkpt><trkpt lat="43.5339652" lon="11.9409941"><ele>364.0</ele><time>2026-04-18T07:40:41.076Z</time></trkpt><trkpt lat="43.5338961" lon="11.9409197"><ele>364.0</ele><time>2026-04-18T07:42:17.077Z</time></trkpt><trkpt lat="43.5337939" lon="11.9409229"><ele>364.0</ele><time>2026-04-18T07:42:19.077Z</time></trkpt><trkpt lat="43.5337244" lon="11.9409433"><ele>364.0</ele><time>2026-04-18T07:42:20.076Z</time></trkpt><trkpt lat="43.5336579" lon="11.9409409"><ele>364.0</ele><time>2026-04-18T07:42:21.076Z</time></trkpt><trkpt lat="43.5335394" lon="11.9409802"><ele>364.0</ele><time>2026-04-18T07:42:23.077Z</time></trkpt><trkpt lat="43.5334461" lon="11.9410319"><ele>366.0</ele><time>2026-04-18T07:42:25.076Z</time></trkpt><trkpt lat="43.5334047" lon="11.9411091"><ele>368.0</ele><time>2026-04-18T07:42:27.076Z</time></trkpt><trkpt lat="43.5334679" lon="11.9411772"><ele>370.0</ele><time>2026-04-18T07:42:30.077Z</time></trkpt><trkpt lat="43.5335466" lon="11.9411792"><ele>372.0</ele><time>2026-04-18T07:42:32.076Z</time></trkpt><trkpt lat="43.533623" lon="11.9412108"><ele>374.0</ele><time>2026-04-18T07:42:34.076Z</time></trkpt><trkpt lat="43.533685" lon="11.9413052"><ele>376.0</ele><time>2026-04-18T07:42:36.076Z</time></trkpt><trkpt lat="43.5337123" lon="11.9414578"><ele>376.20000000000005</ele><time>2026-04-18T07:42:38.076Z</time></trkpt><trkpt lat="43.5337479" lon="11.94161"><ele>376.40000000000003</ele><time>2026-04-18T07:42:40.076Z</time></trkpt><trkpt lat="43.5337762" lon="11.9418084"><ele>376.6</ele><time>2026-04-18T07:42:42.077Z</time></trkpt><trkpt lat="43.5337684" lon="11.9419233"><ele>376.8</ele><time>2026-04-18T07:42:43.076Z</time></trkpt><trkpt lat="43.5337797" lon="11.9420452"><ele>377.0</ele><time>2026-04-18T07:42:44.077Z</time></trkpt><trkpt lat="43.5337901" lon="11.9421514"><ele>376.99999999999994</ele><time>2026-04-18T07:42:45.077Z</time></trkpt><trkpt lat="43.5337835" lon="11.9422431"><ele>377.0</ele><time>2026-04-18T07:42:46.076Z</time></trkpt><trkpt lat="43.5338021" lon="11.942339"><ele>377.0</ele><time>2026-04-18T07:42:47.076Z</time></trkpt><trkpt lat="43.5338207" lon="11.9424458"><ele>377.0</ele><time>2026-04-18T07:42:48.077Z</time></trkpt><trkpt lat="43.5338442" lon="11.9425557"><ele>377.0</ele><time>2026-04-18T07:42:49.077Z</time></trkpt><trkpt lat="43.5338455" lon="11.9426591"><ele>376.99999999999994</ele><time>2026-04-18T07:42:50.076Z</time></trkpt><trkpt lat="43.5338445" lon="11.9427555"><ele>377.0</ele><time>2026-04-18T07:42:51.076Z</time></trkpt><trkpt lat="43.5338483" lon="11.9428552"><ele>377.0</ele><time>2026-04-18T07:42:53.076Z</time></trkpt><trkpt lat="43.5338071" lon="11.9427623"><ele>377.0</ele><time>2026-04-18T07:42:57.077Z</time></trkpt><trkpt lat="43.5337752" lon="11.9426289"><ele>377.0</ele><time>2026-04-18T07:42:59.077Z</time></trkpt><trkpt lat="43.5337543" lon="11.9425369"><ele>377.0</ele><time>2026-04-18T07:43:00.076Z</time></trkpt><trkpt lat="43.5337241" lon="11.9424551"><ele>377.0</ele><time>2026-04-18T07:43:01.076Z</time></trkpt><trkpt lat="43.5336981" lon="11.9423709"><ele>377.0</ele><time>2026-04-18T07:43:02.076Z</time></trkpt><trkpt lat="43.5336354" lon="11.9421832"><ele>381.33333333333337</ele><time>2026-04-18T07:43:04.077Z</time></trkpt><trkpt lat="43.5335985" lon="11.942079"><ele>385.6666666666667</ele><time>2026-04-18T07:43:05.076Z</time></trkpt><trkpt lat="43.5335565" lon="11.9419848"><ele>390.0</ele><time>2026-04-18T07:43:06.077Z</time></trkpt><trkpt lat="43.533509" lon="11.9419043"><ele>394.33333333333337</ele><time>2026-04-18T07:43:07.077Z</time></trkpt><trkpt lat="43.5334357" lon="11.9418435"><ele>398.6666666666667</ele><time>2026-04-18T07:43:08.076Z</time></trkpt><trkpt lat="43.5333372" lon="11.9418842"><ele>403.0</ele><time>2026-04-18T07:43:09.077Z</time></trkpt><trkpt lat="43.5332593" lon="11.941874"><ele>403.0</ele><time>2026-04-18T07:43:10.076Z</time></trkpt><trkpt lat="43.5331544" lon="11.9418667"><ele>403.0</ele><time>2026-04-18T07:43:11.076Z</time></trkpt><trkpt lat="43.5330575" lon="11.9419448"><ele>403.0</ele><time>2026-04-18T07:43:12.076Z</time></trkpt><trkpt lat="43.5329492" lon="11.9420113"><ele>403.0</ele><time>2026-04-18T07:43:13.076Z</time></trkpt><trkpt lat="43.5328633" lon="11.9420455"><ele>403.0</ele><time>2026-04-18T07:43:14.076Z</time></trkpt><trkpt lat="43.5327798" lon="11.9420891"><ele>401.33333333333337</ele><time>2026-04-18T07:43:15.077Z</time></trkpt><trkpt lat="43.5327053" lon="11.9421219"><ele>399.6666666666667</ele><time>2026-04-18T07:43:16.077Z</time></trkpt><trkpt lat="43.5326279" lon="11.9421644"><ele>398.0</ele><time>2026-04-18T07:43:17.076Z</time></trkpt><trkpt lat="43.5325741" lon="11.9422147"><ele>396.33333333333337</ele><time>2026-04-18T07:43:18.077Z</time></trkpt><trkpt lat="43.5325136" lon="11.9422858"><ele>394.6666666666667</ele><time>2026-04-18T07:43:19.076Z</time></trkpt><trkpt lat="43.5324787" lon="11.94236"><ele>393.0</ele><time>2026-04-18T07:43:20.077Z</time></trkpt><trkpt lat="43.5324269" lon="11.9424552"><ele>397.59999999999997</ele><time>2026-04-18T07:43:21.077Z</time></trkpt><trkpt lat="43.5323983" lon="11.9425787"><ele>402.2</ele><time>2026-04-18T07:43:22.077Z</time></trkpt><trkpt lat="43.5323619" lon="11.9426616"><ele>406.8</ele><time>2026-04-18T07:43:23.076Z</time></trkpt><trkpt lat="43.5323362" lon="11.9428081"><ele>411.4</ele><time>2026-04-18T07:43:24.076Z</time></trkpt><trkpt lat="43.5322846" lon="11.9429364"><ele>416.0</ele><time>2026-04-18T07:43:25.076Z</time></trkpt><trkpt lat="43.5322225" lon="11.9430705"><ele>416.0</ele><time>2026-04-18T07:43:26.076Z</time></trkpt><trkpt lat="43.532156" lon="11.9432063"><ele>416.0</ele><time>2026-04-18T07:43:27.076Z</time></trkpt><trkpt lat="43.5320898" lon="11.9433145"><ele>416.0</ele><time>2026-04-18T07:43:28.077Z</time></trkpt><trkpt lat="43.5320291" lon="11.9434096"><ele>416.0</ele><time>2026-04-18T07:43:29.077Z</time></trkpt><trkpt lat="43.5319728" lon="11.9434687"><ele>416.0</ele><time>2026-04-18T07:43:30.077Z</time></trkpt><trkpt lat="43.5319071" lon="11.943564"><ele>413.6</ele><time>2026-04-18T07:43:31.076Z</time></trkpt><trkpt lat="43.5318321" lon="11.9436708"><ele>411.20000000000005</ele><time>2026-04-18T07:43:32.076Z</time></trkpt><trkpt lat="43.531748" lon="11.9437859"><ele>408.79999999999995</ele><time>2026-04-18T07:43:33.076Z</time></trkpt><trkpt lat="43.5316749" lon="11.9438996"><ele>406.4</ele><time>2026-04-18T07:43:34.076Z</time></trkpt><trkpt lat="43.531631" lon="11.9439865"><ele>404.0</ele><time>2026-04-18T07:43:35.077Z</time></trkpt><trkpt lat="43.5315744" lon="11.9440797"><ele>403.99999999999994</ele><time>2026-04-18T07:43:36.076Z</time></trkpt><trkpt lat="43.5315238" lon="11.9441506"><ele>404.0</ele><time>2026-04-18T07:43:37.076Z</time></trkpt><trkpt lat="43.531454" lon="11.9441915"><ele>404.0</ele><time>2026-04-18T07:43:38.077Z</time></trkpt><trkpt lat="43.5313963" lon="11.94425"><ele>404.0</ele><time>2026-04-18T07:43:39.077Z</time></trkpt><trkpt lat="43.531337" lon="11.9443022"><ele>403.99999999999994</ele><time>2026-04-18T07:43:40.076Z</time></trkpt><trkpt lat="43.5313084" lon="11.9443983"><ele>404.0</ele><time>2026-04-18T07:43:41.077Z</time></trkpt><trkpt lat="43.5313095" lon="11.9445326"><ele>406.66666666666663</ele><time>2026-04-18T07:43:42.076Z</time></trkpt><trkpt lat="43.5313343" lon="11.9446692"><ele>409.3333333333333</ele><time>2026-04-18T07:43:43.077Z</time></trkpt><trkpt lat="43.5313747" lon="11.9448049"><ele>412.0</ele><time>2026-04-18T07:43:44.077Z</time></trkpt><trkpt lat="43.531362" lon="11.9448966"><ele>414.66666666666663</ele><time>2026-04-18T07:43:45.076Z</time></trkpt><trkpt lat="43.5313685" lon="11.9449928"><ele>417.3333333333333</ele><time>2026-04-18T07:43:46.076Z</time></trkpt><trkpt lat="43.5313276" lon="11.9450787"><ele>420.0</ele><time>2026-04-18T07:43:47.076Z</time></trkpt><trkpt lat="43.5312843" lon="11.9451842"><ele>421.1666666666667</ele><time>2026-04-18T07:43:48.076Z</time></trkpt><trkpt lat="43.5312491" lon="11.9452888"><ele>422.33333333333337</ele><time>2026-04-18T07:43:49.076Z</time></trkpt><trkpt lat="43.5312337" lon="11.9454054"><ele>423.5</ele><time>2026-04-18T07:43:50.077Z</time></trkpt><trkpt lat="43.5312199" lon="11.9454946"><ele>424.6666666666667</ele><time>2026-04-18T07:43:51.077Z</time></trkpt><trkpt lat="43.5311914" lon="11.9455866"><ele>425.83333333333337</ele><time>2026-04-18T07:43:52.076Z</time></trkpt><trkpt lat="43.5311749" lon="11.9456708"><ele>427.0</ele><time>2026-04-18T07:43:53.076Z</time></trkpt><trkpt lat="43.5310845" lon="11.9455921"><ele>427.0</ele><time>2026-04-18T07:43:54.076Z</time></trkpt><trkpt lat="43.5309381" lon="11.945469"><ele>427.0</ele><time>2026-04-18T07:43:55.077Z</time></trkpt><trkpt lat="43.5308367" lon="11.945415"><ele>427.0</ele><time>2026-04-18T07:43:56.077Z</time></trkpt><trkpt lat="43.5307382" lon="11.9453631"><ele>427.0</ele><time>2026-04-18T07:43:57.077Z</time></trkpt><trkpt lat="43.5306527" lon="11.9453302"><ele>427.00000000000006</ele><time>2026-04-18T07:43:58.076Z</time></trkpt><trkpt lat="43.5305895" lon="11.9453864"><ele>427.0</ele><time>2026-04-18T07:44:00.077Z</time></trkpt><trkpt lat="43.5305551" lon="11.9454623"><ele>427.0</ele><time>2026-04-18T07:44:01.077Z</time></trkpt><trkpt lat="43.5305073" lon="11.9455319"><ele>427.0</ele><time>2026-04-18T07:44:02.076Z</time></trkpt><trkpt lat="43.5303815" lon="11.9455368"><ele>427.00000000000006</ele><time>2026-04-18T07:44:04.077Z</time></trkpt><trkpt lat="43.5303056" lon="11.9455379"><ele>427.0</ele><time>2026-04-18T07:44:05.076Z</time></trkpt><trkpt lat="43.5302252" lon="11.9454918"><ele>426.8</ele><time>2026-04-18T07:44:06.077Z</time></trkpt><trkpt lat="43.5301691" lon="11.9454387"><ele>426.6</ele><time>2026-04-18T07:44:07.077Z</time></trkpt><trkpt lat="43.5300963" lon="11.9453877"><ele>426.40000000000003</ele><time>2026-04-18T07:44:08.077Z</time></trkpt><trkpt lat="43.530005" lon="11.945324"><ele>426.20000000000005</ele><time>2026-04-18T07:44:09.077Z</time></trkpt><trkpt lat="43.5298999" lon="11.9452539"><ele>426.0</ele><time>2026-04-18T07:44:10.076Z</time></trkpt><trkpt lat="43.5298008" lon="11.9452054"><ele>426.0</ele><time>2026-04-18T07:44:11.076Z</time></trkpt><trkpt lat="43.5297348" lon="11.9451566"><ele>426.0</ele><time>2026-04-18T07:44:12.076Z</time></trkpt><trkpt lat="43.5296797" lon="11.945096"><ele>426.0</ele><time>2026-04-18T07:44:13.076Z</time></trkpt><trkpt lat="43.5295968" lon="11.9450281"><ele>426.0</ele><time>2026-04-18T07:44:14.076Z</time></trkpt><trkpt lat="43.529515" lon="11.9450989"><ele>426.0</ele><time>2026-04-18T07:44:16.076Z</time></trkpt><trkpt lat="43.5294885" lon="11.9451908"><ele>426.0</ele><time>2026-04-18T07:44:17.076Z</time></trkpt><trkpt lat="43.5294274" lon="11.9452768"><ele>424.0</ele><time>2026-04-18T07:44:18.076Z</time></trkpt><trkpt lat="43.5293432" lon="11.9453824"><ele>422.0</ele><time>2026-04-18T07:44:19.077Z</time></trkpt><trkpt lat="43.5292754" lon="11.9454825"><ele>420.0</ele><time>2026-04-18T07:44:20.077Z</time></trkpt><trkpt lat="43.5292388" lon="11.9455957"><ele>418.0</ele><time>2026-04-18T07:44:21.077Z</time></trkpt><trkpt lat="43.5292341" lon="11.9457017"><ele>416.0</ele><time>2026-04-18T07:44:22.077Z</time></trkpt><trkpt lat="43.5292064" lon="11.9458007"><ele>418.0</ele><time>2026-04-18T07:44:23.076Z</time></trkpt><trkpt lat="43.5292292" lon="11.9459974"><ele>420.0</ele><time>2026-04-18T07:44:25.076Z</time></trkpt><trkpt lat="43.5292369" lon="11.9461008"><ele>422.0</ele><time>2026-04-18T07:44:26.076Z</time></trkpt><trkpt lat="43.529235" lon="11.9462183"><ele>424.0</ele><time>2026-04-18T07:44:27.076Z</time></trkpt><trkpt lat="43.5292361" lon="11.9463594"><ele>426.0</ele><time>2026-04-18T07:44:28.076Z</time></trkpt><trkpt lat="43.5292364" lon="11.9464755"><ele>426.0</ele><time>2026-04-18T07:44:29.076Z</time></trkpt><trkpt lat="43.5292343" lon="11.9465939"><ele>426.0</ele><time>2026-04-18T07:44:30.077Z</time></trkpt><trkpt lat="43.5292229" lon="11.9467006"><ele>426.0</ele><time>2026-04-18T07:44:31.077Z</time></trkpt><trkpt lat="43.5291969" lon="11.9468254"><ele>426.0</ele><time>2026-04-18T07:44:32.076Z</time></trkpt><trkpt lat="43.5291687" lon="11.947006"><ele>426.0</ele><time>2026-04-18T07:44:34.076Z</time></trkpt><trkpt lat="43.5291712" lon="11.9471028"><ele>425.85714285714283</ele><time>2026-04-18T07:44:35.076Z</time></trkpt><trkpt lat="43.5291824" lon="11.9471984"><ele>425.7142857142857</ele><time>2026-04-18T07:44:36.077Z</time></trkpt><trkpt lat="43.5292079" lon="11.9472843"><ele>425.57142857142856</ele><time>2026-04-18T07:44:37.076Z</time></trkpt><trkpt lat="43.5292481" lon="11.9473548"><ele>425.42857142857144</ele><time>2026-04-18T07:44:38.077Z</time></trkpt><trkpt lat="43.5293023" lon="11.9474208"><ele>425.2857142857143</ele><time>2026-04-18T07:44:39.077Z</time></trkpt><trkpt lat="43.5293607" lon="11.9474854"><ele>425.1428571428571</ele><time>2026-04-18T07:44:40.077Z</time></trkpt><trkpt lat="43.5294268" lon="11.9475469"><ele>425.0</ele><time>2026-04-18T07:44:41.076Z</time></trkpt><trkpt lat="43.5294823" lon="11.9476102"><ele>427.8</ele><time>2026-04-18T07:44:42.077Z</time></trkpt><trkpt lat="43.5295268" lon="11.9477495"><ele>430.6</ele><time>2026-04-18T07:44:44.077Z</time></trkpt><trkpt lat="43.529594" lon="11.9478987"><ele>433.4</ele><time>2026-04-18T07:44:46.076Z</time></trkpt><trkpt lat="43.5296367" lon="11.9479727"><ele>436.2</ele><time>2026-04-18T07:44:47.076Z</time></trkpt><trkpt lat="43.5296673" lon="11.9480524"><ele>439.0</ele><time>2026-04-18T07:44:48.076Z</time></trkpt><trkpt lat="43.5296009" lon="11.9481464"><ele>439.0</ele><time>2026-04-18T07:44:50.077Z</time></trkpt><trkpt lat="43.52953" lon="11.9482471"><ele>439.0</ele><time>2026-04-18T07:44:52.077Z</time></trkpt><trkpt lat="43.529453" lon="11.9482704"><ele>439.0</ele><time>2026-04-18T07:44:53.076Z</time></trkpt><trkpt lat="43.5293866" lon="11.9483146"><ele>439.0</ele><time>2026-04-18T07:44:54.077Z</time></trkpt><trkpt lat="43.5292424" lon="11.9480964"><ele>439.00000000000006</ele><time>2026-04-18T07:44:55.076Z</time></trkpt><trkpt lat="43.5291651" lon="11.9480861"><ele>439.0</ele><time>2026-04-18T07:44:56.077Z</time></trkpt><trkpt lat="43.5290895" lon="11.9480699"><ele>439.0</ele><time>2026-04-18T07:44:57.076Z</time></trkpt><trkpt lat="43.5290184" lon="11.9480655"><ele>439.0</ele><time>2026-04-18T07:44:58.077Z</time></trkpt><trkpt lat="43.5289955" lon="11.9481626"><ele>439.00000000000006</ele><time>2026-04-18T07:44:59.076Z</time></trkpt><trkpt lat="43.5289632" lon="11.9482694"><ele>439.0</ele><time>2026-04-18T07:45:01.077Z</time></trkpt><trkpt lat="43.5289732" lon="11.9483781"><ele>445.5</ele><time>2026-04-18T07:45:03.076Z</time></trkpt><trkpt lat="43.5290929" lon="11.9484102"><ele>452.0</ele><time>2026-04-18T07:45:05.076Z</time></trkpt><trkpt lat="43.5292035" lon="11.9484511"><ele>458.5</ele><time>2026-04-18T07:45:07.077Z</time></trkpt><trkpt lat="43.5293157" lon="11.948475"><ele>465.0</ele><time>2026-04-18T07:45:08.077Z</time></trkpt><trkpt lat="43.5294308" lon="11.9484971"><ele>465.0</ele><time>2026-04-18T07:45:09.076Z</time></trkpt><trkpt lat="43.5295234" lon="11.9485173"><ele>465.0</ele><time>2026-04-18T07:45:10.076Z</time></trkpt><trkpt lat="43.5296353" lon="11.9485548"><ele>465.0</ele><time>2026-04-18T07:45:11.076Z</time></trkpt><trkpt lat="43.5297236" lon="11.9485819"><ele>465.0</ele><time>2026-04-18T07:45:12.075Z</time></trkpt><trkpt lat="43.5298333" lon="11.9486372"><ele>465.0</ele><time>2026-04-18T07:45:13.076Z</time></trkpt><trkpt lat="43.5299241" lon="11.9487151"><ele>466.75</ele><time>2026-04-18T07:45:14.077Z</time></trkpt><trkpt lat="43.5300215" lon="11.948767"><ele>468.5</ele><time>2026-04-18T07:45:15.076Z</time></trkpt><trkpt lat="43.5301021" lon="11.9487846"><ele>470.25</ele><time>2026-04-18T07:45:17.077Z</time></trkpt><trkpt lat="43.5301656" lon="11.9487075"><ele>472.0</ele><time>2026-04-18T07:45:19.077Z</time></trkpt><trkpt lat="43.5301298" lon="11.9484542"><ele>468.6</ele><time>2026-04-18T07:45:21.076Z</time></trkpt><trkpt lat="43.5301122" lon="11.9483405"><ele>465.20000000000005</ele><time>2026-04-18T07:45:22.076Z</time></trkpt><trkpt lat="43.5300456" lon="11.9482222"><ele>461.8</ele><time>2026-04-18T07:45:23.077Z</time></trkpt><trkpt lat="43.5299952" lon="11.9480651"><ele>458.4</ele><time>2026-04-18T07:45:24.077Z</time></trkpt><trkpt lat="43.5299458" lon="11.9479186"><ele>455.0</ele><time>2026-04-18T07:45:25.076Z</time></trkpt><trkpt lat="43.5299072" lon="11.9477822"><ele>455.0</ele><time>2026-04-18T07:45:26.077Z</time></trkpt><trkpt lat="43.5298349" lon="11.9476435"><ele>455.0</ele><time>2026-04-18T07:45:27.077Z</time></trkpt><trkpt lat="43.5297726" lon="11.947515"><ele>455.0</ele><time>2026-04-18T07:45:28.077Z</time></trkpt><trkpt lat="43.5297006" lon="11.9473775"><ele>455.0</ele><time>2026-04-18T07:45:29.076Z</time></trkpt><trkpt lat="43.5296663" lon="11.9472599"><ele>454.99999999999994</ele><time>2026-04-18T07:45:30.076Z</time></trkpt><trkpt lat="43.5296521" lon="11.94716"><ele>455.0</ele><time>2026-04-18T07:45:31.076Z</time></trkpt><trkpt lat="43.5296317" lon="11.9470654"><ele>455.0</ele><time>2026-04-18T07:45:32.076Z</time></trkpt><trkpt lat="43.5297081" lon="11.9469468"><ele>455.0</ele><time>2026-04-18T07:45:34.077Z</time></trkpt><trkpt lat="43.5297694" lon="11.9468859"><ele>454.99999999999994</ele><time>2026-04-18T07:45:35.077Z</time></trkpt><trkpt lat="43.529839" lon="11.9468445"><ele>455.0</ele><time>2026-04-18T07:45:36.076Z</time></trkpt><trkpt lat="43.529954" lon="11.9469042"><ele>455.0</ele><time>2026-04-18T07:45:37.076Z</time></trkpt><trkpt lat="43.5300355" lon="11.9469396"><ele>455.0</ele><time>2026-04-18T07:45:38.077Z</time></trkpt><trkpt lat="43.530121" lon="11.946988"><ele>455.0</ele><time>2026-04-18T07:45:39.076Z</time></trkpt><trkpt lat="43.5302112" lon="11.9470513"><ele>455.0</ele><time>2026-04-18T07:45:40.077Z</time></trkpt><trkpt lat="43.5303235" lon="11.9471137"><ele>455.0</ele><time>2026-04-18T07:45:41.077Z</time></trkpt><trkpt lat="43.5303891" lon="11.9471611"><ele>455.0</ele><time>2026-04-18T07:45:42.076Z</time></trkpt><trkpt lat="43.5304634" lon="11.9472155"><ele>455.0</ele><time>2026-04-18T07:45:43.077Z</time></trkpt><trkpt lat="43.5304546" lon="11.9473052"><ele>455.0</ele><time>2026-04-18T07:45:45.076Z</time></trkpt><trkpt lat="43.5303468" lon="11.9473"><ele>455.0</ele><time>2026-04-18T07:45:46.077Z</time></trkpt><trkpt lat="43.5302314" lon="11.9472606"><ele>455.0</ele><time>2026-04-18T07:45:48.076Z</time></trkpt><trkpt lat="43.5301356" lon="11.9472935"><ele>455.0</ele><time>2026-04-18T07:45:50.076Z</time></trkpt><trkpt lat="43.530101" lon="11.9473938"><ele>455.0</ele><time>2026-04-18T07:45:51.076Z</time></trkpt><trkpt lat="43.5300302" lon="11.9475443"><ele>455.0</ele><time>2026-04-18T07:45:53.076Z</time></trkpt><trkpt lat="43.5301117" lon="11.9476308"><ele>455.0</ele><time>2026-04-18T07:45:54.076Z</time></trkpt><trkpt lat="43.5301204" lon="11.9477207"><ele>455.0</ele><time>2026-04-18T07:45:55.077Z</time></trkpt><trkpt lat="43.5301737" lon="11.9478658"><ele>455.0</ele><time>2026-04-18T07:45:56.077Z</time></trkpt><trkpt lat="43.5302159" lon="11.9479987"><ele>455.0</ele><time>2026-04-18T07:45:57.077Z</time></trkpt><trkpt lat="43.5302817" lon="11.948147"><ele>455.0</ele><time>2026-04-18T07:45:58.077Z</time></trkpt><trkpt lat="43.5303479" lon="11.9482748"><ele>455.0</ele><time>2026-04-18T07:45:59.076Z</time></trkpt><trkpt lat="43.5304097" lon="11.9483837"><ele>455.0</ele><time>2026-04-18T07:46:00.076Z</time></trkpt><trkpt lat="43.5304602" lon="11.9485267"><ele>463.2</ele><time>2026-04-18T07:46:01.077Z</time></trkpt><trkpt lat="43.530505" lon="11.9486809"><ele>471.4</ele><time>2026-04-18T07:46:02.076Z</time></trkpt><trkpt lat="43.5305018" lon="11.9488125"><ele>479.6</ele><time>2026-04-18T07:46:03.076Z</time></trkpt><trkpt lat="43.5305244" lon="11.948943"><ele>487.8</ele><time>2026-04-18T07:46:04.076Z</time></trkpt><trkpt lat="43.5305403" lon="11.9490796"><ele>496.0</ele><time>2026-04-18T07:46:05.076Z</time></trkpt><trkpt lat="43.5305378" lon="11.9492082"><ele>498.8</ele><time>2026-04-18T07:46:06.077Z</time></trkpt><trkpt lat="43.5305222" lon="11.9493464"><ele>501.6</ele><time>2026-04-18T07:46:07.077Z</time></trkpt><trkpt lat="43.5304889" lon="11.949456"><ele>504.4</ele><time>2026-04-18T07:46:08.076Z</time></trkpt><trkpt lat="43.5304732" lon="11.9495759"><ele>507.2</ele><time>2026-04-18T07:46:09.077Z</time></trkpt><trkpt lat="43.5304568" lon="11.9496985"><ele>510.0</ele><time>2026-04-18T07:46:10.077Z</time></trkpt><trkpt lat="43.5304543" lon="11.9498443"><ele>510.0</ele><time>2026-04-18T07:46:11.076Z</time></trkpt><trkpt lat="43.5304335" lon="11.9499446"><ele>510.0</ele><time>2026-04-18T07:46:12.077Z</time></trkpt><trkpt lat="43.5304224" lon="11.9500481"><ele>510.0</ele><time>2026-04-18T07:46:13.077Z</time></trkpt><trkpt lat="43.5304112" lon="11.9501533"><ele>510.0</ele><time>2026-04-18T07:46:14.077Z</time></trkpt><trkpt lat="43.5303176" lon="11.9500711"><ele>510.0</ele><time>2026-04-18T07:46:16.077Z</time></trkpt><trkpt lat="43.5302438" lon="11.9499876"><ele>510.0</ele><time>2026-04-18T07:46:18.077Z</time></trkpt><trkpt lat="43.5302048" lon="11.949909"><ele>508.3333333333333</ele><time>2026-04-18T07:46:19.077Z</time></trkpt><trkpt lat="43.5301528" lon="11.9498069"><ele>506.66666666666663</ele><time>2026-04-18T07:46:20.076Z</time></trkpt><trkpt lat="43.5300856" lon="11.9497041"><ele>505.0</ele><time>2026-04-18T07:46:21.077Z</time></trkpt><trkpt lat="43.5300328" lon="11.9496074"><ele>503.3333333333333</ele><time>2026-04-18T07:46:22.077Z</time></trkpt><trkpt lat="43.5299664" lon="11.9495478"><ele>501.66666666666663</ele><time>2026-04-18T07:46:23.077Z</time></trkpt><trkpt lat="43.5299105" lon="11.9494905"><ele>500.0</ele><time>2026-04-18T07:46:24.076Z</time></trkpt><trkpt lat="43.5297696" lon="11.9494217"><ele>499.99999999999994</ele><time>2026-04-18T07:46:25.077Z</time></trkpt><trkpt lat="43.5296727" lon="11.949372"><ele>500.0</ele><time>2026-04-18T07:46:26.076Z</time></trkpt><trkpt lat="43.5295954" lon="11.9493453"><ele>500.0</ele><time>2026-04-18T07:46:27.076Z</time></trkpt><trkpt lat="43.5295161" lon="11.9493449"><ele>500.0</ele><time>2026-04-18T07:46:28.076Z</time></trkpt><trkpt lat="43.5294348" lon="11.9493265"><ele>499.99999999999994</ele><time>2026-04-18T07:46:29.076Z</time></trkpt><trkpt lat="43.5293645" lon="11.9493355"><ele>500.0</ele><time>2026-04-18T07:46:30.076Z</time></trkpt><trkpt lat="43.5293523" lon="11.9494487"><ele>497.4</ele><time>2026-04-18T07:46:31.077Z</time></trkpt><trkpt lat="43.5293207" lon="11.9495378"><ele>494.8</ele><time>2026-04-18T07:46:32.077Z</time></trkpt><trkpt lat="43.5293091" lon="11.9496581"><ele>492.20000000000005</ele><time>2026-04-18T07:46:33.076Z</time></trkpt><trkpt lat="43.5292955" lon="11.9498059"><ele>489.6</ele><time>2026-04-18T07:46:34.077Z</time></trkpt><trkpt lat="43.5292844" lon="11.9499563"><ele>487.0</ele><time>2026-04-18T07:46:35.077Z</time></trkpt><trkpt lat="43.5292598" lon="11.9500985"><ele>492.40000000000003</ele><time>2026-04-18T07:46:36.076Z</time></trkpt><trkpt lat="43.5292357" lon="11.9502259"><ele>497.80000000000007</ele><time>2026-04-18T07:46:37.077Z</time></trkpt><trkpt lat="43.5291786" lon="11.9503234"><ele>503.2</ele><time>2026-04-18T07:46:38.077Z</time></trkpt><trkpt lat="43.5291365" lon="11.9504452"><ele>508.6</ele><time>2026-04-18T07:46:39.076Z</time></trkpt><trkpt lat="43.5290995" lon="11.950534"><ele>514.0</ele><time>2026-04-18T07:46:40.076Z</time></trkpt><trkpt lat="43.5290727" lon="11.9506633"><ele>514.0</ele><time>2026-04-18T07:46:41.076Z</time></trkpt><trkpt lat="43.5290496" lon="11.9507717"><ele>514.0</ele><time>2026-04-18T07:46:42.076Z</time></trkpt><trkpt lat="43.5290208" lon="11.9508904"><ele>514.0</ele><time>2026-04-18T07:46:43.077Z</time></trkpt><trkpt lat="43.528995" lon="11.9509715"><ele>514.0</ele><time>2026-04-18T07:46:44.076Z</time></trkpt><trkpt lat="43.5289273" lon="11.950941"><ele>514.0</ele><time>2026-04-18T07:46:45.077Z</time></trkpt><trkpt lat="43.5288587" lon="11.9509163"><ele>514.0</ele><time>2026-04-18T07:46:46.077Z</time></trkpt><trkpt lat="43.528793" lon="11.9508271"><ele>514.0</ele><time>2026-04-18T07:46:47.076Z</time></trkpt><trkpt lat="43.5287262" lon="11.9507286"><ele>514.0</ele><time>2026-04-18T07:46:48.076Z</time></trkpt><trkpt lat="43.5286639" lon="11.9506121"><ele>514.0</ele><time>2026-04-18T07:46:49.076Z</time></trkpt><trkpt lat="43.5285757" lon="11.9504944"><ele>514.0</ele><time>2026-04-18T07:46:50.076Z</time></trkpt><trkpt lat="43.5284993" lon="11.950376"><ele>514.0</ele><time>2026-04-18T07:46:51.077Z</time></trkpt><trkpt lat="43.5284166" lon="11.9502573"><ele>513.4</ele><time>2026-04-18T07:46:52.077Z</time></trkpt><trkpt lat="43.5283384" lon="11.9501413"><ele>512.8</ele><time>2026-04-18T07:46:53.076Z</time></trkpt><trkpt lat="43.5282649" lon="11.9500555"><ele>512.2</ele><time>2026-04-18T07:46:54.076Z</time></trkpt><trkpt lat="43.528177" lon="11.9501248"><ele>511.6</ele><time>2026-04-18T07:46:56.077Z</time></trkpt><trkpt lat="43.5280581" lon="11.9501296"><ele>511.0</ele><time>2026-04-18T07:46:58.076Z</time></trkpt><trkpt lat="43.5279774" lon="11.9502561"><ele>511.0</ele><time>2026-04-18T07:47:00.076Z</time></trkpt><trkpt lat="43.5279419" lon="11.9503929"><ele>511.0</ele><time>2026-04-18T07:47:01.076Z</time></trkpt><trkpt lat="43.527889" lon="11.9505487"><ele>511.0</ele><time>2026-04-18T07:47:02.077Z</time></trkpt><trkpt lat="43.5278431" lon="11.9506954"><ele>511.0</ele><time>2026-04-18T07:47:03.076Z</time></trkpt><trkpt lat="43.5278108" lon="11.950825"><ele>511.0</ele><time>2026-04-18T07:47:04.077Z</time></trkpt><trkpt lat="43.5277666" lon="11.9509413"><ele>513.5</ele><time>2026-04-18T07:47:05.076Z</time></trkpt><trkpt lat="43.5277128" lon="11.951106"><ele>516.0</ele><time>2026-04-18T07:47:07.077Z</time></trkpt><trkpt lat="43.5276614" lon="11.9511751"><ele>518.5</ele><time>2026-04-18T07:47:08.076Z</time></trkpt><trkpt lat="43.527594" lon="11.9511775"><ele>521.0</ele><time>2026-04-18T07:47:09.077Z</time></trkpt><trkpt lat="43.5275305" lon="11.9512103"><ele>523.5</ele><time>2026-04-18T07:47:10.077Z</time></trkpt><trkpt lat="43.527428" lon="11.9511536"><ele>526.0</ele><time>2026-04-18T07:47:11.076Z</time></trkpt><trkpt lat="43.5273296" lon="11.9510706"><ele>526.0</ele><time>2026-04-18T07:47:12.077Z</time></trkpt><trkpt lat="43.5272384" lon="11.9509966"><ele>526.0</ele><time>2026-04-18T07:47:13.076Z</time></trkpt><trkpt lat="43.5271516" lon="11.9509678"><ele>526.0</ele><time>2026-04-18T07:47:14.076Z</time></trkpt><trkpt lat="43.5270723" lon="11.9509217"><ele>526.0</ele><time>2026-04-18T07:47:15.076Z</time></trkpt><trkpt lat="43.5269986" lon="11.9508672"><ele>526.0</ele><time>2026-04-18T07:47:16.077Z</time></trkpt><trkpt lat="43.5269058" lon="11.9509588"><ele>520.4</ele><time>2026-04-18T07:47:18.077Z</time></trkpt><trkpt lat="43.5268468" lon="11.9511198"><ele>514.8</ele><time>2026-04-18T07:47:20.076Z</time></trkpt><trkpt lat="43.5268449" lon="11.9512729"><ele>509.19999999999993</ele><time>2026-04-18T07:47:21.077Z</time></trkpt><trkpt lat="43.5268285" lon="11.9514166"><ele>503.59999999999997</ele><time>2026-04-18T07:47:22.076Z</time></trkpt><trkpt lat="43.5268159" lon="11.9515243"><ele>498.0</ele><time>2026-04-18T07:47:23.076Z</time></trkpt><trkpt lat="43.5267954" lon="11.9516579"><ele>503.2</ele><time>2026-04-18T07:47:24.076Z</time></trkpt><trkpt lat="43.5267176" lon="11.9517877"><ele>508.4</ele><time>2026-04-18T07:47:26.076Z</time></trkpt><trkpt lat="43.526678" lon="11.9518586"><ele>513.5999999999999</ele><time>2026-04-18T07:47:27.076Z</time></trkpt><trkpt lat="43.5265789" lon="11.9518936"><ele>518.8</ele><time>2026-04-18T07:47:28.076Z</time></trkpt><trkpt lat="43.5264939" lon="11.9519883"><ele>524.0</ele><time>2026-04-18T07:47:29.076Z</time></trkpt><trkpt lat="43.5264099" lon="11.9520446"><ele>524.0</ele><time>2026-04-18T07:47:30.077Z</time></trkpt><trkpt lat="43.5263241" lon="11.9520881"><ele>524.0</ele><time>2026-04-18T07:47:31.076Z</time></trkpt><trkpt lat="43.5262269" lon="11.9521194"><ele>524.0</ele><time>2026-04-18T07:47:32.076Z</time></trkpt><trkpt lat="43.5261319" lon="11.9521503"><ele>524.0</ele><time>2026-04-18T07:47:33.077Z</time></trkpt><trkpt lat="43.5260244" lon="11.9521018"><ele>524.0</ele><time>2026-04-18T07:47:34.077Z</time></trkpt><trkpt lat="43.5259415" lon="11.9520794"><ele>519.1666666666666</ele><time>2026-04-18T07:47:35.076Z</time></trkpt><trkpt lat="43.5259026" lon="11.9521557"><ele>514.3333333333333</ele><time>2026-04-18T07:47:37.076Z</time></trkpt><trkpt lat="43.5259286" lon="11.9522593"><ele>509.5</ele><time>2026-04-18T07:47:38.076Z</time></trkpt><trkpt lat="43.5259452" lon="11.9523637"><ele>504.66666666666663</ele><time>2026-04-18T07:47:39.077Z</time></trkpt><trkpt lat="43.5259796" lon="11.9525019"><ele>499.8333333333333</ele><time>2026-04-18T07:47:40.077Z</time></trkpt><trkpt lat="43.5260227" lon="11.9526425"><ele>495.0</ele><time>2026-04-18T07:47:41.077Z</time></trkpt><trkpt lat="43.5260499" lon="11.9527744"><ele>494.6</ele><time>2026-04-18T07:47:42.076Z</time></trkpt><trkpt lat="43.5260793" lon="11.9528939"><ele>494.2</ele><time>2026-04-18T07:47:43.077Z</time></trkpt><trkpt lat="43.5260883" lon="11.9530569"><ele>493.79999999999995</ele><time>2026-04-18T07:47:44.077Z</time></trkpt><trkpt lat="43.526071" lon="11.9531667"><ele>493.4</ele><time>2026-04-18T07:47:45.077Z</time></trkpt><trkpt lat="43.5260903" lon="11.9533185"><ele>493.0</ele><time>2026-04-18T07:47:47.077Z</time></trkpt><trkpt lat="43.5261624" lon="11.9533102"><ele>493.00000000000006</ele><time>2026-04-18T07:47:51.076Z</time></trkpt><trkpt lat="43.5262083" lon="11.9532258"><ele>493.0</ele><time>2026-04-18T07:48:13.077Z</time></trkpt><trkpt lat="43.526216" lon="11.9531035"><ele>493.0</ele><time>2026-04-18T07:48:16.077Z</time></trkpt><trkpt lat="43.5262159" lon="11.9530007"><ele>493.0</ele><time>2026-04-18T07:48:18.077Z</time></trkpt><trkpt lat="43.5262755" lon="11.9529197"><ele>493.00000000000006</ele><time>2026-04-18T07:48:19.077Z</time></trkpt><trkpt lat="43.5263226" lon="11.9528363"><ele>493.0</ele><time>2026-04-18T07:48:21.076Z</time></trkpt><trkpt lat="43.5263651" lon="11.9526294"><ele>500.79999999999995</ele><time>2026-04-18T07:48:23.076Z</time></trkpt><trkpt lat="43.5264612" lon="11.9527151"><ele>508.59999999999997</ele><time>2026-04-18T07:48:27.076Z</time></trkpt><trkpt lat="43.5264767" lon="11.9528382"><ele>516.4000000000001</ele><time>2026-04-18T07:48:29.076Z</time></trkpt><trkpt lat="43.5264694" lon="11.9529326"><ele>524.2</ele><time>2026-04-18T07:48:30.076Z</time></trkpt><trkpt lat="43.526478" lon="11.9530938"><ele>532.0</ele><time>2026-04-18T07:48:32.077Z</time></trkpt><trkpt lat="43.5265115" lon="11.9532036"><ele>532.0</ele><time>2026-04-18T07:48:34.076Z</time></trkpt><trkpt lat="43.5265805" lon="11.9533037"><ele>532.0</ele><time>2026-04-18T07:48:36.076Z</time></trkpt><trkpt lat="43.5266321" lon="11.9533643"><ele>532.0</ele><time>2026-04-18T07:48:37.076Z</time></trkpt><trkpt lat="43.5266951" lon="11.953411"><ele>532.0</ele><time>2026-04-18T07:48:38.077Z</time></trkpt><trkpt lat="43.5267572" lon="11.9534927"><ele>532.0</ele><time>2026-04-18T07:48:40.076Z</time></trkpt><trkpt lat="43.5268235" lon="11.9534527"><ele>532.0</ele><time>2026-04-18T07:48:43.076Z</time></trkpt><trkpt lat="43.5268534" lon="11.9533384"><ele>532.0</ele><time>2026-04-18T07:48:46.076Z</time></trkpt><trkpt lat="43.5268656" lon="11.9532347"><ele>532.0</ele><time>2026-04-18T07:48:48.076Z</time></trkpt><trkpt lat="43.5268855" lon="11.9531365"><ele>532.0</ele><time>2026-04-18T07:48:50.076Z</time></trkpt><trkpt lat="43.5269184" lon="11.9530407"><ele>532.0</ele><time>2026-04-18T07:48:52.076Z</time></trkpt><trkpt lat="43.5270928" lon="11.9532799"><ele>536.0</ele><time>2026-04-18T07:48:59.076Z</time></trkpt><trkpt lat="43.5271457" lon="11.9533604"><ele>540.0</ele><time>2026-04-18T07:49:00.076Z</time></trkpt><trkpt lat="43.5272325" lon="11.9534658"><ele>544.0</ele><time>2026-04-18T07:49:01.076Z</time></trkpt><trkpt lat="43.5273555" lon="11.9535843"><ele>548.0</ele><time>2026-04-18T07:49:03.077Z</time></trkpt><trkpt lat="43.5274553" lon="11.9536183"><ele>552.0</ele><time>2026-04-18T07:49:04.077Z</time></trkpt><trkpt lat="43.5275828" lon="11.9536724"><ele>552.0</ele><time>2026-04-18T07:49:06.076Z</time></trkpt><trkpt lat="43.527659" lon="11.9536728"><ele>552.0</ele><time>2026-04-18T07:49:07.076Z</time></trkpt><trkpt lat="43.5277214" lon="11.9536845"><ele>552.0</ele><time>2026-04-18T07:49:08.077Z</time></trkpt><trkpt lat="43.5277982" lon="11.9536731"><ele>552.0</ele><time>2026-04-18T07:49:09.077Z</time></trkpt><trkpt lat="43.527893" lon="11.9536785"><ele>552.0</ele><time>2026-04-18T07:49:10.077Z</time></trkpt><trkpt lat="43.527964" lon="11.9536884"><ele>552.0</ele><time>2026-04-18T07:49:11.077Z</time></trkpt><trkpt lat="43.5280569" lon="11.9537125"><ele>558.2</ele><time>2026-04-18T07:49:12.076Z</time></trkpt><trkpt lat="43.5281328" lon="11.9537348"><ele>564.4000000000001</ele><time>2026-04-18T07:49:13.077Z</time></trkpt><trkpt lat="43.5281986" lon="11.953882"><ele>570.5999999999999</ele><time>2026-04-18T07:49:15.076Z</time></trkpt><trkpt lat="43.5282503" lon="11.953966"><ele>576.8</ele><time>2026-04-18T07:49:16.076Z</time></trkpt><trkpt lat="43.528315" lon="11.9540895"><ele>583.0</ele><time>2026-04-18T07:49:17.076Z</time></trkpt><trkpt lat="43.5283908" lon="11.9541864"><ele>579.4</ele><time>2026-04-18T07:49:18.076Z</time></trkpt><trkpt lat="43.5284432" lon="11.9542802"><ele>575.8</ele><time>2026-04-18T07:49:19.076Z</time></trkpt><trkpt lat="43.5285187" lon="11.9542991"><ele>572.2</ele><time>2026-04-18T07:49:20.077Z</time></trkpt><trkpt lat="43.5285932" lon="11.9543221"><ele>568.6</ele><time>2026-04-18T07:49:21.076Z</time></trkpt><trkpt lat="43.5286998" lon="11.9544171"><ele>565.0</ele><time>2026-04-18T07:49:23.077Z</time></trkpt><trkpt lat="43.5287725" lon="11.9544852"><ele>572.1666666666667</ele><time>2026-04-18T07:49:24.076Z</time></trkpt><trkpt lat="43.5288404" lon="11.9545648"><ele>579.3333333333334</ele><time>2026-04-18T07:49:25.076Z</time></trkpt><trkpt lat="43.5289113" lon="11.9546317"><ele>586.5</ele><time>2026-04-18T07:49:26.077Z</time></trkpt><trkpt lat="43.5289939" lon="11.9546797"><ele>593.6666666666666</ele><time>2026-04-18T07:49:27.077Z</time></trkpt><trkpt lat="43.5290565" lon="11.9547737"><ele>600.8333333333333</ele><time>2026-04-18T07:49:28.076Z</time></trkpt><trkpt lat="43.5290696" lon="11.9548598"><ele>608.0</ele><time>2026-04-18T07:49:29.076Z</time></trkpt><trkpt lat="43.5291037" lon="11.9549533"><ele>607.8</ele><time>2026-04-18T07:49:30.077Z</time></trkpt><trkpt lat="43.5291299" lon="11.9550634"><ele>607.5999999999999</ele><time>2026-04-18T07:49:31.076Z</time></trkpt><trkpt lat="43.5291445" lon="11.955158"><ele>607.4000000000001</ele><time>2026-04-18T07:49:32.077Z</time></trkpt><trkpt lat="43.5292328" lon="11.9552882"><ele>607.2</ele><time>2026-04-18T07:49:34.076Z</time></trkpt><trkpt lat="43.5292444" lon="11.9554284"><ele>607.0</ele><time>2026-04-18T07:49:36.077Z</time></trkpt><trkpt lat="43.5292005" lon="11.9555882"><ele>607.0</ele><time>2026-04-18T07:49:38.077Z</time></trkpt><trkpt lat="43.5291814" lon="11.9556804"><ele>607.0</ele><time>2026-04-18T07:49:39.077Z</time></trkpt><trkpt lat="43.5291511" lon="11.9557887"><ele>607.0</ele><time>2026-04-18T07:49:40.076Z</time></trkpt><trkpt lat="43.5291189" lon="11.9559141"><ele>607.0</ele><time>2026-04-18T07:49:41.076Z</time></trkpt><trkpt lat="43.52909" lon="11.9560509"><ele>607.0</ele><time>2026-04-18T07:49:42.077Z</time></trkpt><trkpt lat="43.5290582" lon="11.9561523"><ele>607.0</ele><time>2026-04-18T07:49:43.076Z</time></trkpt><trkpt lat="43.5290369" lon="11.9562594"><ele>608.4</ele><time>2026-04-18T07:49:44.077Z</time></trkpt><trkpt lat="43.5290523" lon="11.9563881"><ele>609.8000000000001</ele><time>2026-04-18T07:49:46.076Z</time></trkpt><trkpt lat="43.5290743" lon="11.956478"><ele>611.2</ele><time>2026-04-18T07:49:48.076Z</time></trkpt><trkpt lat="43.5291541" lon="11.956424"><ele>612.6</ele><time>2026-04-18T07:49:55.077Z</time></trkpt><trkpt lat="43.5291864" lon="11.9562469"><ele>614.0</ele><time>2026-04-18T07:49:57.076Z</time></trkpt><trkpt lat="43.5292242" lon="11.9561662"><ele>614.0</ele><time>2026-04-18T07:49:58.076Z</time></trkpt><trkpt lat="43.5292768" lon="11.9560413"><ele>614.0</ele><time>2026-04-18T07:49:59.076Z</time></trkpt><trkpt lat="43.5293024" lon="11.9559263"><ele>614.0</ele><time>2026-04-18T07:50:00.077Z</time></trkpt><trkpt lat="43.5293884" lon="11.955785"><ele>614.0</ele><time>2026-04-18T07:50:02.076Z</time></trkpt><trkpt lat="43.5294311" lon="11.9556753"><ele>614.0</ele><time>2026-04-18T07:50:03.076Z</time></trkpt><trkpt lat="43.5295013" lon="11.9555649"><ele>614.0</ele><time>2026-04-18T07:50:04.076Z</time></trkpt><trkpt lat="43.5295473" lon="11.9554691"><ele>614.0</ele><time>2026-04-18T07:50:05.076Z</time></trkpt><trkpt lat="43.5296" lon="11.9555176"><ele>614.0</ele><time>2026-04-18T07:50:08.077Z</time></trkpt><trkpt lat="43.529585" lon="11.9556779"><ele>614.0</ele><time>2026-04-18T07:50:10.076Z</time></trkpt><trkpt lat="43.5295402" lon="11.9557544"><ele>614.0</ele><time>2026-04-18T07:50:11.077Z</time></trkpt><trkpt lat="43.5294867" lon="11.9559046"><ele>614.0</ele><time>2026-04-18T07:50:13.076Z</time></trkpt><trkpt lat="43.5294748" lon="11.9560794"><ele>614.0</ele><time>2026-04-18T07:50:15.077Z</time></trkpt><trkpt lat="43.5295017" lon="11.9561701"><ele>614.0</ele><time>2026-04-18T07:50:16.076Z</time></trkpt><trkpt lat="43.5295703" lon="11.9563287"><ele>614.0</ele><time>2026-04-18T07:50:18.076Z</time></trkpt><trkpt lat="43.5296126" lon="11.9564224"><ele>614.0</ele><time>2026-04-18T07:50:19.076Z</time></trkpt><trkpt lat="43.5296538" lon="11.9565008"><ele>619.1666666666666</ele><time>2026-04-18T07:50:20.076Z</time></trkpt><trkpt lat="43.5296698" lon="11.9565994"><ele>624.3333333333333</ele><time>2026-04-18T07:50:21.077Z</time></trkpt><trkpt lat="43.5296217" lon="11.9567349"><ele>629.5</ele><time>2026-04-18T07:50:22.077Z</time></trkpt><trkpt lat="43.529623" lon="11.956841"><ele>634.6666666666666</ele><time>2026-04-18T07:50:23.077Z</time></trkpt><trkpt lat="43.5296194" lon="11.9569622"><ele>639.8333333333334</ele><time>2026-04-18T07:50:24.076Z</time></trkpt><trkpt lat="43.5296132" lon="11.9570839"><ele>645.0</ele><time>2026-04-18T07:50:25.076Z</time></trkpt><trkpt lat="43.5296357" lon="11.9571739"><ele>645.1666666666666</ele><time>2026-04-18T07:50:26.076Z</time></trkpt><trkpt lat="43.5296507" lon="11.9572842"><ele>645.3333333333334</ele><time>2026-04-18T07:50:27.077Z</time></trkpt><trkpt lat="43.5296399" lon="11.9574014"><ele>645.5</ele><time>2026-04-18T07:50:28.077Z</time></trkpt><trkpt lat="43.529614" lon="11.9575105"><ele>645.6666666666667</ele><time>2026-04-18T07:50:29.077Z</time></trkpt><trkpt lat="43.5295875" lon="11.9576129"><ele>645.8333333333334</ele><time>2026-04-18T07:50:30.077Z</time></trkpt><trkpt lat="43.5296744" lon="11.9576278"><ele>646.0</ele><time>2026-04-18T07:50:31.076Z</time></trkpt><trkpt lat="43.5296848" lon="11.9578142"><ele>645.8</ele><time>2026-04-18T07:50:32.076Z</time></trkpt><trkpt lat="43.5297233" lon="11.9579083"><ele>645.5999999999999</ele><time>2026-04-18T07:50:33.076Z</time></trkpt><trkpt lat="43.5297521" lon="11.9580133"><ele>645.4</ele><time>2026-04-18T07:50:34.076Z</time></trkpt><trkpt lat="43.5297901" lon="11.9581392"><ele>645.2</ele><time>2026-04-18T07:50:35.076Z</time></trkpt><trkpt lat="43.5298396" lon="11.9582563"><ele>645.0</ele><time>2026-04-18T07:50:36.076Z</time></trkpt><trkpt lat="43.5298914" lon="11.958374"><ele>645.0</ele><time>2026-04-18T07:50:37.077Z</time></trkpt><trkpt lat="43.5299464" lon="11.9585067"><ele>645.0</ele><time>2026-04-18T07:50:38.076Z</time></trkpt><trkpt lat="43.5299895" lon="11.9586298"><ele>645.0</ele><time>2026-04-18T07:50:39.077Z</time></trkpt><trkpt lat="43.5300257" lon="11.9587371"><ele>645.0</ele><time>2026-04-18T07:50:40.076Z</time></trkpt><trkpt lat="43.5300483" lon="11.9588198"><ele>645.0</ele><time>2026-04-18T07:50:41.076Z</time></trkpt><trkpt lat="43.5300565" lon="11.9589556"><ele>645.0</ele><time>2026-04-18T07:50:43.076Z</time></trkpt><trkpt lat="43.5300123" lon="11.959073"><ele>645.0</ele><time>2026-04-18T07:50:45.076Z</time></trkpt><trkpt lat="43.5299675" lon="11.959136"><ele>645.0</ele><time>2026-04-18T07:50:48.076Z</time></trkpt><trkpt lat="43.529866" lon="11.9591969"><ele>645.0</ele><time>2026-04-18T07:55:20.077Z</time></trkpt><trkpt lat="43.5297881" lon="11.959301"><ele>645.0</ele><time>2026-04-18T07:55:22.077Z</time></trkpt><trkpt lat="43.5297153" lon="11.9594245"><ele>646.2</ele><time>2026-04-18T07:55:24.076Z</time></trkpt><trkpt lat="43.5296785" lon="11.9595742"><ele>647.4</ele><time>2026-04-18T07:55:26.076Z</time></trkpt><trkpt lat="43.5296519" lon="11.959736"><ele>648.5999999999999</ele><time>2026-04-18T07:55:28.076Z</time></trkpt><trkpt lat="43.529625" lon="11.9598635"><ele>649.8</ele><time>2026-04-18T07:55:29.076Z</time></trkpt><trkpt lat="43.5295972" lon="11.9599648"><ele>651.0</ele><time>2026-04-18T07:55:30.076Z</time></trkpt><trkpt lat="43.5295614" lon="11.9600847"><ele>651.8</ele><time>2026-04-18T07:55:31.076Z</time></trkpt><trkpt lat="43.5295243" lon="11.9601936"><ele>652.5999999999999</ele><time>2026-04-18T07:55:32.077Z</time></trkpt><trkpt lat="43.5294705" lon="11.9603526"><ele>653.4</ele><time>2026-04-18T07:55:33.076Z</time></trkpt><trkpt lat="43.5294118" lon="11.9604738"><ele>654.2</ele><time>2026-04-18T07:55:34.076Z</time></trkpt><trkpt lat="43.5293438" lon="11.9605706"><ele>655.0</ele><time>2026-04-18T07:55:35.077Z</time></trkpt><trkpt lat="43.5292838" lon="11.9606424"><ele>655.0</ele><time>2026-04-18T07:55:36.077Z</time></trkpt><trkpt lat="43.5291706" lon="11.9606925"><ele>655.0</ele><time>2026-04-18T07:55:37.076Z</time></trkpt><trkpt lat="43.5290782" lon="11.9607181"><ele>655.0</ele><time>2026-04-18T07:55:38.076Z</time></trkpt><trkpt lat="43.5289886" lon="11.9607458"><ele>655.0</ele><time>2026-04-18T07:55:39.076Z</time></trkpt><trkpt lat="43.5289052" lon="11.9607942"><ele>655.0</ele><time>2026-04-18T07:55:40.076Z</time></trkpt><trkpt lat="43.5288159" lon="11.9608868"><ele>655.1666666666667</ele><time>2026-04-18T07:55:41.076Z</time></trkpt><trkpt lat="43.5287524" lon="11.9609614"><ele>655.3333333333334</ele><time>2026-04-18T07:55:42.076Z</time></trkpt><trkpt lat="43.528674" lon="11.9610227"><ele>655.5</ele><time>2026-04-18T07:55:43.076Z</time></trkpt><trkpt lat="43.5285982" lon="11.9611037"><ele>655.6666666666666</ele><time>2026-04-18T07:55:44.076Z</time></trkpt><trkpt lat="43.5285281" lon="11.9611735"><ele>655.8333333333333</ele><time>2026-04-18T07:55:45.076Z</time></trkpt><trkpt lat="43.5284689" lon="11.9612502"><ele>656.0</ele><time>2026-04-18T07:55:46.077Z</time></trkpt><trkpt lat="43.5284259" lon="11.9613473"><ele>656.0</ele><time>2026-04-18T07:55:47.077Z</time></trkpt><trkpt lat="43.5283877" lon="11.9614645"><ele>656.0</ele><time>2026-04-18T07:55:48.076Z</time></trkpt><trkpt lat="43.528356" lon="11.9615878"><ele>656.0</ele><time>2026-04-18T07:55:49.076Z</time></trkpt><trkpt lat="43.5283336" lon="11.9617033"><ele>656.0</ele><time>2026-04-18T07:55:50.077Z</time></trkpt><trkpt lat="43.5283202" lon="11.9618235"><ele>656.0</ele><time>2026-04-18T07:55:51.077Z</time></trkpt><trkpt lat="43.5283195" lon="11.9619324"><ele>656.0</ele><time>2026-04-18T07:55:52.076Z</time></trkpt><trkpt lat="43.5283289" lon="11.9620398"><ele>655.8</ele><time>2026-04-18T07:55:53.076Z</time></trkpt><trkpt lat="43.5283324" lon="11.9621374"><ele>655.5999999999999</ele><time>2026-04-18T07:55:54.076Z</time></trkpt><trkpt lat="43.5283484" lon="11.9622883"><ele>655.4</ele><time>2026-04-18T07:55:56.077Z</time></trkpt><trkpt lat="43.5283797" lon="11.962431"><ele>655.2</ele><time>2026-04-18T07:55:58.076Z</time></trkpt><trkpt lat="43.5284303" lon="11.9625482"><ele>655.0</ele><time>2026-04-18T07:56:00.076Z</time></trkpt><trkpt lat="43.5284901" lon="11.9626451"><ele>653.0</ele><time>2026-04-18T07:56:02.076Z</time></trkpt><trkpt lat="43.5285934" lon="11.9627101"><ele>651.0</ele><time>2026-04-18T07:56:04.077Z</time></trkpt><trkpt lat="43.5287256" lon="11.9627384"><ele>649.0</ele><time>2026-04-18T07:56:06.077Z</time></trkpt><trkpt lat="43.5288209" lon="11.9627764"><ele>647.0</ele><time>2026-04-18T07:56:07.077Z</time></trkpt><trkpt lat="43.5289405" lon="11.9628264"><ele>647.0</ele><time>2026-04-18T07:56:08.077Z</time></trkpt><trkpt lat="43.5290364" lon="11.9628871"><ele>647.0</ele><time>2026-04-18T07:56:09.076Z</time></trkpt><trkpt lat="43.5291304" lon="11.9629511"><ele>647.0</ele><time>2026-04-18T07:56:10.077Z</time></trkpt><trkpt lat="43.5292347" lon="11.9630277"><ele>647.0</ele><time>2026-04-18T07:56:11.076Z</time></trkpt><trkpt lat="43.5293285" lon="11.9631195"><ele>647.0</ele><time>2026-04-18T07:56:12.077Z</time></trkpt><trkpt lat="43.5294148" lon="11.9632158"><ele>647.0</ele><time>2026-04-18T07:56:13.077Z</time></trkpt><trkpt lat="43.5295006" lon="11.9633306"><ele>647.0</ele><time>2026-04-18T07:56:14.077Z</time></trkpt><trkpt lat="43.5295801" lon="11.9634426"><ele>647.0</ele><time>2026-04-18T07:56:15.077Z</time></trkpt><trkpt lat="43.5296592" lon="11.9635591"><ele>647.0</ele><time>2026-04-18T07:56:16.076Z</time></trkpt><trkpt lat="43.5297464" lon="11.9636808"><ele>646.25</ele><time>2026-04-18T07:56:17.077Z</time></trkpt><trkpt lat="43.5298264" lon="11.9637848"><ele>645.5</ele><time>2026-04-18T07:56:18.077Z</time></trkpt><trkpt lat="43.5299177" lon="11.9638883"><ele>644.75</ele><time>2026-04-18T07:56:19.076Z</time></trkpt><trkpt lat="43.530029" lon="11.9639662"><ele>644.0</ele><time>2026-04-18T07:56:20.076Z</time></trkpt><trkpt lat="43.5301371" lon="11.9640139"><ele>644.0</ele><time>2026-04-18T07:56:21.077Z</time></trkpt><trkpt lat="43.5302432" lon="11.96406"><ele>644.0</ele><time>2026-04-18T07:56:22.077Z</time></trkpt><trkpt lat="43.5303847" lon="11.9640868"><ele>644.0</ele><time>2026-04-18T07:56:23.076Z</time></trkpt><trkpt lat="43.5305459" lon="11.9640807"><ele>644.0</ele><time>2026-04-18T07:56:24.076Z</time></trkpt><trkpt lat="43.5307212" lon="11.9640821"><ele>641.0</ele><time>2026-04-18T07:56:25.077Z</time></trkpt><trkpt lat="43.5309019" lon="11.96407"><ele>638.0</ele><time>2026-04-18T07:56:26.077Z</time></trkpt><trkpt lat="43.5310805" lon="11.9640825"><ele>635.0</ele><time>2026-04-18T07:56:27.077Z</time></trkpt><trkpt lat="43.5312359" lon="11.9640943"><ele>633.6666666666666</ele><time>2026-04-18T07:56:28.077Z</time></trkpt><trkpt lat="43.5314063" lon="11.9641148"><ele>632.3333333333334</ele><time>2026-04-18T07:56:29.077Z</time></trkpt><trkpt lat="43.5315756" lon="11.964156"><ele>631.0</ele><time>2026-04-18T07:56:30.076Z</time></trkpt><trkpt lat="43.5317523" lon="11.9642068"><ele>630.0</ele><time>2026-04-18T07:56:31.076Z</time></trkpt><trkpt lat="43.5319167" lon="11.9642446"><ele>629.0</ele><time>2026-04-18T07:56:32.076Z</time></trkpt><trkpt lat="43.5320751" lon="11.9642825"><ele>628.0</ele><time>2026-04-18T07:56:33.077Z</time></trkpt><trkpt lat="43.5322396" lon="11.9643259"><ele>627.0</ele><time>2026-04-18T07:56:34.076Z</time></trkpt><trkpt lat="43.532411" lon="11.9643695"><ele>626.0</ele><time>2026-04-18T07:56:35.077Z</time></trkpt><trkpt lat="43.5325753" lon="11.9644209"><ele>625.0</ele><time>2026-04-18T07:56:36.076Z</time></trkpt><trkpt lat="43.5327326" lon="11.9645164"><ele>626.6666666666667</ele><time>2026-04-18T07:56:37.076Z</time></trkpt><trkpt lat="43.5328915" lon="11.9646045"><ele>628.3333333333334</ele><time>2026-04-18T07:56:38.077Z</time></trkpt><trkpt lat="43.5330317" lon="11.9647077"><ele>630.0</ele><time>2026-04-18T07:56:39.076Z</time></trkpt><trkpt lat="43.5331845" lon="11.9647988"><ele>630.0</ele><time>2026-04-18T07:56:40.076Z</time></trkpt><trkpt lat="43.5333278" lon="11.9648884"><ele>630.0</ele><time>2026-04-18T07:56:41.076Z</time></trkpt><trkpt lat="43.5334774" lon="11.9649569"><ele>630.0</ele><time>2026-04-18T07:56:42.077Z</time></trkpt><trkpt lat="43.5336346" lon="11.9650083"><ele>631.0</ele><time>2026-04-18T07:56:43.076Z</time></trkpt><trkpt lat="43.5337839" lon="11.9650418"><ele>632.0</ele><time>2026-04-18T07:56:44.076Z</time></trkpt><trkpt lat="43.5339437" lon="11.9650532"><ele>633.0</ele><time>2026-04-18T07:56:45.076Z</time></trkpt><trkpt lat="43.5340878" lon="11.9650439"><ele>633.0</ele><time>2026-04-18T07:56:46.077Z</time></trkpt><trkpt lat="43.5342297" lon="11.9650308"><ele>633.0</ele><time>2026-04-18T07:56:47.076Z</time></trkpt><trkpt lat="43.5343695" lon="11.9650162"><ele>633.0</ele><time>2026-04-18T07:56:48.076Z</time></trkpt><trkpt lat="43.534487" lon="11.9649813"><ele>633.0</ele><time>2026-04-18T07:56:49.076Z</time></trkpt><trkpt lat="43.534605" lon="11.9649638"><ele>633.6</ele><time>2026-04-18T07:56:50.076Z</time></trkpt><trkpt lat="43.5347215" lon="11.9649565"><ele>634.1999999999999</ele><time>2026-04-18T07:56:51.076Z</time></trkpt><trkpt lat="43.5348112" lon="11.9649419"><ele>634.8</ele><time>2026-04-18T07:56:52.076Z</time></trkpt><trkpt lat="43.534902" lon="11.9649421"><ele>635.4</ele><time>2026-04-18T07:56:53.076Z</time></trkpt><trkpt lat="43.5349875" lon="11.9649486"><ele>636.0</ele><time>2026-04-18T07:56:54.076Z</time></trkpt><trkpt lat="43.5350762" lon="11.9649702"><ele>636.0</ele><time>2026-04-18T07:56:55.076Z</time></trkpt><trkpt lat="43.5351625" lon="11.9650034"><ele>636.0</ele><time>2026-04-18T07:56:56.077Z</time></trkpt><trkpt lat="43.5352431" lon="11.9650557"><ele>636.0</ele><time>2026-04-18T07:56:57.076Z</time></trkpt><trkpt lat="43.535331" lon="11.9651244"><ele>636.0</ele><time>2026-04-18T07:56:58.076Z</time></trkpt><trkpt lat="43.5354157" lon="11.965259"><ele>636.0</ele><time>2026-04-18T07:56:59.077Z</time></trkpt><trkpt lat="43.5355179" lon="11.9653737"><ele>637.25</ele><time>2026-04-18T07:57:00.076Z</time></trkpt><trkpt lat="43.5356185" lon="11.9654657"><ele>638.5</ele><time>2026-04-18T07:57:01.076Z</time></trkpt><trkpt lat="43.5357515" lon="11.965529"><ele>639.75</ele><time>2026-04-18T07:57:02.076Z</time></trkpt><trkpt lat="43.5358675" lon="11.965581"><ele>641.0</ele><time>2026-04-18T07:57:03.076Z</time></trkpt><trkpt lat="43.5359668" lon="11.9656202"><ele>641.0</ele><time>2026-04-18T07:57:04.077Z</time></trkpt><trkpt lat="43.5360823" lon="11.9656526"><ele>641.0</ele><time>2026-04-18T07:57:05.076Z</time></trkpt><trkpt lat="43.5361823" lon="11.9656515"><ele>641.0</ele><time>2026-04-18T07:57:06.077Z</time></trkpt><trkpt lat="43.5363166" lon="11.9656603"><ele>641.0</ele><time>2026-04-18T07:57:07.076Z</time></trkpt><trkpt lat="43.5364268" lon="11.9656409"><ele>639.0</ele><time>2026-04-18T07:57:08.076Z</time></trkpt><trkpt lat="43.5365352" lon="11.9656147"><ele>637.0</ele><time>2026-04-18T07:57:09.076Z</time></trkpt><trkpt lat="43.5366428" lon="11.9656151"><ele>635.0</ele><time>2026-04-18T07:57:10.077Z</time></trkpt><trkpt lat="43.5367604" lon="11.9656364"><ele>633.0</ele><time>2026-04-18T07:57:11.077Z</time></trkpt><trkpt lat="43.5369033" lon="11.9656752"><ele>633.0</ele><time>2026-04-18T07:57:12.077Z</time></trkpt><trkpt lat="43.5370439" lon="11.9657105"><ele>633.0</ele><time>2026-04-18T07:57:13.076Z</time></trkpt><trkpt lat="43.5371697" lon="11.9657277"><ele>633.0</ele><time>2026-04-18T07:57:14.076Z</time></trkpt><trkpt lat="43.5373078" lon="11.9657426"><ele>633.0</ele><time>2026-04-18T07:57:15.076Z</time></trkpt><trkpt lat="43.537418" lon="11.9657793"><ele>634.5</ele><time>2026-04-18T07:57:16.076Z</time></trkpt><trkpt lat="43.5375469" lon="11.9658199"><ele>636.0</ele><time>2026-04-18T07:57:17.076Z</time></trkpt><trkpt lat="43.5376548" lon="11.9659059"><ele>637.5</ele><time>2026-04-18T07:57:18.077Z</time></trkpt><trkpt lat="43.5377339" lon="11.9660329"><ele>639.0</ele><time>2026-04-18T07:57:19.077Z</time></trkpt><trkpt lat="43.5378037" lon="11.9661413"><ele>635.4</ele><time>2026-04-18T07:57:20.077Z</time></trkpt><trkpt lat="43.5378937" lon="11.9662231"><ele>631.8</ele><time>2026-04-18T07:57:21.077Z</time></trkpt><trkpt lat="43.5379811" lon="11.966283"><ele>628.2</ele><time>2026-04-18T07:57:22.077Z</time></trkpt><trkpt lat="43.5380763" lon="11.9663094"><ele>624.6</ele><time>2026-04-18T07:57:23.076Z</time></trkpt><trkpt lat="43.5381752" lon="11.966329"><ele>621.0</ele><time>2026-04-18T07:57:24.076Z</time></trkpt><trkpt lat="43.5382826" lon="11.9663486"><ele>621.0</ele><time>2026-04-18T07:57:25.077Z</time></trkpt><trkpt lat="43.5383897" lon="11.9663656"><ele>621.0</ele><time>2026-04-18T07:57:26.076Z</time></trkpt><trkpt lat="43.5385104" lon="11.9663914"><ele>621.0</ele><time>2026-04-18T07:57:27.077Z</time></trkpt><trkpt lat="43.5386213" lon="11.9664322"><ele>621.0</ele><time>2026-04-18T07:57:28.076Z</time></trkpt><trkpt lat="43.5387407" lon="11.9664913"><ele>618.75</ele><time>2026-04-18T07:57:29.077Z</time></trkpt><trkpt lat="43.5388683" lon="11.9665559"><ele>616.5</ele><time>2026-04-18T07:57:30.077Z</time></trkpt><trkpt lat="43.5389936" lon="11.9666133"><ele>614.25</ele><time>2026-04-18T07:57:31.076Z</time></trkpt><trkpt lat="43.5391384" lon="11.9666485"><ele>612.0</ele><time>2026-04-18T07:57:32.077Z</time></trkpt><trkpt lat="43.5392785" lon="11.9666868"><ele>611.0</ele><time>2026-04-18T07:57:33.076Z</time></trkpt><trkpt lat="43.5394288" lon="11.9667254"><ele>610.0</ele><time>2026-04-18T07:57:34.076Z</time></trkpt><trkpt lat="43.5396605" lon="11.9666696"><ele>609.0</ele><time>2026-04-18T07:57:36.077Z</time></trkpt><trkpt lat="43.5397179" lon="11.9666198"><ele>609.0</ele><time>2026-04-18T07:57:37.076Z</time></trkpt><trkpt lat="43.53981" lon="11.9665695"><ele>609.0</ele><time>2026-04-18T07:57:38.077Z</time></trkpt><trkpt lat="43.5398686" lon="11.9664903"><ele>609.0</ele><time>2026-04-18T07:57:39.076Z</time></trkpt><trkpt lat="43.5399186" lon="11.9664308"><ele>609.0</ele><time>2026-04-18T07:57:40.077Z</time></trkpt><trkpt lat="43.5399923" lon="11.9663882"><ele>609.0</ele><time>2026-04-18T07:57:41.077Z</time></trkpt><trkpt lat="43.5401125" lon="11.9664161"><ele>609.0</ele><time>2026-04-18T07:57:42.076Z</time></trkpt><trkpt lat="43.5402175" lon="11.9663853"><ele>609.0</ele><time>2026-04-18T07:57:43.077Z</time></trkpt><trkpt lat="43.5403354" lon="11.9663551"><ele>609.0</ele><time>2026-04-18T07:57:44.077Z</time></trkpt><trkpt lat="43.5404257" lon="11.966297"><ele>609.0</ele><time>2026-04-18T07:57:45.076Z</time></trkpt><trkpt lat="43.5405242" lon="11.9662489"><ele>609.0</ele><time>2026-04-18T07:57:46.076Z</time></trkpt><trkpt lat="43.5406173" lon="11.9661969"><ele>609.0</ele><time>2026-04-18T07:57:47.076Z</time></trkpt><trkpt lat="43.5407044" lon="11.9661605"><ele>608.8</ele><time>2026-04-18T07:57:48.076Z</time></trkpt><trkpt lat="43.5407952" lon="11.9660983"><ele>608.5999999999999</ele><time>2026-04-18T07:57:49.077Z</time></trkpt><trkpt lat="43.5408852" lon="11.9660481"><ele>608.4</ele><time>2026-04-18T07:57:50.076Z</time></trkpt><trkpt lat="43.5409897" lon="11.9659866"><ele>608.1999999999999</ele><time>2026-04-18T07:57:51.076Z</time></trkpt><trkpt lat="43.541111" lon="11.965916"><ele>608.0</ele><time>2026-04-18T07:57:52.076Z</time></trkpt><trkpt lat="43.5412276" lon="11.9658462"><ele>606.75</ele><time>2026-04-18T07:57:53.077Z</time></trkpt><trkpt lat="43.5413361" lon="11.965782"><ele>605.5</ele><time>2026-04-18T07:57:54.077Z</time></trkpt><trkpt lat="43.5414539" lon="11.9657158"><ele>604.25</ele><time>2026-04-18T07:57:55.076Z</time></trkpt><trkpt lat="43.541601" lon="11.9656394"><ele>603.0</ele><time>2026-04-18T07:57:56.076Z</time></trkpt><trkpt lat="43.5417294" lon="11.965628"><ele>603.0</ele><time>2026-04-18T07:57:57.077Z</time></trkpt><trkpt lat="43.5418801" lon="11.9655918"><ele>603.0</ele><time>2026-04-18T07:57:58.077Z</time></trkpt><trkpt lat="43.5420405" lon="11.9655624"><ele>603.0</ele><time>2026-04-18T07:57:59.077Z</time></trkpt><trkpt lat="43.5421793" lon="11.965562"><ele>601.5</ele><time>2026-04-18T07:58:00.077Z</time></trkpt><trkpt lat="43.54233" lon="11.9655653"><ele>600.0</ele><time>2026-04-18T07:58:01.076Z</time></trkpt><trkpt lat="43.5424712" lon="11.9655407"><ele>598.5</ele><time>2026-04-18T07:58:02.076Z</time></trkpt><trkpt lat="43.5425507" lon="11.9654823"><ele>597.0</ele><time>2026-04-18T07:58:03.076Z</time></trkpt><trkpt lat="43.5426528" lon="11.9653752"><ele>597.0</ele><time>2026-04-18T07:58:04.077Z</time></trkpt><trkpt lat="43.5427406" lon="11.9652376"><ele>597.0</ele><time>2026-04-18T07:58:05.076Z</time></trkpt><trkpt lat="43.5428245" lon="11.9650824"><ele>597.0</ele><time>2026-04-18T07:58:06.076Z</time></trkpt><trkpt lat="43.5429068" lon="11.9649316"><ele>597.0</ele><time>2026-04-18T07:58:07.077Z</time></trkpt><trkpt lat="43.5429886" lon="11.9648002"><ele>596.5</ele><time>2026-04-18T07:58:08.077Z</time></trkpt><trkpt lat="43.5430774" lon="11.9646987"><ele>596.0</ele><time>2026-04-18T07:58:09.077Z</time></trkpt><trkpt lat="43.5431679" lon="11.9646401"><ele>595.5</ele><time>2026-04-18T07:58:10.077Z</time></trkpt><trkpt lat="43.5432994" lon="11.9646165"><ele>595.0</ele><time>2026-04-18T07:58:11.076Z</time></trkpt><trkpt lat="43.5434022" lon="11.964612"><ele>595.0</ele><time>2026-04-18T07:58:12.077Z</time></trkpt><trkpt lat="43.5435073" lon="11.9646268"><ele>595.0</ele><time>2026-04-18T07:58:13.077Z</time></trkpt><trkpt lat="43.5436202" lon="11.9646132"><ele>595.0</ele><time>2026-04-18T07:58:14.077Z</time></trkpt><trkpt lat="43.5437409" lon="11.9645957"><ele>595.0</ele><time>2026-04-18T07:58:15.076Z</time></trkpt><trkpt lat="43.543859" lon="11.9645663"><ele>595.75</ele><time>2026-04-18T07:58:16.076Z</time></trkpt><trkpt lat="43.5439243" lon="11.964345"><ele>596.5</ele><time>2026-04-18T07:58:17.076Z</time></trkpt><trkpt lat="43.5440411" lon="11.9642646"><ele>597.25</ele><time>2026-04-18T07:58:18.076Z</time></trkpt><trkpt lat="43.5441522" lon="11.9641714"><ele>598.0</ele><time>2026-04-18T07:58:19.076Z</time></trkpt><trkpt lat="43.5442639" lon="11.9640732"><ele>594.75</ele><time>2026-04-18T07:58:20.076Z</time></trkpt><trkpt lat="43.5443775" lon="11.9639663"><ele>591.5</ele><time>2026-04-18T07:58:21.076Z</time></trkpt><trkpt lat="43.5444992" lon="11.9638857"><ele>588.25</ele><time>2026-04-18T07:58:22.076Z</time></trkpt><trkpt lat="43.5446206" lon="11.9638246"><ele>585.0</ele><time>2026-04-18T07:58:23.077Z</time></trkpt><trkpt lat="43.5447302" lon="11.9637525"><ele>584.8</ele><time>2026-04-18T07:58:24.077Z</time></trkpt><trkpt lat="43.5448401" lon="11.9636828"><ele>584.6</ele><time>2026-04-18T07:58:25.076Z</time></trkpt><trkpt lat="43.5449388" lon="11.9636098"><ele>584.4</ele><time>2026-04-18T07:58:26.077Z</time></trkpt><trkpt lat="43.5450254" lon="11.9635131"><ele>584.2</ele><time>2026-04-18T07:58:27.076Z</time></trkpt><trkpt lat="43.5450885" lon="11.9634054"><ele>584.0</ele><time>2026-04-18T07:58:28.076Z</time></trkpt><trkpt lat="43.5451304" lon="11.9632858"><ele>583.8</ele><time>2026-04-18T07:58:29.076Z</time></trkpt><trkpt lat="43.545171" lon="11.9631604"><ele>583.5999999999999</ele><time>2026-04-18T07:58:30.076Z</time></trkpt><trkpt lat="43.5452314" lon="11.9630529"><ele>583.4</ele><time>2026-04-18T07:58:31.077Z</time></trkpt><trkpt lat="43.5453137" lon="11.9629753"><ele>583.1999999999999</ele><time>2026-04-18T07:58:32.076Z</time></trkpt><trkpt lat="43.545403" lon="11.9629233"><ele>583.0</ele><time>2026-04-18T07:58:33.076Z</time></trkpt><trkpt lat="43.5455127" lon="11.962919"><ele>583.0</ele><time>2026-04-18T07:58:34.076Z</time></trkpt><trkpt lat="43.545622" lon="11.962914"><ele>583.0</ele><time>2026-04-18T07:58:35.076Z</time></trkpt><trkpt lat="43.5457446" lon="11.9629527"><ele>583.0</ele><time>2026-04-18T07:58:36.076Z</time></trkpt><trkpt lat="43.5459437" lon="11.9630276"><ele>583.0</ele><time>2026-04-18T07:58:37.077Z</time></trkpt><trkpt lat="43.5461003" lon="11.9630552"><ele>583.4</ele><time>2026-04-18T07:58:38.077Z</time></trkpt><trkpt lat="43.5462386" lon="11.963091"><ele>583.8</ele><time>2026-04-18T07:58:39.077Z</time></trkpt><trkpt lat="43.5463501" lon="11.9631196"><ele>584.2</ele><time>2026-04-18T07:58:40.076Z</time></trkpt><trkpt lat="43.5464261" lon="11.9631804"><ele>584.6</ele><time>2026-04-18T07:58:41.077Z</time></trkpt><trkpt lat="43.5465087" lon="11.9632381"><ele>585.0</ele><time>2026-04-18T07:58:42.076Z</time></trkpt><trkpt lat="43.5465271" lon="11.9634411"><ele>585.0</ele><time>2026-04-18T07:58:44.076Z</time></trkpt><trkpt lat="43.5465551" lon="11.9635528"><ele>585.0</ele><time>2026-04-18T07:58:45.076Z</time></trkpt><trkpt lat="43.5465951" lon="11.9636571"><ele>585.0</ele><time>2026-04-18T07:58:46.076Z</time></trkpt><trkpt lat="43.5466557" lon="11.9637482"><ele>585.0</ele><time>2026-04-18T07:58:47.076Z</time></trkpt><trkpt lat="43.5467674" lon="11.9638213"><ele>585.0</ele><time>2026-04-18T07:58:48.076Z</time></trkpt><trkpt lat="43.5468746" lon="11.9638921"><ele>585.0</ele><time>2026-04-18T07:58:49.076Z</time></trkpt><trkpt lat="43.5469709" lon="11.9639204"><ele>585.0</ele><time>2026-04-18T07:58:50.077Z</time></trkpt><trkpt lat="43.5470603" lon="11.9639272"><ele>585.0</ele><time>2026-04-18T07:58:51.076Z</time></trkpt><trkpt lat="43.5471457" lon="11.9639353"><ele>585.0</ele><time>2026-04-18T07:58:52.076Z</time></trkpt><trkpt lat="43.5472558" lon="11.9639305"><ele>585.0</ele><time>2026-04-18T07:58:53.076Z</time></trkpt><trkpt lat="43.547362" lon="11.9639339"><ele>584.3333333333334</ele><time>2026-04-18T07:58:54.076Z</time></trkpt><trkpt lat="43.5474726" lon="11.9639442"><ele>583.6666666666666</ele><time>2026-04-18T07:58:55.077Z</time></trkpt><trkpt lat="43.5475677" lon="11.963929"><ele>583.0</ele><time>2026-04-18T07:58:56.077Z</time></trkpt><trkpt lat="43.5476543" lon="11.9639356"><ele>582.3333333333333</ele><time>2026-04-18T07:58:57.077Z</time></trkpt><trkpt lat="43.5477024" lon="11.9640248"><ele>581.6666666666666</ele><time>2026-04-18T07:58:58.077Z</time></trkpt><trkpt lat="43.5477238" lon="11.9641126"><ele>581.0</ele><time>2026-04-18T07:58:59.077Z</time></trkpt><trkpt lat="43.5478451" lon="11.9642201"><ele>580.0</ele><time>2026-04-18T07:59:01.077Z</time></trkpt><trkpt lat="43.5479325" lon="11.9642771"><ele>579.0</ele><time>2026-04-18T07:59:02.076Z</time></trkpt><trkpt lat="43.5480095" lon="11.9643351"><ele>578.0</ele><time>2026-04-18T07:59:03.076Z</time></trkpt><trkpt lat="43.5481038" lon="11.9643984"><ele>577.0</ele><time>2026-04-18T07:59:04.076Z</time></trkpt><trkpt lat="43.5481931" lon="11.9644595"><ele>576.0</ele><time>2026-04-18T07:59:05.077Z</time></trkpt><trkpt lat="43.5482587" lon="11.9645027"><ele>576.0</ele><time>2026-04-18T07:59:06.076Z</time></trkpt><trkpt lat="43.548319" lon="11.9645289"><ele>576.0</ele><time>2026-04-18T07:59:07.076Z</time></trkpt><trkpt lat="43.5483982" lon="11.9645871"><ele>576.0</ele><time>2026-04-18T07:59:09.076Z</time></trkpt><trkpt lat="43.5485099" lon="11.9646436"><ele>576.0</ele><time>2026-04-18T07:59:11.076Z</time></trkpt><trkpt lat="43.5485922" lon="11.9646961"><ele>576.0</ele><time>2026-04-18T07:59:12.077Z</time></trkpt><trkpt lat="43.5486926" lon="11.9647798"><ele>576.0</ele><time>2026-04-18T07:59:14.076Z</time></trkpt><trkpt lat="43.5487583" lon="11.9648537"><ele>576.0</ele><time>2026-04-18T07:59:15.077Z</time></trkpt><trkpt lat="43.5488239" lon="11.9649212"><ele>576.0</ele><time>2026-04-18T07:59:16.077Z</time></trkpt><trkpt lat="43.5488716" lon="11.9650185"><ele>576.0</ele><time>2026-04-18T07:59:17.077Z</time></trkpt><trkpt lat="43.5489187" lon="11.9651225"><ele>576.0</ele><time>2026-04-18T07:59:18.077Z</time></trkpt><trkpt lat="43.5489611" lon="11.9652177"><ele>576.0</ele><time>2026-04-18T07:59:19.076Z</time></trkpt><trkpt lat="43.5490098" lon="11.9653138"><ele>576.8</ele><time>2026-04-18T07:59:20.076Z</time></trkpt><trkpt lat="43.5490637" lon="11.9654242"><ele>577.6</ele><time>2026-04-18T07:59:21.076Z</time></trkpt><trkpt lat="43.5491339" lon="11.9655025"><ele>578.4</ele><time>2026-04-18T07:59:22.076Z</time></trkpt><trkpt lat="43.5491838" lon="11.9655786"><ele>579.2</ele><time>2026-04-18T07:59:23.076Z</time></trkpt><trkpt lat="43.5492817" lon="11.9656466"><ele>580.0</ele><time>2026-04-18T07:59:24.077Z</time></trkpt><trkpt lat="43.5493574" lon="11.965687"><ele>580.0</ele><time>2026-04-18T07:59:25.076Z</time></trkpt><trkpt lat="43.5494427" lon="11.9657268"><ele>580.0</ele><time>2026-04-18T07:59:26.076Z</time></trkpt><trkpt lat="43.5495328" lon="11.9657672"><ele>580.0</ele><time>2026-04-18T07:59:27.076Z</time></trkpt><trkpt lat="43.5496244" lon="11.9658168"><ele>580.0</ele><time>2026-04-18T07:59:28.077Z</time></trkpt><trkpt lat="43.5497207" lon="11.9658827"><ele>580.0</ele><time>2026-04-18T07:59:29.076Z</time></trkpt><trkpt lat="43.5498236" lon="11.9659776"><ele>583.0</ele><time>2026-04-18T07:59:30.076Z</time></trkpt><trkpt lat="43.5499011" lon="11.9660864"><ele>586.0</ele><time>2026-04-18T07:59:31.076Z</time></trkpt><trkpt lat="43.5499986" lon="11.9662437"><ele>589.0</ele><time>2026-04-18T07:59:32.076Z</time></trkpt><trkpt lat="43.5501276" lon="11.9664262"><ele>592.0</ele><time>2026-04-18T07:59:33.077Z</time></trkpt><trkpt lat="43.5502802" lon="11.966587"><ele>592.3333333333334</ele><time>2026-04-18T07:59:34.077Z</time></trkpt><trkpt lat="43.5503915" lon="11.9667457"><ele>592.6666666666666</ele><time>2026-04-18T07:59:35.076Z</time></trkpt><trkpt lat="43.5504977" lon="11.9669084"><ele>593.0</ele><time>2026-04-18T07:59:36.077Z</time></trkpt><trkpt lat="43.5505979" lon="11.9670667"><ele>593.0</ele><time>2026-04-18T07:59:37.076Z</time></trkpt><trkpt lat="43.5506971" lon="11.9672115"><ele>593.0</ele><time>2026-04-18T07:59:38.076Z</time></trkpt><trkpt lat="43.5507439" lon="11.9673565"><ele>593.0</ele><time>2026-04-18T07:59:39.076Z</time></trkpt><trkpt lat="43.5508193" lon="11.9674776"><ele>593.0</ele><time>2026-04-18T07:59:40.077Z</time></trkpt><trkpt lat="43.5508832" lon="11.9675714"><ele>593.1666666666666</ele><time>2026-04-18T07:59:41.077Z</time></trkpt><trkpt lat="43.5509611" lon="11.9676504"><ele>593.3333333333333</ele><time>2026-04-18T07:59:42.076Z</time></trkpt><trkpt lat="43.5510332" lon="11.9676995"><ele>593.5</ele><time>2026-04-18T07:59:43.076Z</time></trkpt><trkpt lat="43.5511082" lon="11.9677316"><ele>593.6666666666666</ele><time>2026-04-18T07:59:44.077Z</time></trkpt><trkpt lat="43.5511951" lon="11.9677277"><ele>593.8333333333334</ele><time>2026-04-18T07:59:45.076Z</time></trkpt><trkpt lat="43.5512776" lon="11.9676951"><ele>594.0</ele><time>2026-04-18T07:59:46.077Z</time></trkpt><trkpt lat="43.5513633" lon="11.9676413"><ele>594.0</ele><time>2026-04-18T07:59:47.076Z</time></trkpt><trkpt lat="43.5514382" lon="11.9675452"><ele>594.0</ele><time>2026-04-18T07:59:48.076Z</time></trkpt><trkpt lat="43.5515125" lon="11.9674545"><ele>594.0</ele><time>2026-04-18T07:59:49.076Z</time></trkpt><trkpt lat="43.5515949" lon="11.9673163"><ele>594.0</ele><time>2026-04-18T07:59:50.077Z</time></trkpt><trkpt lat="43.5517093" lon="11.9671643"><ele>595.6666666666666</ele><time>2026-04-18T07:59:51.077Z</time></trkpt><trkpt lat="43.551813" lon="11.9670103"><ele>597.3333333333333</ele><time>2026-04-18T07:59:52.076Z</time></trkpt><trkpt lat="43.5519395" lon="11.9668322"><ele>599.0</ele><time>2026-04-18T07:59:53.077Z</time></trkpt><trkpt lat="43.5520822" lon="11.9666749"><ele>600.0</ele><time>2026-04-18T07:59:54.076Z</time></trkpt><trkpt lat="43.552228" lon="11.9664973"><ele>601.0</ele><time>2026-04-18T07:59:55.077Z</time></trkpt><trkpt lat="43.552354" lon="11.9663582"><ele>602.0</ele><time>2026-04-18T07:59:56.076Z</time></trkpt><trkpt lat="43.5524605" lon="11.9662148"><ele>602.0</ele><time>2026-04-18T07:59:57.076Z</time></trkpt><trkpt lat="43.5525648" lon="11.9660645"><ele>602.0</ele><time>2026-04-18T07:59:58.076Z</time></trkpt><trkpt lat="43.5526703" lon="11.9658837"><ele>602.0</ele><time>2026-04-18T07:59:59.076Z</time></trkpt><trkpt lat="43.5527779" lon="11.9656982"><ele>601.25</ele><time>2026-04-18T08:00:00.076Z</time></trkpt><trkpt lat="43.5528618" lon="11.9655335"><ele>600.5</ele><time>2026-04-18T08:00:01.077Z</time></trkpt><trkpt lat="43.5529494" lon="11.9653844"><ele>599.75</ele><time>2026-04-18T08:00:02.077Z</time></trkpt><trkpt lat="43.5530275" lon="11.9652673"><ele>599.0</ele><time>2026-04-18T08:00:03.076Z</time></trkpt><trkpt lat="43.5531174" lon="11.9651742"><ele>598.8</ele><time>2026-04-18T08:00:04.077Z</time></trkpt><trkpt lat="43.5532034" lon="11.9650962"><ele>598.5999999999999</ele><time>2026-04-18T08:00:05.076Z</time></trkpt><trkpt lat="43.5532935" lon="11.9650613"><ele>598.4</ele><time>2026-04-18T08:00:06.076Z</time></trkpt><trkpt lat="43.553384" lon="11.9650698"><ele>598.1999999999999</ele><time>2026-04-18T08:00:07.076Z</time></trkpt><trkpt lat="43.5534806" lon="11.9650971"><ele>598.0</ele><time>2026-04-18T08:00:08.076Z</time></trkpt><trkpt lat="43.5535856" lon="11.9651557"><ele>598.0</ele><time>2026-04-18T08:00:09.077Z</time></trkpt><trkpt lat="43.5537039" lon="11.9652265"><ele>598.0</ele><time>2026-04-18T08:00:10.076Z</time></trkpt><trkpt lat="43.5538258" lon="11.965299"><ele>598.0</ele><time>2026-04-18T08:00:11.076Z</time></trkpt><trkpt lat="43.5539599" lon="11.9653581"><ele>598.0</ele><time>2026-04-18T08:00:12.076Z</time></trkpt><trkpt lat="43.5541118" lon="11.9653927"><ele>599.5</ele><time>2026-04-18T08:00:13.076Z</time></trkpt><trkpt lat="43.5542511" lon="11.9654034"><ele>601.0</ele><time>2026-04-18T08:00:14.076Z</time></trkpt><trkpt lat="43.5543736" lon="11.9653893"><ele>602.5</ele><time>2026-04-18T08:00:15.076Z</time></trkpt><trkpt lat="43.554512" lon="11.965357"><ele>604.0</ele><time>2026-04-18T08:00:16.076Z</time></trkpt><trkpt lat="43.554655" lon="11.9652861"><ele>605.25</ele><time>2026-04-18T08:00:17.076Z</time></trkpt><trkpt lat="43.5547854" lon="11.9652234"><ele>606.5</ele><time>2026-04-18T08:00:18.077Z</time></trkpt><trkpt lat="43.5549106" lon="11.9651903"><ele>607.75</ele><time>2026-04-18T08:00:19.076Z</time></trkpt><trkpt lat="43.5550315" lon="11.9651822"><ele>609.0</ele><time>2026-04-18T08:00:20.076Z</time></trkpt><trkpt lat="43.55516" lon="11.9651898"><ele>609.0</ele><time>2026-04-18T08:00:21.077Z</time></trkpt><trkpt lat="43.5552803" lon="11.9651972"><ele>609.0</ele><time>2026-04-18T08:00:22.077Z</time></trkpt><trkpt lat="43.5554001" lon="11.9651672"><ele>609.0</ele><time>2026-04-18T08:00:23.076Z</time></trkpt><trkpt lat="43.5555295" lon="11.9651265"><ele>609.0</ele><time>2026-04-18T08:00:24.076Z</time></trkpt><trkpt lat="43.5556467" lon="11.9650898"><ele>613.0</ele><time>2026-04-18T08:00:25.076Z</time></trkpt><trkpt lat="43.5557625" lon="11.9650872"><ele>617.0</ele><time>2026-04-18T08:00:26.077Z</time></trkpt><trkpt lat="43.5558883" lon="11.9651053"><ele>621.0</ele><time>2026-04-18T08:00:27.076Z</time></trkpt><trkpt lat="43.5560399" lon="11.9651326"><ele>625.0</ele><time>2026-04-18T08:00:28.076Z</time></trkpt><trkpt lat="43.556204" lon="11.9651612"><ele>627.5</ele><time>2026-04-18T08:00:29.077Z</time></trkpt><trkpt lat="43.5563466" lon="11.9651878"><ele>630.0</ele><time>2026-04-18T08:00:30.077Z</time></trkpt><trkpt lat="43.5564724" lon="11.9652244"><ele>632.5</ele><time>2026-04-18T08:00:31.076Z</time></trkpt><trkpt lat="43.5565877" lon="11.965277"><ele>635.0</ele><time>2026-04-18T08:00:32.076Z</time></trkpt><trkpt lat="43.5566854" lon="11.9653463"><ele>635.0</ele><time>2026-04-18T08:00:33.077Z</time></trkpt><trkpt lat="43.5567839" lon="11.9654241"><ele>635.0</ele><time>2026-04-18T08:00:34.077Z</time></trkpt><trkpt lat="43.5568862" lon="11.9654957"><ele>635.0</ele><time>2026-04-18T08:00:35.076Z</time></trkpt><trkpt lat="43.5569841" lon="11.965546"><ele>635.0</ele><time>2026-04-18T08:00:36.076Z</time></trkpt><trkpt lat="43.5570882" lon="11.9655822"><ele>635.0</ele><time>2026-04-18T08:00:37.076Z</time></trkpt><trkpt lat="43.5571937" lon="11.9656038"><ele>636.2</ele><time>2026-04-18T08:00:38.077Z</time></trkpt><trkpt lat="43.5572969" lon="11.9656073"><ele>637.4</ele><time>2026-04-18T08:00:39.077Z</time></trkpt><trkpt lat="43.5574007" lon="11.9656127"><ele>638.5999999999999</ele><time>2026-04-18T08:00:40.076Z</time></trkpt><trkpt lat="43.5575052" lon="11.9656435"><ele>639.8</ele><time>2026-04-18T08:00:41.076Z</time></trkpt><trkpt lat="43.5576009" lon="11.9657076"><ele>641.0</ele><time>2026-04-18T08:00:42.076Z</time></trkpt><trkpt lat="43.5576977" lon="11.9657992"><ele>641.0</ele><time>2026-04-18T08:00:43.076Z</time></trkpt><trkpt lat="43.5578217" lon="11.9659005"><ele>641.0</ele><time>2026-04-18T08:00:44.076Z</time></trkpt><trkpt lat="43.5579205" lon="11.9659978"><ele>641.0</ele><time>2026-04-18T08:00:45.077Z</time></trkpt><trkpt lat="43.5580133" lon="11.9660781"><ele>641.0</ele><time>2026-04-18T08:00:46.076Z</time></trkpt><trkpt lat="43.5581115" lon="11.9661392"><ele>640.5999999999999</ele><time>2026-04-18T08:00:47.076Z</time></trkpt><trkpt lat="43.5582079" lon="11.9661824"><ele>640.1999999999999</ele><time>2026-04-18T08:00:48.076Z</time></trkpt><trkpt lat="43.5583019" lon="11.9661974"><ele>639.8</ele><time>2026-04-18T08:00:49.077Z</time></trkpt><trkpt lat="43.558399" lon="11.9661876"><ele>639.4</ele><time>2026-04-18T08:00:50.076Z</time></trkpt><trkpt lat="43.5585124" lon="11.9661716"><ele>639.0</ele><time>2026-04-18T08:00:51.076Z</time></trkpt><trkpt lat="43.5586149" lon="11.9661527"><ele>639.0</ele><time>2026-04-18T08:00:52.076Z</time></trkpt><trkpt lat="43.5586872" lon="11.9661042"><ele>639.0</ele><time>2026-04-18T08:00:53.077Z</time></trkpt><trkpt lat="43.5587745" lon="11.9660716"><ele>639.0</ele><time>2026-04-18T08:00:54.076Z</time></trkpt><trkpt lat="43.558839" lon="11.9660124"><ele>639.0</ele><time>2026-04-18T08:00:56.076Z</time></trkpt><trkpt lat="43.5589143" lon="11.965948"><ele>639.0</ele><time>2026-04-18T08:00:58.076Z</time></trkpt><trkpt lat="43.5590307" lon="11.9658754"><ele>643.4</ele><time>2026-04-18T08:01:00.077Z</time></trkpt><trkpt lat="43.5590848" lon="11.9658299"><ele>647.8</ele><time>2026-04-18T08:01:01.076Z</time></trkpt><trkpt lat="43.559159" lon="11.9657039"><ele>652.1999999999999</ele><time>2026-04-18T08:01:03.076Z</time></trkpt><trkpt lat="43.5592101" lon="11.9655384"><ele>656.5999999999999</ele><time>2026-04-18T08:01:05.077Z</time></trkpt><trkpt lat="43.5592558" lon="11.9654654"><ele>661.0</ele><time>2026-04-18T08:01:06.076Z</time></trkpt><trkpt lat="43.5593108" lon="11.965371"><ele>661.0</ele><time>2026-04-18T08:01:07.076Z</time></trkpt><trkpt lat="43.5593783" lon="11.9653195"><ele>661.0</ele><time>2026-04-18T08:01:08.077Z</time></trkpt><trkpt lat="43.5594719" lon="11.9653104"><ele>661.0</ele><time>2026-04-18T08:01:09.076Z</time></trkpt><trkpt lat="43.5595525" lon="11.9652604"><ele>661.0</ele><time>2026-04-18T08:01:10.076Z</time></trkpt><trkpt lat="43.5596812" lon="11.9651759"><ele>661.0</ele><time>2026-04-18T08:01:11.076Z</time></trkpt><trkpt lat="43.5598103" lon="11.9650742"><ele>662.75</ele><time>2026-04-18T08:01:12.077Z</time></trkpt><trkpt lat="43.5599375" lon="11.964976"><ele>664.5</ele><time>2026-04-18T08:01:13.077Z</time></trkpt><trkpt lat="43.560052" lon="11.9648973"><ele>666.25</ele><time>2026-04-18T08:01:14.076Z</time></trkpt><trkpt lat="43.5601662" lon="11.9648039"><ele>668.0</ele><time>2026-04-18T08:01:15.077Z</time></trkpt><trkpt lat="43.5602755" lon="11.9647219"><ele>668.4</ele><time>2026-04-18T08:01:16.077Z</time></trkpt><trkpt lat="43.5603719" lon="11.9646536"><ele>668.8</ele><time>2026-04-18T08:01:17.076Z</time></trkpt><trkpt lat="43.5604722" lon="11.9645804"><ele>669.2</ele><time>2026-04-18T08:01:18.076Z</time></trkpt><trkpt lat="43.5605631" lon="11.9645298"><ele>669.6</ele><time>2026-04-18T08:01:19.077Z</time></trkpt><trkpt lat="43.560685" lon="11.964501"><ele>670.0</ele><time>2026-04-18T08:01:20.076Z</time></trkpt><trkpt lat="43.5608048" lon="11.9644612"><ele>670.0</ele><time>2026-04-18T08:01:21.077Z</time></trkpt><trkpt lat="43.560895" lon="11.9644567"><ele>670.0</ele><time>2026-04-18T08:01:22.076Z</time></trkpt><trkpt lat="43.5609936" lon="11.9644757"><ele>670.0</ele><time>2026-04-18T08:01:23.077Z</time></trkpt><trkpt lat="43.56111" lon="11.9644923"><ele>670.0</ele><time>2026-04-18T08:01:24.076Z</time></trkpt><trkpt lat="43.5611943" lon="11.9645475"><ele>670.0</ele><time>2026-04-18T08:01:25.077Z</time></trkpt><trkpt lat="43.5612855" lon="11.9645666"><ele>668.6</ele><time>2026-04-18T08:01:26.076Z</time></trkpt><trkpt lat="43.5613662" lon="11.9645161"><ele>667.2</ele><time>2026-04-18T08:01:27.076Z</time></trkpt><trkpt lat="43.5614779" lon="11.964466"><ele>665.8</ele><time>2026-04-18T08:01:28.076Z</time></trkpt><trkpt lat="43.5615922" lon="11.9644458"><ele>664.4</ele><time>2026-04-18T08:01:29.076Z</time></trkpt><trkpt lat="43.5617034" lon="11.9644206"><ele>663.0</ele><time>2026-04-18T08:01:30.077Z</time></trkpt><trkpt lat="43.5618169" lon="11.9643768"><ele>663.0</ele><time>2026-04-18T08:01:31.076Z</time></trkpt><trkpt lat="43.5619276" lon="11.9643631"><ele>663.0</ele><time>2026-04-18T08:01:32.076Z</time></trkpt><trkpt lat="43.562023" lon="11.9643566"><ele>663.0</ele><time>2026-04-18T08:01:33.076Z</time></trkpt><trkpt lat="43.5621289" lon="11.9643252"><ele>663.0</ele><time>2026-04-18T08:01:34.076Z</time></trkpt><trkpt lat="43.5622395" lon="11.9642896"><ele>663.0</ele><time>2026-04-18T08:01:35.076Z</time></trkpt><trkpt lat="43.5623066" lon="11.9642035"><ele>659.75</ele><time>2026-04-18T08:01:36.076Z</time></trkpt><trkpt lat="43.5623725" lon="11.9640668"><ele>656.5</ele><time>2026-04-18T08:01:37.076Z</time></trkpt><trkpt lat="43.5624527" lon="11.963951"><ele>653.25</ele><time>2026-04-18T08:01:38.077Z</time></trkpt><trkpt lat="43.5625299" lon="11.9638387"><ele>650.0</ele><time>2026-04-18T08:01:39.076Z</time></trkpt><trkpt lat="43.5625998" lon="11.9637205"><ele>650.0</ele><time>2026-04-18T08:01:40.077Z</time></trkpt><trkpt lat="43.5626771" lon="11.9636807"><ele>650.0</ele><time>2026-04-18T08:01:41.076Z</time></trkpt><trkpt lat="43.5627966" lon="11.9636722"><ele>650.0</ele><time>2026-04-18T08:01:42.077Z</time></trkpt><trkpt lat="43.5628784" lon="11.9636375"><ele>650.0</ele><time>2026-04-18T08:01:43.076Z</time></trkpt><trkpt lat="43.5629063" lon="11.9635532"><ele>650.0</ele><time>2026-04-18T08:01:44.076Z</time></trkpt><trkpt lat="43.5629475" lon="11.9634796"><ele>650.0</ele><time>2026-04-18T08:01:45.076Z</time></trkpt><trkpt lat="43.5630006" lon="11.9633263"><ele>652.25</ele><time>2026-04-18T08:01:47.077Z</time></trkpt><trkpt lat="43.5629227" lon="11.9630616"><ele>654.5</ele><time>2026-04-18T08:01:48.076Z</time></trkpt><trkpt lat="43.5629396" lon="11.9629039"><ele>656.75</ele><time>2026-04-18T08:01:49.077Z</time></trkpt><trkpt lat="43.5629653" lon="11.9627435"><ele>659.0</ele><time>2026-04-18T08:01:50.076Z</time></trkpt><trkpt lat="43.5630009" lon="11.9625866"><ele>659.0</ele><time>2026-04-18T08:01:51.076Z</time></trkpt><trkpt lat="43.5630283" lon="11.962431"><ele>659.0</ele><time>2026-04-18T08:01:52.077Z</time></trkpt><trkpt lat="43.5630344" lon="11.9622892"><ele>659.0</ele><time>2026-04-18T08:01:53.076Z</time></trkpt><trkpt lat="43.5630703" lon="11.9621601"><ele>659.0</ele><time>2026-04-18T08:01:54.077Z</time></trkpt><trkpt lat="43.5630867" lon="11.9620181"><ele>659.0</ele><time>2026-04-18T08:01:55.076Z</time></trkpt><trkpt lat="43.5631376" lon="11.9619009"><ele>659.0</ele><time>2026-04-18T08:01:56.077Z</time></trkpt><trkpt lat="43.5631859" lon="11.9617703"><ele>659.0</ele><time>2026-04-18T08:01:57.077Z</time></trkpt><trkpt lat="43.5632302" lon="11.9616292"><ele>659.0</ele><time>2026-04-18T08:01:58.076Z</time></trkpt><trkpt lat="43.5632989" lon="11.9615184"><ele>659.0</ele><time>2026-04-18T08:01:59.076Z</time></trkpt><trkpt lat="43.5633984" lon="11.9614659"><ele>659.0</ele><time>2026-04-18T08:02:00.076Z</time></trkpt><trkpt lat="43.5634905" lon="11.9613831"><ele>658.0</ele><time>2026-04-18T08:02:01.076Z</time></trkpt><trkpt lat="43.5636126" lon="11.9613081"><ele>657.0</ele><time>2026-04-18T08:02:02.076Z</time></trkpt><trkpt lat="43.5637335" lon="11.9612703"><ele>656.0</ele><time>2026-04-18T08:02:03.077Z</time></trkpt><trkpt lat="43.5638538" lon="11.9611817"><ele>655.0</ele><time>2026-04-18T08:02:04.076Z</time></trkpt><trkpt lat="43.5639704" lon="11.9611028"><ele>655.0</ele><time>2026-04-18T08:02:05.077Z</time></trkpt><trkpt lat="43.5640529" lon="11.9610368"><ele>655.0</ele><time>2026-04-18T08:02:06.077Z</time></trkpt><trkpt lat="43.5641309" lon="11.961014"><ele>655.0</ele><time>2026-04-18T08:02:07.076Z</time></trkpt><trkpt lat="43.564214" lon="11.9610036"><ele>655.0</ele><time>2026-04-18T08:02:08.076Z</time></trkpt><trkpt lat="43.5643143" lon="11.961009"><ele>655.0</ele><time>2026-04-18T08:02:09.076Z</time></trkpt><trkpt lat="43.5644665" lon="11.961045"><ele>653.0</ele><time>2026-04-18T08:02:10.076Z</time></trkpt><trkpt lat="43.5645843" lon="11.9610728"><ele>651.0</ele><time>2026-04-18T08:02:11.076Z</time></trkpt><trkpt lat="43.5646957" lon="11.9610963"><ele>649.0</ele><time>2026-04-18T08:02:12.076Z</time></trkpt><trkpt lat="43.5648045" lon="11.961101"><ele>647.0</ele><time>2026-04-18T08:02:13.076Z</time></trkpt><trkpt lat="43.5649045" lon="11.9611201"><ele>645.0</ele><time>2026-04-18T08:02:14.076Z</time></trkpt><trkpt lat="43.5650125" lon="11.9611125"><ele>645.0</ele><time>2026-04-18T08:02:15.076Z</time></trkpt><trkpt lat="43.565076" lon="11.9611058"><ele>645.0</ele><time>2026-04-18T08:02:16.076Z</time></trkpt><trkpt lat="43.5651591" lon="11.9610834"><ele>645.0</ele><time>2026-04-18T08:02:17.077Z</time></trkpt><trkpt lat="43.5652294" lon="11.9610373"><ele>645.0</ele><time>2026-04-18T08:02:18.077Z</time></trkpt><trkpt lat="43.5653088" lon="11.9610034"><ele>645.0</ele><time>2026-04-18T08:02:19.076Z</time></trkpt><trkpt lat="43.565382" lon="11.9609642"><ele>645.0</ele><time>2026-04-18T08:02:20.076Z</time></trkpt><trkpt lat="43.5654442" lon="11.9608993"><ele>642.8</ele><time>2026-04-18T08:02:21.077Z</time></trkpt><trkpt lat="43.5655082" lon="11.9608427"><ele>640.6</ele><time>2026-04-18T08:02:22.077Z</time></trkpt><trkpt lat="43.5655814" lon="11.9607855"><ele>638.4</ele><time>2026-04-18T08:02:23.076Z</time></trkpt><trkpt lat="43.5656677" lon="11.960693"><ele>636.2</ele><time>2026-04-18T08:02:24.076Z</time></trkpt><trkpt lat="43.5657514" lon="11.9606109"><ele>634.0</ele><time>2026-04-18T08:02:25.076Z</time></trkpt><trkpt lat="43.5658288" lon="11.9605338"><ele>634.0</ele><time>2026-04-18T08:02:26.077Z</time></trkpt><trkpt lat="43.5659089" lon="11.9604565"><ele>634.0</ele><time>2026-04-18T08:02:27.077Z</time></trkpt><trkpt lat="43.5659822" lon="11.9603909"><ele>634.0</ele><time>2026-04-18T08:02:28.077Z</time></trkpt><trkpt lat="43.5660497" lon="11.9603302"><ele>634.0</ele><time>2026-04-18T08:02:29.076Z</time></trkpt><trkpt lat="43.5661778" lon="11.9602292"><ele>634.0</ele><time>2026-04-18T08:02:31.076Z</time></trkpt><trkpt lat="43.566233" lon="11.9601838"><ele>634.0</ele><time>2026-04-18T08:02:32.076Z</time></trkpt><trkpt lat="43.5663147" lon="11.9601034"><ele>634.0</ele><time>2026-04-18T08:02:34.076Z</time></trkpt><trkpt lat="43.5663297" lon="11.9600015"><ele>634.0</ele><time>2026-04-18T08:02:36.077Z</time></trkpt><trkpt lat="43.5662828" lon="11.9599182"><ele>634.0</ele><time>2026-04-18T08:02:38.077Z</time></trkpt><trkpt lat="43.5662149" lon="11.9597299"><ele>634.0</ele><time>2026-04-18T08:02:40.076Z</time></trkpt><trkpt lat="43.566179" lon="11.9596"><ele>634.0</ele><time>2026-04-18T08:02:41.077Z</time></trkpt><trkpt lat="43.5661728" lon="11.9594492"><ele>634.0</ele><time>2026-04-18T08:02:42.076Z</time></trkpt><trkpt lat="43.5661627" lon="11.9593156"><ele>634.0</ele><time>2026-04-18T08:02:43.076Z</time></trkpt><trkpt lat="43.5661789" lon="11.9592011"><ele>634.0</ele><time>2026-04-18T08:02:44.076Z</time></trkpt><trkpt lat="43.5661943" lon="11.9591029"><ele>634.0</ele><time>2026-04-18T08:02:45.076Z</time></trkpt><trkpt lat="43.5662675" lon="11.9590664"><ele>634.0</ele><time>2026-04-18T08:02:46.076Z</time></trkpt><trkpt lat="43.5663293" lon="11.959046"><ele>635.8333333333334</ele><time>2026-04-18T08:02:47.076Z</time></trkpt><trkpt lat="43.5664041" lon="11.959056"><ele>637.6666666666667</ele><time>2026-04-18T08:02:48.077Z</time></trkpt><trkpt lat="43.5664749" lon="11.9590802"><ele>639.5</ele><time>2026-04-18T08:02:49.076Z</time></trkpt><trkpt lat="43.5665407" lon="11.9591458"><ele>641.3333333333334</ele><time>2026-04-18T08:02:50.077Z</time></trkpt><trkpt lat="43.5666055" lon="11.95925"><ele>643.1666666666666</ele><time>2026-04-18T08:02:51.076Z</time></trkpt><trkpt lat="43.5666652" lon="11.9593192"><ele>645.0</ele><time>2026-04-18T08:02:52.077Z</time></trkpt><trkpt lat="43.5667245" lon="11.9593773"><ele>645.0</ele><time>2026-04-18T08:02:53.076Z</time></trkpt><trkpt lat="43.5668638" lon="11.9593834"><ele>645.0</ele><time>2026-04-18T08:02:54.077Z</time></trkpt><trkpt lat="43.5669759" lon="11.9594089"><ele>645.0</ele><time>2026-04-18T08:02:55.076Z</time></trkpt><trkpt lat="43.5670932" lon="11.9594357"><ele>645.0</ele><time>2026-04-18T08:02:56.077Z</time></trkpt><trkpt lat="43.5672215" lon="11.9594634"><ele>646.8</ele><time>2026-04-18T08:02:57.077Z</time></trkpt><trkpt lat="43.5673264" lon="11.9594863"><ele>648.6</ele><time>2026-04-18T08:02:58.076Z</time></trkpt><trkpt lat="43.5674221" lon="11.9594982"><ele>650.4000000000001</ele><time>2026-04-18T08:02:59.076Z</time></trkpt><trkpt lat="43.5675256" lon="11.9594531"><ele>652.2</ele><time>2026-04-18T08:03:00.077Z</time></trkpt><trkpt lat="43.567635" lon="11.9594266"><ele>654.0</ele><time>2026-04-18T08:03:01.077Z</time></trkpt><trkpt lat="43.5677697" lon="11.9594151"><ele>654.25</ele><time>2026-04-18T08:03:02.077Z</time></trkpt><trkpt lat="43.5679239" lon="11.9594101"><ele>654.5</ele><time>2026-04-18T08:03:03.076Z</time></trkpt><trkpt lat="43.5680577" lon="11.9593982"><ele>654.75</ele><time>2026-04-18T08:03:04.076Z</time></trkpt><trkpt lat="43.5681642" lon="11.9593832"><ele>655.0</ele><time>2026-04-18T08:03:05.076Z</time></trkpt><trkpt lat="43.5682662" lon="11.9593602"><ele>655.0</ele><time>2026-04-18T08:03:06.077Z</time></trkpt><trkpt lat="43.568367" lon="11.9592921"><ele>655.0</ele><time>2026-04-18T08:03:07.077Z</time></trkpt><trkpt lat="43.5684071" lon="11.9591468"><ele>655.0</ele><time>2026-04-18T08:03:09.076Z</time></trkpt><trkpt lat="43.568321" lon="11.9589315"><ele>655.0</ele><time>2026-04-18T08:03:10.077Z</time></trkpt><trkpt lat="43.56828" lon="11.9587668"><ele>655.3333333333334</ele><time>2026-04-18T08:03:11.077Z</time></trkpt><trkpt lat="43.5682718" lon="11.9585309"><ele>655.6666666666666</ele><time>2026-04-18T08:03:12.077Z</time></trkpt><trkpt lat="43.5682744" lon="11.9583213"><ele>656.0</ele><time>2026-04-18T08:03:13.076Z</time></trkpt><trkpt lat="43.568292" lon="11.9581098"><ele>657.5</ele><time>2026-04-18T08:03:14.076Z</time></trkpt><trkpt lat="43.5683102" lon="11.9579477"><ele>659.0</ele><time>2026-04-18T08:03:15.077Z</time></trkpt><trkpt lat="43.5683218" lon="11.957793"><ele>660.5</ele><time>2026-04-18T08:03:16.077Z</time></trkpt><trkpt lat="43.5683922" lon="11.957635"><ele>662.0</ele><time>2026-04-18T08:03:18.076Z</time></trkpt><trkpt lat="43.56848" lon="11.9575493"><ele>661.5</ele><time>2026-04-18T08:03:19.076Z</time></trkpt><trkpt lat="43.5685764" lon="11.9574466"><ele>661.0</ele><time>2026-04-18T08:03:20.077Z</time></trkpt><trkpt lat="43.5686673" lon="11.9573475"><ele>660.5</ele><time>2026-04-18T08:03:21.076Z</time></trkpt><trkpt lat="43.5687611" lon="11.9572133"><ele>660.0</ele><time>2026-04-18T08:03:22.077Z</time></trkpt><trkpt lat="43.5688716" lon="11.957092"><ele>661.8</ele><time>2026-04-18T08:03:23.076Z</time></trkpt><trkpt lat="43.5689859" lon="11.9570138"><ele>663.6</ele><time>2026-04-18T08:03:24.076Z</time></trkpt><trkpt lat="43.5690476" lon="11.956921"><ele>665.4000000000001</ele><time>2026-04-18T08:03:25.076Z</time></trkpt><trkpt lat="43.5691115" lon="11.9568215"><ele>667.2</ele><time>2026-04-18T08:03:26.076Z</time></trkpt><trkpt lat="43.5691862" lon="11.9567271"><ele>669.0</ele><time>2026-04-18T08:03:27.076Z</time></trkpt><trkpt lat="43.5692773" lon="11.9565959"><ele>669.0</ele><time>2026-04-18T08:03:28.077Z</time></trkpt><trkpt lat="43.56934" lon="11.9564492"><ele>669.0</ele><time>2026-04-18T08:03:29.077Z</time></trkpt><trkpt lat="43.569402" lon="11.9563251"><ele>669.0</ele><time>2026-04-18T08:03:30.077Z</time></trkpt><trkpt lat="43.5694485" lon="11.9561955"><ele>669.0</ele><time>2026-04-18T08:03:32.077Z</time></trkpt><trkpt lat="43.5694275" lon="11.95605"><ele>669.0</ele><time>2026-04-18T08:03:34.077Z</time></trkpt><trkpt lat="43.569343" lon="11.9559043"><ele>669.0</ele><time>2026-04-18T08:03:35.076Z</time></trkpt><trkpt lat="43.5693016" lon="11.9557466"><ele>669.0</ele><time>2026-04-18T08:03:36.076Z</time></trkpt><trkpt lat="43.5692402" lon="11.9556371"><ele>669.0</ele><time>2026-04-18T08:03:37.077Z</time></trkpt><trkpt lat="43.5691623" lon="11.9555432"><ele>669.0</ele><time>2026-04-18T08:03:38.076Z</time></trkpt><trkpt lat="43.5690787" lon="11.95548"><ele>669.0</ele><time>2026-04-18T08:03:39.076Z</time></trkpt><trkpt lat="43.5689896" lon="11.9553816"><ele>669.0</ele><time>2026-04-18T08:03:40.076Z</time></trkpt><trkpt lat="43.5689161" lon="11.9553248"><ele>669.0</ele><time>2026-04-18T08:03:41.077Z</time></trkpt><trkpt lat="43.568859" lon="11.9552626"><ele>669.0</ele><time>2026-04-18T08:03:42.076Z</time></trkpt><trkpt lat="43.5688173" lon="11.9551157"><ele>669.0</ele><time>2026-04-18T08:03:44.076Z</time></trkpt><trkpt lat="43.5687502" lon="11.9549647"><ele>669.0</ele><time>2026-04-18T08:03:46.077Z</time></trkpt><trkpt lat="43.5687074" lon="11.9548717"><ele>667.6</ele><time>2026-04-18T08:03:47.077Z</time></trkpt><trkpt lat="43.5686588" lon="11.9547569"><ele>666.2</ele><time>2026-04-18T08:03:48.076Z</time></trkpt><trkpt lat="43.568626" lon="11.95463"><ele>664.8000000000001</ele><time>2026-04-18T08:03:49.076Z</time></trkpt><trkpt lat="43.5686047" lon="11.9545109"><ele>663.4000000000001</ele><time>2026-04-18T08:03:50.077Z</time></trkpt><trkpt lat="43.5685972" lon="11.9544042"><ele>662.0</ele><time>2026-04-18T08:03:51.076Z</time></trkpt><trkpt lat="43.5685928" lon="11.9542777"><ele>662.8</ele><time>2026-04-18T08:03:52.076Z</time></trkpt><trkpt lat="43.5686152" lon="11.9541407"><ele>663.6</ele><time>2026-04-18T08:03:53.077Z</time></trkpt><trkpt lat="43.568641" lon="11.9540288"><ele>664.4</ele><time>2026-04-18T08:03:54.076Z</time></trkpt><trkpt lat="43.5686216" lon="11.953918"><ele>665.1999999999999</ele><time>2026-04-18T08:03:55.077Z</time></trkpt><trkpt lat="43.5685932" lon="11.9538013"><ele>666.0</ele><time>2026-04-18T08:03:56.076Z</time></trkpt><trkpt lat="43.5685236" lon="11.9536935"><ele>666.0</ele><time>2026-04-18T08:03:57.077Z</time></trkpt><trkpt lat="43.5684428" lon="11.9536"><ele>666.0</ele><time>2026-04-18T08:03:58.076Z</time></trkpt><trkpt lat="43.5683642" lon="11.9535221"><ele>666.0</ele><time>2026-04-18T08:03:59.076Z</time></trkpt><trkpt lat="43.5682789" lon="11.9534437"><ele>666.0</ele><time>2026-04-18T08:04:00.076Z</time></trkpt><trkpt lat="43.5682018" lon="11.9533769"><ele>666.0</ele><time>2026-04-18T08:04:01.077Z</time></trkpt><trkpt lat="43.5680729" lon="11.9532827"><ele>666.5999999999999</ele><time>2026-04-18T08:04:03.077Z</time></trkpt><trkpt lat="43.5680115" lon="11.9532096"><ele>667.2</ele><time>2026-04-18T08:04:04.076Z</time></trkpt><trkpt lat="43.5679716" lon="11.953044"><ele>667.8</ele><time>2026-04-18T08:04:06.076Z</time></trkpt><trkpt lat="43.5679435" lon="11.9529092"><ele>668.4000000000001</ele><time>2026-04-18T08:04:07.077Z</time></trkpt><trkpt lat="43.5679128" lon="11.9528031"><ele>669.0</ele><time>2026-04-18T08:04:08.076Z</time></trkpt><trkpt lat="43.5678638" lon="11.9527002"><ele>669.8000000000001</ele><time>2026-04-18T08:04:09.076Z</time></trkpt><trkpt lat="43.5678149" lon="11.9525978"><ele>670.6</ele><time>2026-04-18T08:04:10.077Z</time></trkpt><trkpt lat="43.5677169" lon="11.9525992"><ele>671.4</ele><time>2026-04-18T08:04:11.076Z</time></trkpt><trkpt lat="43.5676342" lon="11.9525297"><ele>672.2</ele><time>2026-04-18T08:04:12.076Z</time></trkpt><trkpt lat="43.5675432" lon="11.9524826"><ele>673.0</ele><time>2026-04-18T08:04:13.076Z</time></trkpt><trkpt lat="43.5674455" lon="11.9524351"><ele>673.0</ele><time>2026-04-18T08:04:14.076Z</time></trkpt><trkpt lat="43.5673513" lon="11.9523872"><ele>673.0</ele><time>2026-04-18T08:04:15.077Z</time></trkpt><trkpt lat="43.5672743" lon="11.9523287"><ele>673.0</ele><time>2026-04-18T08:04:16.076Z</time></trkpt><trkpt lat="43.5672025" lon="11.9522833"><ele>673.0</ele><time>2026-04-18T08:04:17.076Z</time></trkpt><trkpt lat="43.5671403" lon="11.952216"><ele>673.0</ele><time>2026-04-18T08:04:18.077Z</time></trkpt><trkpt lat="43.5670701" lon="11.9521419"><ele>673.0</ele><time>2026-04-18T08:04:19.076Z</time></trkpt><trkpt lat="43.5669868" lon="11.9520917"><ele>670.8</ele><time>2026-04-18T08:04:20.076Z</time></trkpt><trkpt lat="43.5668616" lon="11.9520611"><ele>668.5999999999999</ele><time>2026-04-18T08:04:22.077Z</time></trkpt><trkpt lat="43.566757" lon="11.9520143"><ele>666.4000000000001</ele><time>2026-04-18T08:04:24.077Z</time></trkpt><trkpt lat="43.566698" lon="11.9519798"><ele>664.2</ele><time>2026-04-18T08:04:25.076Z</time></trkpt><trkpt lat="43.5666338" lon="11.9519467"><ele>662.0</ele><time>2026-04-18T08:04:26.076Z</time></trkpt><trkpt lat="43.5665608" lon="11.9518296"><ele>662.2</ele><time>2026-04-18T08:04:28.076Z</time></trkpt><trkpt lat="43.5666417" lon="11.9516747"><ele>662.4000000000001</ele><time>2026-04-18T08:04:30.076Z</time></trkpt><trkpt lat="43.5666903" lon="11.9515866"><ele>662.5999999999999</ele><time>2026-04-18T08:04:31.077Z</time></trkpt><trkpt lat="43.566737" lon="11.951507"><ele>662.8</ele><time>2026-04-18T08:04:32.077Z</time></trkpt><trkpt lat="43.5667829" lon="11.9514069"><ele>663.0</ele><time>2026-04-18T08:04:33.076Z</time></trkpt><trkpt lat="43.5668082" lon="11.9512917"><ele>663.0</ele><time>2026-04-18T08:04:34.076Z</time></trkpt><trkpt lat="43.5668188" lon="11.9511887"><ele>663.0</ele><time>2026-04-18T08:04:35.076Z</time></trkpt><trkpt lat="43.5668198" lon="11.9510781"><ele>663.0</ele><time>2026-04-18T08:04:36.077Z</time></trkpt><trkpt lat="43.5668027" lon="11.9509767"><ele>663.0</ele><time>2026-04-18T08:04:37.076Z</time></trkpt><trkpt lat="43.5667976" lon="11.9508222"><ele>663.0</ele><time>2026-04-18T08:04:39.076Z</time></trkpt><trkpt lat="43.5667782" lon="11.9507349"><ele>663.0</ele><time>2026-04-18T08:04:41.076Z</time></trkpt><trkpt lat="43.5667915" lon="11.9505975"><ele>662.0</ele><time>2026-04-18T08:04:43.076Z</time></trkpt><trkpt lat="43.5668236" lon="11.9504386"><ele>661.0</ele><time>2026-04-18T08:04:45.077Z</time></trkpt><trkpt lat="43.5668729" lon="11.9503187"><ele>660.0</ele><time>2026-04-18T08:04:47.077Z</time></trkpt><trkpt lat="43.5668988" lon="11.9501889"><ele>659.0</ele><time>2026-04-18T08:04:49.076Z</time></trkpt><trkpt lat="43.5668708" lon="11.9500521"><ele>658.0</ele><time>2026-04-18T08:04:51.077Z</time></trkpt><trkpt lat="43.5668588" lon="11.9499375"><ele>658.0</ele><time>2026-04-18T08:04:52.076Z</time></trkpt><trkpt lat="43.5668413" lon="11.9497988"><ele>658.0</ele><time>2026-04-18T08:04:53.076Z</time></trkpt><trkpt lat="43.5668157" lon="11.9497069"><ele>658.0</ele><time>2026-04-18T08:04:54.076Z</time></trkpt><trkpt lat="43.566752" lon="11.949622"><ele>658.0</ele><time>2026-04-18T08:04:55.076Z</time></trkpt><trkpt lat="43.5666863" lon="11.9495224"><ele>658.0</ele><time>2026-04-18T08:04:56.076Z</time></trkpt><trkpt lat="43.5666252" lon="11.9494395"><ele>658.0</ele><time>2026-04-18T08:04:57.076Z</time></trkpt><trkpt lat="43.5665408" lon="11.9493704"><ele>658.0</ele><time>2026-04-18T08:04:58.076Z</time></trkpt><trkpt lat="43.5664384" lon="11.9493351"><ele>658.0</ele><time>2026-04-18T08:04:59.076Z</time></trkpt><trkpt lat="43.5663656" lon="11.9492658"><ele>658.0</ele><time>2026-04-18T08:05:00.076Z</time></trkpt><trkpt lat="43.5662885" lon="11.9492036"><ele>658.0</ele><time>2026-04-18T08:05:01.076Z</time></trkpt><trkpt lat="43.566293" lon="11.9491041"><ele>658.0</ele><time>2026-04-18T08:05:02.077Z</time></trkpt><trkpt lat="43.5662772" lon="11.9490032"><ele>658.0</ele><time>2026-04-18T08:05:03.076Z</time></trkpt><trkpt lat="43.5662973" lon="11.9488824"><ele>660.8</ele><time>2026-04-18T08:05:04.077Z</time></trkpt><trkpt lat="43.566318" lon="11.9487695"><ele>663.5999999999999</ele><time>2026-04-18T08:05:05.076Z</time></trkpt><trkpt lat="43.5663484" lon="11.9486673"><ele>666.4000000000001</ele><time>2026-04-18T08:05:06.077Z</time></trkpt><trkpt lat="43.5663507" lon="11.9485627"><ele>669.2</ele><time>2026-04-18T08:05:07.076Z</time></trkpt><trkpt lat="43.566286" lon="11.9484381"><ele>672.0</ele><time>2026-04-18T08:05:09.076Z</time></trkpt><trkpt lat="43.566222" lon="11.948331"><ele>669.4000000000001</ele><time>2026-04-18T08:05:10.077Z</time></trkpt><trkpt lat="43.5661434" lon="11.9482653"><ele>666.8000000000001</ele><time>2026-04-18T08:05:11.077Z</time></trkpt><trkpt lat="43.5660664" lon="11.9481922"><ele>664.2</ele><time>2026-04-18T08:05:12.077Z</time></trkpt><trkpt lat="43.5659576" lon="11.9480913"><ele>661.6</ele><time>2026-04-18T08:05:13.076Z</time></trkpt><trkpt lat="43.5658648" lon="11.9480003"><ele>659.0</ele><time>2026-04-18T08:05:14.076Z</time></trkpt><trkpt lat="43.5657715" lon="11.9479137"><ele>659.0</ele><time>2026-04-18T08:05:15.076Z</time></trkpt><trkpt lat="43.5656855" lon="11.9478298"><ele>659.0</ele><time>2026-04-18T08:05:16.077Z</time></trkpt><trkpt lat="43.5656069" lon="11.9476997"><ele>659.0</ele><time>2026-04-18T08:05:17.076Z</time></trkpt><trkpt lat="43.5655648" lon="11.9476098"><ele>659.0</ele><time>2026-04-18T08:05:18.077Z</time></trkpt><trkpt lat="43.5654974" lon="11.9475258"><ele>659.0</ele><time>2026-04-18T08:05:19.077Z</time></trkpt><trkpt lat="43.5654305" lon="11.94745"><ele>658.5</ele><time>2026-04-18T08:05:20.076Z</time></trkpt><trkpt lat="43.5653754" lon="11.9473674"><ele>658.0</ele><time>2026-04-18T08:05:21.077Z</time></trkpt><trkpt lat="43.565232" lon="11.9472999"><ele>657.5</ele><time>2026-04-18T08:05:22.077Z</time></trkpt><trkpt lat="43.5651155" lon="11.9472107"><ele>657.0</ele><time>2026-04-18T08:05:23.077Z</time></trkpt><trkpt lat="43.5649973" lon="11.9471296"><ele>657.0</ele><time>2026-04-18T08:05:24.076Z</time></trkpt><trkpt lat="43.5648793" lon="11.9470409"><ele>657.0</ele><time>2026-04-18T08:05:25.077Z</time></trkpt><trkpt lat="43.5647956" lon="11.9469985"><ele>657.0</ele><time>2026-04-18T08:05:26.076Z</time></trkpt><trkpt lat="43.5647067" lon="11.9469421"><ele>657.0</ele><time>2026-04-18T08:05:27.077Z</time></trkpt><trkpt lat="43.564643" lon="11.9468485"><ele>657.0</ele><time>2026-04-18T08:05:30.076Z</time></trkpt><trkpt lat="43.5645954" lon="11.9467706"><ele>657.5</ele><time>2026-04-18T08:05:32.077Z</time></trkpt><trkpt lat="43.5645379" lon="11.9466194"><ele>658.0</ele><time>2026-04-18T08:05:34.076Z</time></trkpt><trkpt lat="43.5645151" lon="11.9464545"><ele>658.5</ele><time>2026-04-18T08:05:36.076Z</time></trkpt><trkpt lat="43.5645162" lon="11.9463617"><ele>659.0</ele><time>2026-04-18T08:05:37.076Z</time></trkpt><trkpt lat="43.5645194" lon="11.9462644"><ele>659.5</ele><time>2026-04-18T08:05:38.076Z</time></trkpt><trkpt lat="43.5645188" lon="11.9461753"><ele>660.0</ele><time>2026-04-18T08:05:39.076Z</time></trkpt><trkpt lat="43.5645438" lon="11.9460581"><ele>662.6666666666666</ele><time>2026-04-18T08:05:41.076Z</time></trkpt><trkpt lat="43.5646209" lon="11.9459728"><ele>665.3333333333334</ele><time>2026-04-18T08:05:43.076Z</time></trkpt><trkpt lat="43.5646871" lon="11.9458915"><ele>668.0</ele><time>2026-04-18T08:05:45.076Z</time></trkpt><trkpt lat="43.5647629" lon="11.9458423"><ele>670.6666666666667</ele><time>2026-04-18T08:05:47.076Z</time></trkpt><trkpt lat="43.5648243" lon="11.9458081"><ele>673.3333333333334</ele><time>2026-04-18T08:05:49.077Z</time></trkpt><trkpt lat="43.5648945" lon="11.9457989"><ele>676.0</ele><time>2026-04-18T08:05:51.077Z</time></trkpt><trkpt lat="43.5648943" lon="11.9458877"><ele>677.5999999999999</ele><time>2026-04-18T08:05:54.076Z</time></trkpt><trkpt lat="43.5648672" lon="11.9459972"><ele>679.2</ele><time>2026-04-18T08:05:56.077Z</time></trkpt><trkpt lat="43.564898" lon="11.9461152"><ele>680.8</ele><time>2026-04-18T08:05:58.077Z</time></trkpt><trkpt lat="43.5649432" lon="11.9462497"><ele>682.4000000000001</ele><time>2026-04-18T08:06:00.077Z</time></trkpt><trkpt lat="43.5650422" lon="11.9463376"><ele>684.0</ele><time>2026-04-18T08:06:02.077Z</time></trkpt><trkpt lat="43.5651058" lon="11.9463877"><ele>684.0</ele><time>2026-04-18T08:06:03.077Z</time></trkpt><trkpt lat="43.5651639" lon="11.9464477"><ele>684.0</ele><time>2026-04-18T08:06:04.077Z</time></trkpt><trkpt lat="43.5652456" lon="11.9464861"><ele>684.0</ele><time>2026-04-18T08:06:05.076Z</time></trkpt><trkpt lat="43.5653445" lon="11.9465242"><ele>684.0</ele><time>2026-04-18T08:06:06.077Z</time></trkpt><trkpt lat="43.5654285" lon="11.9465818"><ele>684.0</ele><time>2026-04-18T08:06:07.077Z</time></trkpt><trkpt lat="43.5655014" lon="11.9466417"><ele>684.0</ele><time>2026-04-18T08:06:08.076Z</time></trkpt><trkpt lat="43.5655859" lon="11.9467196"><ele>683.6666666666666</ele><time>2026-04-18T08:06:09.076Z</time></trkpt><trkpt lat="43.5656573" lon="11.946777"><ele>683.3333333333334</ele><time>2026-04-18T08:06:10.076Z</time></trkpt><trkpt lat="43.5657393" lon="11.9468323"><ele>683.0</ele><time>2026-04-18T08:06:11.076Z</time></trkpt><trkpt lat="43.5658413" lon="11.9468522"><ele>682.6666666666667</ele><time>2026-04-18T08:06:12.076Z</time></trkpt><trkpt lat="43.5659197" lon="11.9469062"><ele>682.3333333333334</ele><time>2026-04-18T08:06:13.076Z</time></trkpt><trkpt lat="43.5659875" lon="11.9469562"><ele>682.0</ele><time>2026-04-18T08:06:14.076Z</time></trkpt><trkpt lat="43.5660621" lon="11.9470033"><ele>682.0</ele><time>2026-04-18T08:06:15.077Z</time></trkpt><trkpt lat="43.5661387" lon="11.9470517"><ele>682.0</ele><time>2026-04-18T08:06:16.077Z</time></trkpt><trkpt lat="43.5662364" lon="11.9471175"><ele>682.0</ele><time>2026-04-18T08:06:18.077Z</time></trkpt><trkpt lat="43.5663002" lon="11.9471906"><ele>682.0</ele><time>2026-04-18T08:06:20.076Z</time></trkpt><trkpt lat="43.5664269" lon="11.9472902"><ele>682.0</ele><time>2026-04-18T08:06:22.076Z</time></trkpt><trkpt lat="43.5665114" lon="11.9473421"><ele>683.0</ele><time>2026-04-18T08:06:23.076Z</time></trkpt><trkpt lat="43.5665993" lon="11.9473856"><ele>684.0</ele><time>2026-04-18T08:06:24.076Z</time></trkpt><trkpt lat="43.5666685" lon="11.9474295"><ele>685.0</ele><time>2026-04-18T08:06:25.076Z</time></trkpt><trkpt lat="43.5667368" lon="11.9474649"><ele>686.0</ele><time>2026-04-18T08:06:26.076Z</time></trkpt><trkpt lat="43.5668001" lon="11.9474985"><ele>687.0</ele><time>2026-04-18T08:06:27.076Z</time></trkpt><trkpt lat="43.5668618" lon="11.9475377"><ele>688.0</ele><time>2026-04-18T08:06:28.077Z</time></trkpt><trkpt lat="43.5669431" lon="11.9475872"><ele>689.5</ele><time>2026-04-18T08:06:29.076Z</time></trkpt><trkpt lat="43.5670399" lon="11.9476172"><ele>691.0</ele><time>2026-04-18T08:06:30.077Z</time></trkpt><trkpt lat="43.5671218" lon="11.9476532"><ele>692.5</ele><time>2026-04-18T08:06:31.076Z</time></trkpt><trkpt lat="43.5671885" lon="11.9476679"><ele>694.0</ele><time>2026-04-18T08:06:32.076Z</time></trkpt><trkpt lat="43.5672586" lon="11.9476901"><ele>695.5</ele><time>2026-04-18T08:06:33.077Z</time></trkpt><trkpt lat="43.5673596" lon="11.9477695"><ele>697.0</ele><time>2026-04-18T08:06:35.076Z</time></trkpt><trkpt lat="43.5674055" lon="11.9478357"><ele>697.0</ele><time>2026-04-18T08:06:37.076Z</time></trkpt><trkpt lat="43.567435" lon="11.9479163"><ele>697.0</ele><time>2026-04-18T08:07:38.077Z</time></trkpt><trkpt lat="43.5673743" lon="11.9479688"><ele>697.0</ele><time>2026-04-18T08:07:43.069Z</time></trkpt><trkpt lat="43.567311" lon="11.9480141"><ele>697.0</ele><time>2026-04-18T08:07:47.076Z</time></trkpt><trkpt lat="43.567251" lon="11.9480534"><ele>697.0</ele><time>2026-04-18T08:07:52.007Z</time></trkpt><trkpt lat="43.5672918" lon="11.947971"><ele>697.0</ele><time>2026-04-18T08:09:43.076Z</time></trkpt><trkpt lat="43.567342" lon="11.9479053"><ele>697.0</ele><time>2026-04-18T08:09:50.076Z</time></trkpt><trkpt lat="43.5674027" lon="11.9478799"><ele>697.0</ele><time>2026-04-18T08:10:03.077Z</time></trkpt><trkpt lat="43.5674655" lon="11.9478697"><ele>697.0</ele><time>2026-04-18T08:10:35.076Z</time></trkpt><trkpt lat="43.5675115" lon="11.9478083"><ele>697.0</ele><time>2026-04-18T08:13:13.077Z</time></trkpt><trkpt lat="43.5675772" lon="11.9477353"><ele>697.0</ele><time>2026-04-18T08:13:14.077Z</time></trkpt><trkpt lat="43.5676434" lon="11.9476491"><ele>697.0</ele><time>2026-04-18T08:13:15.076Z</time></trkpt><trkpt lat="43.5677206" lon="11.9475484"><ele>697.0</ele><time>2026-04-18T08:13:16.076Z</time></trkpt><trkpt lat="43.5677925" lon="11.947458"><ele>698.6</ele><time>2026-04-18T08:13:17.077Z</time></trkpt><trkpt lat="43.5678607" lon="11.9473764"><ele>700.2</ele><time>2026-04-18T08:13:18.076Z</time></trkpt><trkpt lat="43.5679696" lon="11.9473116"><ele>701.8</ele><time>2026-04-18T08:13:20.076Z</time></trkpt><trkpt lat="43.5680808" lon="11.9472757"><ele>703.4</ele><time>2026-04-18T08:13:22.076Z</time></trkpt><trkpt lat="43.5681608" lon="11.9472517"><ele>705.0</ele><time>2026-04-18T08:13:23.076Z</time></trkpt><trkpt lat="43.5682452" lon="11.9472305"><ele>705.0</ele><time>2026-04-18T08:13:24.077Z</time></trkpt><trkpt lat="43.5683182" lon="11.9472093"><ele>705.0</ele><time>2026-04-18T08:13:25.077Z</time></trkpt><trkpt lat="43.5683843" lon="11.9471851"><ele>705.0</ele><time>2026-04-18T08:13:26.077Z</time></trkpt><trkpt lat="43.5684858" lon="11.947116"><ele>705.0</ele><time>2026-04-18T08:13:28.076Z</time></trkpt><trkpt lat="43.5686012" lon="11.9470381"><ele>705.0</ele><time>2026-04-18T08:13:30.076Z</time></trkpt><trkpt lat="43.5686569" lon="11.9469915"><ele>698.75</ele><time>2026-04-18T08:13:31.076Z</time></trkpt><trkpt lat="43.5687634" lon="11.9469006"><ele>692.5</ele><time>2026-04-18T08:13:33.076Z</time></trkpt><trkpt lat="43.5688625" lon="11.9468315"><ele>686.25</ele><time>2026-04-18T08:13:35.077Z</time></trkpt><trkpt lat="43.5689675" lon="11.9467698"><ele>680.0</ele><time>2026-04-18T08:13:37.077Z</time></trkpt><trkpt lat="43.5690768" lon="11.9467184"><ele>680.1428571428572</ele><time>2026-04-18T08:13:39.077Z</time></trkpt><trkpt lat="43.5691403" lon="11.9466953"><ele>680.2857142857142</ele><time>2026-04-18T08:13:40.076Z</time></trkpt><trkpt lat="43.5692037" lon="11.9466705"><ele>680.4285714285714</ele><time>2026-04-18T08:13:41.077Z</time></trkpt><trkpt lat="43.5692724" lon="11.9466463"><ele>680.5714285714287</ele><time>2026-04-18T08:13:42.076Z</time></trkpt><trkpt lat="43.5693343" lon="11.9466116"><ele>680.7142857142858</ele><time>2026-04-18T08:13:43.077Z</time></trkpt><trkpt lat="43.5693921" lon="11.9465715"><ele>680.8571428571429</ele><time>2026-04-18T08:13:44.077Z</time></trkpt><trkpt lat="43.5694632" lon="11.9465045"><ele>681.0</ele><time>2026-04-18T08:13:45.076Z</time></trkpt><trkpt lat="43.56953" lon="11.9464383"><ele>681.0</ele><time>2026-04-18T08:13:46.077Z</time></trkpt><trkpt lat="43.5695774" lon="11.9463646"><ele>681.0</ele><time>2026-04-18T08:13:47.076Z</time></trkpt><trkpt lat="43.5696427" lon="11.9462876"><ele>681.0</ele><time>2026-04-18T08:13:48.076Z</time></trkpt><trkpt lat="43.5697143" lon="11.9462136"><ele>681.0</ele><time>2026-04-18T08:13:49.077Z</time></trkpt><trkpt lat="43.5697705" lon="11.9461528"><ele>681.0</ele><time>2026-04-18T08:13:50.076Z</time></trkpt><trkpt lat="43.5698282" lon="11.946101"><ele>681.0</ele><time>2026-04-18T08:13:51.077Z</time></trkpt><trkpt lat="43.5698806" lon="11.9460442"><ele>681.0</ele><time>2026-04-18T08:13:52.076Z</time></trkpt><trkpt lat="43.5699309" lon="11.9459819"><ele>681.0</ele><time>2026-04-18T08:13:53.076Z</time></trkpt><trkpt lat="43.5700114" lon="11.9458499"><ele>681.0</ele><time>2026-04-18T08:13:55.076Z</time></trkpt><trkpt lat="43.5700524" lon="11.9456831"><ele>681.0</ele><time>2026-04-18T08:13:57.076Z</time></trkpt><trkpt lat="43.5700404" lon="11.9455825"><ele>681.0</ele><time>2026-04-18T08:13:58.076Z</time></trkpt><trkpt lat="43.5700277" lon="11.945478"><ele>684.1999999999999</ele><time>2026-04-18T08:13:59.076Z</time></trkpt><trkpt lat="43.5699997" lon="11.9453366"><ele>687.4</ele><time>2026-04-18T08:14:01.076Z</time></trkpt><trkpt lat="43.5699766" lon="11.9452389"><ele>690.6</ele><time>2026-04-18T08:14:02.076Z</time></trkpt><trkpt lat="43.5699601" lon="11.9450593"><ele>693.8</ele><time>2026-04-18T08:14:04.077Z</time></trkpt><trkpt lat="43.5699786" lon="11.9449026"><ele>697.0</ele><time>2026-04-18T08:14:06.076Z</time></trkpt><trkpt lat="43.5699924" lon="11.9448106"><ele>698.6666666666667</ele><time>2026-04-18T08:14:07.076Z</time></trkpt><trkpt lat="43.5700072" lon="11.9447248"><ele>700.3333333333334</ele><time>2026-04-18T08:14:08.077Z</time></trkpt><trkpt lat="43.5700724" lon="11.9445971"><ele>702.0</ele><time>2026-04-18T08:14:10.076Z</time></trkpt><trkpt lat="43.570138" lon="11.9445524"><ele>703.6666666666666</ele><time>2026-04-18T08:14:11.076Z</time></trkpt><trkpt lat="43.5701966" lon="11.9445189"><ele>705.3333333333333</ele><time>2026-04-18T08:14:12.077Z</time></trkpt><trkpt lat="43.5702946" lon="11.9444871"><ele>707.0</ele><time>2026-04-18T08:14:14.076Z</time></trkpt><trkpt lat="43.5703576" lon="11.9445639"><ele>708.5</ele><time>2026-04-18T08:14:16.076Z</time></trkpt><trkpt lat="43.5704411" lon="11.9446349"><ele>710.0</ele><time>2026-04-18T08:14:18.077Z</time></trkpt><trkpt lat="43.5705164" lon="11.9447171"><ele>711.5</ele><time>2026-04-18T08:14:20.077Z</time></trkpt><trkpt lat="43.5705749" lon="11.9448007"><ele>713.0</ele><time>2026-04-18T08:14:21.077Z</time></trkpt><trkpt lat="43.5706229" lon="11.9448787"><ele>714.5</ele><time>2026-04-18T08:14:22.077Z</time></trkpt><trkpt lat="43.5706711" lon="11.9449358"><ele>716.0</ele><time>2026-04-18T08:14:23.076Z</time></trkpt><trkpt lat="43.5707662" lon="11.9449978"><ele>716.0</ele><time>2026-04-18T08:14:25.076Z</time></trkpt><trkpt lat="43.5708704" lon="11.9449466"><ele>716.0</ele><time>2026-04-18T08:14:27.076Z</time></trkpt><trkpt lat="43.5709389" lon="11.9449322"><ele>716.0</ele><time>2026-04-18T08:14:28.077Z</time></trkpt><trkpt lat="43.5710233" lon="11.9449319"><ele>716.0</ele><time>2026-04-18T08:14:30.077Z</time></trkpt><trkpt lat="43.5711216" lon="11.9448947"><ele>716.0</ele><time>2026-04-18T08:14:32.076Z</time></trkpt><trkpt lat="43.5711975" lon="11.9448706"><ele>716.0</ele><time>2026-04-18T08:14:33.076Z</time></trkpt><trkpt lat="43.5713131" lon="11.9448499"><ele>713.0</ele><time>2026-04-18T08:14:35.076Z</time></trkpt><trkpt lat="43.5714316" lon="11.9448133"><ele>710.0</ele><time>2026-04-18T08:14:37.076Z</time></trkpt><trkpt lat="43.5715606" lon="11.9447856"><ele>707.0</ele><time>2026-04-18T08:14:39.076Z</time></trkpt><trkpt lat="43.5716306" lon="11.9447808"><ele>704.0</ele><time>2026-04-18T08:14:40.076Z</time></trkpt><trkpt lat="43.571697" lon="11.9447754"><ele>701.0</ele><time>2026-04-18T08:14:41.076Z</time></trkpt><trkpt lat="43.5718156" lon="11.9447484"><ele>701.0</ele><time>2026-04-18T08:14:43.076Z</time></trkpt><trkpt lat="43.5718708" lon="11.9447042"><ele>701.0</ele><time>2026-04-18T08:14:44.077Z</time></trkpt><trkpt lat="43.5719475" lon="11.9446822"><ele>701.0</ele><time>2026-04-18T08:14:45.077Z</time></trkpt><trkpt lat="43.5720609" lon="11.9446294"><ele>701.0</ele><time>2026-04-18T08:14:47.076Z</time></trkpt><trkpt lat="43.5721344" lon="11.9445973"><ele>701.0</ele><time>2026-04-18T08:14:48.076Z</time></trkpt><trkpt lat="43.5721978" lon="11.9445664"><ele>701.0</ele><time>2026-04-18T08:14:49.077Z</time></trkpt><trkpt lat="43.5722919" lon="11.9445562"><ele>698.4</ele><time>2026-04-18T08:14:50.076Z</time></trkpt><trkpt lat="43.5723871" lon="11.9445208"><ele>695.8</ele><time>2026-04-18T08:14:51.077Z</time></trkpt><trkpt lat="43.5724856" lon="11.9444974"><ele>693.1999999999999</ele><time>2026-04-18T08:14:52.076Z</time></trkpt><trkpt lat="43.5725838" lon="11.9444514"><ele>690.5999999999999</ele><time>2026-04-18T08:14:53.076Z</time></trkpt><trkpt lat="43.5726797" lon="11.9444264"><ele>688.0</ele><time>2026-04-18T08:14:54.077Z</time></trkpt><trkpt lat="43.5727779" lon="11.9444099"><ele>687.3333333333334</ele><time>2026-04-18T08:14:55.077Z</time></trkpt><trkpt lat="43.5728658" lon="11.9443916"><ele>686.6666666666667</ele><time>2026-04-18T08:14:56.077Z</time></trkpt><trkpt lat="43.5729969" lon="11.9443681"><ele>686.0</ele><time>2026-04-18T08:14:58.076Z</time></trkpt><trkpt lat="43.5730772" lon="11.9443584"><ele>685.3333333333334</ele><time>2026-04-18T08:14:59.077Z</time></trkpt><trkpt lat="43.5731453" lon="11.9443693"><ele>684.6666666666666</ele><time>2026-04-18T08:15:00.076Z</time></trkpt><trkpt lat="43.5732179" lon="11.9444006"><ele>684.0</ele><time>2026-04-18T08:15:01.077Z</time></trkpt><trkpt lat="43.5733014" lon="11.9444373"><ele>684.0</ele><time>2026-04-18T08:15:02.076Z</time></trkpt><trkpt lat="43.573402" lon="11.9444494"><ele>684.0</ele><time>2026-04-18T08:15:04.076Z</time></trkpt><trkpt lat="43.5735161" lon="11.9444342"><ele>684.0</ele><time>2026-04-18T08:15:06.076Z</time></trkpt><trkpt lat="43.5735812" lon="11.9443557"><ele>684.0</ele><time>2026-04-18T08:15:08.076Z</time></trkpt><trkpt lat="43.5736678" lon="11.9442751"><ele>684.0</ele><time>2026-04-18T08:15:10.076Z</time></trkpt><trkpt lat="43.5737519" lon="11.9441986"><ele>682.4000000000001</ele><time>2026-04-18T08:15:12.077Z</time></trkpt><trkpt lat="43.5738116" lon="11.9441413"><ele>680.8</ele><time>2026-04-18T08:15:13.076Z</time></trkpt><trkpt lat="43.5739049" lon="11.9440681"><ele>679.2</ele><time>2026-04-18T08:15:15.076Z</time></trkpt><trkpt lat="43.5739967" lon="11.9439997"><ele>677.5999999999999</ele><time>2026-04-18T08:15:17.076Z</time></trkpt><trkpt lat="43.5740911" lon="11.9439498"><ele>676.0</ele><time>2026-04-18T08:15:19.077Z</time></trkpt><trkpt lat="43.5741465" lon="11.9438306"><ele>676.0</ele><time>2026-04-18T08:15:21.076Z</time></trkpt><trkpt lat="43.5742411" lon="11.9437073"><ele>676.0</ele><time>2026-04-18T08:15:23.077Z</time></trkpt><trkpt lat="43.5743371" lon="11.9436495"><ele>676.0</ele><time>2026-04-18T08:15:24.077Z</time></trkpt><trkpt lat="43.5744169" lon="11.9435854"><ele>676.0</ele><time>2026-04-18T08:15:25.077Z</time></trkpt><trkpt lat="43.5745148" lon="11.9435182"><ele>676.0</ele><time>2026-04-18T08:15:27.076Z</time></trkpt><trkpt lat="43.5745781" lon="11.9435109"><ele>675.1999999999999</ele><time>2026-04-18T08:15:29.076Z</time></trkpt><trkpt lat="43.5746664" lon="11.9435234"><ele>674.4</ele><time>2026-04-18T08:15:33.076Z</time></trkpt><trkpt lat="43.57474" lon="11.9434936"><ele>673.6</ele><time>2026-04-18T08:15:34.076Z</time></trkpt><trkpt lat="43.5748139" lon="11.9434593"><ele>672.8</ele><time>2026-04-18T08:15:35.076Z</time></trkpt><trkpt lat="43.5748992" lon="11.9434357"><ele>672.0</ele><time>2026-04-18T08:15:36.077Z</time></trkpt><trkpt lat="43.5750277" lon="11.94341"><ele>672.0</ele><time>2026-04-18T08:15:38.077Z</time></trkpt><trkpt lat="43.5751166" lon="11.9433922"><ele>672.0</ele><time>2026-04-18T08:15:39.076Z</time></trkpt><trkpt lat="43.5751926" lon="11.9433943"><ele>672.0</ele><time>2026-04-18T08:15:40.076Z</time></trkpt><trkpt lat="43.5752804" lon="11.9433869"><ele>672.0</ele><time>2026-04-18T08:15:41.077Z</time></trkpt><trkpt lat="43.5753449" lon="11.9433682"><ele>672.0</ele><time>2026-04-18T08:15:42.076Z</time></trkpt><trkpt lat="43.5754168" lon="11.9433251"><ele>672.0</ele><time>2026-04-18T08:15:43.077Z</time></trkpt><trkpt lat="43.5754793" lon="11.9432684"><ele>675.1666666666666</ele><time>2026-04-18T08:15:44.076Z</time></trkpt><trkpt lat="43.5755549" lon="11.9432225"><ele>678.3333333333334</ele><time>2026-04-18T08:15:45.076Z</time></trkpt><trkpt lat="43.5756115" lon="11.9431503"><ele>681.5</ele><time>2026-04-18T08:15:46.077Z</time></trkpt><trkpt lat="43.5756797" lon="11.943085"><ele>684.6666666666667</ele><time>2026-04-18T08:15:47.076Z</time></trkpt><trkpt lat="43.5757442" lon="11.943034"><ele>687.8333333333334</ele><time>2026-04-18T08:15:48.076Z</time></trkpt><trkpt lat="43.5758024" lon="11.9429772"><ele>691.0</ele><time>2026-04-18T08:15:49.077Z</time></trkpt><trkpt lat="43.575862" lon="11.9429262"><ele>691.0</ele><time>2026-04-18T08:15:50.077Z</time></trkpt><trkpt lat="43.5759517" lon="11.9428735"><ele>691.0</ele><time>2026-04-18T08:15:51.076Z</time></trkpt><trkpt lat="43.5760258" lon="11.9428258"><ele>691.0</ele><time>2026-04-18T08:15:52.076Z</time></trkpt><trkpt lat="43.5761157" lon="11.9427947"><ele>691.0</ele><time>2026-04-18T08:15:53.076Z</time></trkpt><trkpt lat="43.576201" lon="11.9427549"><ele>691.0</ele><time>2026-04-18T08:15:54.077Z</time></trkpt><trkpt lat="43.5762754" lon="11.9427429"><ele>691.0</ele><time>2026-04-18T08:15:55.077Z</time></trkpt><trkpt lat="43.5763424" lon="11.9427278"><ele>690.6666666666667</ele><time>2026-04-18T08:15:56.076Z</time></trkpt><trkpt lat="43.5764188" lon="11.9427141"><ele>690.3333333333334</ele><time>2026-04-18T08:15:57.076Z</time></trkpt><trkpt lat="43.5764895" lon="11.9427193"><ele>690.0</ele><time>2026-04-18T08:15:58.076Z</time></trkpt><trkpt lat="43.5765611" lon="11.9427117"><ele>689.6666666666666</ele><time>2026-04-18T08:15:59.076Z</time></trkpt><trkpt lat="43.5766288" lon="11.9426571"><ele>689.3333333333333</ele><time>2026-04-18T08:16:00.077Z</time></trkpt><trkpt lat="43.5767066" lon="11.9426047"><ele>689.0</ele><time>2026-04-18T08:16:01.076Z</time></trkpt><trkpt lat="43.5767893" lon="11.9425528"><ele>689.4000000000001</ele><time>2026-04-18T08:16:02.076Z</time></trkpt><trkpt lat="43.5768863" lon="11.9425415"><ele>689.8</ele><time>2026-04-18T08:16:03.076Z</time></trkpt><trkpt lat="43.5769908" lon="11.9425464"><ele>690.2</ele><time>2026-04-18T08:16:04.077Z</time></trkpt><trkpt lat="43.5770833" lon="11.9425365"><ele>690.5999999999999</ele><time>2026-04-18T08:16:05.077Z</time></trkpt><trkpt lat="43.5771854" lon="11.9424301"><ele>691.0</ele><time>2026-04-18T08:16:07.077Z</time></trkpt><trkpt lat="43.5772149" lon="11.9423358"><ele>690.0</ele><time>2026-04-18T08:16:08.076Z</time></trkpt><trkpt lat="43.5772305" lon="11.9421951"><ele>689.0</ele><time>2026-04-18T08:16:09.076Z</time></trkpt><trkpt lat="43.5772371" lon="11.9420762"><ele>688.0</ele><time>2026-04-18T08:16:10.076Z</time></trkpt><trkpt lat="43.5772458" lon="11.9419788"><ele>687.0</ele><time>2026-04-18T08:16:11.077Z</time></trkpt><trkpt lat="43.5772503" lon="11.9418912"><ele>686.0</ele><time>2026-04-18T08:16:12.076Z</time></trkpt><trkpt lat="43.5772479" lon="11.9417197"><ele>685.0</ele><time>2026-04-18T08:16:14.077Z</time></trkpt><trkpt lat="43.577255" lon="11.9416187"><ele>685.0</ele><time>2026-04-18T08:16:15.076Z</time></trkpt><trkpt lat="43.5772695" lon="11.9415204"><ele>685.0</ele><time>2026-04-18T08:16:16.076Z</time></trkpt><trkpt lat="43.5772992" lon="11.941417"><ele>685.0</ele><time>2026-04-18T08:16:17.076Z</time></trkpt><trkpt lat="43.5773797" lon="11.9413807"><ele>685.0</ele><time>2026-04-18T08:16:18.076Z</time></trkpt><trkpt lat="43.5774402" lon="11.941295"><ele>685.0</ele><time>2026-04-18T08:16:19.076Z</time></trkpt><trkpt lat="43.5774998" lon="11.941219"><ele>685.0</ele><time>2026-04-18T08:16:20.076Z</time></trkpt><trkpt lat="43.5775839" lon="11.9410828"><ele>685.0</ele><time>2026-04-18T08:16:22.077Z</time></trkpt><trkpt lat="43.5776272" lon="11.9410089"><ele>685.0</ele><time>2026-04-18T08:16:23.076Z</time></trkpt><trkpt lat="43.577715" lon="11.9409131"><ele>685.0</ele><time>2026-04-18T08:16:25.076Z</time></trkpt><trkpt lat="43.577769" lon="11.940862"><ele>685.0</ele><time>2026-04-18T08:16:26.076Z</time></trkpt><trkpt lat="43.5778265" lon="11.9408246"><ele>685.0</ele><time>2026-04-18T08:16:27.076Z</time></trkpt><trkpt lat="43.5778947" lon="11.9407889"><ele>685.0</ele><time>2026-04-18T08:16:28.077Z</time></trkpt><trkpt lat="43.5780141" lon="11.9407213"><ele>686.8</ele><time>2026-04-18T08:16:30.076Z</time></trkpt><trkpt lat="43.578121" lon="11.940679"><ele>688.6</ele><time>2026-04-18T08:16:32.076Z</time></trkpt><trkpt lat="43.5781916" lon="11.9406632"><ele>690.4000000000001</ele><time>2026-04-18T08:16:33.076Z</time></trkpt><trkpt lat="43.5782946" lon="11.9405978"><ele>692.2</ele><time>2026-04-18T08:16:35.076Z</time></trkpt><trkpt lat="43.5784003" lon="11.9405283"><ele>694.0</ele><time>2026-04-18T08:16:37.076Z</time></trkpt><trkpt lat="43.5785092" lon="11.9404533"><ele>694.0</ele><time>2026-04-18T08:16:39.076Z</time></trkpt><trkpt lat="43.5785817" lon="11.9404057"><ele>694.0</ele><time>2026-04-18T08:16:41.077Z</time></trkpt><trkpt lat="43.578696" lon="11.9404434"><ele>694.0</ele><time>2026-04-18T08:16:44.077Z</time></trkpt><trkpt lat="43.5787851" lon="11.9404479"><ele>694.0</ele><time>2026-04-18T08:16:46.077Z</time></trkpt><trkpt lat="43.5788555" lon="11.9404576"><ele>694.0</ele><time>2026-04-18T08:16:49.076Z</time></trkpt><trkpt lat="43.5789216" lon="11.9404916"><ele>694.0</ele><time>2026-04-18T08:17:16.076Z</time></trkpt><trkpt lat="43.5789921" lon="11.9404939"><ele>696.1666666666667</ele><time>2026-04-18T08:17:18.077Z</time></trkpt><trkpt lat="43.5790726" lon="11.9405055"><ele>698.3333333333334</ele><time>2026-04-18T08:17:20.076Z</time></trkpt><trkpt lat="43.5791483" lon="11.9404832"><ele>700.5</ele><time>2026-04-18T08:17:22.076Z</time></trkpt><trkpt lat="43.5792006" lon="11.9404321"><ele>702.6666666666666</ele><time>2026-04-18T08:17:24.076Z</time></trkpt><trkpt lat="43.5793042" lon="11.9403946"><ele>704.8333333333333</ele><time>2026-04-18T08:17:27.077Z</time></trkpt><trkpt lat="43.5794101" lon="11.9403808"><ele>707.0</ele><time>2026-04-18T08:17:29.076Z</time></trkpt><trkpt lat="43.5794749" lon="11.9403879"><ele>709.3333333333333</ele><time>2026-04-18T08:17:31.077Z</time></trkpt><trkpt lat="43.5795714" lon="11.9403971"><ele>711.6666666666666</ele><time>2026-04-18T08:17:33.076Z</time></trkpt><trkpt lat="43.5796756" lon="11.9403674"><ele>714.0</ele><time>2026-04-18T08:17:35.076Z</time></trkpt><trkpt lat="43.5797151" lon="11.9402816"><ele>716.3333333333334</ele><time>2026-04-18T08:17:37.077Z</time></trkpt><trkpt lat="43.5797144" lon="11.9401937"><ele>718.6666666666667</ele><time>2026-04-18T08:17:40.076Z</time></trkpt><trkpt lat="43.579723" lon="11.940097"><ele>721.0</ele><time>2026-04-18T08:17:43.076Z</time></trkpt><trkpt lat="43.5797422" lon="11.9399645"><ele>721.0</ele><time>2026-04-18T08:17:45.076Z</time></trkpt><trkpt lat="43.5797663" lon="11.9398539"><ele>721.0</ele><time>2026-04-18T08:17:47.077Z</time></trkpt><trkpt lat="43.5797676" lon="11.939711"><ele>721.0</ele><time>2026-04-18T08:17:49.076Z</time></trkpt><trkpt lat="43.5797415" lon="11.9396199"><ele>721.0</ele><time>2026-04-18T08:17:51.076Z</time></trkpt><trkpt lat="43.5797359" lon="11.9395318"><ele>721.0</ele><time>2026-04-18T08:17:53.077Z</time></trkpt><trkpt lat="43.5797224" lon="11.9394123"><ele>721.0</ele><time>2026-04-18T08:17:56.076Z</time></trkpt><trkpt lat="43.579719" lon="11.939295"><ele>720.4</ele><time>2026-04-18T08:17:58.076Z</time></trkpt><trkpt lat="43.5797384" lon="11.939171"><ele>719.8</ele><time>2026-04-18T08:18:00.077Z</time></trkpt><trkpt lat="43.579784" lon="11.9390307"><ele>719.1999999999999</ele><time>2026-04-18T08:18:02.077Z</time></trkpt><trkpt lat="43.5798487" lon="11.9389171"><ele>718.5999999999999</ele><time>2026-04-18T08:18:04.077Z</time></trkpt><trkpt lat="43.5799249" lon="11.9388097"><ele>718.0</ele><time>2026-04-18T08:18:06.077Z</time></trkpt><trkpt lat="43.5799849" lon="11.9387432"><ele>718.0</ele><time>2026-04-18T08:18:07.076Z</time></trkpt><trkpt lat="43.5800523" lon="11.9386265"><ele>718.0</ele><time>2026-04-18T08:18:09.076Z</time></trkpt><trkpt lat="43.5800955" lon="11.9385512"><ele>718.0</ele><time>2026-04-18T08:18:10.076Z</time></trkpt><trkpt lat="43.5801456" lon="11.9384106"><ele>718.0</ele><time>2026-04-18T08:18:12.076Z</time></trkpt><trkpt lat="43.5801908" lon="11.9383366"><ele>718.0</ele><time>2026-04-18T08:18:13.077Z</time></trkpt><trkpt lat="43.5802705" lon="11.9382106"><ele>717.1666666666667</ele><time>2026-04-18T08:18:15.076Z</time></trkpt><trkpt lat="43.5803671" lon="11.9381322"><ele>716.3333333333334</ele><time>2026-04-18T08:18:17.076Z</time></trkpt><trkpt lat="43.580442" lon="11.9380974"><ele>715.5</ele><time>2026-04-18T08:18:19.076Z</time></trkpt><trkpt lat="43.5805316" lon="11.9381262"><ele>714.6666666666666</ele><time>2026-04-18T08:18:20.077Z</time></trkpt><trkpt lat="43.5806032" lon="11.938152"><ele>713.8333333333333</ele><time>2026-04-18T08:18:21.077Z</time></trkpt><trkpt lat="43.580668" lon="11.9381818"><ele>713.0</ele><time>2026-04-18T08:18:22.077Z</time></trkpt><trkpt lat="43.5807286" lon="11.9382108"><ele>713.0</ele><time>2026-04-18T08:18:23.076Z</time></trkpt><trkpt lat="43.5807968" lon="11.9382257"><ele>713.0</ele><time>2026-04-18T08:18:24.077Z</time></trkpt><trkpt lat="43.5809208" lon="11.9382359"><ele>713.0</ele><time>2026-04-18T08:18:26.077Z</time></trkpt><trkpt lat="43.5810078" lon="11.938234"><ele>713.0</ele><time>2026-04-18T08:18:28.076Z</time></trkpt><trkpt lat="43.5810874" lon="11.9382102"><ele>713.0</ele><time>2026-04-18T08:18:30.077Z</time></trkpt><trkpt lat="43.581355" lon="11.9381588"><ele>714.0</ele><time>2026-04-18T08:18:35.076Z</time></trkpt><trkpt lat="43.5814617" lon="11.9381335"><ele>715.0</ele><time>2026-04-18T08:18:37.077Z</time></trkpt><trkpt lat="43.5815415" lon="11.9381109"><ele>716.0</ele><time>2026-04-18T08:18:38.077Z</time></trkpt><trkpt lat="43.5816753" lon="11.9380682"><ele>717.0</ele><time>2026-04-18T08:18:40.076Z</time></trkpt><trkpt lat="43.5817487" lon="11.9380318"><ele>718.0</ele><time>2026-04-18T08:18:41.076Z</time></trkpt><trkpt lat="43.5818659" lon="11.9379774"><ele>718.0</ele><time>2026-04-18T08:18:43.077Z</time></trkpt><trkpt lat="43.5819498" lon="11.9379636"><ele>718.0</ele><time>2026-04-18T08:18:45.077Z</time></trkpt><trkpt lat="43.5820511" lon="11.9379163"><ele>718.0</ele><time>2026-04-18T08:20:35.076Z</time></trkpt><trkpt lat="43.582128" lon="11.9378549"><ele>718.0</ele><time>2026-04-18T08:20:37.077Z</time></trkpt><trkpt lat="43.582209" lon="11.9378091"><ele>718.0</ele><time>2026-04-18T08:20:39.076Z</time></trkpt><trkpt lat="43.5822863" lon="11.9377524"><ele>718.0</ele><time>2026-04-18T08:20:41.076Z</time></trkpt><trkpt lat="43.5823198" lon="11.9376765"><ele>718.0</ele><time>2026-04-18T08:20:43.076Z</time></trkpt><trkpt lat="43.582283" lon="11.9375815"><ele>718.0</ele><time>2026-04-18T08:20:45.077Z</time></trkpt><trkpt lat="43.5821816" lon="11.9374783"><ele>718.0</ele><time>2026-04-18T08:20:47.076Z</time></trkpt><trkpt lat="43.5821272" lon="11.9373896"><ele>718.0</ele><time>2026-04-18T08:20:48.077Z</time></trkpt><trkpt lat="43.5820944" lon="11.9372808"><ele>718.0</ele><time>2026-04-18T08:20:49.076Z</time></trkpt><trkpt lat="43.5820732" lon="11.9371556"><ele>719.5</ele><time>2026-04-18T08:20:50.076Z</time></trkpt><trkpt lat="43.5820602" lon="11.9370261"><ele>721.0</ele><time>2026-04-18T08:20:51.077Z</time></trkpt><trkpt lat="43.5820676" lon="11.9368575"><ele>722.5</ele><time>2026-04-18T08:20:52.077Z</time></trkpt><trkpt lat="43.582078" lon="11.9367064"><ele>724.0</ele><time>2026-04-18T08:20:53.076Z</time></trkpt><trkpt lat="43.5821407" lon="11.9365518"><ele>724.0</ele><time>2026-04-18T08:20:54.076Z</time></trkpt><trkpt lat="43.5822197" lon="11.936436"><ele>724.0</ele><time>2026-04-18T08:20:55.076Z</time></trkpt><trkpt lat="43.5823195" lon="11.9363367"><ele>724.0</ele><time>2026-04-18T08:20:56.077Z</time></trkpt><trkpt lat="43.5824003" lon="11.9362004"><ele>724.0</ele><time>2026-04-18T08:20:57.076Z</time></trkpt><trkpt lat="43.5824598" lon="11.9360674"><ele>724.0</ele><time>2026-04-18T08:20:58.076Z</time></trkpt><trkpt lat="43.5825085" lon="11.9359368"><ele>724.0</ele><time>2026-04-18T08:20:59.076Z</time></trkpt><trkpt lat="43.5825696" lon="11.9357994"><ele>724.0</ele><time>2026-04-18T08:21:00.077Z</time></trkpt><trkpt lat="43.582623" lon="11.9356799"><ele>724.0</ele><time>2026-04-18T08:21:01.076Z</time></trkpt><trkpt lat="43.5826838" lon="11.9355367"><ele>724.0</ele><time>2026-04-18T08:21:02.076Z</time></trkpt><trkpt lat="43.5827379" lon="11.935393"><ele>721.4000000000001</ele><time>2026-04-18T08:21:03.076Z</time></trkpt><trkpt lat="43.5827483" lon="11.93523"><ele>718.8</ele><time>2026-04-18T08:21:04.076Z</time></trkpt><trkpt lat="43.5827677" lon="11.9351198"><ele>716.2</ele><time>2026-04-18T08:21:05.076Z</time></trkpt><trkpt lat="43.5826716" lon="11.9350026"><ele>713.5999999999999</ele><time>2026-04-18T08:21:06.076Z</time></trkpt><trkpt lat="43.582604" lon="11.9348734"><ele>711.0</ele><time>2026-04-18T08:21:07.076Z</time></trkpt><trkpt lat="43.5825234" lon="11.9347544"><ele>708.6666666666666</ele><time>2026-04-18T08:21:08.077Z</time></trkpt><trkpt lat="43.5824296" lon="11.9346336"><ele>706.3333333333333</ele><time>2026-04-18T08:21:09.076Z</time></trkpt><trkpt lat="43.582327" lon="11.9344713"><ele>704.0</ele><time>2026-04-18T08:21:10.077Z</time></trkpt><trkpt lat="43.582226" lon="11.9342872"><ele>706.0</ele><time>2026-04-18T08:21:11.076Z</time></trkpt><trkpt lat="43.5821171" lon="11.934086"><ele>708.0</ele><time>2026-04-18T08:21:12.076Z</time></trkpt><trkpt lat="43.5820002" lon="11.933863"><ele>710.0</ele><time>2026-04-18T08:21:13.077Z</time></trkpt><trkpt lat="43.5818893" lon="11.9336386"><ele>702.0</ele><time>2026-04-18T08:21:14.076Z</time></trkpt><trkpt lat="43.5817997" lon="11.9334252"><ele>694.0</ele><time>2026-04-18T08:21:15.076Z</time></trkpt><trkpt lat="43.5817183" lon="11.9332104"><ele>686.0</ele><time>2026-04-18T08:21:16.076Z</time></trkpt><trkpt lat="43.5816656" lon="11.9330009"><ele>686.0</ele><time>2026-04-18T08:21:17.077Z</time></trkpt><trkpt lat="43.5816437" lon="11.932796"><ele>686.0</ele><time>2026-04-18T08:21:18.077Z</time></trkpt><trkpt lat="43.5816337" lon="11.9325819"><ele>686.0</ele><time>2026-04-18T08:21:19.077Z</time></trkpt><trkpt lat="43.5816401" lon="11.9323696"><ele>687.6666666666666</ele><time>2026-04-18T08:21:20.076Z</time></trkpt><trkpt lat="43.5816741" lon="11.9321458"><ele>689.3333333333334</ele><time>2026-04-18T08:21:21.076Z</time></trkpt><trkpt lat="43.5817268" lon="11.9319127"><ele>691.0</ele><time>2026-04-18T08:21:22.077Z</time></trkpt><trkpt lat="43.5817878" lon="11.9316647"><ele>692.0</ele><time>2026-04-18T08:21:23.076Z</time></trkpt><trkpt lat="43.5818441" lon="11.9314302"><ele>693.0</ele><time>2026-04-18T08:21:24.076Z</time></trkpt><trkpt lat="43.581881" lon="11.9312174"><ele>694.0</ele><time>2026-04-18T08:21:25.076Z</time></trkpt><trkpt lat="43.5818872" lon="11.9309834"><ele>695.0</ele><time>2026-04-18T08:21:26.076Z</time></trkpt><trkpt lat="43.581873" lon="11.9307484"><ele>696.0</ele><time>2026-04-18T08:21:27.077Z</time></trkpt><trkpt lat="43.581861" lon="11.9305058"><ele>697.0</ele><time>2026-04-18T08:21:28.076Z</time></trkpt><trkpt lat="43.5818535" lon="11.9302909"><ele>697.0</ele><time>2026-04-18T08:21:29.076Z</time></trkpt><trkpt lat="43.5818433" lon="11.9301049"><ele>697.0</ele><time>2026-04-18T08:21:30.077Z</time></trkpt><trkpt lat="43.5818437" lon="11.9299657"><ele>697.0</ele><time>2026-04-18T08:21:31.077Z</time></trkpt><trkpt lat="43.5818547" lon="11.9298696"><ele>697.0</ele><time>2026-04-18T08:21:32.076Z</time></trkpt><trkpt lat="43.5818898" lon="11.9297477"><ele>697.0</ele><time>2026-04-18T08:21:34.076Z</time></trkpt><trkpt lat="43.5818709" lon="11.9296422"><ele>697.6</ele><time>2026-04-18T08:21:36.077Z</time></trkpt><trkpt lat="43.5818441" lon="11.9295374"><ele>698.2</ele><time>2026-04-18T08:21:38.077Z</time></trkpt><trkpt lat="43.5819288" lon="11.9294934"><ele>698.8</ele><time>2026-04-18T08:22:17.076Z</time></trkpt><trkpt lat="43.5820242" lon="11.929509"><ele>699.4</ele><time>2026-04-18T08:22:19.076Z</time></trkpt><trkpt lat="43.5821306" lon="11.9295446"><ele>700.0</ele><time>2026-04-18T08:22:21.077Z</time></trkpt><trkpt lat="43.5821989" lon="11.9296003"><ele>701.4</ele><time>2026-04-18T08:22:23.077Z</time></trkpt><trkpt lat="43.5822494" lon="11.9296546"><ele>702.8</ele><time>2026-04-18T08:22:25.076Z</time></trkpt><trkpt lat="43.5823161" lon="11.9297269"><ele>704.2</ele><time>2026-04-18T08:22:27.076Z</time></trkpt><trkpt lat="43.5823519" lon="11.9298458"><ele>705.6</ele><time>2026-04-18T08:22:29.076Z</time></trkpt><trkpt lat="43.5823041" lon="11.9299468"><ele>707.0</ele><time>2026-04-18T08:22:31.077Z</time></trkpt><trkpt lat="43.5822083" lon="11.9300634"><ele>708.6</ele><time>2026-04-18T08:22:33.076Z</time></trkpt><trkpt lat="43.5821596" lon="11.9301255"><ele>710.2</ele><time>2026-04-18T08:22:34.077Z</time></trkpt><trkpt lat="43.5821476" lon="11.9302563"><ele>711.8</ele><time>2026-04-18T08:22:36.076Z</time></trkpt><trkpt lat="43.5821597" lon="11.9303426"><ele>713.4</ele><time>2026-04-18T08:22:37.076Z</time></trkpt><trkpt lat="43.5822356" lon="11.9304274"><ele>715.0</ele><time>2026-04-18T08:22:39.077Z</time></trkpt><trkpt lat="43.5823893" lon="11.9304436"><ele>715.0</ele><time>2026-04-18T08:22:41.076Z</time></trkpt><trkpt lat="43.5824914" lon="11.930491"><ele>715.0</ele><time>2026-04-18T08:22:43.076Z</time></trkpt><trkpt lat="43.5825608" lon="11.9305434"><ele>715.0</ele><time>2026-04-18T08:22:44.077Z</time></trkpt><trkpt lat="43.5826311" lon="11.9305785"><ele>715.0</ele><time>2026-04-18T08:22:45.076Z</time></trkpt><trkpt lat="43.5826981" lon="11.9306424"><ele>715.0</ele><time>2026-04-18T08:22:46.076Z</time></trkpt><trkpt lat="43.5827515" lon="11.930702"><ele>715.0</ele><time>2026-04-18T08:22:47.076Z</time></trkpt><trkpt lat="43.5828448" lon="11.9308052"><ele>717.1666666666667</ele><time>2026-04-18T08:22:49.077Z</time></trkpt><trkpt lat="43.5828991" lon="11.9308765"><ele>719.3333333333334</ele><time>2026-04-18T08:22:50.077Z</time></trkpt><trkpt lat="43.5829454" lon="11.9309509"><ele>721.5</ele><time>2026-04-18T08:22:51.076Z</time></trkpt><trkpt lat="43.5829941" lon="11.9310219"><ele>723.6666666666666</ele><time>2026-04-18T08:22:52.076Z</time></trkpt><trkpt lat="43.5830437" lon="11.9310872"><ele>725.8333333333333</ele><time>2026-04-18T08:22:53.076Z</time></trkpt><trkpt lat="43.5830986" lon="11.9311448"><ele>728.0</ele><time>2026-04-18T08:22:54.076Z</time></trkpt><trkpt lat="43.5832074" lon="11.9312231"><ele>729.5999999999999</ele><time>2026-04-18T08:22:56.076Z</time></trkpt><trkpt lat="43.5832858" lon="11.9313094"><ele>731.1999999999999</ele><time>2026-04-18T08:22:58.076Z</time></trkpt><trkpt lat="43.5833538" lon="11.931403"><ele>732.8</ele><time>2026-04-18T08:23:00.076Z</time></trkpt><trkpt lat="43.5834186" lon="11.931461"><ele>734.4</ele><time>2026-04-18T08:23:02.076Z</time></trkpt><trkpt lat="43.5835105" lon="11.9315409"><ele>736.0</ele><time>2026-04-18T08:23:04.077Z</time></trkpt><trkpt lat="43.5835852" lon="11.9316345"><ele>736.5999999999999</ele><time>2026-04-18T08:23:06.076Z</time></trkpt><trkpt lat="43.5835996" lon="11.931806"><ele>737.2</ele><time>2026-04-18T08:23:12.077Z</time></trkpt><trkpt lat="43.5835972" lon="11.9319018"><ele>737.8</ele><time>2026-04-18T08:23:13.077Z</time></trkpt><trkpt lat="43.5836284" lon="11.9320459"><ele>738.4000000000001</ele><time>2026-04-18T08:23:15.076Z</time></trkpt><trkpt lat="43.583688" lon="11.9321698"><ele>739.0</ele><time>2026-04-18T08:23:17.076Z</time></trkpt><trkpt lat="43.5837588" lon="11.9321519"><ele>741.8333333333334</ele><time>2026-04-18T08:23:18.077Z</time></trkpt><trkpt lat="43.5838707" lon="11.9321886"><ele>744.6666666666667</ele><time>2026-04-18T08:23:20.076Z</time></trkpt><trkpt lat="43.5839256" lon="11.9322394"><ele>747.5</ele><time>2026-04-18T08:23:21.077Z</time></trkpt><trkpt lat="43.5839813" lon="11.9322969"><ele>750.3333333333334</ele><time>2026-04-18T08:23:22.077Z</time></trkpt><trkpt lat="43.5840403" lon="11.9323452"><ele>753.1666666666666</ele><time>2026-04-18T08:23:23.076Z</time></trkpt><trkpt lat="43.5840293" lon="11.9324661"><ele>756.0</ele><time>2026-04-18T08:23:24.076Z</time></trkpt><trkpt lat="43.5840072" lon="11.9326572"><ele>757.0</ele><time>2026-04-18T08:23:26.077Z</time></trkpt><trkpt lat="43.5839888" lon="11.9327719"><ele>758.0</ele><time>2026-04-18T08:23:27.077Z</time></trkpt><trkpt lat="43.5839937" lon="11.9328752"><ele>759.0</ele><time>2026-04-18T08:23:28.077Z</time></trkpt><trkpt lat="43.5840134" lon="11.9329624"><ele>760.0</ele><time>2026-04-18T08:23:29.077Z</time></trkpt><trkpt lat="43.5840442" lon="11.9330386"><ele>761.0</ele><time>2026-04-18T08:23:30.077Z</time></trkpt><trkpt lat="43.5840763" lon="11.9331268"><ele>762.0</ele><time>2026-04-18T08:23:31.077Z</time></trkpt><trkpt lat="43.5841372" lon="11.9331936"><ele>763.0</ele><time>2026-04-18T08:23:32.076Z</time></trkpt><trkpt lat="43.5842036" lon="11.933233"><ele>763.0</ele><time>2026-04-18T08:23:33.077Z</time></trkpt><trkpt lat="43.5842654" lon="11.9332741"><ele>763.0</ele><time>2026-04-18T08:23:34.076Z</time></trkpt><trkpt lat="43.5843479" lon="11.9334054"><ele>763.0</ele><time>2026-04-18T08:23:35.076Z</time></trkpt><trkpt lat="43.5844027" lon="11.9334618"><ele>763.0</ele><time>2026-04-18T08:23:36.077Z</time></trkpt><trkpt lat="43.584476" lon="11.9335347"><ele>763.0</ele><time>2026-04-18T08:23:37.076Z</time></trkpt><trkpt lat="43.5845243" lon="11.9336021"><ele>763.0</ele><time>2026-04-18T08:23:38.077Z</time></trkpt><trkpt lat="43.5846077" lon="11.933716"><ele>767.5999999999999</ele><time>2026-04-18T08:23:40.076Z</time></trkpt><trkpt lat="43.5847147" lon="11.9337493"><ele>772.1999999999999</ele><time>2026-04-18T08:23:41.076Z</time></trkpt><trkpt lat="43.5848232" lon="11.9337679"><ele>776.8</ele><time>2026-04-18T08:23:42.077Z</time></trkpt><trkpt lat="43.5849321" lon="11.9337857"><ele>781.4</ele><time>2026-04-18T08:23:43.077Z</time></trkpt><trkpt lat="43.5850335" lon="11.933802"><ele>786.0</ele><time>2026-04-18T08:23:44.077Z</time></trkpt><trkpt lat="43.5851388" lon="11.9338078"><ele>786.0</ele><time>2026-04-18T08:23:45.076Z</time></trkpt><trkpt lat="43.5852175" lon="11.9337944"><ele>786.0</ele><time>2026-04-18T08:23:46.077Z</time></trkpt><trkpt lat="43.585294" lon="11.9337845"><ele>786.0</ele><time>2026-04-18T08:23:47.076Z</time></trkpt><trkpt lat="43.585367" lon="11.9337682"><ele>786.0</ele><time>2026-04-18T08:23:48.076Z</time></trkpt><trkpt lat="43.5854416" lon="11.9337898"><ele>786.0</ele><time>2026-04-18T08:23:49.077Z</time></trkpt><trkpt lat="43.5854902" lon="11.9338457"><ele>786.0</ele><time>2026-04-18T08:23:50.077Z</time></trkpt><trkpt lat="43.5855525" lon="11.9339378"><ele>787.6666666666666</ele><time>2026-04-18T08:23:52.077Z</time></trkpt><trkpt lat="43.5855928" lon="11.9340052"><ele>789.3333333333333</ele><time>2026-04-18T08:23:53.077Z</time></trkpt><trkpt lat="43.5856987" lon="11.9339983"><ele>791.0</ele><time>2026-04-18T08:23:54.077Z</time></trkpt><trkpt lat="43.5857961" lon="11.9340125"><ele>792.6666666666666</ele><time>2026-04-18T08:23:55.077Z</time></trkpt><trkpt lat="43.5859079" lon="11.9340204"><ele>794.3333333333333</ele><time>2026-04-18T08:23:57.076Z</time></trkpt><trkpt lat="43.5859744" lon="11.9340302"><ele>796.0</ele><time>2026-04-18T08:23:59.076Z</time></trkpt><trkpt lat="43.5860343" lon="11.9340718"><ele>795.9999999999999</ele><time>2026-04-18T08:24:01.077Z</time></trkpt><trkpt lat="43.5859587" lon="11.9340748"><ele>796.0</ele><time>2026-04-18T08:26:57.076Z</time></trkpt><trkpt lat="43.5858956" lon="11.9340088"><ele>796.0</ele><time>2026-04-18T08:27:00.076Z</time></trkpt><trkpt lat="43.5858546" lon="11.9339147"><ele>796.0</ele><time>2026-04-18T08:27:08.076Z</time></trkpt><trkpt lat="43.5858222" lon="11.9338254"><ele>795.9999999999999</ele><time>2026-04-18T08:27:11.076Z</time></trkpt><trkpt lat="43.5857894" lon="11.933723"><ele>796.0</ele><time>2026-04-18T08:27:14.076Z</time></trkpt><trkpt lat="43.5857463" lon="11.9336396"><ele>795.9999999999999</ele><time>2026-04-18T08:27:18.076Z</time></trkpt><trkpt lat="43.5856863" lon="11.93354"><ele>796.0</ele><time>2026-04-18T08:27:27.076Z</time></trkpt><trkpt lat="43.5856507" lon="11.9334605"><ele>796.0</ele><time>2026-04-18T08:27:29.077Z</time></trkpt><trkpt lat="43.5856305" lon="11.9333772"><ele>796.0</ele><time>2026-04-18T08:27:32.076Z</time></trkpt><trkpt lat="43.5856165" lon="11.9332793"><ele>796.0</ele><time>2026-04-18T08:27:42.076Z</time></trkpt><trkpt lat="43.5855988" lon="11.9331623"><ele>795.9999999999999</ele><time>2026-04-18T08:27:45.076Z</time></trkpt><trkpt lat="43.5855953" lon="11.933074"><ele>796.0</ele><time>2026-04-18T08:27:47.077Z</time></trkpt><trkpt lat="43.5856096" lon="11.9329867"><ele>796.4285714285713</ele><time>2026-04-18T08:27:50.076Z</time></trkpt><trkpt lat="43.5856302" lon="11.9329002"><ele>796.8571428571429</ele><time>2026-04-18T08:27:53.077Z</time></trkpt><trkpt lat="43.5856652" lon="11.932802"><ele>797.2857142857142</ele><time>2026-04-18T08:28:47.076Z</time></trkpt><trkpt lat="43.5857165" lon="11.9327204"><ele>797.7142857142857</ele><time>2026-04-18T08:28:50.077Z</time></trkpt><trkpt lat="43.5857423" lon="11.932636"><ele>798.1428571428571</ele><time>2026-04-18T08:28:52.077Z</time></trkpt><trkpt lat="43.5857772" lon="11.9325556"><ele>798.5714285714286</ele><time>2026-04-18T08:28:55.077Z</time></trkpt><trkpt lat="43.5858004" lon="11.9324557"><ele>799.0</ele><time>2026-04-18T08:28:58.077Z</time></trkpt><trkpt lat="43.5857363" lon="11.9324405"><ele>798.9999999999999</ele><time>2026-04-18T08:29:48.076Z</time></trkpt><trkpt lat="43.585697" lon="11.9325186"><ele>799.0</ele><time>2026-04-18T08:31:46.076Z</time></trkpt><trkpt lat="43.5856733" lon="11.9326001"><ele>799.0</ele><time>2026-04-18T08:31:48.076Z</time></trkpt><trkpt lat="43.5856242" lon="11.9327127"><ele>799.0</ele><time>2026-04-18T08:31:50.077Z</time></trkpt><trkpt lat="43.5855853" lon="11.932826"><ele>798.9999999999999</ele><time>2026-04-18T08:31:52.077Z</time></trkpt><trkpt lat="43.585545" lon="11.932902"><ele>799.0</ele><time>2026-04-18T08:31:56.076Z</time></trkpt><trkpt lat="43.5855483" lon="11.9330069"><ele>799.0</ele><time>2026-04-18T08:32:06.076Z</time></trkpt><trkpt lat="43.5855608" lon="11.933205"><ele>799.0</ele><time>2026-04-18T08:32:08.076Z</time></trkpt><trkpt lat="43.5855883" lon="11.9333441"><ele>799.0</ele><time>2026-04-18T08:32:09.076Z</time></trkpt><trkpt lat="43.5856425" lon="11.9334707"><ele>799.0</ele><time>2026-04-18T08:32:10.077Z</time></trkpt><trkpt lat="43.5856965" lon="11.9335849"><ele>798.25</ele><time>2026-04-18T08:32:11.077Z</time></trkpt><trkpt lat="43.5857612" lon="11.9337054"><ele>797.5</ele><time>2026-04-18T08:32:12.076Z</time></trkpt><trkpt lat="43.5858216" lon="11.9338605"><ele>796.75</ele><time>2026-04-18T08:32:13.076Z</time></trkpt><trkpt lat="43.5858983" lon="11.9339816"><ele>796.0</ele><time>2026-04-18T08:32:14.076Z</time></trkpt><trkpt lat="43.5859875" lon="11.9340918"><ele>796.0</ele><time>2026-04-18T08:32:15.076Z</time></trkpt><trkpt lat="43.5860901" lon="11.9341564"><ele>796.0</ele><time>2026-04-18T08:32:16.076Z</time></trkpt><trkpt lat="43.5862025" lon="11.9342111"><ele>796.0</ele><time>2026-04-18T08:32:17.077Z</time></trkpt><trkpt lat="43.5863254" lon="11.9343041"><ele>796.0</ele><time>2026-04-18T08:32:18.077Z</time></trkpt><trkpt lat="43.5864244" lon="11.9343716"><ele>793.9999999999999</ele><time>2026-04-18T08:32:19.077Z</time></trkpt><trkpt lat="43.5865115" lon="11.934433"><ele>792.0</ele><time>2026-04-18T08:32:20.076Z</time></trkpt><trkpt lat="43.5865834" lon="11.934453"><ele>790.0</ele><time>2026-04-18T08:32:21.077Z</time></trkpt><trkpt lat="43.5866599" lon="11.9344514"><ele>788.0</ele><time>2026-04-18T08:32:22.077Z</time></trkpt><trkpt lat="43.5867313" lon="11.9344384"><ele>785.9999999999999</ele><time>2026-04-18T08:32:23.077Z</time></trkpt><trkpt lat="43.5868193" lon="11.9344165"><ele>784.0</ele><time>2026-04-18T08:32:24.076Z</time></trkpt><trkpt lat="43.5868961" lon="11.9344083"><ele>784.0</ele><time>2026-04-18T08:32:43.077Z</time></trkpt><trkpt lat="43.5869678" lon="11.9343302"><ele>784.0</ele><time>2026-04-18T08:32:46.077Z</time></trkpt><trkpt lat="43.5870941" lon="11.93421"><ele>784.0</ele><time>2026-04-18T08:32:48.077Z</time></trkpt><trkpt lat="43.5871973" lon="11.9341472"><ele>784.0</ele><time>2026-04-18T08:32:49.076Z</time></trkpt><trkpt lat="43.5873084" lon="11.9340761"><ele>790.5</ele><time>2026-04-18T08:32:50.076Z</time></trkpt><trkpt lat="43.5874205" lon="11.9340164"><ele>797.0</ele><time>2026-04-18T08:32:51.077Z</time></trkpt><trkpt lat="43.5875351" lon="11.9339334"><ele>803.5</ele><time>2026-04-18T08:32:52.076Z</time></trkpt><trkpt lat="43.5876523" lon="11.9338649"><ele>810.0</ele><time>2026-04-18T08:32:53.077Z</time></trkpt><trkpt lat="43.5877784" lon="11.9338056"><ele>811.3333333333333</ele><time>2026-04-18T08:32:54.076Z</time></trkpt><trkpt lat="43.587899" lon="11.9337265"><ele>812.6666666666666</ele><time>2026-04-18T08:32:55.076Z</time></trkpt><trkpt lat="43.5880339" lon="11.9336419"><ele>814.0</ele><time>2026-04-18T08:32:56.077Z</time></trkpt><trkpt lat="43.5881913" lon="11.9335233"><ele>814.0</ele><time>2026-04-18T08:32:57.077Z</time></trkpt><trkpt lat="43.5883446" lon="11.9334103"><ele>814.0</ele><time>2026-04-18T08:32:58.076Z</time></trkpt><trkpt lat="43.5884827" lon="11.9333205"><ele>814.0</ele><time>2026-04-18T08:32:59.077Z</time></trkpt><trkpt lat="43.5886164" lon="11.9332357"><ele>820.0</ele><time>2026-04-18T08:33:00.077Z</time></trkpt><trkpt lat="43.5887502" lon="11.9331503"><ele>826.0</ele><time>2026-04-18T08:33:01.076Z</time></trkpt><trkpt lat="43.5888733" lon="11.9330677"><ele>832.0</ele><time>2026-04-18T08:33:02.076Z</time></trkpt><trkpt lat="43.589002" lon="11.9329811"><ele>838.0</ele><time>2026-04-18T08:33:03.076Z</time></trkpt><trkpt lat="43.5891314" lon="11.9329037"><ele>838.0</ele><time>2026-04-18T08:33:04.077Z</time></trkpt><trkpt lat="43.5892632" lon="11.9328273"><ele>838.0</ele><time>2026-04-18T08:33:05.076Z</time></trkpt><trkpt lat="43.5894198" lon="11.9327524"><ele>838.0</ele><time>2026-04-18T08:33:06.076Z</time></trkpt><trkpt lat="43.5895718" lon="11.9326574"><ele>840.0</ele><time>2026-04-18T08:33:07.077Z</time></trkpt><trkpt lat="43.589738" lon="11.9325841"><ele>842.0</ele><time>2026-04-18T08:33:08.076Z</time></trkpt><trkpt lat="43.5899091" lon="11.9325061"><ele>844.0</ele><time>2026-04-18T08:33:09.077Z</time></trkpt><trkpt lat="43.5900587" lon="11.9324426"><ele>844.0</ele><time>2026-04-18T08:33:10.076Z</time></trkpt><trkpt lat="43.5901994" lon="11.932384"><ele>844.0</ele><time>2026-04-18T08:33:11.076Z</time></trkpt><trkpt lat="43.5902845" lon="11.9322519"><ele>844.0</ele><time>2026-04-18T08:33:12.076Z</time></trkpt><trkpt lat="43.5903767" lon="11.9321456"><ele>844.0</ele><time>2026-04-18T08:33:13.077Z</time></trkpt><trkpt lat="43.5904684" lon="11.9320119"><ele>847.75</ele><time>2026-04-18T08:33:14.076Z</time></trkpt><trkpt lat="43.5905366" lon="11.9318503"><ele>851.5</ele><time>2026-04-18T08:33:15.076Z</time></trkpt><trkpt lat="43.5906183" lon="11.9317168"><ele>855.25</ele><time>2026-04-18T08:33:16.076Z</time></trkpt><trkpt lat="43.5907241" lon="11.9315897"><ele>859.0</ele><time>2026-04-18T08:33:17.076Z</time></trkpt><trkpt lat="43.5908384" lon="11.9314883"><ele>859.0</ele><time>2026-04-18T08:33:18.076Z</time></trkpt><trkpt lat="43.5909701" lon="11.9313984"><ele>859.0</ele><time>2026-04-18T08:33:19.076Z</time></trkpt><trkpt lat="43.5910876" lon="11.9312894"><ele>859.0</ele><time>2026-04-18T08:33:20.076Z</time></trkpt><trkpt lat="43.5912054" lon="11.9311966"><ele>859.0</ele><time>2026-04-18T08:33:21.076Z</time></trkpt><trkpt lat="43.591306" lon="11.9310803"><ele>863.75</ele><time>2026-04-18T08:33:22.076Z</time></trkpt><trkpt lat="43.5913642" lon="11.9308506"><ele>868.5</ele><time>2026-04-18T08:33:23.076Z</time></trkpt><trkpt lat="43.5914212" lon="11.9306893"><ele>873.25</ele><time>2026-04-18T08:33:24.077Z</time></trkpt><trkpt lat="43.591464" lon="11.930546"><ele>878.0</ele><time>2026-04-18T08:33:25.076Z</time></trkpt><trkpt lat="43.5915158" lon="11.9304065"><ele>878.0</ele><time>2026-04-18T08:33:26.077Z</time></trkpt><trkpt lat="43.5915776" lon="11.9302365"><ele>878.0</ele><time>2026-04-18T08:33:27.076Z</time></trkpt><trkpt lat="43.5916498" lon="11.9300872"><ele>878.0</ele><time>2026-04-18T08:33:28.077Z</time></trkpt><trkpt lat="43.5917363" lon="11.9299729"><ele>878.0</ele><time>2026-04-18T08:33:29.076Z</time></trkpt><trkpt lat="43.5918311" lon="11.9298808"><ele>879.0</ele><time>2026-04-18T08:33:30.077Z</time></trkpt><trkpt lat="43.5919723" lon="11.9298581"><ele>880.0</ele><time>2026-04-18T08:33:31.077Z</time></trkpt><trkpt lat="43.5921245" lon="11.9298336"><ele>881.0</ele><time>2026-04-18T08:33:32.076Z</time></trkpt><trkpt lat="43.59227" lon="11.9298337"><ele>882.0</ele><time>2026-04-18T08:33:33.076Z</time></trkpt><trkpt lat="43.592433" lon="11.9298501"><ele>882.0</ele><time>2026-04-18T08:33:34.077Z</time></trkpt><trkpt lat="43.5926026" lon="11.9298638"><ele>882.0</ele><time>2026-04-18T08:33:35.077Z</time></trkpt><trkpt lat="43.592759" lon="11.929869"><ele>882.0</ele><time>2026-04-18T08:33:36.076Z</time></trkpt><trkpt lat="43.5928973" lon="11.9298171"><ele>885.5</ele><time>2026-04-18T08:33:37.076Z</time></trkpt><trkpt lat="43.5930319" lon="11.9297597"><ele>889.0</ele><time>2026-04-18T08:33:38.076Z</time></trkpt><trkpt lat="43.5931571" lon="11.9296696"><ele>892.5</ele><time>2026-04-18T08:33:39.076Z</time></trkpt><trkpt lat="43.5932822" lon="11.92959"><ele>896.0</ele><time>2026-04-18T08:33:40.076Z</time></trkpt><trkpt lat="43.5933922" lon="11.9294977"><ele>896.0</ele><time>2026-04-18T08:33:41.076Z</time></trkpt><trkpt lat="43.5935044" lon="11.9294147"><ele>896.0</ele><time>2026-04-18T08:33:42.076Z</time></trkpt><trkpt lat="43.5936296" lon="11.9293664"><ele>896.0</ele><time>2026-04-18T08:33:43.076Z</time></trkpt><trkpt lat="43.5937529" lon="11.9293259"><ele>896.0</ele><time>2026-04-18T08:33:44.077Z</time></trkpt><trkpt lat="43.5938657" lon="11.9293278"><ele>900.0</ele><time>2026-04-18T08:33:45.076Z</time></trkpt><trkpt lat="43.5940116" lon="11.9293946"><ele>904.0</ele><time>2026-04-18T08:33:46.077Z</time></trkpt><trkpt lat="43.5941536" lon="11.9294063"><ele>908.0</ele><time>2026-04-18T08:33:47.076Z</time></trkpt><trkpt lat="43.5942985" lon="11.9293773"><ele>912.0</ele><time>2026-04-18T08:33:48.076Z</time></trkpt><trkpt lat="43.5944379" lon="11.929359"><ele>909.75</ele><time>2026-04-18T08:33:49.077Z</time></trkpt><trkpt lat="43.5945755" lon="11.9293152"><ele>907.5</ele><time>2026-04-18T08:33:50.077Z</time></trkpt><trkpt lat="43.5947045" lon="11.9292224"><ele>905.25</ele><time>2026-04-18T08:33:51.076Z</time></trkpt><trkpt lat="43.5948545" lon="11.9291632"><ele>903.0</ele><time>2026-04-18T08:33:52.077Z</time></trkpt><trkpt lat="43.5950243" lon="11.9291134"><ele>903.0</ele><time>2026-04-18T08:33:53.077Z</time></trkpt><trkpt lat="43.5951982" lon="11.9290733"><ele>903.0</ele><time>2026-04-18T08:33:54.077Z</time></trkpt><trkpt lat="43.5953519" lon="11.929037"><ele>903.0</ele><time>2026-04-18T08:33:55.076Z</time></trkpt><trkpt lat="43.5954952" lon="11.9289965"><ele>906.25</ele><time>2026-04-18T08:33:56.076Z</time></trkpt><trkpt lat="43.5956445" lon="11.9289729"><ele>909.5</ele><time>2026-04-18T08:33:57.077Z</time></trkpt><trkpt lat="43.59579" lon="11.9289437"><ele>912.75</ele><time>2026-04-18T08:33:58.077Z</time></trkpt><trkpt lat="43.5959329" lon="11.9289161"><ele>916.0</ele><time>2026-04-18T08:33:59.077Z</time></trkpt><trkpt lat="43.5960671" lon="11.9288905"><ele>920.0</ele><time>2026-04-18T08:34:00.076Z</time></trkpt><trkpt lat="43.596205" lon="11.9288757"><ele>924.0</ele><time>2026-04-18T08:34:01.076Z</time></trkpt><trkpt lat="43.5963263" lon="11.9288534"><ele>928.0</ele><time>2026-04-18T08:34:02.076Z</time></trkpt><trkpt lat="43.5964376" lon="11.9288083"><ele>932.0</ele><time>2026-04-18T08:34:03.076Z</time></trkpt><trkpt lat="43.5965564" lon="11.9287658"><ele>932.0</ele><time>2026-04-18T08:34:04.076Z</time></trkpt><trkpt lat="43.5966429" lon="11.9286831"><ele>932.0</ele><time>2026-04-18T08:34:05.077Z</time></trkpt><trkpt lat="43.596709" lon="11.9284908"><ele>932.0</ele><time>2026-04-18T08:34:06.076Z</time></trkpt><trkpt lat="43.5967869" lon="11.9283772"><ele>932.0</ele><time>2026-04-18T08:34:07.076Z</time></trkpt><trkpt lat="43.596874" lon="11.9282797"><ele>930.0</ele><time>2026-04-18T08:34:08.077Z</time></trkpt><trkpt lat="43.5969769" lon="11.9281878"><ele>928.0</ele><time>2026-04-18T08:34:09.076Z</time></trkpt><trkpt lat="43.5971011" lon="11.9281769"><ele>926.0</ele><time>2026-04-18T08:34:10.076Z</time></trkpt><trkpt lat="43.5972214" lon="11.9282123"><ele>924.0</ele><time>2026-04-18T08:34:11.077Z</time></trkpt><trkpt lat="43.5973359" lon="11.9282299"><ele>924.0</ele><time>2026-04-18T08:34:12.076Z</time></trkpt><trkpt lat="43.5974572" lon="11.9282857"><ele>924.0</ele><time>2026-04-18T08:34:13.076Z</time></trkpt><trkpt lat="43.5975929" lon="11.9283502"><ele>924.0</ele><time>2026-04-18T08:34:14.076Z</time></trkpt><trkpt lat="43.5977108" lon="11.9284323"><ele>924.0</ele><time>2026-04-18T08:34:15.076Z</time></trkpt><trkpt lat="43.5978166" lon="11.9285148"><ele>929.25</ele><time>2026-04-18T08:34:16.076Z</time></trkpt><trkpt lat="43.5979212" lon="11.9285912"><ele>934.5</ele><time>2026-04-18T08:34:17.076Z</time></trkpt><trkpt lat="43.5980324" lon="11.9286642"><ele>939.75</ele><time>2026-04-18T08:34:18.076Z</time></trkpt><trkpt lat="43.598145" lon="11.9287204"><ele>945.0</ele><time>2026-04-18T08:34:19.076Z</time></trkpt><trkpt lat="43.5982695" lon="11.9287364"><ele>945.0</ele><time>2026-04-18T08:34:20.076Z</time></trkpt><trkpt lat="43.5983929" lon="11.9287088"><ele>945.0</ele><time>2026-04-18T08:34:21.076Z</time></trkpt><trkpt lat="43.5985239" lon="11.9286788"><ele>945.0</ele><time>2026-04-18T08:34:22.077Z</time></trkpt><trkpt lat="43.5986483" lon="11.9285977"><ele>945.0</ele><time>2026-04-18T08:34:23.076Z</time></trkpt><trkpt lat="43.5987269" lon="11.9284211"><ele>945.25</ele><time>2026-04-18T08:34:24.076Z</time></trkpt><trkpt lat="43.598819" lon="11.9283058"><ele>945.5</ele><time>2026-04-18T08:34:25.076Z</time></trkpt><trkpt lat="43.5989008" lon="11.9281912"><ele>945.75</ele><time>2026-04-18T08:34:26.076Z</time></trkpt><trkpt lat="43.5989859" lon="11.9280927"><ele>946.0</ele><time>2026-04-18T08:34:27.076Z</time></trkpt><trkpt lat="43.5990824" lon="11.9280055"><ele>946.0</ele><time>2026-04-18T08:34:28.077Z</time></trkpt><trkpt lat="43.5991838" lon="11.9279349"><ele>946.0</ele><time>2026-04-18T08:34:29.076Z</time></trkpt><trkpt lat="43.5993001" lon="11.9278812"><ele>946.0</ele><time>2026-04-18T08:34:30.077Z</time></trkpt><trkpt lat="43.5994212" lon="11.9278403"><ele>946.0</ele><time>2026-04-18T08:34:31.076Z</time></trkpt><trkpt lat="43.599545" lon="11.9278135"><ele>949.4</ele><time>2026-04-18T08:34:32.076Z</time></trkpt><trkpt lat="43.5996613" lon="11.9278017"><ele>952.8</ele><time>2026-04-18T08:34:33.076Z</time></trkpt><trkpt lat="43.5997735" lon="11.9277805"><ele>956.1999999999999</ele><time>2026-04-18T08:34:34.076Z</time></trkpt><trkpt lat="43.5998679" lon="11.9277702"><ele>959.5999999999999</ele><time>2026-04-18T08:34:35.077Z</time></trkpt><trkpt lat="43.5999504" lon="11.9277556"><ele>963.0</ele><time>2026-04-18T08:34:36.076Z</time></trkpt><trkpt lat="43.6000224" lon="11.9277224"><ele>963.0</ele><time>2026-04-18T08:34:37.077Z</time></trkpt><trkpt lat="43.6000872" lon="11.927666"><ele>963.0</ele><time>2026-04-18T08:34:38.076Z</time></trkpt><trkpt lat="43.6001503" lon="11.9276048"><ele>963.0</ele><time>2026-04-18T08:34:39.076Z</time></trkpt><trkpt lat="43.6002211" lon="11.9275278"><ele>963.0</ele><time>2026-04-18T08:34:40.076Z</time></trkpt><trkpt lat="43.6002918" lon="11.9274499"><ele>963.0</ele><time>2026-04-18T08:34:41.076Z</time></trkpt><trkpt lat="43.6003461" lon="11.9273563"><ele>963.0</ele><time>2026-04-18T08:34:42.077Z</time></trkpt><trkpt lat="43.6004156" lon="11.9272602"><ele>962.8</ele><time>2026-04-18T08:34:43.076Z</time></trkpt><trkpt lat="43.6004876" lon="11.9271728"><ele>962.5999999999999</ele><time>2026-04-18T08:34:44.076Z</time></trkpt><trkpt lat="43.6005615" lon="11.9270945"><ele>962.4000000000001</ele><time>2026-04-18T08:34:45.076Z</time></trkpt><trkpt lat="43.6006226" lon="11.9270265"><ele>962.2</ele><time>2026-04-18T08:34:46.076Z</time></trkpt><trkpt lat="43.6007116" lon="11.9269783"><ele>962.0</ele><time>2026-04-18T08:34:47.077Z</time></trkpt><trkpt lat="43.6007927" lon="11.9269361"><ele>962.0</ele><time>2026-04-18T08:34:48.077Z</time></trkpt><trkpt lat="43.6008815" lon="11.9268842"><ele>962.0</ele><time>2026-04-18T08:34:49.077Z</time></trkpt><trkpt lat="43.6008618" lon="11.926758"><ele>962.0</ele><time>2026-04-18T08:34:50.077Z</time></trkpt><trkpt lat="43.6008706" lon="11.9266453"><ele>962.0</ele><time>2026-04-18T08:34:51.077Z</time></trkpt><trkpt lat="43.6008585" lon="11.9265134"><ele>962.0</ele><time>2026-04-18T08:34:52.077Z</time></trkpt><trkpt lat="43.6008517" lon="11.926364"><ele>959.6</ele><time>2026-04-18T08:34:53.076Z</time></trkpt><trkpt lat="43.6008578" lon="11.9262226"><ele>957.2</ele><time>2026-04-18T08:34:54.076Z</time></trkpt><trkpt lat="43.6008688" lon="11.9260882"><ele>954.8</ele><time>2026-04-18T08:34:55.077Z</time></trkpt><trkpt lat="43.6009093" lon="11.9259676"><ele>952.4</ele><time>2026-04-18T08:34:56.077Z</time></trkpt><trkpt lat="43.6009522" lon="11.9258328"><ele>950.0</ele><time>2026-04-18T08:34:57.076Z</time></trkpt><trkpt lat="43.6010252" lon="11.9257082"><ele>950.8</ele><time>2026-04-18T08:34:58.077Z</time></trkpt><trkpt lat="43.6011072" lon="11.9256447"><ele>951.6</ele><time>2026-04-18T08:34:59.076Z</time></trkpt><trkpt lat="43.6011915" lon="11.9255465"><ele>952.4000000000001</ele><time>2026-04-18T08:35:00.076Z</time></trkpt><trkpt lat="43.6012859" lon="11.9254736"><ele>953.2</ele><time>2026-04-18T08:35:01.077Z</time></trkpt><trkpt lat="43.6013814" lon="11.9254018"><ele>954.0</ele><time>2026-04-18T08:35:02.076Z</time></trkpt><trkpt lat="43.6014769" lon="11.9253552"><ele>954.0</ele><time>2026-04-18T08:35:03.077Z</time></trkpt><trkpt lat="43.6015916" lon="11.9252975"><ele>954.0000000000001</ele><time>2026-04-18T08:35:04.077Z</time></trkpt><trkpt lat="43.6016659" lon="11.9251879"><ele>954.0000000000001</ele><time>2026-04-18T08:35:05.077Z</time></trkpt><trkpt lat="43.6017298" lon="11.9250708"><ele>954.0</ele><time>2026-04-18T08:35:06.076Z</time></trkpt><trkpt lat="43.6018032" lon="11.9249639"><ele>954.0</ele><time>2026-04-18T08:35:07.077Z</time></trkpt><trkpt lat="43.6018701" lon="11.9248529"><ele>954.0</ele><time>2026-04-18T08:35:08.076Z</time></trkpt><trkpt lat="43.6019133" lon="11.9247659"><ele>954.0</ele><time>2026-04-18T08:35:09.077Z</time></trkpt><trkpt lat="43.6019576" lon="11.9246598"><ele>954.0</ele><time>2026-04-18T08:35:10.076Z</time></trkpt><trkpt lat="43.6020052" lon="11.9245548"><ele>954.0</ele><time>2026-04-18T08:35:11.076Z</time></trkpt><trkpt lat="43.6020478" lon="11.924422"><ele>954.0</ele><time>2026-04-18T08:35:12.076Z</time></trkpt><trkpt lat="43.6020274" lon="11.9243287"><ele>954.0</ele><time>2026-04-18T08:35:13.076Z</time></trkpt><trkpt lat="43.6020011" lon="11.9242118"><ele>949.6666666666666</ele><time>2026-04-18T08:35:14.077Z</time></trkpt><trkpt lat="43.6018804" lon="11.9241318"><ele>945.3333333333333</ele><time>2026-04-18T08:35:16.076Z</time></trkpt><trkpt lat="43.6018089" lon="11.9240901"><ele>941.0</ele><time>2026-04-18T08:35:17.076Z</time></trkpt><trkpt lat="43.6017217" lon="11.9240746"><ele>936.6666666666666</ele><time>2026-04-18T08:35:18.076Z</time></trkpt><trkpt lat="43.6016756" lon="11.9240122"><ele>932.3333333333333</ele><time>2026-04-18T08:35:19.077Z</time></trkpt><trkpt lat="43.6016352" lon="11.9239331"><ele>928.0</ele><time>2026-04-18T08:35:20.077Z</time></trkpt><trkpt lat="43.6016109" lon="11.9238483"><ele>927.9999999999999</ele><time>2026-04-18T08:35:21.076Z</time></trkpt><trkpt lat="43.6015848" lon="11.9237444"><ele>928.0</ele><time>2026-04-18T08:35:22.077Z</time></trkpt><trkpt lat="43.6015683" lon="11.9236446"><ele>928.0</ele><time>2026-04-18T08:35:23.076Z</time></trkpt><trkpt lat="43.6015331" lon="11.9235471"><ele>928.0</ele><time>2026-04-18T08:35:24.076Z</time></trkpt><trkpt lat="43.6014967" lon="11.9234576"><ele>927.9999999999999</ele><time>2026-04-18T08:35:25.077Z</time></trkpt><trkpt lat="43.6014465" lon="11.9233785"><ele>928.0</ele><time>2026-04-18T08:35:26.077Z</time></trkpt><trkpt lat="43.6013967" lon="11.9233064"><ele>929.5999999999999</ele><time>2026-04-18T08:35:27.076Z</time></trkpt><trkpt lat="43.6012817" lon="11.9232464"><ele>931.1999999999999</ele><time>2026-04-18T08:35:29.076Z</time></trkpt><trkpt lat="43.6011854" lon="11.923228"><ele>932.8</ele><time>2026-04-18T08:35:30.076Z</time></trkpt><trkpt lat="43.6011086" lon="11.9232173"><ele>934.4</ele><time>2026-04-18T08:35:31.076Z</time></trkpt><trkpt lat="43.6010082" lon="11.9232022"><ele>936.0</ele><time>2026-04-18T08:35:32.077Z</time></trkpt><trkpt lat="43.6009283" lon="11.923172"><ele>931.5999999999999</ele><time>2026-04-18T08:35:33.077Z</time></trkpt><trkpt lat="43.6008234" lon="11.9231101"><ele>927.1999999999999</ele><time>2026-04-18T08:35:34.076Z</time></trkpt><trkpt lat="43.6007698" lon="11.9230303"><ele>922.8000000000001</ele><time>2026-04-18T08:35:35.076Z</time></trkpt><trkpt lat="43.6007173" lon="11.9229439"><ele>918.4000000000001</ele><time>2026-04-18T08:35:36.076Z</time></trkpt><trkpt lat="43.6007204" lon="11.9228454"><ele>914.0</ele><time>2026-04-18T08:35:37.076Z</time></trkpt><trkpt lat="43.6007458" lon="11.9226451"><ele>915.3333333333334</ele><time>2026-04-18T08:35:38.076Z</time></trkpt><trkpt lat="43.6007621" lon="11.9224552"><ele>916.6666666666667</ele><time>2026-04-18T08:35:39.076Z</time></trkpt><trkpt lat="43.6007386" lon="11.9222095"><ele>918.0</ele><time>2026-04-18T08:35:40.076Z</time></trkpt><trkpt lat="43.6007148" lon="11.9219822"><ele>918.0</ele><time>2026-04-18T08:35:41.077Z</time></trkpt><trkpt lat="43.6006823" lon="11.9218281"><ele>918.0</ele><time>2026-04-18T08:35:42.076Z</time></trkpt><trkpt lat="43.6006826" lon="11.921644"><ele>918.0</ele><time>2026-04-18T08:35:43.076Z</time></trkpt><trkpt lat="43.6006947" lon="11.9214766"><ele>918.0</ele><time>2026-04-18T08:35:44.076Z</time></trkpt><trkpt lat="43.6007242" lon="11.9213318"><ele>917.25</ele><time>2026-04-18T08:35:45.076Z</time></trkpt><trkpt lat="43.6007609" lon="11.9211696"><ele>916.5</ele><time>2026-04-18T08:35:46.077Z</time></trkpt><trkpt lat="43.6008583" lon="11.9210239"><ele>915.75</ele><time>2026-04-18T08:35:47.076Z</time></trkpt><trkpt lat="43.6009358" lon="11.9208731"><ele>915.0</ele><time>2026-04-18T08:35:48.076Z</time></trkpt><trkpt lat="43.6010132" lon="11.920748"><ele>913.0</ele><time>2026-04-18T08:35:49.077Z</time></trkpt><trkpt lat="43.6011052" lon="11.9205879"><ele>911.0</ele><time>2026-04-18T08:35:50.077Z</time></trkpt><trkpt lat="43.6012115" lon="11.9204489"><ele>909.0</ele><time>2026-04-18T08:35:51.076Z</time></trkpt><trkpt lat="43.601369" lon="11.9203305"><ele>909.0</ele><time>2026-04-18T08:35:52.076Z</time></trkpt><trkpt lat="43.6015236" lon="11.9202129"><ele>909.0</ele><time>2026-04-18T08:35:53.076Z</time></trkpt><trkpt lat="43.6016749" lon="11.9200957"><ele>909.0</ele><time>2026-04-18T08:35:54.077Z</time></trkpt><trkpt lat="43.601832" lon="11.919982"><ele>909.0</ele><time>2026-04-18T08:35:55.076Z</time></trkpt><trkpt lat="43.6019806" lon="11.9198742"><ele>909.0</ele><time>2026-04-18T08:35:56.077Z</time></trkpt><trkpt lat="43.6021112" lon="11.9198009"><ele>909.0</ele><time>2026-04-18T08:35:57.076Z</time></trkpt><trkpt lat="43.6022298" lon="11.9197415"><ele>909.0</ele><time>2026-04-18T08:35:58.076Z</time></trkpt><trkpt lat="43.6023507" lon="11.9196754"><ele>909.25</ele><time>2026-04-18T08:35:59.076Z</time></trkpt><trkpt lat="43.6024608" lon="11.9195884"><ele>909.5</ele><time>2026-04-18T08:36:00.076Z</time></trkpt><trkpt lat="43.6025422" lon="11.9194595"><ele>909.75</ele><time>2026-04-18T08:36:01.076Z</time></trkpt><trkpt lat="43.6026094" lon="11.919329"><ele>910.0</ele><time>2026-04-18T08:36:02.077Z</time></trkpt><trkpt lat="43.6026314" lon="11.9191513"><ele>910.0</ele><time>2026-04-18T08:36:03.076Z</time></trkpt><trkpt lat="43.6026725" lon="11.9190374"><ele>910.0</ele><time>2026-04-18T08:36:04.077Z</time></trkpt><trkpt lat="43.6027116" lon="11.9189264"><ele>910.0</ele><time>2026-04-18T08:36:05.076Z</time></trkpt><trkpt lat="43.602752" lon="11.9188077"><ele>910.0</ele><time>2026-04-18T08:36:06.076Z</time></trkpt><trkpt lat="43.6027939" lon="11.9187013"><ele>910.0</ele><time>2026-04-18T08:36:07.076Z</time></trkpt><trkpt lat="43.6028491" lon="11.9185827"><ele>911.0</ele><time>2026-04-18T08:36:08.077Z</time></trkpt><trkpt lat="43.6029501" lon="11.918575"><ele>912.0</ele><time>2026-04-18T08:36:09.076Z</time></trkpt><trkpt lat="43.6030437" lon="11.9184837"><ele>913.0</ele><time>2026-04-18T08:36:10.077Z</time></trkpt><trkpt lat="43.6031421" lon="11.9184291"><ele>914.0</ele><time>2026-04-18T08:36:11.077Z</time></trkpt><trkpt lat="43.6032254" lon="11.9184056"><ele>915.0</ele><time>2026-04-18T08:36:12.076Z</time></trkpt><trkpt lat="43.6033312" lon="11.918363"><ele>912.6666666666666</ele><time>2026-04-18T08:36:13.076Z</time></trkpt><trkpt lat="43.6034157" lon="11.9183537"><ele>910.3333333333333</ele><time>2026-04-18T08:36:14.077Z</time></trkpt><trkpt lat="43.6035105" lon="11.91831"><ele>908.0</ele><time>2026-04-18T08:36:15.077Z</time></trkpt><trkpt lat="43.6035803" lon="11.9182998"><ele>905.6666666666666</ele><time>2026-04-18T08:36:16.076Z</time></trkpt><trkpt lat="43.6036646" lon="11.918278"><ele>903.3333333333333</ele><time>2026-04-18T08:36:17.076Z</time></trkpt><trkpt lat="43.6037473" lon="11.9182923"><ele>901.0</ele><time>2026-04-18T08:36:18.077Z</time></trkpt><trkpt lat="43.6038313" lon="11.9183084"><ele>901.1666666666666</ele><time>2026-04-18T08:36:19.076Z</time></trkpt><trkpt lat="43.603901" lon="11.9182989"><ele>901.3333333333333</ele><time>2026-04-18T08:36:20.076Z</time></trkpt><trkpt lat="43.6039996" lon="11.9183213"><ele>901.5</ele><time>2026-04-18T08:36:21.077Z</time></trkpt><trkpt lat="43.6041133" lon="11.9183823"><ele>901.6666666666667</ele><time>2026-04-18T08:36:23.077Z</time></trkpt><trkpt lat="43.6041805" lon="11.91843"><ele>901.8333333333334</ele><time>2026-04-18T08:36:24.076Z</time></trkpt><trkpt lat="43.604241" lon="11.9184712"><ele>902.0</ele><time>2026-04-18T08:36:25.076Z</time></trkpt><trkpt lat="43.6041656" lon="11.9183719"><ele>899.0</ele><time>2026-04-18T08:36:31.076Z</time></trkpt><trkpt lat="43.6041098" lon="11.9182922"><ele>896.0</ele><time>2026-04-18T08:36:33.076Z</time></trkpt><trkpt lat="43.6040347" lon="11.918224"><ele>893.0</ele><time>2026-04-18T08:36:35.076Z</time></trkpt><trkpt lat="43.6039136" lon="11.9181018"><ele>890.0</ele><time>2026-04-18T08:36:37.077Z</time></trkpt><trkpt lat="43.6038459" lon="11.9180258"><ele>887.0</ele><time>2026-04-18T08:36:38.077Z</time></trkpt><trkpt lat="43.6037929" lon="11.9179623"><ele>887.0</ele><time>2026-04-18T08:36:39.076Z</time></trkpt><trkpt lat="43.6037447" lon="11.9178439"><ele>887.0</ele><time>2026-04-18T08:36:40.076Z</time></trkpt><trkpt lat="43.6037374" lon="11.9176673"><ele>887.0</ele><time>2026-04-18T08:36:41.077Z</time></trkpt><trkpt lat="43.6037007" lon="11.9175698"><ele>887.0</ele><time>2026-04-18T08:36:42.077Z</time></trkpt><trkpt lat="43.6036933" lon="11.9174784"><ele>887.0</ele><time>2026-04-18T08:36:43.076Z</time></trkpt><trkpt lat="43.6036915" lon="11.9173388"><ele>887.5</ele><time>2026-04-18T08:36:45.077Z</time></trkpt><trkpt lat="43.6035924" lon="11.9171113"><ele>888.0</ele><time>2026-04-18T08:36:50.076Z</time></trkpt><trkpt lat="43.6035422" lon="11.916994"><ele>888.5</ele><time>2026-04-18T08:36:52.076Z</time></trkpt><trkpt lat="43.6034851" lon="11.9168689"><ele>889.0</ele><time>2026-04-18T08:36:54.076Z</time></trkpt><trkpt lat="43.603446" lon="11.916793"><ele>886.4999999999999</ele><time>2026-04-18T08:36:55.076Z</time></trkpt><trkpt lat="43.6034132" lon="11.916649"><ele>884.0</ele><time>2026-04-18T08:36:57.076Z</time></trkpt><trkpt lat="43.6033851" lon="11.916564"><ele>881.5</ele><time>2026-04-18T08:36:58.076Z</time></trkpt><trkpt lat="43.6033258" lon="11.9165094"><ele>879.0</ele><time>2026-04-18T08:36:59.076Z</time></trkpt><trkpt lat="43.6032272" lon="11.9163797"><ele>876.4999999999999</ele><time>2026-04-18T08:37:01.077Z</time></trkpt><trkpt lat="43.6031739" lon="11.9163321"><ele>874.0</ele><time>2026-04-18T08:37:02.076Z</time></trkpt><trkpt lat="43.6031158" lon="11.9162969"><ele>873.9999999999999</ele><time>2026-04-18T08:37:03.076Z</time></trkpt><trkpt lat="43.6030568" lon="11.9162426"><ele>874.0</ele><time>2026-04-18T08:37:04.077Z</time></trkpt><trkpt lat="43.6029946" lon="11.9162052"><ele>874.0</ele><time>2026-04-18T08:37:05.076Z</time></trkpt><trkpt lat="43.6028927" lon="11.916146"><ele>874.0</ele><time>2026-04-18T08:37:07.076Z</time></trkpt><trkpt lat="43.6028298" lon="11.9161091"><ele>873.9999999999999</ele><time>2026-04-18T08:37:08.076Z</time></trkpt><trkpt lat="43.6027953" lon="11.9160181"><ele>874.0</ele><time>2026-04-18T08:37:09.076Z</time></trkpt><trkpt lat="43.6027917" lon="11.9158907"><ele>872.4000000000001</ele><time>2026-04-18T08:37:10.076Z</time></trkpt><trkpt lat="43.6027582" lon="11.9157849"><ele>870.8000000000001</ele><time>2026-04-18T08:37:11.076Z</time></trkpt><trkpt lat="43.6027077" lon="11.9156731"><ele>869.1999999999999</ele><time>2026-04-18T08:37:12.076Z</time></trkpt><trkpt lat="43.6026226" lon="11.9156427"><ele>867.5999999999999</ele><time>2026-04-18T08:37:13.076Z</time></trkpt><trkpt lat="43.6025408" lon="11.9156066"><ele>866.0</ele><time>2026-04-18T08:37:14.077Z</time></trkpt><trkpt lat="43.6024201" lon="11.9155428"><ele>866.0000000000001</ele><time>2026-04-18T08:37:16.077Z</time></trkpt><trkpt lat="43.6023805" lon="11.915473"><ele>866.0</ele><time>2026-04-18T08:37:17.076Z</time></trkpt><trkpt lat="43.6024133" lon="11.9153957"><ele>866.0</ele><time>2026-04-18T08:37:18.076Z</time></trkpt><trkpt lat="43.6023413" lon="11.9152671"><ele>866.0</ele><time>2026-04-18T08:37:20.077Z</time></trkpt><trkpt lat="43.6022629" lon="11.9151584"><ele>866.0000000000001</ele><time>2026-04-18T08:37:22.076Z</time></trkpt><trkpt lat="43.6021943" lon="11.9150746"><ele>866.0</ele><time>2026-04-18T08:37:23.076Z</time></trkpt><trkpt lat="43.6020934" lon="11.9150514"><ele>862.4</ele><time>2026-04-18T08:37:25.076Z</time></trkpt><trkpt lat="43.6019657" lon="11.9150194"><ele>858.8</ele><time>2026-04-18T08:37:27.076Z</time></trkpt><trkpt lat="43.6019089" lon="11.9149612"><ele>855.1999999999999</ele><time>2026-04-18T08:37:28.076Z</time></trkpt><trkpt lat="43.6018158" lon="11.9148915"><ele>851.5999999999999</ele><time>2026-04-18T08:37:30.076Z</time></trkpt><trkpt lat="43.6017204" lon="11.9148292"><ele>848.0</ele><time>2026-04-18T08:37:32.076Z</time></trkpt><trkpt lat="43.601644" lon="11.9147612"><ele>848.0000000000001</ele><time>2026-04-18T08:37:34.077Z</time></trkpt><trkpt lat="43.6015832" lon="11.9147035"><ele>848.0</ele><time>2026-04-18T08:37:35.077Z</time></trkpt><trkpt lat="43.6015207" lon="11.91466"><ele>848.0</ele><time>2026-04-18T08:37:36.077Z</time></trkpt><trkpt lat="43.6014589" lon="11.914619"><ele>848.0</ele><time>2026-04-18T08:37:37.077Z</time></trkpt><trkpt lat="43.6013696" lon="11.914588"><ele>848.0000000000001</ele><time>2026-04-18T08:37:39.076Z</time></trkpt><trkpt lat="43.601296" lon="11.9145119"><ele>848.0</ele><time>2026-04-18T08:37:41.076Z</time></trkpt><trkpt lat="43.6012294" lon="11.9144305"><ele>846.5999999999999</ele><time>2026-04-18T08:37:43.076Z</time></trkpt><trkpt lat="43.6011517" lon="11.9143611"><ele>845.1999999999999</ele><time>2026-04-18T08:37:45.077Z</time></trkpt><trkpt lat="43.6010463" lon="11.9143562"><ele>843.8</ele><time>2026-04-18T08:37:47.076Z</time></trkpt><trkpt lat="43.6009742" lon="11.9143145"><ele>842.4</ele><time>2026-04-18T08:37:49.076Z</time></trkpt><trkpt lat="43.6008695" lon="11.9142696"><ele>841.0</ele><time>2026-04-18T08:37:51.077Z</time></trkpt><trkpt lat="43.600795" lon="11.9142435"><ele>840.9999999999999</ele><time>2026-04-18T08:37:53.076Z</time></trkpt><trkpt lat="43.6007043" lon="11.9141982"><ele>841.0</ele><time>2026-04-18T08:37:55.077Z</time></trkpt><trkpt lat="43.6006261" lon="11.9142211"><ele>841.0</ele><time>2026-04-18T08:37:58.076Z</time></trkpt><trkpt lat="43.6005307" lon="11.914193"><ele>841.0</ele><time>2026-04-18T08:38:00.076Z</time></trkpt><trkpt lat="43.6004488" lon="11.9142121"><ele>840.9999999999999</ele><time>2026-04-18T08:38:02.076Z</time></trkpt><trkpt lat="43.6003662" lon="11.91425"><ele>841.0</ele><time>2026-04-18T08:38:04.077Z</time></trkpt><trkpt lat="43.6003053" lon="11.9142747"><ele>838.1666666666666</ele><time>2026-04-18T08:38:05.076Z</time></trkpt><trkpt lat="43.6002223" lon="11.9143134"><ele>835.3333333333333</ele><time>2026-04-18T08:38:07.076Z</time></trkpt><trkpt lat="43.6001557" lon="11.9143475"><ele>832.5</ele><time>2026-04-18T08:38:09.076Z</time></trkpt><trkpt lat="43.6000876" lon="11.9143902"><ele>829.6666666666667</ele><time>2026-04-18T08:38:11.076Z</time></trkpt><trkpt lat="43.6000229" lon="11.9144294"><ele>826.8333333333334</ele><time>2026-04-18T08:38:13.077Z</time></trkpt><trkpt lat="43.5999389" lon="11.9144485"><ele>824.0</ele><time>2026-04-18T08:38:15.076Z</time></trkpt><trkpt lat="43.5998632" lon="11.9144614"><ele>824.0000000000001</ele><time>2026-04-18T08:38:17.076Z</time></trkpt><trkpt lat="43.5997739" lon="11.9144862"><ele>824.0</ele><time>2026-04-18T08:38:19.076Z</time></trkpt><trkpt lat="43.5996864" lon="11.9145093"><ele>824.0</ele><time>2026-04-18T08:38:21.076Z</time></trkpt><trkpt lat="43.5996073" lon="11.9145485"><ele>824.0</ele><time>2026-04-18T08:38:23.076Z</time></trkpt><trkpt lat="43.5995237" lon="11.9145937"><ele>824.0000000000001</ele><time>2026-04-18T08:38:25.076Z</time></trkpt><trkpt lat="43.5994545" lon="11.9145808"><ele>824.0</ele><time>2026-04-18T08:38:27.077Z</time></trkpt><trkpt lat="43.5993843" lon="11.9145721"><ele>820.8571428571428</ele><time>2026-04-18T08:38:29.076Z</time></trkpt><trkpt lat="43.5993026" lon="11.9145806"><ele>817.7142857142857</ele><time>2026-04-18T08:38:33.077Z</time></trkpt><trkpt lat="43.5992295" lon="11.9145733"><ele>814.5714285714286</ele><time>2026-04-18T08:38:37.077Z</time></trkpt><trkpt lat="43.5991625" lon="11.9145614"><ele>811.4285714285713</ele><time>2026-04-18T08:38:40.077Z</time></trkpt><trkpt lat="43.5990896" lon="11.9145558"><ele>808.2857142857143</ele><time>2026-04-18T08:38:43.076Z</time></trkpt><trkpt lat="43.599022" lon="11.914518"><ele>805.1428571428571</ele><time>2026-04-18T08:38:44.076Z</time></trkpt><trkpt lat="43.5989577" lon="11.9144756"><ele>802.0</ele><time>2026-04-18T08:38:46.076Z</time></trkpt><trkpt lat="43.5988841" lon="11.9144396"><ele>801.9999999999999</ele><time>2026-04-18T08:38:48.076Z</time></trkpt><trkpt lat="43.5988018" lon="11.9144137"><ele>802.0</ele><time>2026-04-18T08:38:50.077Z</time></trkpt><trkpt lat="43.5987364" lon="11.914409"><ele>802.0</ele><time>2026-04-18T08:38:53.077Z</time></trkpt><trkpt lat="43.5986759" lon="11.9143702"><ele>802.0</ele><time>2026-04-18T08:38:56.077Z</time></trkpt><trkpt lat="43.598603" lon="11.9143354"><ele>801.9999999999999</ele><time>2026-04-18T08:38:58.076Z</time></trkpt><trkpt lat="43.5984713" lon="11.9142819"><ele>802.0</ele><time>2026-04-18T08:39:00.076Z</time></trkpt><trkpt lat="43.5983721" lon="11.9142661"><ele>798.2</ele><time>2026-04-18T08:39:02.076Z</time></trkpt><trkpt lat="43.5982592" lon="11.9142831"><ele>794.4000000000001</ele><time>2026-04-18T08:39:04.077Z</time></trkpt><trkpt lat="43.5982057" lon="11.9143518"><ele>790.5999999999999</ele><time>2026-04-18T08:39:06.076Z</time></trkpt><trkpt lat="43.5981262" lon="11.9143689"><ele>786.8</ele><time>2026-04-18T08:39:08.076Z</time></trkpt><trkpt lat="43.5980418" lon="11.9144108"><ele>783.0</ele><time>2026-04-18T08:39:10.077Z</time></trkpt><trkpt lat="43.5979315" lon="11.9144602"><ele>778.4</ele><time>2026-04-18T08:39:12.077Z</time></trkpt><trkpt lat="43.5978241" lon="11.9145043"><ele>773.8</ele><time>2026-04-18T08:39:14.076Z</time></trkpt><trkpt lat="43.5977507" lon="11.9145305"><ele>769.2</ele><time>2026-04-18T08:39:17.076Z</time></trkpt><trkpt lat="43.5976601" lon="11.9145901"><ele>764.6</ele><time>2026-04-18T08:39:20.076Z</time></trkpt><trkpt lat="43.5975292" lon="11.914649"><ele>760.0</ele><time>2026-04-18T08:39:22.076Z</time></trkpt><trkpt lat="43.597464" lon="11.9147047"><ele>760.0</ele><time>2026-04-18T08:39:24.076Z</time></trkpt><trkpt lat="43.5973633" lon="11.914769"><ele>760.0</ele><time>2026-04-18T08:39:26.076Z</time></trkpt><trkpt lat="43.5973162" lon="11.9149123"><ele>760.0</ele><time>2026-04-18T08:39:28.076Z</time></trkpt><trkpt lat="43.5972527" lon="11.9150044"><ele>760.0</ele><time>2026-04-18T08:39:30.077Z</time></trkpt><trkpt lat="43.5971729" lon="11.9150921"><ele>760.0</ele><time>2026-04-18T08:39:32.077Z</time></trkpt><trkpt lat="43.5971012" lon="11.9152334"><ele>761.0</ele><time>2026-04-18T08:39:34.077Z</time></trkpt><trkpt lat="43.5970856" lon="11.9153365"><ele>762.0</ele><time>2026-04-18T08:39:35.077Z</time></trkpt><trkpt lat="43.5970823" lon="11.9154412"><ele>763.0</ele><time>2026-04-18T08:39:36.076Z</time></trkpt><trkpt lat="43.5971019" lon="11.9155624"><ele>764.0</ele><time>2026-04-18T08:39:38.076Z</time></trkpt><trkpt lat="43.5970537" lon="11.9156628"><ele>765.0</ele><time>2026-04-18T08:39:40.077Z</time></trkpt><trkpt lat="43.5969239" lon="11.9153672"><ele>765.0</ele><time>2026-04-18T08:39:47.076Z</time></trkpt><trkpt lat="43.5968997" lon="11.9152315"><ele>765.0</ele><time>2026-04-18T08:39:48.077Z</time></trkpt><trkpt lat="43.5968792" lon="11.9151243"><ele>765.0</ele><time>2026-04-18T08:39:49.076Z</time></trkpt><trkpt lat="43.5968807" lon="11.915031"><ele>765.0</ele><time>2026-04-18T08:39:50.077Z</time></trkpt><trkpt lat="43.5969162" lon="11.9148685"><ele>765.0</ele><time>2026-04-18T08:39:52.076Z</time></trkpt><trkpt lat="43.5969366" lon="11.9147448"><ele>764.2</ele><time>2026-04-18T08:39:53.076Z</time></trkpt><trkpt lat="43.5969225" lon="11.9146231"><ele>763.4</ele><time>2026-04-18T08:39:54.076Z</time></trkpt><trkpt lat="43.5969156" lon="11.9144997"><ele>762.5999999999999</ele><time>2026-04-18T08:39:55.076Z</time></trkpt><trkpt lat="43.5968948" lon="11.9143768"><ele>761.8</ele><time>2026-04-18T08:39:56.077Z</time></trkpt><trkpt lat="43.5968654" lon="11.9142289"><ele>761.0</ele><time>2026-04-18T08:39:57.076Z</time></trkpt><trkpt lat="43.5968211" lon="11.9140949"><ele>759.5999999999999</ele><time>2026-04-18T08:39:58.076Z</time></trkpt><trkpt lat="43.5967936" lon="11.9139704"><ele>758.2</ele><time>2026-04-18T08:39:59.076Z</time></trkpt><trkpt lat="43.5967893" lon="11.913869"><ele>756.8</ele><time>2026-04-18T08:40:00.077Z</time></trkpt><trkpt lat="43.5967732" lon="11.9137501"><ele>755.4000000000001</ele><time>2026-04-18T08:40:01.077Z</time></trkpt><trkpt lat="43.5967799" lon="11.9136435"><ele>754.0</ele><time>2026-04-18T08:40:02.077Z</time></trkpt><trkpt lat="43.5967575" lon="11.9134814"><ele>751.4000000000001</ele><time>2026-04-18T08:40:04.076Z</time></trkpt><trkpt lat="43.5967482" lon="11.9133757"><ele>748.8</ele><time>2026-04-18T08:40:05.076Z</time></trkpt><trkpt lat="43.5967192" lon="11.913275"><ele>746.2</ele><time>2026-04-18T08:40:06.076Z</time></trkpt><trkpt lat="43.5966952" lon="11.9131691"><ele>743.5999999999999</ele><time>2026-04-18T08:40:07.076Z</time></trkpt><trkpt lat="43.5966623" lon="11.9130552"><ele>741.0</ele><time>2026-04-18T08:40:08.077Z</time></trkpt><trkpt lat="43.5966085" lon="11.9128934"><ele>741.0</ele><time>2026-04-18T08:40:10.077Z</time></trkpt><trkpt lat="43.5965888" lon="11.912802"><ele>741.0</ele><time>2026-04-18T08:40:11.077Z</time></trkpt><trkpt lat="43.5965629" lon="11.9127186"><ele>741.0</ele><time>2026-04-18T08:40:12.076Z</time></trkpt><trkpt lat="43.5965305" lon="11.9126172"><ele>741.0</ele><time>2026-04-18T08:40:13.076Z</time></trkpt><trkpt lat="43.5964348" lon="11.9125516"><ele>741.0</ele><time>2026-04-18T08:40:15.076Z</time></trkpt><trkpt lat="43.5963534" lon="11.9124589"><ele>741.0</ele><time>2026-04-18T08:40:17.076Z</time></trkpt><trkpt lat="43.5963034" lon="11.9123254"><ele>740.4</ele><time>2026-04-18T08:40:19.076Z</time></trkpt><trkpt lat="43.5962335" lon="11.9121942"><ele>739.8</ele><time>2026-04-18T08:40:21.076Z</time></trkpt><trkpt lat="43.5961586" lon="11.9120603"><ele>739.1999999999999</ele><time>2026-04-18T08:40:23.077Z</time></trkpt><trkpt lat="43.5961132" lon="11.911975"><ele>738.5999999999999</ele><time>2026-04-18T08:40:24.077Z</time></trkpt><trkpt lat="43.5960665" lon="11.9118642"><ele>738.0</ele><time>2026-04-18T08:40:26.076Z</time></trkpt><trkpt lat="43.5960423" lon="11.9117452"><ele>736.4</ele><time>2026-04-18T08:40:28.076Z</time></trkpt><trkpt lat="43.5960062" lon="11.9116462"><ele>734.8</ele><time>2026-04-18T08:40:30.076Z</time></trkpt><trkpt lat="43.5959645" lon="11.9115143"><ele>733.2</ele><time>2026-04-18T08:40:32.076Z</time></trkpt><trkpt lat="43.595894" lon="11.9113851"><ele>731.6</ele><time>2026-04-18T08:40:34.076Z</time></trkpt><trkpt lat="43.5958413" lon="11.9112783"><ele>730.0</ele><time>2026-04-18T08:40:35.076Z</time></trkpt><trkpt lat="43.5957748" lon="11.9111442"><ele>730.0</ele><time>2026-04-18T08:40:37.076Z</time></trkpt><trkpt lat="43.595757" lon="11.9109993"><ele>730.0</ele><time>2026-04-18T08:40:39.076Z</time></trkpt><trkpt lat="43.5957012" lon="11.9108372"><ele>730.0</ele><time>2026-04-18T08:40:41.077Z</time></trkpt><trkpt lat="43.5956699" lon="11.9107313"><ele>730.0</ele><time>2026-04-18T08:40:42.076Z</time></trkpt><trkpt lat="43.5956334" lon="11.9106344"><ele>730.0</ele><time>2026-04-18T08:40:43.076Z</time></trkpt><trkpt lat="43.5956099" lon="11.9105335"><ele>728.6</ele><time>2026-04-18T08:40:44.076Z</time></trkpt><trkpt lat="43.5955804" lon="11.910432"><ele>727.2</ele><time>2026-04-18T08:40:45.076Z</time></trkpt><trkpt lat="43.5955082" lon="11.9103149"><ele>725.8</ele><time>2026-04-18T08:40:47.077Z</time></trkpt><trkpt lat="43.5954242" lon="11.9101529"><ele>724.4</ele><time>2026-04-18T08:40:49.076Z</time></trkpt><trkpt lat="43.5953808" lon="11.9100766"><ele>723.0</ele><time>2026-04-18T08:40:50.077Z</time></trkpt><trkpt lat="43.5953486" lon="11.9099744"><ele>721.6666666666666</ele><time>2026-04-18T08:40:51.076Z</time></trkpt><trkpt lat="43.5953145" lon="11.9098857"><ele>720.3333333333334</ele><time>2026-04-18T08:40:52.077Z</time></trkpt><trkpt lat="43.595248" lon="11.9097646"><ele>719.0</ele><time>2026-04-18T08:40:54.076Z</time></trkpt><trkpt lat="43.5951898" lon="11.9097122"><ele>717.6666666666667</ele><time>2026-04-18T08:40:55.076Z</time></trkpt><trkpt lat="43.595134" lon="11.9096377"><ele>716.3333333333334</ele><time>2026-04-18T08:40:56.076Z</time></trkpt><trkpt lat="43.595131" lon="11.9095442"><ele>715.0</ele><time>2026-04-18T08:40:57.076Z</time></trkpt><trkpt lat="43.5950801" lon="11.9094787"><ele>715.0</ele><time>2026-04-18T08:40:58.076Z</time></trkpt><trkpt lat="43.5950031" lon="11.9093573"><ele>715.0</ele><time>2026-04-18T08:41:00.077Z</time></trkpt><trkpt lat="43.5949436" lon="11.9092372"><ele>715.0</ele><time>2026-04-18T08:41:02.076Z</time></trkpt><trkpt lat="43.5948911" lon="11.9091098"><ele>715.0</ele><time>2026-04-18T08:41:04.076Z</time></trkpt><trkpt lat="43.5947692" lon="11.9090643"><ele>713.2</ele><time>2026-04-18T08:41:06.077Z</time></trkpt><trkpt lat="43.5946242" lon="11.9090678"><ele>711.4</ele><time>2026-04-18T08:41:08.077Z</time></trkpt><trkpt lat="43.5945434" lon="11.909058"><ele>709.5999999999999</ele><time>2026-04-18T08:41:09.077Z</time></trkpt><trkpt lat="43.5944411" lon="11.9089579"><ele>707.8</ele><time>2026-04-18T08:41:11.076Z</time></trkpt><trkpt lat="43.5944081" lon="11.9088396"><ele>706.0</ele><time>2026-04-18T08:41:13.077Z</time></trkpt><trkpt lat="43.5943537" lon="11.9087539"><ele>703.4</ele><time>2026-04-18T08:41:15.077Z</time></trkpt><trkpt lat="43.5942576" lon="11.9086644"><ele>700.8</ele><time>2026-04-18T08:41:17.077Z</time></trkpt><trkpt lat="43.5941619" lon="11.9085483"><ele>698.1999999999999</ele><time>2026-04-18T08:41:19.076Z</time></trkpt><trkpt lat="43.5941226" lon="11.9084658"><ele>695.5999999999999</ele><time>2026-04-18T08:41:20.077Z</time></trkpt><trkpt lat="43.5940946" lon="11.9083016"><ele>693.0</ele><time>2026-04-18T08:41:22.076Z</time></trkpt><trkpt lat="43.5941156" lon="11.9082017"><ele>691.1666666666666</ele><time>2026-04-18T08:41:23.077Z</time></trkpt><trkpt lat="43.594137" lon="11.9081161"><ele>689.3333333333334</ele><time>2026-04-18T08:41:24.077Z</time></trkpt><trkpt lat="43.5941289" lon="11.9079863"><ele>687.5</ele><time>2026-04-18T08:41:26.077Z</time></trkpt><trkpt lat="43.5940595" lon="11.9080107"><ele>685.6666666666667</ele><time>2026-04-18T08:41:27.076Z</time></trkpt><trkpt lat="43.5939657" lon="11.9079304"><ele>683.8333333333334</ele><time>2026-04-18T08:41:29.076Z</time></trkpt><trkpt lat="43.5939135" lon="11.9078811"><ele>682.0</ele><time>2026-04-18T08:41:30.076Z</time></trkpt><trkpt lat="43.5938453" lon="11.9078314"><ele>682.0</ele><time>2026-04-18T08:41:31.077Z</time></trkpt><trkpt lat="43.5937872" lon="11.9077588"><ele>682.0</ele><time>2026-04-18T08:41:32.076Z</time></trkpt><trkpt lat="43.5937265" lon="11.9076902"><ele>682.0</ele><time>2026-04-18T08:41:33.077Z</time></trkpt><trkpt lat="43.5936704" lon="11.9076463"><ele>682.0</ele><time>2026-04-18T08:41:34.076Z</time></trkpt><trkpt lat="43.5935671" lon="11.9075658"><ele>682.0</ele><time>2026-04-18T08:41:36.077Z</time></trkpt><trkpt lat="43.5935235" lon="11.9074856"><ele>682.0</ele><time>2026-04-18T08:41:37.076Z</time></trkpt><trkpt lat="43.5934771" lon="11.9074217"><ele>677.6</ele><time>2026-04-18T08:41:38.076Z</time></trkpt><trkpt lat="43.5933818" lon="11.907289"><ele>673.2</ele><time>2026-04-18T08:41:40.076Z</time></trkpt><trkpt lat="43.5932959" lon="11.907208"><ele>668.8</ele><time>2026-04-18T08:41:42.077Z</time></trkpt><trkpt lat="43.5932002" lon="11.9071322"><ele>664.4</ele><time>2026-04-18T08:41:44.076Z</time></trkpt><trkpt lat="43.5931408" lon="11.907091"><ele>660.0</ele><time>2026-04-18T08:41:45.076Z</time></trkpt><trkpt lat="43.5930311" lon="11.9070424"><ele>660.0</ele><time>2026-04-18T08:41:47.077Z</time></trkpt><trkpt lat="43.5929307" lon="11.9070421"><ele>660.0</ele><time>2026-04-18T08:41:49.077Z</time></trkpt><trkpt lat="43.592832" lon="11.9070387"><ele>660.0</ele><time>2026-04-18T08:41:51.076Z</time></trkpt><trkpt lat="43.5927064" lon="11.9070273"><ele>660.0</ele><time>2026-04-18T08:41:53.076Z</time></trkpt><trkpt lat="43.5926427" lon="11.9070116"><ele>660.0</ele><time>2026-04-18T08:41:54.076Z</time></trkpt><trkpt lat="43.5925646" lon="11.9069816"><ele>655.6</ele><time>2026-04-18T08:41:55.077Z</time></trkpt><trkpt lat="43.5924849" lon="11.9069378"><ele>651.2</ele><time>2026-04-18T08:41:56.076Z</time></trkpt><trkpt lat="43.5923787" lon="11.9068216"><ele>646.8</ele><time>2026-04-18T08:41:58.077Z</time></trkpt><trkpt lat="43.5923522" lon="11.9067175"><ele>642.4</ele><time>2026-04-18T08:41:59.077Z</time></trkpt><trkpt lat="43.5922466" lon="11.9066238"><ele>638.0</ele><time>2026-04-18T08:42:01.077Z</time></trkpt><trkpt lat="43.5922039" lon="11.9065593"><ele>638.0</ele><time>2026-04-18T08:42:02.076Z</time></trkpt><trkpt lat="43.5921503" lon="11.906489"><ele>638.0</ele><time>2026-04-18T08:42:03.076Z</time></trkpt><trkpt lat="43.5920978" lon="11.9063569"><ele>638.0</ele><time>2026-04-18T08:42:05.076Z</time></trkpt><trkpt lat="43.5920335" lon="11.9062115"><ele>638.0</ele><time>2026-04-18T08:42:07.076Z</time></trkpt><trkpt lat="43.5919945" lon="11.9061332"><ele>638.0</ele><time>2026-04-18T08:42:08.077Z</time></trkpt><trkpt lat="43.5919472" lon="11.906048"><ele>632.4</ele><time>2026-04-18T08:42:09.076Z</time></trkpt><trkpt lat="43.5919019" lon="11.9059233"><ele>626.8</ele><time>2026-04-18T08:42:11.077Z</time></trkpt><trkpt lat="43.5918633" lon="11.905845"><ele>621.2</ele><time>2026-04-18T08:42:13.077Z</time></trkpt><trkpt lat="43.5917648" lon="11.9058725"><ele>615.6</ele><time>2026-04-18T08:42:16.076Z</time></trkpt><trkpt lat="43.5916275" lon="11.9059305"><ele>610.0</ele><time>2026-04-18T08:42:18.076Z</time></trkpt><trkpt lat="43.5915566" lon="11.9059807"><ele>610.0</ele><time>2026-04-18T08:42:19.076Z</time></trkpt><trkpt lat="43.5914916" lon="11.9060302"><ele>610.0</ele><time>2026-04-18T08:42:20.076Z</time></trkpt><trkpt lat="43.5914108" lon="11.9061444"><ele>610.0</ele><time>2026-04-18T08:42:22.076Z</time></trkpt><trkpt lat="43.5913195" lon="11.9062383"><ele>610.0</ele><time>2026-04-18T08:42:24.076Z</time></trkpt><trkpt lat="43.5911995" lon="11.9062498"><ele>610.0</ele><time>2026-04-18T08:42:26.076Z</time></trkpt><trkpt lat="43.5910831" lon="11.9062156"><ele>605.6666666666667</ele><time>2026-04-18T08:42:28.077Z</time></trkpt><trkpt lat="43.5910137" lon="11.906173"><ele>601.3333333333334</ele><time>2026-04-18T08:42:30.077Z</time></trkpt><trkpt lat="43.590934" lon="11.9061521"><ele>597.0</ele><time>2026-04-18T08:42:32.077Z</time></trkpt><trkpt lat="43.5908502" lon="11.906097"><ele>592.6666666666666</ele><time>2026-04-18T08:42:34.076Z</time></trkpt><trkpt lat="43.5907989" lon="11.9060434"><ele>588.3333333333333</ele><time>2026-04-18T08:42:35.076Z</time></trkpt><trkpt lat="43.590745" lon="11.9059869"><ele>584.0</ele><time>2026-04-18T08:42:36.076Z</time></trkpt><trkpt lat="43.5906521" lon="11.9059296"><ele>584.7142857142857</ele><time>2026-04-18T08:42:38.076Z</time></trkpt><trkpt lat="43.5906049" lon="11.9058636"><ele>585.4285714285714</ele><time>2026-04-18T08:42:39.076Z</time></trkpt><trkpt lat="43.5905798" lon="11.9057624"><ele>586.1428571428571</ele><time>2026-04-18T08:42:41.077Z</time></trkpt><trkpt lat="43.5905362" lon="11.9056713"><ele>586.8571428571429</ele><time>2026-04-18T08:42:43.076Z</time></trkpt><trkpt lat="43.5904802" lon="11.9056117"><ele>587.5714285714286</ele><time>2026-04-18T08:42:45.076Z</time></trkpt><trkpt lat="43.5904312" lon="11.9055529"><ele>588.2857142857142</ele><time>2026-04-18T08:42:47.076Z</time></trkpt><trkpt lat="43.5903778" lon="11.9054848"><ele>589.0</ele><time>2026-04-18T08:42:50.077Z</time></trkpt><trkpt lat="43.5903256" lon="11.9054187"><ele>586.0</ele><time>2026-04-18T08:42:52.077Z</time></trkpt><trkpt lat="43.5902594" lon="11.905338"><ele>583.0</ele><time>2026-04-18T08:42:55.076Z</time></trkpt><trkpt lat="43.5902012" lon="11.9052918"><ele>580.0</ele><time>2026-04-18T08:42:57.077Z</time></trkpt><trkpt lat="43.5901206" lon="11.9052169"><ele>577.0</ele><time>2026-04-18T08:43:01.076Z</time></trkpt><trkpt lat="43.5900556" lon="11.905169"><ele>574.0</ele><time>2026-04-18T08:43:03.076Z</time></trkpt><trkpt lat="43.5899767" lon="11.9051144"><ele>571.0</ele><time>2026-04-18T08:43:06.076Z</time></trkpt><trkpt lat="43.5898981" lon="11.9050855"><ele>570.3333333333334</ele><time>2026-04-18T08:43:09.076Z</time></trkpt><trkpt lat="43.5898208" lon="11.9050558"><ele>569.6666666666667</ele><time>2026-04-18T08:43:11.076Z</time></trkpt><trkpt lat="43.5897399" lon="11.9050137"><ele>569.0</ele><time>2026-04-18T08:43:13.077Z</time></trkpt><trkpt lat="43.5896769" lon="11.905004"><ele>568.3333333333334</ele><time>2026-04-18T08:43:14.076Z</time></trkpt><trkpt lat="43.5895761" lon="11.9050039"><ele>567.6666666666666</ele><time>2026-04-18T08:43:16.076Z</time></trkpt><trkpt lat="43.5894744" lon="11.9049819"><ele>567.0</ele><time>2026-04-18T08:43:18.076Z</time></trkpt><trkpt lat="43.5893773" lon="11.9048962"><ele>564.4</ele><time>2026-04-18T08:43:20.076Z</time></trkpt><trkpt lat="43.5892682" lon="11.9048514"><ele>561.8000000000001</ele><time>2026-04-18T08:43:22.076Z</time></trkpt><trkpt lat="43.5891514" lon="11.9048396"><ele>559.2</ele><time>2026-04-18T08:43:24.077Z</time></trkpt><trkpt lat="43.5890634" lon="11.9048901"><ele>556.6</ele><time>2026-04-18T08:43:26.076Z</time></trkpt><trkpt lat="43.5889734" lon="11.9049669"><ele>554.0</ele><time>2026-04-18T08:43:28.076Z</time></trkpt><trkpt lat="43.5888667" lon="11.9050325"><ele>554.0</ele><time>2026-04-18T08:43:30.077Z</time></trkpt><trkpt lat="43.5887615" lon="11.905087"><ele>554.0</ele><time>2026-04-18T08:43:32.076Z</time></trkpt><trkpt lat="43.5887027" lon="11.9051331"><ele>554.0</ele><time>2026-04-18T08:43:34.076Z</time></trkpt><trkpt lat="43.5886277" lon="11.9051483"><ele>554.0</ele><time>2026-04-18T08:43:37.076Z</time></trkpt><trkpt lat="43.5885335" lon="11.9051006"><ele>554.0</ele><time>2026-04-18T08:43:41.076Z</time></trkpt><trkpt lat="43.5884606" lon="11.9050702"><ele>554.0</ele><time>2026-04-18T08:43:42.076Z</time></trkpt><trkpt lat="43.5883933" lon="11.9050526"><ele>552.3333333333333</ele><time>2026-04-18T08:43:43.076Z</time></trkpt><trkpt lat="43.5883149" lon="11.9050258"><ele>550.6666666666666</ele><time>2026-04-18T08:43:44.076Z</time></trkpt><trkpt lat="43.5882358" lon="11.9049926"><ele>549.0</ele><time>2026-04-18T08:43:45.076Z</time></trkpt><trkpt lat="43.5881606" lon="11.9049699"><ele>547.3333333333334</ele><time>2026-04-18T08:43:46.076Z</time></trkpt><trkpt lat="43.5880779" lon="11.9049473"><ele>545.6666666666667</ele><time>2026-04-18T08:43:47.076Z</time></trkpt><trkpt lat="43.5879961" lon="11.9049291"><ele>544.0</ele><time>2026-04-18T08:43:48.076Z</time></trkpt><trkpt lat="43.5879171" lon="11.9049094"><ele>545.0</ele><time>2026-04-18T08:43:49.076Z</time></trkpt><trkpt lat="43.5878396" lon="11.9048966"><ele>546.0</ele><time>2026-04-18T08:43:50.077Z</time></trkpt><trkpt lat="43.5877576" lon="11.9048895"><ele>547.0</ele><time>2026-04-18T08:43:51.076Z</time></trkpt><trkpt lat="43.587681" lon="11.9048779"><ele>548.0</ele><time>2026-04-18T08:43:52.077Z</time></trkpt><trkpt lat="43.5876024" lon="11.9048627"><ele>549.0</ele><time>2026-04-18T08:43:53.076Z</time></trkpt><trkpt lat="43.5875305" lon="11.9047929"><ele>550.0</ele><time>2026-04-18T08:43:54.077Z</time></trkpt><trkpt lat="43.5874707" lon="11.9047287"><ele>550.0</ele><time>2026-04-18T08:43:55.076Z</time></trkpt><trkpt lat="43.5874078" lon="11.9046548"><ele>550.0</ele><time>2026-04-18T08:43:56.076Z</time></trkpt><trkpt lat="43.5873421" lon="11.9045915"><ele>550.0</ele><time>2026-04-18T08:43:57.076Z</time></trkpt><trkpt lat="43.5872727" lon="11.904524"><ele>550.0</ele><time>2026-04-18T08:43:58.077Z</time></trkpt><trkpt lat="43.5871864" lon="11.9045282"><ele>550.0</ele><time>2026-04-18T08:43:59.076Z</time></trkpt><trkpt lat="43.587092" lon="11.9045103"><ele>550.0</ele><time>2026-04-18T08:44:00.077Z</time></trkpt><trkpt lat="43.5869984" lon="11.9045064"><ele>551.2</ele><time>2026-04-18T08:44:01.076Z</time></trkpt><trkpt lat="43.586907" lon="11.9044994"><ele>552.4</ele><time>2026-04-18T08:44:02.076Z</time></trkpt><trkpt lat="43.5868027" lon="11.9045221"><ele>553.6</ele><time>2026-04-18T08:44:03.077Z</time></trkpt><trkpt lat="43.5866945" lon="11.904563"><ele>554.8</ele><time>2026-04-18T08:44:04.076Z</time></trkpt><trkpt lat="43.5865921" lon="11.9045986"><ele>556.0</ele><time>2026-04-18T08:44:05.077Z</time></trkpt><trkpt lat="43.5864992" lon="11.9046289"><ele>556.0</ele><time>2026-04-18T08:44:06.076Z</time></trkpt><trkpt lat="43.5864018" lon="11.9046352"><ele>556.0</ele><time>2026-04-18T08:44:07.076Z</time></trkpt><trkpt lat="43.5863072" lon="11.9046367"><ele>556.0</ele><time>2026-04-18T08:44:08.077Z</time></trkpt><trkpt lat="43.5862173" lon="11.9046336"><ele>556.0</ele><time>2026-04-18T08:44:09.076Z</time></trkpt><trkpt lat="43.5861281" lon="11.9046241"><ele>556.0</ele><time>2026-04-18T08:44:10.076Z</time></trkpt><trkpt lat="43.5860496" lon="11.9046126"><ele>555.6666666666667</ele><time>2026-04-18T08:44:11.076Z</time></trkpt><trkpt lat="43.5859844" lon="11.9045846"><ele>555.3333333333334</ele><time>2026-04-18T08:44:12.077Z</time></trkpt><trkpt lat="43.5858738" lon="11.9044879"><ele>555.0</ele><time>2026-04-18T08:44:14.077Z</time></trkpt><trkpt lat="43.5858195" lon="11.9044043"><ele>554.6666666666666</ele><time>2026-04-18T08:44:15.077Z</time></trkpt><trkpt lat="43.585771" lon="11.9043233"><ele>554.3333333333333</ele><time>2026-04-18T08:44:16.076Z</time></trkpt><trkpt lat="43.5857607" lon="11.904227"><ele>554.0</ele><time>2026-04-18T08:44:17.076Z</time></trkpt><trkpt lat="43.5857858" lon="11.9040538"><ele>554.0</ele><time>2026-04-18T08:44:18.077Z</time></trkpt><trkpt lat="43.5857386" lon="11.9039432"><ele>554.0</ele><time>2026-04-18T08:44:19.076Z</time></trkpt><trkpt lat="43.5856795" lon="11.9038367"><ele>554.0</ele><time>2026-04-18T08:44:20.076Z</time></trkpt><trkpt lat="43.5855877" lon="11.9037313"><ele>554.0</ele><time>2026-04-18T08:44:21.077Z</time></trkpt><trkpt lat="43.5854756" lon="11.903623"><ele>554.0</ele><time>2026-04-18T08:44:22.076Z</time></trkpt><trkpt lat="43.5853259" lon="11.9034784"><ele>555.75</ele><time>2026-04-18T08:44:23.077Z</time></trkpt><trkpt lat="43.5851902" lon="11.903355"><ele>557.5</ele><time>2026-04-18T08:44:24.076Z</time></trkpt><trkpt lat="43.5850665" lon="11.9032414"><ele>559.25</ele><time>2026-04-18T08:44:25.076Z</time></trkpt><trkpt lat="43.5849555" lon="11.903138"><ele>561.0</ele><time>2026-04-18T08:44:26.076Z</time></trkpt><trkpt lat="43.5848454" lon="11.9030501"><ele>561.0</ele><time>2026-04-18T08:44:27.076Z</time></trkpt><trkpt lat="43.5847405" lon="11.9029843"><ele>561.0</ele><time>2026-04-18T08:44:28.077Z</time></trkpt><trkpt lat="43.5846303" lon="11.9030031"><ele>561.0</ele><time>2026-04-18T08:44:29.077Z</time></trkpt><trkpt lat="43.5844928" lon="11.9031421"><ele>561.0</ele><time>2026-04-18T08:44:30.076Z</time></trkpt><trkpt lat="43.5843486" lon="11.9032"><ele>564.6666666666666</ele><time>2026-04-18T08:44:31.076Z</time></trkpt><trkpt lat="43.584193" lon="11.9032845"><ele>568.3333333333333</ele><time>2026-04-18T08:44:32.076Z</time></trkpt><trkpt lat="43.5839988" lon="11.9033497"><ele>572.0</ele><time>2026-04-18T08:44:33.077Z</time></trkpt><trkpt lat="43.5838034" lon="11.9033899"><ele>577.3333333333333</ele><time>2026-04-18T08:44:34.076Z</time></trkpt><trkpt lat="43.5835913" lon="11.90344"><ele>582.6666666666666</ele><time>2026-04-18T08:44:35.076Z</time></trkpt><trkpt lat="43.5834146" lon="11.9035128"><ele>588.0</ele><time>2026-04-18T08:44:36.077Z</time></trkpt><trkpt lat="43.5832574" lon="11.9035706"><ele>588.0</ele><time>2026-04-18T08:44:37.076Z</time></trkpt><trkpt lat="43.5831073" lon="11.9036364"><ele>588.0</ele><time>2026-04-18T08:44:38.077Z</time></trkpt><trkpt lat="43.5829575" lon="11.9037327"><ele>588.0</ele><time>2026-04-18T08:44:39.077Z</time></trkpt><trkpt lat="43.5828126" lon="11.9038404"><ele>586.5</ele><time>2026-04-18T08:44:40.077Z</time></trkpt><trkpt lat="43.5826831" lon="11.9039408"><ele>585.0</ele><time>2026-04-18T08:44:41.076Z</time></trkpt><trkpt lat="43.5825709" lon="11.9040244"><ele>583.5</ele><time>2026-04-18T08:44:42.076Z</time></trkpt><trkpt lat="43.5824702" lon="11.9040999"><ele>582.0</ele><time>2026-04-18T08:44:43.077Z</time></trkpt><trkpt lat="43.5823762" lon="11.9041698"><ele>582.0</ele><time>2026-04-18T08:44:44.076Z</time></trkpt><trkpt lat="43.5822954" lon="11.904224"><ele>582.0</ele><time>2026-04-18T08:44:45.076Z</time></trkpt><trkpt lat="43.5822253" lon="11.9042699"><ele>582.0</ele><time>2026-04-18T08:44:46.077Z</time></trkpt><trkpt lat="43.5821678" lon="11.904313"><ele>582.0</ele><time>2026-04-18T08:44:47.077Z</time></trkpt><trkpt lat="43.5821076" lon="11.9044315"><ele>582.0</ele><time>2026-04-18T08:44:49.076Z</time></trkpt><trkpt lat="43.5820195" lon="11.9043517"><ele>582.0</ele><time>2026-04-18T08:45:14.076Z</time></trkpt><trkpt lat="43.5819679" lon="11.9042648"><ele>581.5</ele><time>2026-04-18T08:45:15.077Z</time></trkpt><trkpt lat="43.5819034" lon="11.9041971"><ele>581.0</ele><time>2026-04-18T08:45:16.077Z</time></trkpt><trkpt lat="43.5818229" lon="11.9041288"><ele>580.5</ele><time>2026-04-18T08:45:17.077Z</time></trkpt><trkpt lat="43.581742" lon="11.9040666"><ele>580.0</ele><time>2026-04-18T08:45:18.076Z</time></trkpt><trkpt lat="43.5816678" lon="11.9040212"><ele>579.5</ele><time>2026-04-18T08:45:19.077Z</time></trkpt><trkpt lat="43.5815783" lon="11.9039754"><ele>579.0</ele><time>2026-04-18T08:45:20.076Z</time></trkpt><trkpt lat="43.5814631" lon="11.9039457"><ele>579.0</ele><time>2026-04-18T08:45:21.077Z</time></trkpt><trkpt lat="43.581336" lon="11.9039118"><ele>579.0</ele><time>2026-04-18T08:45:22.076Z</time></trkpt><trkpt lat="43.5812279" lon="11.9038652"><ele>579.0</ele><time>2026-04-18T08:45:23.076Z</time></trkpt><trkpt lat="43.5811497" lon="11.9037833"><ele>579.0</ele><time>2026-04-18T08:45:24.077Z</time></trkpt><trkpt lat="43.5810675" lon="11.9036715"><ele>579.5</ele><time>2026-04-18T08:45:25.077Z</time></trkpt><trkpt lat="43.5809825" lon="11.9034999"><ele>580.0</ele><time>2026-04-18T08:45:26.076Z</time></trkpt><trkpt lat="43.5808826" lon="11.9033595"><ele>580.5</ele><time>2026-04-18T08:45:27.077Z</time></trkpt><trkpt lat="43.5807914" lon="11.9032436"><ele>581.0</ele><time>2026-04-18T08:45:28.076Z</time></trkpt><trkpt lat="43.5807192" lon="11.9031607"><ele>581.0</ele><time>2026-04-18T08:45:29.077Z</time></trkpt><trkpt lat="43.5806265" lon="11.9030845"><ele>581.0</ele><time>2026-04-18T08:45:30.076Z</time></trkpt><trkpt lat="43.5805209" lon="11.9030371"><ele>581.0</ele><time>2026-04-18T08:45:31.076Z</time></trkpt><trkpt lat="43.5804063" lon="11.9030129"><ele>581.0</ele><time>2026-04-18T08:45:32.077Z</time></trkpt><trkpt lat="43.5803" lon="11.9029935"><ele>581.0</ele><time>2026-04-18T08:45:33.077Z</time></trkpt><trkpt lat="43.5802135" lon="11.9029714"><ele>581.8</ele><time>2026-04-18T08:45:34.076Z</time></trkpt><trkpt lat="43.5801526" lon="11.9029268"><ele>582.6</ele><time>2026-04-18T08:45:35.076Z</time></trkpt><trkpt lat="43.5800964" lon="11.9028229"><ele>583.4</ele><time>2026-04-18T08:45:37.076Z</time></trkpt><trkpt lat="43.5801297" lon="11.902674"><ele>584.2</ele><time>2026-04-18T08:45:39.076Z</time></trkpt><trkpt lat="43.5802088" lon="11.9025549"><ele>585.0</ele><time>2026-04-18T08:45:41.076Z</time></trkpt><trkpt lat="43.5802736" lon="11.9024378"><ele>585.8</ele><time>2026-04-18T08:45:43.076Z</time></trkpt><trkpt lat="43.5802762" lon="11.9023381"><ele>586.6</ele><time>2026-04-18T08:45:44.077Z</time></trkpt><trkpt lat="43.5802509" lon="11.9021618"><ele>587.4</ele><time>2026-04-18T08:45:46.076Z</time></trkpt><trkpt lat="43.5801979" lon="11.9019667"><ele>588.2</ele><time>2026-04-18T08:45:48.076Z</time></trkpt><trkpt lat="43.5801864" lon="11.9018553"><ele>589.0</ele><time>2026-04-18T08:45:49.077Z</time></trkpt><trkpt lat="43.5801828" lon="11.9017317"><ele>589.0</ele><time>2026-04-18T08:45:50.076Z</time></trkpt><trkpt lat="43.5801774" lon="11.9015728"><ele>589.0</ele><time>2026-04-18T08:45:51.076Z</time></trkpt><trkpt lat="43.5801854" lon="11.9014699"><ele>589.0</ele><time>2026-04-18T08:45:52.076Z</time></trkpt><trkpt lat="43.5801886" lon="11.9013486"><ele>589.0</ele><time>2026-04-18T08:45:53.077Z</time></trkpt><trkpt lat="43.5801891" lon="11.9012518"><ele>589.0</ele><time>2026-04-18T08:45:54.076Z</time></trkpt><trkpt lat="43.5801624" lon="11.9011055"><ele>589.0</ele><time>2026-04-18T08:45:56.076Z</time></trkpt><trkpt lat="43.580089" lon="11.9009772"><ele>589.0</ele><time>2026-04-18T08:45:58.076Z</time></trkpt><trkpt lat="43.5800704" lon="11.9008234"><ele>589.0</ele><time>2026-04-18T08:46:00.076Z</time></trkpt><trkpt lat="43.5801329" lon="11.9005684"><ele>589.0</ele><time>2026-04-18T08:46:03.077Z</time></trkpt><trkpt lat="43.5802159" lon="11.9004983"><ele>587.8333333333334</ele><time>2026-04-18T08:46:04.076Z</time></trkpt><trkpt lat="43.5802712" lon="11.9004244"><ele>586.6666666666667</ele><time>2026-04-18T08:46:05.076Z</time></trkpt><trkpt lat="43.5803492" lon="11.9003544"><ele>585.5</ele><time>2026-04-18T08:46:06.077Z</time></trkpt><trkpt lat="43.5803996" lon="11.9002784"><ele>584.3333333333334</ele><time>2026-04-18T08:46:07.077Z</time></trkpt><trkpt lat="43.5804381" lon="11.9002042"><ele>583.1666666666666</ele><time>2026-04-18T08:46:08.077Z</time></trkpt><trkpt lat="43.5804596" lon="11.9000803"><ele>582.0</ele><time>2026-04-18T08:46:09.076Z</time></trkpt><trkpt lat="43.5805082" lon="11.8999793"><ele>578.6</ele><time>2026-04-18T08:46:10.076Z</time></trkpt><trkpt lat="43.5805534" lon="11.8998634"><ele>575.2</ele><time>2026-04-18T08:46:11.076Z</time></trkpt><trkpt lat="43.580648" lon="11.8998439"><ele>571.8</ele><time>2026-04-18T08:46:12.077Z</time></trkpt><trkpt lat="43.5807136" lon="11.8997441"><ele>568.4</ele><time>2026-04-18T08:46:13.077Z</time></trkpt><trkpt lat="43.5807068" lon="11.8996241"><ele>565.0</ele><time>2026-04-18T08:46:14.077Z</time></trkpt><trkpt lat="43.5807242" lon="11.8995218"><ele>565.0</ele><time>2026-04-18T08:46:15.077Z</time></trkpt><trkpt lat="43.5807545" lon="11.899415"><ele>565.0</ele><time>2026-04-18T08:46:16.077Z</time></trkpt><trkpt lat="43.5807976" lon="11.8993133"><ele>565.0</ele><time>2026-04-18T08:46:17.076Z</time></trkpt><trkpt lat="43.5808433" lon="11.8992118"><ele>565.0</ele><time>2026-04-18T08:46:18.077Z</time></trkpt><trkpt lat="43.5809449" lon="11.8990473"><ele>565.0</ele><time>2026-04-18T08:46:20.076Z</time></trkpt><trkpt lat="43.5809918" lon="11.8989826"><ele>564.4</ele><time>2026-04-18T08:46:21.077Z</time></trkpt><trkpt lat="43.5811014" lon="11.8989896"><ele>563.8</ele><time>2026-04-18T08:46:23.077Z</time></trkpt><trkpt lat="43.581159" lon="11.8989486"><ele>563.2</ele><time>2026-04-18T08:46:24.077Z</time></trkpt><trkpt lat="43.581247" lon="11.8988349"><ele>562.6</ele><time>2026-04-18T08:46:26.076Z</time></trkpt><trkpt lat="43.5812579" lon="11.8987153"><ele>562.0</ele><time>2026-04-18T08:46:28.077Z</time></trkpt><trkpt lat="43.5811736" lon="11.8986201"><ele>562.0</ele><time>2026-04-18T08:46:31.077Z</time></trkpt><trkpt lat="43.5811007" lon="11.8985648"><ele>562.0</ele><time>2026-04-18T08:46:32.077Z</time></trkpt><trkpt lat="43.5810442" lon="11.8985214"><ele>562.0</ele><time>2026-04-18T08:46:33.076Z</time></trkpt><trkpt lat="43.5809789" lon="11.8984585"><ele>562.0</ele><time>2026-04-18T08:46:34.077Z</time></trkpt><trkpt lat="43.580933" lon="11.8983721"><ele>562.0</ele><time>2026-04-18T08:46:35.076Z</time></trkpt><trkpt lat="43.5808789" lon="11.89829"><ele>562.0</ele><time>2026-04-18T08:46:36.076Z</time></trkpt><trkpt lat="43.5808089" lon="11.8981364"><ele>559.2</ele><time>2026-04-18T08:46:38.077Z</time></trkpt><trkpt lat="43.5807728" lon="11.8979825"><ele>556.4000000000001</ele><time>2026-04-18T08:46:39.077Z</time></trkpt><trkpt lat="43.5807479" lon="11.897886"><ele>553.5999999999999</ele><time>2026-04-18T08:46:40.076Z</time></trkpt><trkpt lat="43.5806553" lon="11.8977843"><ele>550.8</ele><time>2026-04-18T08:46:42.077Z</time></trkpt><trkpt lat="43.5805464" lon="11.897684"><ele>548.0</ele><time>2026-04-18T08:46:44.077Z</time></trkpt><trkpt lat="43.5804539" lon="11.8975738"><ele>548.1666666666666</ele><time>2026-04-18T08:46:46.077Z</time></trkpt><trkpt lat="43.5804139" lon="11.897453"><ele>548.3333333333333</ele><time>2026-04-18T08:46:47.077Z</time></trkpt><trkpt lat="43.5803662" lon="11.8973665"><ele>548.5</ele><time>2026-04-18T08:46:48.076Z</time></trkpt><trkpt lat="43.5803165" lon="11.8972537"><ele>548.6666666666666</ele><time>2026-04-18T08:46:49.077Z</time></trkpt><trkpt lat="43.5802659" lon="11.8971422"><ele>548.8333333333334</ele><time>2026-04-18T08:46:50.076Z</time></trkpt><trkpt lat="43.5802228" lon="11.8970441"><ele>549.0</ele><time>2026-04-18T08:46:51.077Z</time></trkpt><trkpt lat="43.5801627" lon="11.8969038"><ele>549.0</ele><time>2026-04-18T08:46:53.076Z</time></trkpt><trkpt lat="43.580136" lon="11.8967606"><ele>549.0</ele><time>2026-04-18T08:46:55.076Z</time></trkpt><trkpt lat="43.5801721" lon="11.8966078"><ele>549.0</ele><time>2026-04-18T08:46:57.076Z</time></trkpt><trkpt lat="43.5801946" lon="11.8964421"><ele>549.0</ele><time>2026-04-18T08:46:59.077Z</time></trkpt><trkpt lat="43.5802045" lon="11.8963542"><ele>549.0</ele><time>2026-04-18T08:47:00.076Z</time></trkpt><trkpt lat="43.5802366" lon="11.8962175"><ele>547.0</ele><time>2026-04-18T08:47:02.077Z</time></trkpt><trkpt lat="43.5802226" lon="11.896109"><ele>545.0</ele><time>2026-04-18T08:47:04.077Z</time></trkpt><trkpt lat="43.5802156" lon="11.8959748"><ele>543.0</ele><time>2026-04-18T08:47:06.077Z</time></trkpt><trkpt lat="43.580202" lon="11.8958788"><ele>541.0</ele><time>2026-04-18T08:47:07.076Z</time></trkpt><trkpt lat="43.5801858" lon="11.8957874"><ele>539.0</ele><time>2026-04-18T08:47:08.076Z</time></trkpt><trkpt lat="43.5801459" lon="11.8956572"><ele>537.0</ele><time>2026-04-18T08:47:09.077Z</time></trkpt><trkpt lat="43.5801234" lon="11.895532"><ele>535.6666666666666</ele><time>2026-04-18T08:47:10.076Z</time></trkpt><trkpt lat="43.5800951" lon="11.8954361"><ele>534.3333333333334</ele><time>2026-04-18T08:47:11.077Z</time></trkpt><trkpt lat="43.5800567" lon="11.8953314"><ele>533.0</ele><time>2026-04-18T08:47:12.077Z</time></trkpt><trkpt lat="43.5800126" lon="11.8952209"><ele>531.6666666666667</ele><time>2026-04-18T08:47:13.076Z</time></trkpt><trkpt lat="43.580025" lon="11.8951085"><ele>530.3333333333334</ele><time>2026-04-18T08:47:15.076Z</time></trkpt><trkpt lat="43.5800408" lon="11.8950237"><ele>529.0</ele><time>2026-04-18T08:47:16.076Z</time></trkpt><trkpt lat="43.5800535" lon="11.894884"><ele>527.2</ele><time>2026-04-18T08:47:18.076Z</time></trkpt><trkpt lat="43.58002" lon="11.8947675"><ele>525.4</ele><time>2026-04-18T08:47:19.076Z</time></trkpt><trkpt lat="43.5800202" lon="11.8946208"><ele>523.6</ele><time>2026-04-18T08:47:21.076Z</time></trkpt><trkpt lat="43.5799825" lon="11.894517"><ele>521.8</ele><time>2026-04-18T08:47:23.076Z</time></trkpt><trkpt lat="43.579883" lon="11.8944213"><ele>520.0</ele><time>2026-04-18T08:47:25.076Z</time></trkpt><trkpt lat="43.5798215" lon="11.8943689"><ele>520.0</ele><time>2026-04-18T08:47:26.076Z</time></trkpt><trkpt lat="43.5797063" lon="11.8942844"><ele>520.0</ele><time>2026-04-18T08:47:28.076Z</time></trkpt><trkpt lat="43.579609" lon="11.8942129"><ele>520.0</ele><time>2026-04-18T08:47:30.076Z</time></trkpt><trkpt lat="43.5795421" lon="11.8941805"><ele>520.0</ele><time>2026-04-18T08:47:31.076Z</time></trkpt><trkpt lat="43.5793612" lon="11.8942171"><ele>521.0</ele><time>2026-04-18T08:47:33.077Z</time></trkpt><trkpt lat="43.5793001" lon="11.8942797"><ele>522.0</ele><time>2026-04-18T08:47:34.077Z</time></trkpt><trkpt lat="43.5792256" lon="11.8943401"><ele>523.0</ele><time>2026-04-18T08:47:35.076Z</time></trkpt><trkpt lat="43.5791414" lon="11.8944152"><ele>524.0</ele><time>2026-04-18T08:47:36.076Z</time></trkpt><trkpt lat="43.5790609" lon="11.8944676"><ele>525.0</ele><time>2026-04-18T08:47:37.077Z</time></trkpt><trkpt lat="43.5789986" lon="11.8945271"><ele>526.0</ele><time>2026-04-18T08:47:38.076Z</time></trkpt><trkpt lat="43.5789262" lon="11.894572"><ele>526.0</ele><time>2026-04-18T08:47:39.076Z</time></trkpt><trkpt lat="43.5788531" lon="11.8945465"><ele>526.0</ele><time>2026-04-18T08:47:40.076Z</time></trkpt><trkpt lat="43.5787489" lon="11.8944926"><ele>526.0</ele><time>2026-04-18T08:47:42.076Z</time></trkpt><trkpt lat="43.578674" lon="11.8944583"><ele>526.0</ele><time>2026-04-18T08:47:43.076Z</time></trkpt><trkpt lat="43.5786005" lon="11.8943985"><ele>526.0</ele><time>2026-04-18T08:47:45.077Z</time></trkpt><trkpt lat="43.5785171" lon="11.8943662"><ele>526.0</ele><time>2026-04-18T08:47:47.076Z</time></trkpt><trkpt lat="43.5784122" lon="11.8943497"><ele>526.2</ele><time>2026-04-18T08:47:50.077Z</time></trkpt><trkpt lat="43.5783097" lon="11.8943618"><ele>526.4000000000001</ele><time>2026-04-18T08:47:53.076Z</time></trkpt><trkpt lat="43.5781823" lon="11.8943529"><ele>526.6</ele><time>2026-04-18T08:47:55.076Z</time></trkpt><trkpt lat="43.5781153" lon="11.8943656"><ele>526.8000000000001</ele><time>2026-04-18T08:47:56.076Z</time></trkpt><trkpt lat="43.5779802" lon="11.8943782"><ele>527.0</ele><time>2026-04-18T08:47:58.077Z</time></trkpt><trkpt lat="43.5778911" lon="11.8943902"><ele>525.1666666666666</ele><time>2026-04-18T08:47:59.077Z</time></trkpt><trkpt lat="43.5778139" lon="11.8944284"><ele>523.3333333333333</ele><time>2026-04-18T08:48:00.076Z</time></trkpt><trkpt lat="43.5777349" lon="11.8944755"><ele>521.5</ele><time>2026-04-18T08:48:01.077Z</time></trkpt><trkpt lat="43.5776715" lon="11.8945249"><ele>519.6666666666666</ele><time>2026-04-18T08:48:02.076Z</time></trkpt><trkpt lat="43.5776192" lon="11.8945735"><ele>517.8333333333334</ele><time>2026-04-18T08:48:03.077Z</time></trkpt><trkpt lat="43.5775248" lon="11.8946229"><ele>516.0</ele><time>2026-04-18T08:48:05.076Z</time></trkpt><trkpt lat="43.5774538" lon="11.8946462"><ele>516.0</ele><time>2026-04-18T08:48:07.077Z</time></trkpt><trkpt lat="43.5773563" lon="11.8947254"><ele>516.0</ele><time>2026-04-18T08:48:09.076Z</time></trkpt><trkpt lat="43.5773284" lon="11.8948279"><ele>516.0</ele><time>2026-04-18T08:48:10.077Z</time></trkpt><trkpt lat="43.5772673" lon="11.8949715"><ele>516.0</ele><time>2026-04-18T08:48:12.076Z</time></trkpt><trkpt lat="43.5771813" lon="11.8950328"><ele>516.0</ele><time>2026-04-18T08:48:13.076Z</time></trkpt><trkpt lat="43.5771307" lon="11.8951192"><ele>516.2857142857142</ele><time>2026-04-18T08:48:14.077Z</time></trkpt><trkpt lat="43.5770716" lon="11.8951998"><ele>516.5714285714286</ele><time>2026-04-18T08:48:15.076Z</time></trkpt><trkpt lat="43.5770302" lon="11.895266"><ele>516.8571428571429</ele><time>2026-04-18T08:48:16.076Z</time></trkpt><trkpt lat="43.5769845" lon="11.8953278"><ele>517.1428571428571</ele><time>2026-04-18T08:48:17.076Z</time></trkpt><trkpt lat="43.5768968" lon="11.895389"><ele>517.4285714285714</ele><time>2026-04-18T08:48:19.076Z</time></trkpt><trkpt lat="43.5768374" lon="11.8954264"><ele>517.7142857142857</ele><time>2026-04-18T08:48:20.076Z</time></trkpt><trkpt lat="43.5767685" lon="11.8954385"><ele>518.0</ele><time>2026-04-18T08:48:21.076Z</time></trkpt><trkpt lat="43.5766775" lon="11.8954164"><ele>518.0</ele><time>2026-04-18T08:48:22.076Z</time></trkpt><trkpt lat="43.5766026" lon="11.8954349"><ele>518.0</ele><time>2026-04-18T08:48:23.077Z</time></trkpt><trkpt lat="43.5765359" lon="11.8954303"><ele>518.0</ele><time>2026-04-18T08:48:24.077Z</time></trkpt><trkpt lat="43.5764614" lon="11.8954475"><ele>518.0</ele><time>2026-04-18T08:48:25.077Z</time></trkpt><trkpt lat="43.5763907" lon="11.895479"><ele>518.0</ele><time>2026-04-18T08:48:26.076Z</time></trkpt><trkpt lat="43.5762959" lon="11.8954813"><ele>518.0</ele><time>2026-04-18T08:48:27.076Z</time></trkpt><trkpt lat="43.5762243" lon="11.8954795"><ele>518.3333333333333</ele><time>2026-04-18T08:48:28.077Z</time></trkpt><trkpt lat="43.5761574" lon="11.8954658"><ele>518.6666666666666</ele><time>2026-04-18T08:48:29.077Z</time></trkpt><trkpt lat="43.5760931" lon="11.8954789"><ele>519.0</ele><time>2026-04-18T08:48:30.077Z</time></trkpt><trkpt lat="43.5760168" lon="11.8954757"><ele>519.3333333333334</ele><time>2026-04-18T08:48:31.076Z</time></trkpt><trkpt lat="43.5759258" lon="11.8954492"><ele>519.6666666666667</ele><time>2026-04-18T08:48:32.077Z</time></trkpt><trkpt lat="43.5758508" lon="11.8954465"><ele>520.0</ele><time>2026-04-18T08:48:33.076Z</time></trkpt><trkpt lat="43.5757701" lon="11.8954344"><ele>520.0</ele><time>2026-04-18T08:48:34.076Z</time></trkpt><trkpt lat="43.575682" lon="11.8954233"><ele>520.0</ele><time>2026-04-18T08:48:35.077Z</time></trkpt><trkpt lat="43.5756094" lon="11.8954729"><ele>520.0</ele><time>2026-04-18T08:48:36.076Z</time></trkpt><trkpt lat="43.5755247" lon="11.8954947"><ele>520.0</ele><time>2026-04-18T08:48:37.076Z</time></trkpt><trkpt lat="43.5754339" lon="11.8955379"><ele>520.0</ele><time>2026-04-18T08:48:38.077Z</time></trkpt><trkpt lat="43.5753595" lon="11.8955699"><ele>520.0</ele><time>2026-04-18T08:48:39.076Z</time></trkpt><trkpt lat="43.5752869" lon="11.8956069"><ele>519.2</ele><time>2026-04-18T08:48:40.076Z</time></trkpt><trkpt lat="43.5752054" lon="11.8956376"><ele>518.4</ele><time>2026-04-18T08:48:41.076Z</time></trkpt><trkpt lat="43.5751179" lon="11.8957022"><ele>517.6</ele><time>2026-04-18T08:48:43.077Z</time></trkpt><trkpt lat="43.5750491" lon="11.8955995"><ele>516.8</ele><time>2026-04-18T08:48:45.076Z</time></trkpt><trkpt lat="43.5749739" lon="11.8955185"><ele>516.0</ele><time>2026-04-18T08:48:47.077Z</time></trkpt><trkpt lat="43.574889" lon="11.8955092"><ele>515.9999999999999</ele><time>2026-04-18T08:48:49.076Z</time></trkpt><trkpt lat="43.5748208" lon="11.8954613"><ele>516.0</ele><time>2026-04-18T08:48:51.077Z</time></trkpt><trkpt lat="43.5747464" lon="11.8954488"><ele>516.0</ele><time>2026-04-18T08:48:52.076Z</time></trkpt><trkpt lat="43.5746817" lon="11.8954248"><ele>516.0</ele><time>2026-04-18T08:48:53.076Z</time></trkpt><trkpt lat="43.5746268" lon="11.8954888"><ele>516.0</ele><time>2026-04-18T08:48:54.076Z</time></trkpt><trkpt lat="43.5745614" lon="11.895469"><ele>515.9999999999999</ele><time>2026-04-18T08:48:55.076Z</time></trkpt><trkpt lat="43.5744773" lon="11.8954819"><ele>516.0</ele><time>2026-04-18T08:48:57.077Z</time></trkpt><trkpt lat="43.574381" lon="11.895479"><ele>516.6666666666666</ele><time>2026-04-18T08:48:59.077Z</time></trkpt><trkpt lat="43.5743107" lon="11.8953846"><ele>517.3333333333334</ele><time>2026-04-18T08:49:01.076Z</time></trkpt><trkpt lat="43.5742307" lon="11.8952477"><ele>518.0</ele><time>2026-04-18T08:49:03.077Z</time></trkpt><trkpt lat="43.5741884" lon="11.8951817"><ele>518.6666666666667</ele><time>2026-04-18T08:49:04.076Z</time></trkpt><trkpt lat="43.5741394" lon="11.8951013"><ele>519.3333333333334</ele><time>2026-04-18T08:49:05.076Z</time></trkpt><trkpt lat="43.5740885" lon="11.8950481"><ele>520.0</ele><time>2026-04-18T08:49:06.077Z</time></trkpt><trkpt lat="43.5739821" lon="11.8949841"><ele>519.0</ele><time>2026-04-18T08:49:08.076Z</time></trkpt><trkpt lat="43.5738647" lon="11.8949306"><ele>518.0</ele><time>2026-04-18T08:49:10.077Z</time></trkpt><trkpt lat="43.5737664" lon="11.8948377"><ele>517.0</ele><time>2026-04-18T08:49:11.076Z</time></trkpt><trkpt lat="43.5736885" lon="11.8947304"><ele>516.0</ele><time>2026-04-18T08:49:12.076Z</time></trkpt><trkpt lat="43.5736115" lon="11.8946116"><ele>516.0</ele><time>2026-04-18T08:49:13.076Z</time></trkpt><trkpt lat="43.5735577" lon="11.8945264"><ele>516.0</ele><time>2026-04-18T08:49:14.077Z</time></trkpt><trkpt lat="43.5734978" lon="11.8944659"><ele>516.0</ele><time>2026-04-18T08:49:15.076Z</time></trkpt><trkpt lat="43.5734332" lon="11.8944341"><ele>516.0</ele><time>2026-04-18T08:49:16.076Z</time></trkpt><trkpt lat="43.5733459" lon="11.8944249"><ele>516.0</ele><time>2026-04-18T08:49:17.076Z</time></trkpt><trkpt lat="43.5732815" lon="11.8944218"><ele>516.0</ele><time>2026-04-18T08:49:18.077Z</time></trkpt><trkpt lat="43.5732081" lon="11.894392"><ele>516.0</ele><time>2026-04-18T08:49:19.076Z</time></trkpt><trkpt lat="43.5731485" lon="11.8944264"><ele>516.0</ele><time>2026-04-18T08:49:20.076Z</time></trkpt><trkpt lat="43.5730859" lon="11.8944841"><ele>516.0</ele><time>2026-04-18T08:49:21.077Z</time></trkpt><trkpt lat="43.572991" lon="11.8945615"><ele>516.0</ele><time>2026-04-18T08:49:23.077Z</time></trkpt><trkpt lat="43.5729025" lon="11.8945937"><ele>516.0</ele><time>2026-04-18T08:49:25.076Z</time></trkpt><trkpt lat="43.572837" lon="11.8945891"><ele>516.0</ele><time>2026-04-18T08:49:26.077Z</time></trkpt><trkpt lat="43.5727492" lon="11.8945834"><ele>515.6666666666666</ele><time>2026-04-18T08:49:27.076Z</time></trkpt><trkpt lat="43.5726711" lon="11.8945872"><ele>515.3333333333334</ele><time>2026-04-18T08:49:28.076Z</time></trkpt><trkpt lat="43.572594" lon="11.8946425"><ele>515.0</ele><time>2026-04-18T08:49:29.077Z</time></trkpt><trkpt lat="43.572515" lon="11.8946943"><ele>514.6666666666667</ele><time>2026-04-18T08:49:32.076Z</time></trkpt><trkpt lat="43.5724418" lon="11.8947404"><ele>514.3333333333334</ele><time>2026-04-18T08:49:34.076Z</time></trkpt><trkpt lat="43.5723583" lon="11.8947418"><ele>514.0</ele><time>2026-04-18T08:49:37.076Z</time></trkpt><trkpt lat="43.5722551" lon="11.89466"><ele>514.0</ele><time>2026-04-18T08:49:39.076Z</time></trkpt><trkpt lat="43.572206" lon="11.8945757"><ele>514.0</ele><time>2026-04-18T08:49:40.077Z</time></trkpt><trkpt lat="43.5721852" lon="11.8944301"><ele>514.0</ele><time>2026-04-18T08:49:42.076Z</time></trkpt><trkpt lat="43.5722099" lon="11.8942711"><ele>514.0</ele><time>2026-04-18T08:49:44.077Z</time></trkpt><trkpt lat="43.5721964" lon="11.8940887"><ele>514.0</ele><time>2026-04-18T08:49:46.076Z</time></trkpt><trkpt lat="43.5721715" lon="11.8939655"><ele>510.2</ele><time>2026-04-18T08:49:47.076Z</time></trkpt><trkpt lat="43.5721665" lon="11.8938313"><ele>506.4</ele><time>2026-04-18T08:49:48.076Z</time></trkpt><trkpt lat="43.5721459" lon="11.893717"><ele>502.6</ele><time>2026-04-18T08:49:49.077Z</time></trkpt><trkpt lat="43.5721305" lon="11.8935955"><ele>498.8</ele><time>2026-04-18T08:49:50.076Z</time></trkpt><trkpt lat="43.572127" lon="11.8934734"><ele>495.0</ele><time>2026-04-18T08:49:51.076Z</time></trkpt><trkpt lat="43.5720822" lon="11.8933495"><ele>500.25</ele><time>2026-04-18T08:49:53.076Z</time></trkpt><trkpt lat="43.5720041" lon="11.8932905"><ele>505.5</ele><time>2026-04-18T08:49:55.076Z</time></trkpt><trkpt lat="43.5718816" lon="11.8932488"><ele>510.75</ele><time>2026-04-18T08:49:57.076Z</time></trkpt><trkpt lat="43.5717263" lon="11.8932019"><ele>516.0</ele><time>2026-04-18T08:49:59.077Z</time></trkpt><trkpt lat="43.571656" lon="11.8931594"><ele>516.0</ele><time>2026-04-18T08:50:00.076Z</time></trkpt><trkpt lat="43.5715964" lon="11.8931158"><ele>516.0</ele><time>2026-04-18T08:50:01.077Z</time></trkpt><trkpt lat="43.5715035" lon="11.8930291"><ele>516.0</ele><time>2026-04-18T08:50:03.076Z</time></trkpt><trkpt lat="43.5713706" lon="11.893088"><ele>516.0</ele><time>2026-04-18T08:50:05.076Z</time></trkpt><trkpt lat="43.571266" lon="11.8931409"><ele>516.0</ele><time>2026-04-18T08:50:07.076Z</time></trkpt><trkpt lat="43.5711826" lon="11.893039"><ele>519.0</ele><time>2026-04-18T08:50:09.077Z</time></trkpt><trkpt lat="43.5710662" lon="11.8929057"><ele>522.0</ele><time>2026-04-18T08:50:11.076Z</time></trkpt><trkpt lat="43.571012" lon="11.8928294"><ele>525.0</ele><time>2026-04-18T08:50:12.076Z</time></trkpt><trkpt lat="43.5709852" lon="11.8927299"><ele>528.0</ele><time>2026-04-18T08:50:13.076Z</time></trkpt><trkpt lat="43.5709526" lon="11.8926285"><ele>531.0</ele><time>2026-04-18T08:50:14.076Z</time></trkpt><trkpt lat="43.570927" lon="11.8925436"><ele>531.0</ele><time>2026-04-18T08:50:15.077Z</time></trkpt><trkpt lat="43.5708828" lon="11.8923759"><ele>531.0</ele><time>2026-04-18T08:50:17.076Z</time></trkpt><trkpt lat="43.5708598" lon="11.8922754"><ele>531.0</ele><time>2026-04-18T08:50:18.077Z</time></trkpt><trkpt lat="43.5708321" lon="11.8921469"><ele>531.0</ele><time>2026-04-18T08:50:21.077Z</time></trkpt><trkpt lat="43.5707987" lon="11.8920517"><ele>531.0</ele><time>2026-04-18T08:50:22.076Z</time></trkpt><trkpt lat="43.5707651" lon="11.8919766"><ele>531.0</ele><time>2026-04-18T08:50:23.076Z</time></trkpt><trkpt lat="43.5707305" lon="11.8918978"><ele>529.2</ele><time>2026-04-18T08:50:24.076Z</time></trkpt><trkpt lat="43.5706811" lon="11.8917153"><ele>527.4000000000001</ele><time>2026-04-18T08:50:26.076Z</time></trkpt><trkpt lat="43.5706147" lon="11.8916034"><ele>525.6</ele><time>2026-04-18T08:50:28.077Z</time></trkpt><trkpt lat="43.5705749" lon="11.8915359"><ele>523.8000000000001</ele><time>2026-04-18T08:50:29.077Z</time></trkpt><trkpt lat="43.5705326" lon="11.8914671"><ele>522.0</ele><time>2026-04-18T08:50:30.076Z</time></trkpt><trkpt lat="43.5704402" lon="11.8913944"><ele>525.0</ele><time>2026-04-18T08:50:32.077Z</time></trkpt><trkpt lat="43.5703395" lon="11.8913437"><ele>528.0</ele><time>2026-04-18T08:50:34.076Z</time></trkpt><trkpt lat="43.5702841" lon="11.8912481"><ele>531.0</ele><time>2026-04-18T08:50:35.076Z</time></trkpt><trkpt lat="43.5702095" lon="11.8912159"><ele>534.0</ele><time>2026-04-18T08:50:36.076Z</time></trkpt><trkpt lat="43.5701212" lon="11.8911516"><ele>537.0</ele><time>2026-04-18T08:50:37.076Z</time></trkpt><trkpt lat="43.5700343" lon="11.8911213"><ele>537.0</ele><time>2026-04-18T08:50:38.076Z</time></trkpt><trkpt lat="43.5699586" lon="11.8910869"><ele>537.0</ele><time>2026-04-18T08:50:39.076Z</time></trkpt><trkpt lat="43.569886" lon="11.8910489"><ele>537.0</ele><time>2026-04-18T08:50:40.077Z</time></trkpt><trkpt lat="43.5698183" lon="11.8910028"><ele>537.0</ele><time>2026-04-18T08:50:41.076Z</time></trkpt><trkpt lat="43.5697331" lon="11.8909961"><ele>537.0</ele><time>2026-04-18T08:50:42.077Z</time></trkpt><trkpt lat="43.5696379" lon="11.8909475"><ele>537.0</ele><time>2026-04-18T08:50:43.077Z</time></trkpt><trkpt lat="43.5695387" lon="11.8909831"><ele>538.4</ele><time>2026-04-18T08:50:44.076Z</time></trkpt><trkpt lat="43.5694358" lon="11.8910227"><ele>539.8000000000001</ele><time>2026-04-18T08:50:46.076Z</time></trkpt><trkpt lat="43.5693504" lon="11.8909453"><ele>541.2</ele><time>2026-04-18T08:50:48.076Z</time></trkpt><trkpt lat="43.5692837" lon="11.890851"><ele>542.6</ele><time>2026-04-18T08:50:49.076Z</time></trkpt><trkpt lat="43.5692211" lon="11.890781"><ele>544.0</ele><time>2026-04-18T08:50:50.076Z</time></trkpt><trkpt lat="43.569147" lon="11.8907061"><ele>540.8</ele><time>2026-04-18T08:50:51.076Z</time></trkpt><trkpt lat="43.5690663" lon="11.8906265"><ele>537.5999999999999</ele><time>2026-04-18T08:50:52.076Z</time></trkpt><trkpt lat="43.568949" lon="11.890591"><ele>534.4</ele><time>2026-04-18T08:50:53.076Z</time></trkpt><trkpt lat="43.5688666" lon="11.8905455"><ele>531.1999999999999</ele><time>2026-04-18T08:50:54.077Z</time></trkpt><trkpt lat="43.5688092" lon="11.8904644"><ele>528.0</ele><time>2026-04-18T08:50:55.076Z</time></trkpt><trkpt lat="43.5687664" lon="11.8903717"><ele>528.0</ele><time>2026-04-18T08:50:56.077Z</time></trkpt><trkpt lat="43.5687169" lon="11.8902981"><ele>528.0</ele><time>2026-04-18T08:50:57.076Z</time></trkpt><trkpt lat="43.5686452" lon="11.8902386"><ele>528.0</ele><time>2026-04-18T08:50:58.076Z</time></trkpt><trkpt lat="43.5685531" lon="11.8901524"><ele>528.0</ele><time>2026-04-18T08:50:59.076Z</time></trkpt><trkpt lat="43.5683997" lon="11.8900747"><ele>528.0</ele><time>2026-04-18T08:51:00.076Z</time></trkpt><trkpt lat="43.5682765" lon="11.8899656"><ele>527.8</ele><time>2026-04-18T08:51:01.077Z</time></trkpt><trkpt lat="43.5681606" lon="11.8899035"><ele>527.5999999999999</ele><time>2026-04-18T08:51:02.076Z</time></trkpt><trkpt lat="43.5680294" lon="11.8898502"><ele>527.4000000000001</ele><time>2026-04-18T08:51:03.076Z</time></trkpt><trkpt lat="43.5679773" lon="11.8897963"><ele>527.2</ele><time>2026-04-18T08:51:04.076Z</time></trkpt><trkpt lat="43.567886" lon="11.8897194"><ele>527.0</ele><time>2026-04-18T08:51:05.076Z</time></trkpt><trkpt lat="43.5677896" lon="11.8896455"><ele>527.0</ele><time>2026-04-18T08:51:06.076Z</time></trkpt><trkpt lat="43.5677156" lon="11.8896447"><ele>527.0</ele><time>2026-04-18T08:51:07.076Z</time></trkpt><trkpt lat="43.5676237" lon="11.8896596"><ele>527.0</ele><time>2026-04-18T08:51:08.077Z</time></trkpt><trkpt lat="43.5675177" lon="11.8896369"><ele>527.0</ele><time>2026-04-18T08:51:09.076Z</time></trkpt><trkpt lat="43.5674397" lon="11.8896137"><ele>527.0</ele><time>2026-04-18T08:51:10.076Z</time></trkpt><trkpt lat="43.5673507" lon="11.8895957"><ele>527.0</ele><time>2026-04-18T08:51:11.076Z</time></trkpt><trkpt lat="43.5672798" lon="11.8895612"><ele>527.0</ele><time>2026-04-18T08:51:14.076Z</time></trkpt><trkpt lat="43.5672051" lon="11.8894874"><ele>527.0</ele><time>2026-04-18T08:51:24.076Z</time></trkpt><trkpt lat="43.5671467" lon="11.8894111"><ele>527.0</ele><time>2026-04-18T08:51:26.077Z</time></trkpt><trkpt lat="43.5671093" lon="11.8893412"><ele>527.0</ele><time>2026-04-18T08:51:28.076Z</time></trkpt><trkpt lat="43.5670617" lon="11.889259"><ele>527.0</ele><time>2026-04-18T08:51:32.076Z</time></trkpt><trkpt lat="43.5669953" lon="11.8891772"><ele>527.0</ele><time>2026-04-18T08:51:36.076Z</time></trkpt><trkpt lat="43.5669446" lon="11.8891075"><ele>525.1666666666666</ele><time>2026-04-18T08:51:39.076Z</time></trkpt><trkpt lat="43.5668882" lon="11.889025"><ele>523.3333333333333</ele><time>2026-04-18T08:51:42.076Z</time></trkpt><trkpt lat="43.5668428" lon="11.8889547"><ele>521.5</ele><time>2026-04-18T08:51:44.077Z</time></trkpt><trkpt lat="43.5668013" lon="11.8888856"><ele>519.6666666666666</ele><time>2026-04-18T08:51:48.077Z</time></trkpt><trkpt lat="43.5667278" lon="11.8888022"><ele>517.8333333333334</ele><time>2026-04-18T08:52:48.077Z</time></trkpt><trkpt lat="43.5666327" lon="11.8886974"><ele>516.0</ele><time>2026-04-18T08:52:50.077Z</time></trkpt><trkpt lat="43.5665575" lon="11.8886155"><ele>516.0</ele><time>2026-04-18T08:52:51.077Z</time></trkpt><trkpt lat="43.5664976" lon="11.8885531"><ele>516.0</ele><time>2026-04-18T08:52:52.076Z</time></trkpt><trkpt lat="43.5664378" lon="11.8885027"><ele>516.0</ele><time>2026-04-18T08:52:53.077Z</time></trkpt><trkpt lat="43.5663852" lon="11.8884442"><ele>516.0</ele><time>2026-04-18T08:52:54.076Z</time></trkpt><trkpt lat="43.5663301" lon="11.8883113"><ele>516.0</ele><time>2026-04-18T08:52:56.076Z</time></trkpt><trkpt lat="43.5663181" lon="11.8882193"><ele>516.0</ele><time>2026-04-18T08:52:57.076Z</time></trkpt><trkpt lat="43.5662631" lon="11.8880678"><ele>516.1666666666666</ele><time>2026-04-18T08:52:59.077Z</time></trkpt><trkpt lat="43.5662225" lon="11.8879864"><ele>516.3333333333334</ele><time>2026-04-18T08:53:00.077Z</time></trkpt><trkpt lat="43.5661852" lon="11.8879064"><ele>516.5</ele><time>2026-04-18T08:53:01.077Z</time></trkpt><trkpt lat="43.5661578" lon="11.8878045"><ele>516.6666666666667</ele><time>2026-04-18T08:53:02.076Z</time></trkpt><trkpt lat="43.5661432" lon="11.8877007"><ele>516.8333333333334</ele><time>2026-04-18T08:53:03.077Z</time></trkpt><trkpt lat="43.5661204" lon="11.8875937"><ele>517.0</ele><time>2026-04-18T08:53:04.076Z</time></trkpt><trkpt lat="43.5660849" lon="11.8874806"><ele>517.0</ele><time>2026-04-18T08:53:05.077Z</time></trkpt><trkpt lat="43.5660517" lon="11.8873614"><ele>517.0</ele><time>2026-04-18T08:53:06.077Z</time></trkpt><trkpt lat="43.5660337" lon="11.8872728"><ele>517.0</ele><time>2026-04-18T08:53:07.076Z</time></trkpt><trkpt lat="43.5660189" lon="11.8871416"><ele>517.0</ele><time>2026-04-18T08:53:08.077Z</time></trkpt><trkpt lat="43.5660098" lon="11.887"><ele>517.0</ele><time>2026-04-18T08:53:09.076Z</time></trkpt><trkpt lat="43.5660063" lon="11.8868696"><ele>517.5</ele><time>2026-04-18T08:53:10.077Z</time></trkpt><trkpt lat="43.5660004" lon="11.886736"><ele>518.0</ele><time>2026-04-18T08:53:11.077Z</time></trkpt><trkpt lat="43.56601" lon="11.8866145"><ele>518.5</ele><time>2026-04-18T08:53:12.077Z</time></trkpt><trkpt lat="43.5660118" lon="11.8864821"><ele>519.0</ele><time>2026-04-18T08:53:13.076Z</time></trkpt><trkpt lat="43.5660244" lon="11.8863807"><ele>519.5</ele><time>2026-04-18T08:53:14.077Z</time></trkpt><trkpt lat="43.5660306" lon="11.8862583"><ele>520.0</ele><time>2026-04-18T08:53:15.077Z</time></trkpt><trkpt lat="43.5660265" lon="11.8861491"><ele>520.0</ele><time>2026-04-18T08:53:16.077Z</time></trkpt><trkpt lat="43.5660202" lon="11.8860519"><ele>520.0</ele><time>2026-04-18T08:53:17.077Z</time></trkpt><trkpt lat="43.5659879" lon="11.8858803"><ele>520.0</ele><time>2026-04-18T08:53:19.076Z</time></trkpt><trkpt lat="43.5659459" lon="11.8858097"><ele>520.0</ele><time>2026-04-18T08:53:20.076Z</time></trkpt><trkpt lat="43.5658814" lon="11.8857448"><ele>520.0</ele><time>2026-04-18T08:53:21.076Z</time></trkpt><trkpt lat="43.5657964" lon="11.885668"><ele>520.0</ele><time>2026-04-18T08:53:22.077Z</time></trkpt><trkpt lat="43.5657099" lon="11.8856035"><ele>519.0</ele><time>2026-04-18T08:53:23.076Z</time></trkpt><trkpt lat="43.5656134" lon="11.8855296"><ele>518.0</ele><time>2026-04-18T08:53:24.076Z</time></trkpt><trkpt lat="43.5655372" lon="11.8854717"><ele>517.0</ele><time>2026-04-18T08:53:25.076Z</time></trkpt><trkpt lat="43.5654733" lon="11.8854171"><ele>516.0</ele><time>2026-04-18T08:53:26.076Z</time></trkpt><trkpt lat="43.5653987" lon="11.8853374"><ele>515.0</ele><time>2026-04-18T08:53:27.076Z</time></trkpt><trkpt lat="43.5653394" lon="11.8852356"><ele>513.6</ele><time>2026-04-18T08:53:28.076Z</time></trkpt><trkpt lat="43.565268" lon="11.8851187"><ele>512.2</ele><time>2026-04-18T08:53:29.077Z</time></trkpt><trkpt lat="43.5652169" lon="11.8850013"><ele>510.79999999999995</ele><time>2026-04-18T08:53:30.076Z</time></trkpt><trkpt lat="43.5651554" lon="11.8848972"><ele>509.4</ele><time>2026-04-18T08:53:31.077Z</time></trkpt><trkpt lat="43.5650887" lon="11.8847815"><ele>508.0</ele><time>2026-04-18T08:53:32.077Z</time></trkpt><trkpt lat="43.5650249" lon="11.8846648"><ele>505.79999999999995</ele><time>2026-04-18T08:53:33.077Z</time></trkpt><trkpt lat="43.5649773" lon="11.8845791"><ele>503.59999999999997</ele><time>2026-04-18T08:53:34.077Z</time></trkpt><trkpt lat="43.5649293" lon="11.8844913"><ele>501.40000000000003</ele><time>2026-04-18T08:53:35.076Z</time></trkpt><trkpt lat="43.5648718" lon="11.8843727"><ele>499.20000000000005</ele><time>2026-04-18T08:53:37.077Z</time></trkpt><trkpt lat="43.5648156" lon="11.8842861"><ele>497.0</ele><time>2026-04-18T08:53:40.076Z</time></trkpt><trkpt lat="43.5646943" lon="11.8841652"><ele>495.0</ele><time>2026-04-18T08:53:42.076Z</time></trkpt><trkpt lat="43.5645963" lon="11.8840605"><ele>493.0</ele><time>2026-04-18T08:53:43.077Z</time></trkpt><trkpt lat="43.5644971" lon="11.8839494"><ele>491.0</ele><time>2026-04-18T08:53:44.077Z</time></trkpt><trkpt lat="43.5643926" lon="11.8838222"><ele>489.0</ele><time>2026-04-18T08:53:45.076Z</time></trkpt><trkpt lat="43.5643093" lon="11.8837127"><ele>489.0</ele><time>2026-04-18T08:53:46.076Z</time></trkpt><trkpt lat="43.5642067" lon="11.8836152"><ele>489.0</ele><time>2026-04-18T08:53:47.077Z</time></trkpt><trkpt lat="43.5640948" lon="11.8835215"><ele>489.0</ele><time>2026-04-18T08:53:48.076Z</time></trkpt><trkpt lat="43.5639908" lon="11.8834486"><ele>489.0</ele><time>2026-04-18T08:53:49.077Z</time></trkpt><trkpt lat="43.5638916" lon="11.8833932"><ele>489.0</ele><time>2026-04-18T08:53:50.077Z</time></trkpt><trkpt lat="43.5637778" lon="11.8833477"><ele>489.0</ele><time>2026-04-18T08:53:51.077Z</time></trkpt><trkpt lat="43.5636637" lon="11.8833055"><ele>489.0</ele><time>2026-04-18T08:53:52.077Z</time></trkpt><trkpt lat="43.5635169" lon="11.8833038"><ele>489.0</ele><time>2026-04-18T08:53:53.076Z</time></trkpt><trkpt lat="43.5633795" lon="11.8832793"><ele>488.6</ele><time>2026-04-18T08:53:54.076Z</time></trkpt><trkpt lat="43.5632781" lon="11.8832661"><ele>488.2</ele><time>2026-04-18T08:53:55.077Z</time></trkpt><trkpt lat="43.5631827" lon="11.8832385"><ele>487.80000000000007</ele><time>2026-04-18T08:53:56.076Z</time></trkpt><trkpt lat="43.5630847" lon="11.8832034"><ele>487.40000000000003</ele><time>2026-04-18T08:53:57.077Z</time></trkpt><trkpt lat="43.5629837" lon="11.8831144"><ele>487.0</ele><time>2026-04-18T08:53:58.077Z</time></trkpt><trkpt lat="43.5628428" lon="11.8829938"><ele>486.33333333333337</ele><time>2026-04-18T08:53:59.077Z</time></trkpt><trkpt lat="43.5626954" lon="11.8828924"><ele>485.66666666666663</ele><time>2026-04-18T08:54:00.077Z</time></trkpt><trkpt lat="43.5625109" lon="11.8827642"><ele>485.0</ele><time>2026-04-18T08:54:01.076Z</time></trkpt><trkpt lat="43.5623635" lon="11.8826776"><ele>485.0</ele><time>2026-04-18T08:54:02.076Z</time></trkpt><trkpt lat="43.5622171" lon="11.8825991"><ele>485.0</ele><time>2026-04-18T08:54:03.077Z</time></trkpt><trkpt lat="43.5620865" lon="11.8825197"><ele>485.0</ele><time>2026-04-18T08:54:04.076Z</time></trkpt><trkpt lat="43.561962" lon="11.8824599"><ele>485.0</ele><time>2026-04-18T08:54:05.076Z</time></trkpt><trkpt lat="43.5618328" lon="11.8824099"><ele>484.25</ele><time>2026-04-18T08:54:06.077Z</time></trkpt><trkpt lat="43.5617065" lon="11.882361"><ele>483.5</ele><time>2026-04-18T08:54:07.077Z</time></trkpt><trkpt lat="43.5615824" lon="11.8823141"><ele>482.75</ele><time>2026-04-18T08:54:08.077Z</time></trkpt><trkpt lat="43.5614606" lon="11.8822406"><ele>482.0</ele><time>2026-04-18T08:54:09.076Z</time></trkpt><trkpt lat="43.561325" lon="11.8821609"><ele>479.66666666666663</ele><time>2026-04-18T08:54:10.076Z</time></trkpt><trkpt lat="43.5611793" lon="11.8820015"><ele>477.33333333333337</ele><time>2026-04-18T08:54:11.076Z</time></trkpt><trkpt lat="43.5610483" lon="11.8818971"><ele>475.0</ele><time>2026-04-18T08:54:12.076Z</time></trkpt><trkpt lat="43.560942" lon="11.8817878"><ele>478.25</ele><time>2026-04-18T08:54:13.077Z</time></trkpt><trkpt lat="43.5608352" lon="11.8816844"><ele>481.5</ele><time>2026-04-18T08:54:14.077Z</time></trkpt><trkpt lat="43.5607301" lon="11.881595"><ele>484.75</ele><time>2026-04-18T08:54:15.076Z</time></trkpt><trkpt lat="43.5606552" lon="11.8814954"><ele>488.0</ele><time>2026-04-18T08:54:16.076Z</time></trkpt><trkpt lat="43.5605824" lon="11.8813808"><ele>488.0</ele><time>2026-04-18T08:54:17.077Z</time></trkpt><trkpt lat="43.5605592" lon="11.8812845"><ele>488.0</ele><time>2026-04-18T08:54:18.077Z</time></trkpt><trkpt lat="43.5605427" lon="11.8811333"><ele>488.0</ele><time>2026-04-18T08:54:19.076Z</time></trkpt><trkpt lat="43.5604889" lon="11.880926"><ele>488.0</ele><time>2026-04-18T08:54:20.076Z</time></trkpt><trkpt lat="43.5604443" lon="11.8807594"><ele>488.59999999999997</ele><time>2026-04-18T08:54:21.076Z</time></trkpt><trkpt lat="43.5604249" lon="11.8806087"><ele>489.19999999999993</ele><time>2026-04-18T08:54:22.077Z</time></trkpt><trkpt lat="43.5603799" lon="11.880485"><ele>489.8</ele><time>2026-04-18T08:54:23.076Z</time></trkpt><trkpt lat="43.5603436" lon="11.8803715"><ele>490.4</ele><time>2026-04-18T08:54:24.077Z</time></trkpt><trkpt lat="43.5603062" lon="11.8802594"><ele>491.0</ele><time>2026-04-18T08:54:25.076Z</time></trkpt><trkpt lat="43.5602098" lon="11.8801422"><ele>491.6</ele><time>2026-04-18T08:54:27.076Z</time></trkpt><trkpt lat="43.560123" lon="11.8800853"><ele>492.20000000000005</ele><time>2026-04-18T08:54:28.077Z</time></trkpt><trkpt lat="43.5600218" lon="11.880002"><ele>492.79999999999995</ele><time>2026-04-18T08:54:29.076Z</time></trkpt><trkpt lat="43.5599168" lon="11.8799363"><ele>493.4</ele><time>2026-04-18T08:54:30.076Z</time></trkpt><trkpt lat="43.5598234" lon="11.8798616"><ele>494.0</ele><time>2026-04-18T08:54:31.077Z</time></trkpt><trkpt lat="43.5597429" lon="11.8797948"><ele>494.0</ele><time>2026-04-18T08:54:32.077Z</time></trkpt><trkpt lat="43.559656" lon="11.8797601"><ele>494.0</ele><time>2026-04-18T08:54:33.076Z</time></trkpt><trkpt lat="43.5595822" lon="11.8796863"><ele>494.0</ele><time>2026-04-18T08:54:34.076Z</time></trkpt><trkpt lat="43.5594812" lon="11.8795988"><ele>494.0</ele><time>2026-04-18T08:54:35.077Z</time></trkpt><trkpt lat="43.5593955" lon="11.8795135"><ele>494.0</ele><time>2026-04-18T08:54:36.077Z</time></trkpt><trkpt lat="43.5593146" lon="11.8794162"><ele>494.2</ele><time>2026-04-18T08:54:37.077Z</time></trkpt><trkpt lat="43.5592349" lon="11.8792976"><ele>494.4</ele><time>2026-04-18T08:54:39.076Z</time></trkpt><trkpt lat="43.5592006" lon="11.8792195"><ele>494.6</ele><time>2026-04-18T08:54:41.077Z</time></trkpt><trkpt lat="43.5592774" lon="11.8791794"><ele>494.8</ele><time>2026-04-18T08:55:13.076Z</time></trkpt><trkpt lat="43.5593392" lon="11.8790644"><ele>495.0</ele><time>2026-04-18T08:55:15.076Z</time></trkpt><trkpt lat="43.5593915" lon="11.8789743"><ele>495.0</ele><time>2026-04-18T08:55:17.077Z</time></trkpt><trkpt lat="43.5593914" lon="11.8788466"><ele>495.0</ele><time>2026-04-18T08:55:41.076Z</time></trkpt></trkseg></trk></gpx>